<?xml version='1.0' encoding='UTF-8'?><gpx version="1.1" creator="JPX - https://github.com/jenetics/jpx" xmlns="http://www.topografix.com/GPX/1/1"><trk><trkseg><trkpt lat="48.45054" lon="-4.22863"><ele>103.00000000000001</ele><time>2026-04-28T07:53:01.677Z</time></trkpt><trkpt lat="48.4504583" lon="-4.2286917"><ele>103.0</ele><time>2026-04-28T07:53:04.677Z</time></trkpt><trkpt lat="48.4503833" lon="-4.22875"><ele>103.0</ele><time>2026-04-28T07:53:07.678Z</time></trkpt><trkpt lat="48.4503017" lon="-4.2288167"><ele>103.0</ele><time>2026-04-28T07:53:10.677Z</time></trkpt><trkpt lat="48.4502467" lon="-4.228895"><ele>103.00000000000001</ele><time>2026-04-28T07:53:13.678Z</time></trkpt><trkpt lat="48.4502583" lon="-4.2290083"><ele>103.0</ele><time>2026-04-28T07:53:16.679Z</time></trkpt><trkpt lat="48.4503017" lon="-4.2291317"><ele>102.28571428571428</ele><time>2026-04-28T07:53:19.677Z</time></trkpt><trkpt lat="48.4502983" lon="-4.2292483"><ele>101.57142857142857</ele><time>2026-04-28T07:53:21.677Z</time></trkpt><trkpt lat="48.4502683" lon="-4.2293517"><ele>100.85714285714286</ele><time>2026-04-28T07:53:23.674Z</time></trkpt><trkpt lat="48.4502383" lon="-4.229455"><ele>100.14285714285714</ele><time>2026-04-28T07:53:25.678Z</time></trkpt><trkpt lat="48.450215" lon="-4.2295517"><ele>99.42857142857143</ele><time>2026-04-28T07:53:27.675Z</time></trkpt><trkpt lat="48.4502583" lon="-4.2296533"><ele>98.71428571428571</ele><time>2026-04-28T07:53:30.679Z</time></trkpt><trkpt lat="48.4503217" lon="-4.2297017"><ele>98.0</ele><time>2026-04-28T07:53:32.68Z</time></trkpt><trkpt lat="48.4503833" lon="-4.229745"><ele>97.99999999999999</ele><time>2026-04-28T07:53:34.678Z</time></trkpt><trkpt lat="48.4504617" lon="-4.2297983"><ele>98.0</ele><time>2026-04-28T07:53:37.679Z</time></trkpt><trkpt lat="48.4505367" lon="-4.22986"><ele>98.0</ele><time>2026-04-28T07:53:40.673Z</time></trkpt><trkpt lat="48.4506233" lon="-4.2299133"><ele>98.0</ele><time>2026-04-28T07:53:43.678Z</time></trkpt><trkpt lat="48.4506817" lon="-4.2299533"><ele>97.99999999999999</ele><time>2026-04-28T07:53:45.678Z</time></trkpt><trkpt lat="48.4507683" lon="-4.23"><ele>98.0</ele><time>2026-04-28T07:53:48.68Z</time></trkpt><trkpt lat="48.4508483" lon="-4.2300467"><ele>97.16666666666666</ele><time>2026-04-28T07:53:51.679Z</time></trkpt><trkpt lat="48.450925" lon="-4.2300983"><ele>96.33333333333333</ele><time>2026-04-28T07:53:54.675Z</time></trkpt><trkpt lat="48.4509967" lon="-4.2301467"><ele>95.5</ele><time>2026-04-28T07:53:58.674Z</time></trkpt><trkpt lat="48.451065" lon="-4.2301267"><ele>94.66666666666666</ele><time>2026-04-28T07:54:01.678Z</time></trkpt><trkpt lat="48.4509917" lon="-4.2301467"><ele>93.83333333333333</ele><time>2026-04-28T07:54:10.673Z</time></trkpt><trkpt lat="48.4509467" lon="-4.2302517"><ele>93.0</ele><time>2026-04-28T07:54:13.672Z</time></trkpt><trkpt lat="48.4509083" lon="-4.23034"><ele>93.0</ele><time>2026-04-28T07:54:15.675Z</time></trkpt><trkpt lat="48.45087" lon="-4.2304167"><ele>93.0</ele><time>2026-04-28T07:54:17.677Z</time></trkpt><trkpt lat="48.450835" lon="-4.2304967"><ele>93.0</ele><time>2026-04-28T07:54:19.677Z</time></trkpt><trkpt lat="48.4507817" lon="-4.230585"><ele>93.0</ele><time>2026-04-28T07:54:22.674Z</time></trkpt><trkpt lat="48.45073" lon="-4.2306983"><ele>93.0</ele><time>2026-04-28T07:54:25.675Z</time></trkpt><trkpt lat="48.4506833" lon="-4.2308133"><ele>93.0</ele><time>2026-04-28T07:54:28.679Z</time></trkpt><trkpt lat="48.4506283" lon="-4.230915"><ele>91.83333333333333</ele><time>2026-04-28T07:54:31.677Z</time></trkpt><trkpt lat="48.450555" lon="-4.2309883"><ele>90.66666666666667</ele><time>2026-04-28T07:54:34.677Z</time></trkpt><trkpt lat="48.4504767" lon="-4.23106"><ele>89.5</ele><time>2026-04-28T07:54:37.681Z</time></trkpt><trkpt lat="48.450415" lon="-4.2311367"><ele>88.33333333333334</ele><time>2026-04-28T07:54:40.671Z</time></trkpt><trkpt lat="48.4503817" lon="-4.23124"><ele>87.16666666666667</ele><time>2026-04-28T07:54:44.676Z</time></trkpt><trkpt lat="48.45038" lon="-4.2313433"><ele>86.0</ele><time>2026-04-28T07:54:47.672Z</time></trkpt><trkpt lat="48.4503767" lon="-4.2314533"><ele>84.0</ele><time>2026-04-28T07:54:49.676Z</time></trkpt><trkpt lat="48.4503917" lon="-4.23157"><ele>82.0</ele><time>2026-04-28T07:54:52.677Z</time></trkpt><trkpt lat="48.45042" lon="-4.231675"><ele>80.0</ele><time>2026-04-28T07:54:56.678Z</time></trkpt><trkpt lat="48.4504367" lon="-4.2317667"><ele>78.0</ele><time>2026-04-28T07:55:03.675Z</time></trkpt><trkpt lat="48.4504483" lon="-4.2318883"><ele>76.0</ele><time>2026-04-28T07:55:10.676Z</time></trkpt><trkpt lat="48.450375" lon="-4.2319567"><ele>74.0</ele><time>2026-04-28T07:55:13.674Z</time></trkpt><trkpt lat="48.450305" lon="-4.2320083"><ele>74.0</ele><time>2026-04-28T07:55:15.679Z</time></trkpt><trkpt lat="48.45023" lon="-4.2320383"><ele>74.0</ele><time>2026-04-28T07:55:17.674Z</time></trkpt><trkpt lat="48.4501317" lon="-4.2320567"><ele>74.0</ele><time>2026-04-28T07:55:20.674Z</time></trkpt><trkpt lat="48.4500467" lon="-4.2320517"><ele>74.0</ele><time>2026-04-28T07:55:22.679Z</time></trkpt><trkpt lat="48.4499533" lon="-4.2320517"><ele>74.0</ele><time>2026-04-28T07:55:24.674Z</time></trkpt><trkpt lat="48.44984" lon="-4.2320617"><ele>74.0</ele><time>2026-04-28T07:55:26.674Z</time></trkpt><trkpt lat="48.4497267" lon="-4.2320817"><ele>74.0</ele><time>2026-04-28T07:55:28.677Z</time></trkpt><trkpt lat="48.4496583" lon="-4.2321033"><ele>74.0</ele><time>2026-04-28T07:55:29.678Z</time></trkpt><trkpt lat="48.4495817" lon="-4.232115"><ele>74.0</ele><time>2026-04-28T07:55:30.677Z</time></trkpt><trkpt lat="48.449505" lon="-4.2321133"><ele>74.0</ele><time>2026-04-28T07:55:31.682Z</time></trkpt><trkpt lat="48.4494417" lon="-4.2321067"><ele>74.0</ele><time>2026-04-28T07:55:32.678Z</time></trkpt><trkpt lat="48.44932" lon="-4.2321"><ele>75.0</ele><time>2026-04-28T07:55:34.675Z</time></trkpt><trkpt lat="48.44925" lon="-4.2320717"><ele>76.0</ele><time>2026-04-28T07:55:35.675Z</time></trkpt><trkpt lat="48.449185" lon="-4.2320533"><ele>77.0</ele><time>2026-04-28T07:55:36.678Z</time></trkpt><trkpt lat="48.4491217" lon="-4.23203"><ele>78.0</ele><time>2026-04-28T07:55:37.679Z</time></trkpt><trkpt lat="48.4490567" lon="-4.2320033"><ele>79.0</ele><time>2026-04-28T07:55:38.679Z</time></trkpt><trkpt lat="48.4489767" lon="-4.2319933"><ele>80.0</ele><time>2026-04-28T07:55:39.68Z</time></trkpt><trkpt lat="48.44887" lon="-4.2319517"><ele>80.0</ele><time>2026-04-28T07:55:40.677Z</time></trkpt><trkpt lat="48.4487983" lon="-4.2318867"><ele>80.0</ele><time>2026-04-28T07:55:41.676Z</time></trkpt><trkpt lat="48.4487083" lon="-4.2318383"><ele>80.0</ele><time>2026-04-28T07:55:42.68Z</time></trkpt><trkpt lat="48.4486283" lon="-4.2317867"><ele>80.0</ele><time>2026-04-28T07:55:43.675Z</time></trkpt><trkpt lat="48.448565" lon="-4.23176"><ele>80.0</ele><time>2026-04-28T07:55:44.678Z</time></trkpt><trkpt lat="48.448495" lon="-4.2317717"><ele>80.0</ele><time>2026-04-28T07:55:45.682Z</time></trkpt><trkpt lat="48.4484283" lon="-4.2317817"><ele>80.66666666666667</ele><time>2026-04-28T07:55:46.675Z</time></trkpt><trkpt lat="48.4483517" lon="-4.2317967"><ele>81.33333333333334</ele><time>2026-04-28T07:55:47.677Z</time></trkpt><trkpt lat="48.4482683" lon="-4.2318033"><ele>82.0</ele><time>2026-04-28T07:55:48.676Z</time></trkpt><trkpt lat="48.4481933" lon="-4.231825"><ele>82.66666666666667</ele><time>2026-04-28T07:55:49.677Z</time></trkpt><trkpt lat="48.448115" lon="-4.23185"><ele>83.33333333333333</ele><time>2026-04-28T07:55:50.68Z</time></trkpt><trkpt lat="48.4480433" lon="-4.2318617"><ele>84.0</ele><time>2026-04-28T07:55:51.678Z</time></trkpt><trkpt lat="48.44793" lon="-4.2318783"><ele>85.0</ele><time>2026-04-28T07:55:53.68Z</time></trkpt><trkpt lat="48.4478633" lon="-4.2318633"><ele>86.0</ele><time>2026-04-28T07:55:54.676Z</time></trkpt><trkpt lat="48.4477783" lon="-4.2318283"><ele>87.0</ele><time>2026-04-28T07:55:55.676Z</time></trkpt><trkpt lat="48.4477083" lon="-4.2317883"><ele>88.0</ele><time>2026-04-28T07:55:56.675Z</time></trkpt><trkpt lat="48.44765" lon="-4.231745"><ele>89.0</ele><time>2026-04-28T07:55:57.674Z</time></trkpt><trkpt lat="48.4475483" lon="-4.23167"><ele>90.0</ele><time>2026-04-28T07:55:59.673Z</time></trkpt><trkpt lat="48.447435" lon="-4.2316167"><ele>90.0</ele><time>2026-04-28T07:56:01.68Z</time></trkpt><trkpt lat="48.4473733" lon="-4.231585"><ele>90.0</ele><time>2026-04-28T07:56:02.682Z</time></trkpt><trkpt lat="48.4473117" lon="-4.2315517"><ele>90.0</ele><time>2026-04-28T07:56:03.681Z</time></trkpt><trkpt lat="48.4472467" lon="-4.231515"><ele>90.0</ele><time>2026-04-28T07:56:04.68Z</time></trkpt><trkpt lat="48.4471833" lon="-4.2314767"><ele>90.0</ele><time>2026-04-28T07:56:05.682Z</time></trkpt><trkpt lat="48.4471183" lon="-4.231445"><ele>90.0</ele><time>2026-04-28T07:56:06.682Z</time></trkpt><trkpt lat="48.4470467" lon="-4.2314217"><ele>90.0</ele><time>2026-04-28T07:56:07.677Z</time></trkpt><trkpt lat="48.446985" lon="-4.2313983"><ele>92.6</ele><time>2026-04-28T07:56:08.678Z</time></trkpt><trkpt lat="48.446875" lon="-4.23136"><ele>95.2</ele><time>2026-04-28T07:56:10.676Z</time></trkpt><trkpt lat="48.4468117" lon="-4.2313367"><ele>97.80000000000001</ele><time>2026-04-28T07:56:11.675Z</time></trkpt><trkpt lat="48.446715" lon="-4.2312933"><ele>100.4</ele><time>2026-04-28T07:56:13.677Z</time></trkpt><trkpt lat="48.446635" lon="-4.2312767"><ele>103.0</ele><time>2026-04-28T07:56:15.675Z</time></trkpt><trkpt lat="48.44655" lon="-4.2313283"><ele>103.00000000000001</ele><time>2026-04-28T07:56:17.673Z</time></trkpt><trkpt lat="48.4464767" lon="-4.2314067"><ele>103.0</ele><time>2026-04-28T07:56:19.679Z</time></trkpt><trkpt lat="48.4464033" lon="-4.2314533"><ele>103.0</ele><time>2026-04-28T07:56:22.681Z</time></trkpt><trkpt lat="48.44634" lon="-4.2315067"><ele>103.0</ele><time>2026-04-28T07:56:25.677Z</time></trkpt><trkpt lat="48.4463233" lon="-4.2316633"><ele>103.00000000000001</ele><time>2026-04-28T07:56:27.675Z</time></trkpt><trkpt lat="48.44632" lon="-4.231775"><ele>103.0</ele><time>2026-04-28T07:56:28.673Z</time></trkpt><trkpt lat="48.446315" lon="-4.231895"><ele>103.00000000000001</ele><time>2026-04-28T07:56:29.674Z</time></trkpt><trkpt lat="48.4463033" lon="-4.2320267"><ele>103.0</ele><time>2026-04-28T07:56:30.675Z</time></trkpt><trkpt lat="48.446285" lon="-4.2321567"><ele>103.0</ele><time>2026-04-28T07:56:31.676Z</time></trkpt><trkpt lat="48.4462633" lon="-4.2322783"><ele>103.0</ele><time>2026-04-28T07:56:32.677Z</time></trkpt><trkpt lat="48.44624" lon="-4.232395"><ele>103.00000000000001</ele><time>2026-04-28T07:56:33.679Z</time></trkpt><trkpt lat="48.446225" lon="-4.232505"><ele>103.0</ele><time>2026-04-28T07:56:34.674Z</time></trkpt><trkpt lat="48.44621" lon="-4.2326133"><ele>102.99999999999999</ele><time>2026-04-28T07:56:35.681Z</time></trkpt><trkpt lat="48.446195" lon="-4.2327217"><ele>103.0</ele><time>2026-04-28T07:56:36.676Z</time></trkpt><trkpt lat="48.4461767" lon="-4.2328267"><ele>103.0</ele><time>2026-04-28T07:56:37.677Z</time></trkpt><trkpt lat="48.4461583" lon="-4.2329317"><ele>103.0</ele><time>2026-04-28T07:56:38.682Z</time></trkpt><trkpt lat="48.4461383" lon="-4.2330367"><ele>103.0</ele><time>2026-04-28T07:56:39.677Z</time></trkpt><trkpt lat="48.44612" lon="-4.2331483"><ele>102.99999999999999</ele><time>2026-04-28T07:56:40.676Z</time></trkpt><trkpt lat="48.4461" lon="-4.2332533"><ele>103.0</ele><time>2026-04-28T07:56:41.676Z</time></trkpt><trkpt lat="48.4460817" lon="-4.2333583"><ele>102.00000000000001</ele><time>2026-04-28T07:56:42.676Z</time></trkpt><trkpt lat="48.4460667" lon="-4.23346"><ele>101.0</ele><time>2026-04-28T07:56:43.676Z</time></trkpt><trkpt lat="48.446055" lon="-4.233555"><ele>100.0</ele><time>2026-04-28T07:56:44.682Z</time></trkpt><trkpt lat="48.4460467" lon="-4.23365"><ele>99.0</ele><time>2026-04-28T07:56:45.675Z</time></trkpt><trkpt lat="48.446045" lon="-4.233825"><ele>98.00000000000001</ele><time>2026-04-28T07:56:47.68Z</time></trkpt><trkpt lat="48.446065" lon="-4.2339983"><ele>97.0</ele><time>2026-04-28T07:56:49.677Z</time></trkpt><trkpt lat="48.446085" lon="-4.2341233"><ele>96.50000000000001</ele><time>2026-04-28T07:56:51.678Z</time></trkpt><trkpt lat="48.4460833" lon="-4.234245"><ele>96.0</ele><time>2026-04-28T07:56:54.679Z</time></trkpt><trkpt lat="48.446005" lon="-4.23426"><ele>95.5</ele><time>2026-04-28T07:56:57.678Z</time></trkpt><trkpt lat="48.4459217" lon="-4.23425"><ele>95.0</ele><time>2026-04-28T07:56:59.673Z</time></trkpt><trkpt lat="48.4458333" lon="-4.2342333"><ele>94.5</ele><time>2026-04-28T07:57:01.674Z</time></trkpt><trkpt lat="48.4457433" lon="-4.23424"><ele>94.0</ele><time>2026-04-28T07:57:03.671Z</time></trkpt><trkpt lat="48.4456583" lon="-4.2343"><ele>94.0</ele><time>2026-04-28T07:57:05.682Z</time></trkpt><trkpt lat="48.445565" lon="-4.2343617"><ele>94.0</ele><time>2026-04-28T07:57:07.679Z</time></trkpt><trkpt lat="48.4454633" lon="-4.234435"><ele>94.0</ele><time>2026-04-28T07:57:09.681Z</time></trkpt><trkpt lat="48.4453467" lon="-4.2344933"><ele>94.0</ele><time>2026-04-28T07:57:11.674Z</time></trkpt><trkpt lat="48.4452317" lon="-4.2345433"><ele>95.80000000000001</ele><time>2026-04-28T07:57:13.677Z</time></trkpt><trkpt lat="48.445125" lon="-4.2346117"><ele>97.60000000000001</ele><time>2026-04-28T07:57:15.676Z</time></trkpt><trkpt lat="48.4450333" lon="-4.2347267"><ele>99.4</ele><time>2026-04-28T07:57:17.683Z</time></trkpt><trkpt lat="48.4449917" lon="-4.2348"><ele>101.2</ele><time>2026-04-28T07:57:18.681Z</time></trkpt><trkpt lat="48.4449517" lon="-4.234875"><ele>103.0</ele><time>2026-04-28T07:57:19.674Z</time></trkpt><trkpt lat="48.4448883" lon="-4.23502"><ele>103.0</ele><time>2026-04-28T07:57:21.676Z</time></trkpt><trkpt lat="48.4448333" lon="-4.2351517"><ele>103.0</ele><time>2026-04-28T07:57:23.685Z</time></trkpt><trkpt lat="48.4447583" lon="-4.235245"><ele>103.0</ele><time>2026-04-28T07:57:25.678Z</time></trkpt><trkpt lat="48.44467" lon="-4.2352417"><ele>103.0</ele><time>2026-04-28T07:57:27.676Z</time></trkpt><trkpt lat="48.44457" lon="-4.2352167"><ele>103.0</ele><time>2026-04-28T07:57:29.673Z</time></trkpt><trkpt lat="48.4445083" lon="-4.2351783"><ele>105.2</ele><time>2026-04-28T07:57:30.678Z</time></trkpt><trkpt lat="48.4443783" lon="-4.2351333"><ele>107.4</ele><time>2026-04-28T07:57:32.674Z</time></trkpt><trkpt lat="48.4443083" lon="-4.2351117"><ele>109.60000000000001</ele><time>2026-04-28T07:57:33.676Z</time></trkpt><trkpt lat="48.444235" lon="-4.2350717"><ele>111.80000000000001</ele><time>2026-04-28T07:57:34.673Z</time></trkpt><trkpt lat="48.44417" lon="-4.23504"><ele>114.0</ele><time>2026-04-28T07:57:35.674Z</time></trkpt><trkpt lat="48.444075" lon="-4.2349917"><ele>114.0</ele><time>2026-04-28T07:57:37.679Z</time></trkpt><trkpt lat="48.4440067" lon="-4.2349967"><ele>114.0</ele><time>2026-04-28T07:57:39.677Z</time></trkpt><trkpt lat="48.4439583" lon="-4.2351067"><ele>114.0</ele><time>2026-04-28T07:57:42.677Z</time></trkpt><trkpt lat="48.4439683" lon="-4.2352733"><ele>114.0</ele><time>2026-04-28T07:57:44.677Z</time></trkpt><trkpt lat="48.44399" lon="-4.2354483"><ele>114.0</ele><time>2026-04-28T07:57:46.674Z</time></trkpt><trkpt lat="48.4440067" lon="-4.2356"><ele>113.66666666666667</ele><time>2026-04-28T07:57:48.676Z</time></trkpt><trkpt lat="48.443975" lon="-4.2357233"><ele>113.33333333333334</ele><time>2026-04-28T07:57:50.68Z</time></trkpt><trkpt lat="48.4439017" lon="-4.2357367"><ele>113.0</ele><time>2026-04-28T07:57:52.674Z</time></trkpt><trkpt lat="48.4438117" lon="-4.2356583"><ele>112.66666666666667</ele><time>2026-04-28T07:57:54.679Z</time></trkpt><trkpt lat="48.44376" lon="-4.2356017"><ele>112.33333333333334</ele><time>2026-04-28T07:57:55.678Z</time></trkpt><trkpt lat="48.4437033" lon="-4.2355433"><ele>112.0</ele><time>2026-04-28T07:57:56.677Z</time></trkpt><trkpt lat="48.4436383" lon="-4.2354833"><ele>113.83333333333334</ele><time>2026-04-28T07:57:57.673Z</time></trkpt><trkpt lat="48.443565" lon="-4.2354183"><ele>115.66666666666667</ele><time>2026-04-28T07:57:58.677Z</time></trkpt><trkpt lat="48.44349" lon="-4.2353533"><ele>117.5</ele><time>2026-04-28T07:57:59.672Z</time></trkpt><trkpt lat="48.4434133" lon="-4.2352833"><ele>119.33333333333334</ele><time>2026-04-28T07:58:00.674Z</time></trkpt><trkpt lat="48.44334" lon="-4.2352183"><ele>121.16666666666667</ele><time>2026-04-28T07:58:01.681Z</time></trkpt><trkpt lat="48.4432683" lon="-4.2351533"><ele>123.0</ele><time>2026-04-28T07:58:02.672Z</time></trkpt><trkpt lat="48.4432133" lon="-4.2351017"><ele>123.0</ele><time>2026-04-28T07:58:03.677Z</time></trkpt><trkpt lat="48.4431333" lon="-4.2351133"><ele>123.00000000000001</ele><time>2026-04-28T07:58:05.679Z</time></trkpt><trkpt lat="48.4431" lon="-4.2352017"><ele>123.00000000000001</ele><time>2026-04-28T07:58:07.679Z</time></trkpt><trkpt lat="48.4431017" lon="-4.2353583"><ele>123.0</ele><time>2026-04-28T07:58:09.677Z</time></trkpt><trkpt lat="48.443075" lon="-4.235535"><ele>123.0</ele><time>2026-04-28T07:58:11.679Z</time></trkpt><trkpt lat="48.4430633" lon="-4.2357083"><ele>122.2</ele><time>2026-04-28T07:58:13.676Z</time></trkpt><trkpt lat="48.4430117" lon="-4.2359217"><ele>121.4</ele><time>2026-04-28T07:58:15.676Z</time></trkpt><trkpt lat="48.4429833" lon="-4.2360617"><ele>120.60000000000001</ele><time>2026-04-28T07:58:16.676Z</time></trkpt><trkpt lat="48.4429467" lon="-4.2361967"><ele>119.80000000000001</ele><time>2026-04-28T07:58:17.674Z</time></trkpt><trkpt lat="48.442915" lon="-4.2363267"><ele>119.0</ele><time>2026-04-28T07:58:18.674Z</time></trkpt><trkpt lat="48.44288" lon="-4.236475"><ele>120.33333333333333</ele><time>2026-04-28T07:58:19.678Z</time></trkpt><trkpt lat="48.44285" lon="-4.2365967"><ele>121.66666666666666</ele><time>2026-04-28T07:58:20.68Z</time></trkpt><trkpt lat="48.4428167" lon="-4.2367333"><ele>123.0</ele><time>2026-04-28T07:58:21.678Z</time></trkpt><trkpt lat="48.4427867" lon="-4.2368533"><ele>124.33333333333334</ele><time>2026-04-28T07:58:22.677Z</time></trkpt><trkpt lat="48.4427567" lon="-4.2369633"><ele>125.66666666666667</ele><time>2026-04-28T07:58:23.679Z</time></trkpt><trkpt lat="48.4427283" lon="-4.237075"><ele>127.0</ele><time>2026-04-28T07:58:24.681Z</time></trkpt><trkpt lat="48.4427133" lon="-4.237195"><ele>126.50000000000001</ele><time>2026-04-28T07:58:25.679Z</time></trkpt><trkpt lat="48.4426867" lon="-4.2373133"><ele>126.0</ele><time>2026-04-28T07:58:26.681Z</time></trkpt><trkpt lat="48.4426583" lon="-4.2374333"><ele>125.5</ele><time>2026-04-28T07:58:27.679Z</time></trkpt><trkpt lat="48.4426317" lon="-4.2375417"><ele>125.0</ele><time>2026-04-28T07:58:28.677Z</time></trkpt><trkpt lat="48.44261" lon="-4.237655"><ele>124.50000000000001</ele><time>2026-04-28T07:58:29.687Z</time></trkpt><trkpt lat="48.442585" lon="-4.23777"><ele>124.0</ele><time>2026-04-28T07:58:30.679Z</time></trkpt><trkpt lat="48.44256" lon="-4.2378883"><ele>124.00000000000001</ele><time>2026-04-28T07:58:31.679Z</time></trkpt><trkpt lat="48.4425367" lon="-4.23801"><ele>124.0</ele><time>2026-04-28T07:58:32.682Z</time></trkpt><trkpt lat="48.4425067" lon="-4.2381267"><ele>124.0</ele><time>2026-04-28T07:58:33.678Z</time></trkpt><trkpt lat="48.4424817" lon="-4.238255"><ele>124.0</ele><time>2026-04-28T07:58:34.673Z</time></trkpt><trkpt lat="48.4424517" lon="-4.2383733"><ele>124.00000000000001</ele><time>2026-04-28T07:58:35.674Z</time></trkpt><trkpt lat="48.4424167" lon="-4.2384733"><ele>124.0</ele><time>2026-04-28T07:58:36.673Z</time></trkpt><trkpt lat="48.4423717" lon="-4.23864"><ele>123.6</ele><time>2026-04-28T07:58:38.681Z</time></trkpt><trkpt lat="48.4423383" lon="-4.2387633"><ele>123.2</ele><time>2026-04-28T07:58:40.679Z</time></trkpt><trkpt lat="48.4422917" lon="-4.2388567"><ele>122.79999999999998</ele><time>2026-04-28T07:58:42.676Z</time></trkpt><trkpt lat="48.4422283" lon="-4.23895"><ele>122.39999999999999</ele><time>2026-04-28T07:58:44.68Z</time></trkpt><trkpt lat="48.4421567" lon="-4.2390667"><ele>122.0</ele><time>2026-04-28T07:58:46.675Z</time></trkpt><trkpt lat="48.4420917" lon="-4.2392217"><ele>124.6</ele><time>2026-04-28T07:58:48.676Z</time></trkpt><trkpt lat="48.442055" lon="-4.239315"><ele>127.19999999999999</ele><time>2026-04-28T07:58:49.677Z</time></trkpt><trkpt lat="48.44202" lon="-4.2393967"><ele>129.8</ele><time>2026-04-28T07:58:50.676Z</time></trkpt><trkpt lat="48.4419533" lon="-4.2395517"><ele>132.4</ele><time>2026-04-28T07:58:52.679Z</time></trkpt><trkpt lat="48.4418983" lon="-4.2397317"><ele>135.0</ele><time>2026-04-28T07:58:54.677Z</time></trkpt><trkpt lat="48.44187" lon="-4.2398317"><ele>135.0</ele><time>2026-04-28T07:58:55.679Z</time></trkpt><trkpt lat="48.44185" lon="-4.239925"><ele>135.0</ele><time>2026-04-28T07:58:56.683Z</time></trkpt><trkpt lat="48.4418067" lon="-4.2400983"><ele>135.0</ele><time>2026-04-28T07:58:58.677Z</time></trkpt><trkpt lat="48.4417567" lon="-4.24027"><ele>135.0</ele><time>2026-04-28T07:59:00.677Z</time></trkpt><trkpt lat="48.4417317" lon="-4.2403733"><ele>135.0</ele><time>2026-04-28T07:59:01.679Z</time></trkpt><trkpt lat="48.4417233" lon="-4.24047"><ele>135.0</ele><time>2026-04-28T07:59:02.685Z</time></trkpt><trkpt lat="48.4417083" lon="-4.2405717"><ele>135.0</ele><time>2026-04-28T07:59:03.68Z</time></trkpt><trkpt lat="48.441695" lon="-4.2407017"><ele>135.0</ele><time>2026-04-28T07:59:04.683Z</time></trkpt><trkpt lat="48.4416767" lon="-4.2408117"><ele>135.0</ele><time>2026-04-28T07:59:05.675Z</time></trkpt><trkpt lat="48.4416617" lon="-4.24092"><ele>135.0</ele><time>2026-04-28T07:59:06.679Z</time></trkpt><trkpt lat="48.4416417" lon="-4.2410367"><ele>135.0</ele><time>2026-04-28T07:59:07.678Z</time></trkpt><trkpt lat="48.441615" lon="-4.2412167"><ele>135.2</ele><time>2026-04-28T07:59:09.677Z</time></trkpt><trkpt lat="48.4415867" lon="-4.2413767"><ele>135.4</ele><time>2026-04-28T07:59:11.677Z</time></trkpt><trkpt lat="48.4415633" lon="-4.2415183"><ele>135.6</ele><time>2026-04-28T07:59:13.678Z</time></trkpt><trkpt lat="48.4415367" lon="-4.2416783"><ele>135.8</ele><time>2026-04-28T07:59:15.675Z</time></trkpt><trkpt lat="48.4415067" lon="-4.2418483"><ele>136.0</ele><time>2026-04-28T07:59:17.677Z</time></trkpt><trkpt lat="48.4414883" lon="-4.242005"><ele>135.6</ele><time>2026-04-28T07:59:19.676Z</time></trkpt><trkpt lat="48.4414617" lon="-4.2421767"><ele>135.2</ele><time>2026-04-28T07:59:21.674Z</time></trkpt><trkpt lat="48.4414517" lon="-4.2423433"><ele>134.8</ele><time>2026-04-28T07:59:23.681Z</time></trkpt><trkpt lat="48.4414233" lon="-4.24249"><ele>134.4</ele><time>2026-04-28T07:59:25.681Z</time></trkpt><trkpt lat="48.4413867" lon="-4.242645"><ele>134.0</ele><time>2026-04-28T07:59:27.676Z</time></trkpt><trkpt lat="48.441375" lon="-4.2427667"><ele>133.6</ele><time>2026-04-28T07:59:29.68Z</time></trkpt><trkpt lat="48.4413233" lon="-4.242895"><ele>133.2</ele><time>2026-04-28T07:59:32.678Z</time></trkpt><trkpt lat="48.441275" lon="-4.2430217"><ele>132.79999999999998</ele><time>2026-04-28T07:59:34.677Z</time></trkpt><trkpt lat="48.4412267" lon="-4.2431467"><ele>132.4</ele><time>2026-04-28T07:59:36.68Z</time></trkpt><trkpt lat="48.4411733" lon="-4.24325"><ele>132.0</ele><time>2026-04-28T07:59:38.683Z</time></trkpt><trkpt lat="48.4411333" lon="-4.2433733"><ele>131.6</ele><time>2026-04-28T07:59:40.681Z</time></trkpt><trkpt lat="48.4411167" lon="-4.2434767"><ele>131.2</ele><time>2026-04-28T07:59:42.679Z</time></trkpt><trkpt lat="48.4411033" lon="-4.2435783"><ele>130.8</ele><time>2026-04-28T07:59:47.683Z</time></trkpt><trkpt lat="48.4410117" lon="-4.243685"><ele>130.4</ele><time>2026-04-28T07:59:58.675Z</time></trkpt><trkpt lat="48.4409417" lon="-4.2438033"><ele>130.0</ele><time>2026-04-28T08:00:01.675Z</time></trkpt><trkpt lat="48.44088" lon="-4.24393"><ele>128.83333333333334</ele><time>2026-04-28T08:00:03.683Z</time></trkpt><trkpt lat="48.4408233" lon="-4.2440083"><ele>127.66666666666667</ele><time>2026-04-28T08:00:05.677Z</time></trkpt><trkpt lat="48.44079" lon="-4.2441567"><ele>126.5</ele><time>2026-04-28T08:00:07.675Z</time></trkpt><trkpt lat="48.4407267" lon="-4.2443117"><ele>125.33333333333334</ele><time>2026-04-28T08:00:09.674Z</time></trkpt><trkpt lat="48.4406967" lon="-4.2443967"><ele>124.16666666666667</ele><time>2026-04-28T08:00:10.678Z</time></trkpt><trkpt lat="48.4406767" lon="-4.24449"><ele>123.0</ele><time>2026-04-28T08:00:11.676Z</time></trkpt><trkpt lat="48.440635" lon="-4.2446367"><ele>123.0</ele><time>2026-04-28T08:00:13.68Z</time></trkpt><trkpt lat="48.4405933" lon="-4.24478"><ele>123.0</ele><time>2026-04-28T08:00:15.681Z</time></trkpt><trkpt lat="48.4405633" lon="-4.2449"><ele>123.0</ele><time>2026-04-28T08:00:17.681Z</time></trkpt><trkpt lat="48.440555" lon="-4.24501"><ele>123.0</ele><time>2026-04-28T08:00:19.676Z</time></trkpt><trkpt lat="48.44055" lon="-4.2451183"><ele>123.0</ele><time>2026-04-28T08:00:21.676Z</time></trkpt><trkpt lat="48.4405633" lon="-4.2452217"><ele>123.0</ele><time>2026-04-28T08:00:23.676Z</time></trkpt><trkpt lat="48.4405833" lon="-4.24536"><ele>122.2</ele><time>2026-04-28T08:00:25.677Z</time></trkpt><trkpt lat="48.4406217" lon="-4.2455"><ele>121.4</ele><time>2026-04-28T08:00:27.676Z</time></trkpt><trkpt lat="48.4406533" lon="-4.2456583"><ele>120.60000000000001</ele><time>2026-04-28T08:00:29.685Z</time></trkpt><trkpt lat="48.4406967" lon="-4.2458233"><ele>119.80000000000001</ele><time>2026-04-28T08:00:31.677Z</time></trkpt><trkpt lat="48.4407517" lon="-4.245935"><ele>119.0</ele><time>2026-04-28T08:00:33.677Z</time></trkpt><trkpt lat="48.4407783" lon="-4.2460567"><ele>118.99999999999999</ele><time>2026-04-28T08:00:36.677Z</time></trkpt><trkpt lat="48.4408017" lon="-4.2461783"><ele>119.0</ele><time>2026-04-28T08:00:39.678Z</time></trkpt><trkpt lat="48.4408067" lon="-4.24628"><ele>119.0</ele><time>2026-04-28T08:00:42.677Z</time></trkpt><trkpt lat="48.4407864" lon="-4.2464034"><ele>119.0</ele><time>2026-04-28T08:00:45.68Z</time></trkpt><trkpt lat="48.440777" lon="-4.2465019"><ele>118.99999999999999</ele><time>2026-04-28T08:00:47.677Z</time></trkpt><trkpt lat="48.4407905" lon="-4.2466242"><ele>119.0</ele><time>2026-04-28T08:00:50.684Z</time></trkpt><trkpt lat="48.4407795" lon="-4.2467319"><ele>118.49999999999999</ele><time>2026-04-28T08:00:53.662Z</time></trkpt><trkpt lat="48.4407588" lon="-4.2468331"><ele>118.0</ele><time>2026-04-28T08:00:55.679Z</time></trkpt><trkpt lat="48.4407535" lon="-4.2469525"><ele>117.5</ele><time>2026-04-28T08:00:58.678Z</time></trkpt><trkpt lat="48.4407646" lon="-4.2470788"><ele>117.0</ele><time>2026-04-28T08:01:01.679Z</time></trkpt><trkpt lat="48.4408045" lon="-4.2472024"><ele>116.49999999999999</ele><time>2026-04-28T08:01:04.679Z</time></trkpt><trkpt lat="48.4408207" lon="-4.2473203"><ele>116.0</ele><time>2026-04-28T08:01:06.673Z</time></trkpt><trkpt lat="48.4408202" lon="-4.2474729"><ele>115.0</ele><time>2026-04-28T08:01:08.681Z</time></trkpt><trkpt lat="48.4408148" lon="-4.2476236"><ele>114.0</ele><time>2026-04-28T08:01:10.684Z</time></trkpt><trkpt lat="48.4407971" lon="-4.2477516"><ele>113.0</ele><time>2026-04-28T08:01:12.58Z</time></trkpt><trkpt lat="48.4407872" lon="-4.2479001"><ele>112.0</ele><time>2026-04-28T08:01:14.626Z</time></trkpt><trkpt lat="48.4407849" lon="-4.2480449"><ele>111.0</ele><time>2026-04-28T08:01:16.674Z</time></trkpt><trkpt lat="48.4407903" lon="-4.2481796"><ele>109.66666666666667</ele><time>2026-04-28T08:01:18.68Z</time></trkpt><trkpt lat="48.4407965" lon="-4.2482792"><ele>108.33333333333334</ele><time>2026-04-28T08:01:19.686Z</time></trkpt><trkpt lat="48.4408001" lon="-4.2483745"><ele>107.0</ele><time>2026-04-28T08:01:20.679Z</time></trkpt><trkpt lat="48.4408005" lon="-4.2484716"><ele>105.66666666666667</ele><time>2026-04-28T08:01:21.677Z</time></trkpt><trkpt lat="48.4408001" lon="-4.2486629"><ele>104.33333333333334</ele><time>2026-04-28T08:01:23.677Z</time></trkpt><trkpt lat="48.4407921" lon="-4.2488464"><ele>103.0</ele><time>2026-04-28T08:01:25.676Z</time></trkpt><trkpt lat="48.4407892" lon="-4.2490095"><ele>102.00000000000001</ele><time>2026-04-28T08:01:27.683Z</time></trkpt><trkpt lat="48.4407882" lon="-4.2491714"><ele>101.0</ele><time>2026-04-28T08:01:29.679Z</time></trkpt><trkpt lat="48.4407901" lon="-4.2493253"><ele>100.0</ele><time>2026-04-28T08:01:31.678Z</time></trkpt><trkpt lat="48.4407955" lon="-4.2494535"><ele>99.0</ele><time>2026-04-28T08:01:33.679Z</time></trkpt><trkpt lat="48.4408063" lon="-4.2495542"><ele>98.00000000000001</ele><time>2026-04-28T08:01:35.675Z</time></trkpt><trkpt lat="48.4408197" lon="-4.2496777"><ele>97.0</ele><time>2026-04-28T08:01:38.678Z</time></trkpt><trkpt lat="48.4408079" lon="-4.2497745"><ele>97.0</ele><time>2026-04-28T08:01:40.679Z</time></trkpt><trkpt lat="48.4407985" lon="-4.2498752"><ele>97.0</ele><time>2026-04-28T08:01:43.677Z</time></trkpt><trkpt lat="48.4407734" lon="-4.2499767"><ele>97.0</ele><time>2026-04-28T08:02:06.682Z</time></trkpt><trkpt lat="48.4407633" lon="-4.2498767"><ele>97.0</ele><time>2026-04-28T08:06:00.681Z</time></trkpt><trkpt lat="48.4407717" lon="-4.2497567"><ele>97.0</ele><time>2026-04-28T08:06:03.681Z</time></trkpt><trkpt lat="48.4407817" lon="-4.2496267"><ele>97.0</ele><time>2026-04-28T08:06:06.68Z</time></trkpt><trkpt lat="48.4407767" lon="-4.2495167"><ele>97.0</ele><time>2026-04-28T08:06:09.673Z</time></trkpt><trkpt lat="48.4407717" lon="-4.2493933"><ele>97.00000000000001</ele><time>2026-04-28T08:06:12.683Z</time></trkpt><trkpt lat="48.4407717" lon="-4.24929"><ele>97.0</ele><time>2026-04-28T08:06:14.682Z</time></trkpt><trkpt lat="48.4407867" lon="-4.2491767"><ele>97.0</ele><time>2026-04-28T08:06:17.68Z</time></trkpt><trkpt lat="48.4408033" lon="-4.2490483"><ele>97.0</ele><time>2026-04-28T08:06:20.683Z</time></trkpt><trkpt lat="48.4408153" lon="-4.2489212"><ele>97.00000000000001</ele><time>2026-04-28T08:06:23.608Z</time></trkpt><trkpt lat="48.4408192" lon="-4.2488142"><ele>97.0</ele><time>2026-04-28T08:06:25.671Z</time></trkpt><trkpt lat="48.4408099" lon="-4.2486915"><ele>98.00000000000001</ele><time>2026-04-28T08:06:27.677Z</time></trkpt><trkpt lat="48.4408085" lon="-4.248576"><ele>99.0</ele><time>2026-04-28T08:06:29.67Z</time></trkpt><trkpt lat="48.440812" lon="-4.2484446"><ele>100.0</ele><time>2026-04-28T08:06:31.679Z</time></trkpt><trkpt lat="48.4407995" lon="-4.2483219"><ele>101.0</ele><time>2026-04-28T08:06:33.716Z</time></trkpt><trkpt lat="48.4407809" lon="-4.2482037"><ele>102.00000000000001</ele><time>2026-04-28T08:06:35.715Z</time></trkpt><trkpt lat="48.440779" lon="-4.2480827"><ele>103.0</ele><time>2026-04-28T08:06:37.673Z</time></trkpt><trkpt lat="48.4407872" lon="-4.2479704"><ele>104.33333333333334</ele><time>2026-04-28T08:06:39.68Z</time></trkpt><trkpt lat="48.4407902" lon="-4.2478608"><ele>105.66666666666667</ele><time>2026-04-28T08:06:41.656Z</time></trkpt><trkpt lat="48.44079" lon="-4.2477379"><ele>107.0</ele><time>2026-04-28T08:06:43.677Z</time></trkpt><trkpt lat="48.4407802" lon="-4.2476019"><ele>108.33333333333334</ele><time>2026-04-28T08:06:45.678Z</time></trkpt><trkpt lat="48.4407831" lon="-4.2474733"><ele>109.66666666666667</ele><time>2026-04-28T08:06:47.68Z</time></trkpt><trkpt lat="48.4408001" lon="-4.2473517"><ele>111.0</ele><time>2026-04-28T08:06:49.682Z</time></trkpt><trkpt lat="48.4408061" lon="-4.2472295"><ele>111.83333333333333</ele><time>2026-04-28T08:06:51.681Z</time></trkpt><trkpt lat="48.4407939" lon="-4.247101"><ele>112.66666666666666</ele><time>2026-04-28T08:06:53.681Z</time></trkpt><trkpt lat="48.4407901" lon="-4.2469698"><ele>113.5</ele><time>2026-04-28T08:06:55.628Z</time></trkpt><trkpt lat="48.4407895" lon="-4.2468284"><ele>114.33333333333333</ele><time>2026-04-28T08:06:57.678Z</time></trkpt><trkpt lat="48.4407886" lon="-4.2466884"><ele>115.16666666666666</ele><time>2026-04-28T08:06:59.684Z</time></trkpt><trkpt lat="48.4407835" lon="-4.2465635"><ele>116.0</ele><time>2026-04-28T08:07:01.63Z</time></trkpt><trkpt lat="48.4408038" lon="-4.2464615"><ele>116.49999999999999</ele><time>2026-04-28T08:07:03.687Z</time></trkpt><trkpt lat="48.4407901" lon="-4.2463633"><ele>117.0</ele><time>2026-04-28T08:07:06.681Z</time></trkpt><trkpt lat="48.4407618" lon="-4.2462538"><ele>117.5</ele><time>2026-04-28T08:07:09.685Z</time></trkpt><trkpt lat="48.4407335" lon="-4.2461179"><ele>118.0</ele><time>2026-04-28T08:07:12.675Z</time></trkpt><trkpt lat="48.440703" lon="-4.2460113"><ele>118.49999999999999</ele><time>2026-04-28T08:07:14.68Z</time></trkpt><trkpt lat="48.440662" lon="-4.2458956"><ele>119.0</ele><time>2026-04-28T08:07:16.674Z</time></trkpt><trkpt lat="48.440622" lon="-4.2457729"><ele>118.99999999999999</ele><time>2026-04-28T08:07:18.692Z</time></trkpt><trkpt lat="48.4405818" lon="-4.2456427"><ele>119.0</ele><time>2026-04-28T08:07:20.678Z</time></trkpt><trkpt lat="48.4405479" lon="-4.2455135"><ele>119.0</ele><time>2026-04-28T08:07:22.677Z</time></trkpt><trkpt lat="48.4405253" lon="-4.2453871"><ele>119.0</ele><time>2026-04-28T08:07:24.694Z</time></trkpt><trkpt lat="48.4405079" lon="-4.2452756"><ele>118.99999999999999</ele><time>2026-04-28T08:07:26.61Z</time></trkpt><trkpt lat="48.4405133" lon="-4.2451639"><ele>119.0</ele><time>2026-04-28T08:07:28.681Z</time></trkpt><trkpt lat="48.4405299" lon="-4.2450604"><ele>118.99999999999999</ele><time>2026-04-28T08:07:30.68Z</time></trkpt><trkpt lat="48.4405496" lon="-4.2449553"><ele>119.0</ele><time>2026-04-28T08:07:32.679Z</time></trkpt><trkpt lat="48.4405687" lon="-4.244851"><ele>119.0</ele><time>2026-04-28T08:07:34.607Z</time></trkpt><trkpt lat="48.4406013" lon="-4.2447301"><ele>119.0</ele><time>2026-04-28T08:07:36.678Z</time></trkpt><trkpt lat="48.4406576" lon="-4.2446222"><ele>118.99999999999999</ele><time>2026-04-28T08:07:38.677Z</time></trkpt><trkpt lat="48.4407111" lon="-4.2445212"><ele>119.0</ele><time>2026-04-28T08:07:40.674Z</time></trkpt><trkpt lat="48.4407599" lon="-4.2444252"><ele>119.66666666666666</ele><time>2026-04-28T08:07:42.682Z</time></trkpt><trkpt lat="48.4407974" lon="-4.2443164"><ele>120.33333333333333</ele><time>2026-04-28T08:07:44.68Z</time></trkpt><trkpt lat="48.4408417" lon="-4.2442217"><ele>121.0</ele><time>2026-04-28T08:07:46.677Z</time></trkpt><trkpt lat="48.4408867" lon="-4.2441467"><ele>121.66666666666666</ele><time>2026-04-28T08:07:48.679Z</time></trkpt><trkpt lat="48.4409317" lon="-4.2440317"><ele>122.33333333333333</ele><time>2026-04-28T08:07:50.68Z</time></trkpt><trkpt lat="48.44097" lon="-4.2439433"><ele>123.0</ele><time>2026-04-28T08:07:52.681Z</time></trkpt><trkpt lat="48.4410033" lon="-4.2438483"><ele>124.16666666666667</ele><time>2026-04-28T08:07:54.683Z</time></trkpt><trkpt lat="48.4410317" lon="-4.24376"><ele>125.33333333333334</ele><time>2026-04-28T08:07:56.681Z</time></trkpt><trkpt lat="48.441065" lon="-4.24364"><ele>126.5</ele><time>2026-04-28T08:07:58.688Z</time></trkpt><trkpt lat="48.4411083" lon="-4.2435333"><ele>127.66666666666667</ele><time>2026-04-28T08:08:00.676Z</time></trkpt><trkpt lat="48.4411595" lon="-4.2434015"><ele>128.83333333333334</ele><time>2026-04-28T08:08:03.679Z</time></trkpt><trkpt lat="48.4412064" lon="-4.2432966"><ele>130.0</ele><time>2026-04-28T08:08:05.63Z</time></trkpt><trkpt lat="48.4412654" lon="-4.2431946"><ele>130.33333333333334</ele><time>2026-04-28T08:08:07.658Z</time></trkpt><trkpt lat="48.4413087" lon="-4.2431063"><ele>130.66666666666669</ele><time>2026-04-28T08:08:09.65Z</time></trkpt><trkpt lat="48.4413451" lon="-4.2430145"><ele>131.0</ele><time>2026-04-28T08:08:13.68Z</time></trkpt><trkpt lat="48.4413917" lon="-4.2428917"><ele>131.33333333333334</ele><time>2026-04-28T08:08:20.677Z</time></trkpt><trkpt lat="48.441435" lon="-4.2428033"><ele>131.66666666666666</ele><time>2026-04-28T08:08:22.673Z</time></trkpt><trkpt lat="48.4414667" lon="-4.2426783"><ele>132.0</ele><time>2026-04-28T08:08:24.682Z</time></trkpt><trkpt lat="48.4414967" lon="-4.24258"><ele>132.0</ele><time>2026-04-28T08:08:26.678Z</time></trkpt><trkpt lat="48.4415317" lon="-4.2424717"><ele>132.0</ele><time>2026-04-28T08:08:28.683Z</time></trkpt><trkpt lat="48.44157" lon="-4.2423417"><ele>132.0</ele><time>2026-04-28T08:08:30.679Z</time></trkpt><trkpt lat="48.44162" lon="-4.2421867"><ele>132.0</ele><time>2026-04-28T08:08:32.681Z</time></trkpt><trkpt lat="48.4416533" lon="-4.2420883"><ele>132.0</ele><time>2026-04-28T08:08:33.676Z</time></trkpt><trkpt lat="48.4416867" lon="-4.2419733"><ele>132.0</ele><time>2026-04-28T08:08:34.675Z</time></trkpt><trkpt lat="48.4417183" lon="-4.2418617"><ele>132.4</ele><time>2026-04-28T08:08:35.684Z</time></trkpt><trkpt lat="48.4417483" lon="-4.2417483"><ele>132.79999999999998</ele><time>2026-04-28T08:08:36.677Z</time></trkpt><trkpt lat="48.441765" lon="-4.2416283"><ele>133.2</ele><time>2026-04-28T08:08:37.681Z</time></trkpt><trkpt lat="48.4417817" lon="-4.24145"><ele>133.6</ele><time>2026-04-28T08:08:38.675Z</time></trkpt><trkpt lat="48.4417967" lon="-4.2412783"><ele>134.0</ele><time>2026-04-28T08:08:39.679Z</time></trkpt><trkpt lat="48.441815" lon="-4.24109"><ele>134.2</ele><time>2026-04-28T08:08:40.675Z</time></trkpt><trkpt lat="48.4418367" lon="-4.24093"><ele>134.4</ele><time>2026-04-28T08:08:41.68Z</time></trkpt><trkpt lat="48.441855" lon="-4.2408117"><ele>134.6</ele><time>2026-04-28T08:08:42.679Z</time></trkpt><trkpt lat="48.44186" lon="-4.240685"><ele>134.8</ele><time>2026-04-28T08:08:43.673Z</time></trkpt><trkpt lat="48.44186" lon="-4.24055"><ele>135.0</ele><time>2026-04-28T08:08:44.682Z</time></trkpt><trkpt lat="48.4418567" lon="-4.2404133"><ele>135.0</ele><time>2026-04-28T08:08:45.68Z</time></trkpt><trkpt lat="48.441865" lon="-4.2402933"><ele>135.0</ele><time>2026-04-28T08:08:46.677Z</time></trkpt><trkpt lat="48.44187" lon="-4.24018"><ele>135.0</ele><time>2026-04-28T08:08:47.683Z</time></trkpt><trkpt lat="48.4418667" lon="-4.24005"><ele>135.0</ele><time>2026-04-28T08:08:48.68Z</time></trkpt><trkpt lat="48.441885" lon="-4.2399467"><ele>135.0</ele><time>2026-04-28T08:08:49.679Z</time></trkpt><trkpt lat="48.4418917" lon="-4.2398367"><ele>135.0</ele><time>2026-04-28T08:08:50.68Z</time></trkpt><trkpt lat="48.441925" lon="-4.239745"><ele>135.8</ele><time>2026-04-28T08:08:51.678Z</time></trkpt><trkpt lat="48.4419767" lon="-4.2395683"><ele>136.6</ele><time>2026-04-28T08:08:53.678Z</time></trkpt><trkpt lat="48.4420033" lon="-4.23948"><ele>137.4</ele><time>2026-04-28T08:08:54.675Z</time></trkpt><trkpt lat="48.44206" lon="-4.2393217"><ele>138.2</ele><time>2026-04-28T08:08:56.679Z</time></trkpt><trkpt lat="48.442105" lon="-4.23917"><ele>139.0</ele><time>2026-04-28T08:08:58.676Z</time></trkpt><trkpt lat="48.4421617" lon="-4.2390533"><ele>135.6</ele><time>2026-04-28T08:09:00.677Z</time></trkpt><trkpt lat="48.442225" lon="-4.23895"><ele>132.2</ele><time>2026-04-28T08:09:02.675Z</time></trkpt><trkpt lat="48.4422717" lon="-4.238815"><ele>128.79999999999998</ele><time>2026-04-28T08:09:04.681Z</time></trkpt><trkpt lat="48.4422967" lon="-4.238725"><ele>125.39999999999999</ele><time>2026-04-28T08:09:05.675Z</time></trkpt><trkpt lat="48.4423417" lon="-4.2385483"><ele>122.0</ele><time>2026-04-28T08:09:07.679Z</time></trkpt><trkpt lat="48.4423583" lon="-4.2384517"><ele>122.0</ele><time>2026-04-28T08:09:08.679Z</time></trkpt><trkpt lat="48.442415" lon="-4.238275"><ele>121.99999999999999</ele><time>2026-04-28T08:09:10.678Z</time></trkpt><trkpt lat="48.4424333" lon="-4.2381717"><ele>121.99999999999999</ele><time>2026-04-28T08:09:11.677Z</time></trkpt><trkpt lat="48.44244" lon="-4.23806"><ele>122.0</ele><time>2026-04-28T08:09:12.679Z</time></trkpt><trkpt lat="48.4424767" lon="-4.23789"><ele>122.0</ele><time>2026-04-28T08:09:14.679Z</time></trkpt><trkpt lat="48.4425133" lon="-4.2377167"><ele>122.28571428571428</ele><time>2026-04-28T08:09:16.675Z</time></trkpt><trkpt lat="48.44253" lon="-4.2376217"><ele>122.57142857142857</ele><time>2026-04-28T08:09:17.682Z</time></trkpt><trkpt lat="48.442545" lon="-4.23752"><ele>122.85714285714286</ele><time>2026-04-28T08:09:18.677Z</time></trkpt><trkpt lat="48.442575" lon="-4.237415"><ele>123.14285714285714</ele><time>2026-04-28T08:09:19.674Z</time></trkpt><trkpt lat="48.4425983" lon="-4.2373067"><ele>123.42857142857144</ele><time>2026-04-28T08:09:20.685Z</time></trkpt><trkpt lat="48.44262" lon="-4.23719"><ele>123.71428571428572</ele><time>2026-04-28T08:09:21.677Z</time></trkpt><trkpt lat="48.4426433" lon="-4.2370783"><ele>124.0</ele><time>2026-04-28T08:09:22.674Z</time></trkpt><trkpt lat="48.4426683" lon="-4.2369733"><ele>124.50000000000001</ele><time>2026-04-28T08:09:23.682Z</time></trkpt><trkpt lat="48.4426967" lon="-4.2368633"><ele>125.0</ele><time>2026-04-28T08:09:24.678Z</time></trkpt><trkpt lat="48.44272" lon="-4.2367517"><ele>125.5</ele><time>2026-04-28T08:09:25.673Z</time></trkpt><trkpt lat="48.4427383" lon="-4.236635"><ele>126.0</ele><time>2026-04-28T08:09:26.676Z</time></trkpt><trkpt lat="48.4427617" lon="-4.2365183"><ele>126.50000000000001</ele><time>2026-04-28T08:09:27.681Z</time></trkpt><trkpt lat="48.4427833" lon="-4.236395"><ele>127.0</ele><time>2026-04-28T08:09:28.677Z</time></trkpt><trkpt lat="48.4428067" lon="-4.2362783"><ele>128.0</ele><time>2026-04-28T08:09:29.677Z</time></trkpt><trkpt lat="48.4428233" lon="-4.2361767"><ele>129.0</ele><time>2026-04-28T08:09:30.677Z</time></trkpt><trkpt lat="48.44286" lon="-4.23599"><ele>130.0</ele><time>2026-04-28T08:09:32.679Z</time></trkpt><trkpt lat="48.4428783" lon="-4.2358967"><ele>131.0</ele><time>2026-04-28T08:09:33.679Z</time></trkpt><trkpt lat="48.4428983" lon="-4.2357933"><ele>132.0</ele><time>2026-04-28T08:09:34.68Z</time></trkpt><trkpt lat="48.44292" lon="-4.235695"><ele>133.0</ele><time>2026-04-28T08:09:35.679Z</time></trkpt><trkpt lat="48.4429409" lon="-4.2356026"><ele>133.20000000000002</ele><time>2026-04-28T08:09:36.68Z</time></trkpt><trkpt lat="48.4429854" lon="-4.2354335"><ele>133.4</ele><time>2026-04-28T08:09:38.676Z</time></trkpt><trkpt lat="48.4430075" lon="-4.2352994"><ele>133.60000000000002</ele><time>2026-04-28T08:09:40.681Z</time></trkpt><trkpt lat="48.442996" lon="-4.2352038"><ele>133.8</ele><time>2026-04-28T08:09:42.68Z</time></trkpt><trkpt lat="48.4429667" lon="-4.2350783"><ele>134.0</ele><time>2026-04-28T08:10:11.683Z</time></trkpt><trkpt lat="48.4428733" lon="-4.2350033"><ele>134.0</ele><time>2026-04-28T08:10:13.683Z</time></trkpt><trkpt lat="48.4427517" lon="-4.2349517"><ele>134.0</ele><time>2026-04-28T08:10:15.675Z</time></trkpt><trkpt lat="48.4426883" lon="-4.2349333"><ele>134.0</ele><time>2026-04-28T08:10:16.673Z</time></trkpt><trkpt lat="48.4426167" lon="-4.2349183"><ele>134.0</ele><time>2026-04-28T08:10:17.678Z</time></trkpt><trkpt lat="48.442535" lon="-4.234905"><ele>134.0</ele><time>2026-04-28T08:10:18.679Z</time></trkpt><trkpt lat="48.4424517" lon="-4.23489"><ele>134.0</ele><time>2026-04-28T08:10:19.684Z</time></trkpt><trkpt lat="48.442365" lon="-4.234865"><ele>134.0</ele><time>2026-04-28T08:10:20.676Z</time></trkpt><trkpt lat="48.4422783" lon="-4.2348317"><ele>134.0</ele><time>2026-04-28T08:10:21.676Z</time></trkpt><trkpt lat="48.4421933" lon="-4.2348017"><ele>134.0</ele><time>2026-04-28T08:10:22.676Z</time></trkpt><trkpt lat="48.4421117" lon="-4.2347733"><ele>134.0</ele><time>2026-04-28T08:10:23.681Z</time></trkpt><trkpt lat="48.4420383" lon="-4.234745"><ele>134.0</ele><time>2026-04-28T08:10:24.68Z</time></trkpt><trkpt lat="48.44197" lon="-4.2347217"><ele>134.0</ele><time>2026-04-28T08:10:25.679Z</time></trkpt><trkpt lat="48.441895" lon="-4.2346917"><ele>135.0</ele><time>2026-04-28T08:10:26.678Z</time></trkpt><trkpt lat="48.4418283" lon="-4.234665"><ele>136.0</ele><time>2026-04-28T08:10:27.683Z</time></trkpt><trkpt lat="48.4417567" lon="-4.234635"><ele>137.0</ele><time>2026-04-28T08:10:28.678Z</time></trkpt><trkpt lat="48.4416867" lon="-4.2346067"><ele>138.0</ele><time>2026-04-28T08:10:29.677Z</time></trkpt><trkpt lat="48.4416183" lon="-4.2345817"><ele>139.0</ele><time>2026-04-28T08:10:30.681Z</time></trkpt><trkpt lat="48.441555" lon="-4.234555"><ele>140.0</ele><time>2026-04-28T08:10:31.676Z</time></trkpt><trkpt lat="48.4414883" lon="-4.234525"><ele>141.0</ele><time>2026-04-28T08:10:32.679Z</time></trkpt><trkpt lat="48.4413717" lon="-4.2344883"><ele>141.0</ele><time>2026-04-28T08:10:34.685Z</time></trkpt><trkpt lat="48.4413083" lon="-4.2344517"><ele>141.0</ele><time>2026-04-28T08:10:35.678Z</time></trkpt><trkpt lat="48.44124" lon="-4.23442"><ele>141.0</ele><time>2026-04-28T08:10:36.682Z</time></trkpt><trkpt lat="48.4411683" lon="-4.234385"><ele>141.0</ele><time>2026-04-28T08:10:37.678Z</time></trkpt><trkpt lat="48.441095" lon="-4.2343467"><ele>141.0</ele><time>2026-04-28T08:10:38.682Z</time></trkpt><trkpt lat="48.44102" lon="-4.2343033"><ele>141.0</ele><time>2026-04-28T08:10:39.684Z</time></trkpt><trkpt lat="48.440935" lon="-4.2342433"><ele>142.2</ele><time>2026-04-28T08:10:40.68Z</time></trkpt><trkpt lat="48.440855" lon="-4.234195"><ele>143.39999999999998</ele><time>2026-04-28T08:10:41.673Z</time></trkpt><trkpt lat="48.440775" lon="-4.2341333"><ele>144.6</ele><time>2026-04-28T08:10:42.677Z</time></trkpt><trkpt lat="48.4406867" lon="-4.2340533"><ele>145.79999999999998</ele><time>2026-04-28T08:10:43.678Z</time></trkpt><trkpt lat="48.44061" lon="-4.23397"><ele>147.0</ele><time>2026-04-28T08:10:44.683Z</time></trkpt><trkpt lat="48.4405333" lon="-4.2338883"><ele>147.79999999999998</ele><time>2026-04-28T08:10:45.679Z</time></trkpt><trkpt lat="48.4404567" lon="-4.233805"><ele>148.6</ele><time>2026-04-28T08:10:46.678Z</time></trkpt><trkpt lat="48.44038" lon="-4.2337233"><ele>149.39999999999998</ele><time>2026-04-28T08:10:47.674Z</time></trkpt><trkpt lat="48.4403033" lon="-4.2336383"><ele>150.2</ele><time>2026-04-28T08:10:48.675Z</time></trkpt><trkpt lat="48.4402317" lon="-4.2335567"><ele>151.0</ele><time>2026-04-28T08:10:49.677Z</time></trkpt><trkpt lat="48.4401517" lon="-4.2334783"><ele>151.0</ele><time>2026-04-28T08:10:50.68Z</time></trkpt><trkpt lat="48.4400733" lon="-4.233405"><ele>151.0</ele><time>2026-04-28T08:10:51.681Z</time></trkpt><trkpt lat="48.439995" lon="-4.233335"><ele>151.0</ele><time>2026-04-28T08:10:52.674Z</time></trkpt><trkpt lat="48.43992" lon="-4.2332633"><ele>151.0</ele><time>2026-04-28T08:10:53.673Z</time></trkpt><trkpt lat="48.439845" lon="-4.2331967"><ele>151.0</ele><time>2026-04-28T08:10:54.679Z</time></trkpt><trkpt lat="48.4397717" lon="-4.23313"><ele>151.0</ele><time>2026-04-28T08:10:55.677Z</time></trkpt><trkpt lat="48.4397017" lon="-4.2330717"><ele>151.0</ele><time>2026-04-28T08:10:56.678Z</time></trkpt><trkpt lat="48.4396367" lon="-4.233015"><ele>151.0</ele><time>2026-04-28T08:10:57.68Z</time></trkpt><trkpt lat="48.4395683" lon="-4.2329533"><ele>151.0</ele><time>2026-04-28T08:10:58.674Z</time></trkpt><trkpt lat="48.4395" lon="-4.232895"><ele>151.0</ele><time>2026-04-28T08:10:59.676Z</time></trkpt><trkpt lat="48.43944" lon="-4.2328433"><ele>151.0</ele><time>2026-04-28T08:11:00.683Z</time></trkpt><trkpt lat="48.43935" lon="-4.2327517"><ele>151.0</ele><time>2026-04-28T08:11:02.676Z</time></trkpt><trkpt lat="48.439265" lon="-4.2326717"><ele>152.0</ele><time>2026-04-28T08:11:04.674Z</time></trkpt><trkpt lat="48.43919" lon="-4.232605"><ele>153.0</ele><time>2026-04-28T08:11:06.676Z</time></trkpt><trkpt lat="48.4391167" lon="-4.2325367"><ele>154.0</ele><time>2026-04-28T08:11:09.677Z</time></trkpt><trkpt lat="48.4390217" lon="-4.232485"><ele>155.0</ele><time>2026-04-28T08:11:34.676Z</time></trkpt><trkpt lat="48.438915" lon="-4.2325367"><ele>156.0</ele><time>2026-04-28T08:11:36.682Z</time></trkpt><trkpt lat="48.4388033" lon="-4.2326483"><ele>156.8</ele><time>2026-04-28T08:11:38.675Z</time></trkpt><trkpt lat="48.438735" lon="-4.2327267"><ele>157.6</ele><time>2026-04-28T08:11:39.679Z</time></trkpt><trkpt lat="48.4386683" lon="-4.2328117"><ele>158.4</ele><time>2026-04-28T08:11:40.678Z</time></trkpt><trkpt lat="48.4386017" lon="-4.2329033"><ele>159.2</ele><time>2026-04-28T08:11:41.683Z</time></trkpt><trkpt lat="48.438535" lon="-4.2329983"><ele>160.0</ele><time>2026-04-28T08:11:42.678Z</time></trkpt><trkpt lat="48.4384667" lon="-4.2330967"><ele>160.0</ele><time>2026-04-28T08:11:43.682Z</time></trkpt><trkpt lat="48.4383983" lon="-4.233195"><ele>160.0</ele><time>2026-04-28T08:11:44.683Z</time></trkpt><trkpt lat="48.43833" lon="-4.2332917"><ele>160.0</ele><time>2026-04-28T08:11:45.679Z</time></trkpt><trkpt lat="48.4382633" lon="-4.23338"><ele>160.0</ele><time>2026-04-28T08:11:46.68Z</time></trkpt><trkpt lat="48.438195" lon="-4.2334683"><ele>160.0</ele><time>2026-04-28T08:11:47.68Z</time></trkpt><trkpt lat="48.4381267" lon="-4.2335567"><ele>160.0</ele><time>2026-04-28T08:11:48.683Z</time></trkpt><trkpt lat="48.438055" lon="-4.2336417"><ele>160.0</ele><time>2026-04-28T08:11:49.679Z</time></trkpt><trkpt lat="48.4379867" lon="-4.2337267"><ele>160.0</ele><time>2026-04-28T08:11:50.68Z</time></trkpt><trkpt lat="48.4379133" lon="-4.2338083"><ele>160.0</ele><time>2026-04-28T08:11:51.679Z</time></trkpt><trkpt lat="48.4378467" lon="-4.2338967"><ele>160.0</ele><time>2026-04-28T08:11:52.674Z</time></trkpt><trkpt lat="48.4377817" lon="-4.2339933"><ele>160.8</ele><time>2026-04-28T08:11:53.678Z</time></trkpt><trkpt lat="48.4377183" lon="-4.23409"><ele>161.6</ele><time>2026-04-28T08:11:54.679Z</time></trkpt><trkpt lat="48.4376517" lon="-4.234185"><ele>162.39999999999998</ele><time>2026-04-28T08:11:55.678Z</time></trkpt><trkpt lat="48.437585" lon="-4.234275"><ele>163.2</ele><time>2026-04-28T08:11:56.68Z</time></trkpt><trkpt lat="48.437515" lon="-4.2343617"><ele>164.0</ele><time>2026-04-28T08:11:57.681Z</time></trkpt><trkpt lat="48.4374433" lon="-4.23444"><ele>164.0</ele><time>2026-04-28T08:11:58.679Z</time></trkpt><trkpt lat="48.4373683" lon="-4.2345117"><ele>164.0</ele><time>2026-04-28T08:11:59.677Z</time></trkpt><trkpt lat="48.4372933" lon="-4.2345767"><ele>164.0</ele><time>2026-04-28T08:12:00.678Z</time></trkpt><trkpt lat="48.437215" lon="-4.2346367"><ele>164.0</ele><time>2026-04-28T08:12:01.68Z</time></trkpt><trkpt lat="48.4371367" lon="-4.234695"><ele>164.0</ele><time>2026-04-28T08:12:02.681Z</time></trkpt><trkpt lat="48.4370567" lon="-4.2347517"><ele>164.0</ele><time>2026-04-28T08:12:03.68Z</time></trkpt><trkpt lat="48.4369767" lon="-4.2348083"><ele>164.79999999999998</ele><time>2026-04-28T08:12:04.678Z</time></trkpt><trkpt lat="48.436895" lon="-4.2348667"><ele>165.6</ele><time>2026-04-28T08:12:05.678Z</time></trkpt><trkpt lat="48.4368183" lon="-4.234935"><ele>166.4</ele><time>2026-04-28T08:12:06.678Z</time></trkpt><trkpt lat="48.43674" lon="-4.2350117"><ele>167.2</ele><time>2026-04-28T08:12:07.68Z</time></trkpt><trkpt lat="48.43666" lon="-4.23509"><ele>168.0</ele><time>2026-04-28T08:12:08.683Z</time></trkpt><trkpt lat="48.4365733" lon="-4.235165"><ele>168.0</ele><time>2026-04-28T08:12:09.681Z</time></trkpt><trkpt lat="48.43648" lon="-4.2352367"><ele>168.0</ele><time>2026-04-28T08:12:10.682Z</time></trkpt><trkpt lat="48.4363767" lon="-4.235295"><ele>168.0</ele><time>2026-04-28T08:12:11.681Z</time></trkpt><trkpt lat="48.43627" lon="-4.2353333"><ele>168.0</ele><time>2026-04-28T08:12:12.679Z</time></trkpt><trkpt lat="48.4361617" lon="-4.2353533"><ele>168.0</ele><time>2026-04-28T08:12:13.677Z</time></trkpt><trkpt lat="48.436045" lon="-4.2353567"><ele>168.25</ele><time>2026-04-28T08:12:14.682Z</time></trkpt><trkpt lat="48.43592" lon="-4.235345"><ele>168.5</ele><time>2026-04-28T08:12:15.681Z</time></trkpt><trkpt lat="48.4357933" lon="-4.2353233"><ele>168.75</ele><time>2026-04-28T08:12:16.675Z</time></trkpt><trkpt lat="48.4356683" lon="-4.235285"><ele>169.0</ele><time>2026-04-28T08:12:17.68Z</time></trkpt><trkpt lat="48.4355417" lon="-4.2352417"><ele>169.5</ele><time>2026-04-28T08:12:18.679Z</time></trkpt><trkpt lat="48.4354133" lon="-4.2352"><ele>170.0</ele><time>2026-04-28T08:12:19.678Z</time></trkpt><trkpt lat="48.4352883" lon="-4.23517"><ele>170.5</ele><time>2026-04-28T08:12:20.679Z</time></trkpt><trkpt lat="48.43516" lon="-4.2351367"><ele>171.0</ele><time>2026-04-28T08:12:21.678Z</time></trkpt><trkpt lat="48.4350333" lon="-4.2351133"><ele>171.0</ele><time>2026-04-28T08:12:22.682Z</time></trkpt><trkpt lat="48.4349117" lon="-4.2351017"><ele>171.0</ele><time>2026-04-28T08:12:23.68Z</time></trkpt><trkpt lat="48.4347933" lon="-4.2350983"><ele>171.0</ele><time>2026-04-28T08:12:24.678Z</time></trkpt><trkpt lat="48.434685" lon="-4.2351033"><ele>171.0</ele><time>2026-04-28T08:12:25.678Z</time></trkpt><trkpt lat="48.4345933" lon="-4.2351183"><ele>171.0</ele><time>2026-04-28T08:12:26.677Z</time></trkpt><trkpt lat="48.434505" lon="-4.235145"><ele>171.0</ele><time>2026-04-28T08:12:27.678Z</time></trkpt><trkpt lat="48.4344017" lon="-4.235185"><ele>171.0</ele><time>2026-04-28T08:12:28.678Z</time></trkpt><trkpt lat="48.4342833" lon="-4.23523"><ele>171.0</ele><time>2026-04-28T08:12:29.682Z</time></trkpt><trkpt lat="48.4341583" lon="-4.235285"><ele>171.0</ele><time>2026-04-28T08:12:30.679Z</time></trkpt><trkpt lat="48.434035" lon="-4.23535"><ele>171.0</ele><time>2026-04-28T08:12:31.683Z</time></trkpt><trkpt lat="48.4339083" lon="-4.2354333"><ele>171.0</ele><time>2026-04-28T08:12:32.68Z</time></trkpt><trkpt lat="48.4337817" lon="-4.2355333"><ele>171.0</ele><time>2026-04-28T08:12:33.68Z</time></trkpt><trkpt lat="48.4336483" lon="-4.2356367"><ele>171.0</ele><time>2026-04-28T08:12:34.679Z</time></trkpt><trkpt lat="48.4335183" lon="-4.2357367"><ele>171.0</ele><time>2026-04-28T08:12:35.676Z</time></trkpt><trkpt lat="48.4333817" lon="-4.235835"><ele>171.0</ele><time>2026-04-28T08:12:36.679Z</time></trkpt><trkpt lat="48.433235" lon="-4.2359367"><ele>171.0</ele><time>2026-04-28T08:12:37.673Z</time></trkpt><trkpt lat="48.4330767" lon="-4.2360367"><ele>171.33333333333334</ele><time>2026-04-28T08:12:38.686Z</time></trkpt><trkpt lat="48.4329067" lon="-4.2361267"><ele>171.66666666666669</ele><time>2026-04-28T08:12:39.688Z</time></trkpt><trkpt lat="48.43273" lon="-4.2362017"><ele>172.0</ele><time>2026-04-28T08:12:40.673Z</time></trkpt><trkpt lat="48.43255" lon="-4.23627"><ele>172.0</ele><time>2026-04-28T08:12:41.685Z</time></trkpt><trkpt lat="48.432365" lon="-4.2363317"><ele>172.0</ele><time>2026-04-28T08:12:42.674Z</time></trkpt><trkpt lat="48.4321783" lon="-4.2363933"><ele>172.0</ele><time>2026-04-28T08:12:43.682Z</time></trkpt><trkpt lat="48.4319917" lon="-4.2364583"><ele>171.66666666666669</ele><time>2026-04-28T08:12:44.679Z</time></trkpt><trkpt lat="48.4318067" lon="-4.236525"><ele>171.33333333333334</ele><time>2026-04-28T08:12:45.68Z</time></trkpt><trkpt lat="48.431625" lon="-4.2365883"><ele>171.0</ele><time>2026-04-28T08:12:46.68Z</time></trkpt><trkpt lat="48.4314433" lon="-4.2366517"><ele>171.33333333333334</ele><time>2026-04-28T08:12:47.681Z</time></trkpt><trkpt lat="48.4312633" lon="-4.236715"><ele>171.66666666666669</ele><time>2026-04-28T08:12:48.681Z</time></trkpt><trkpt lat="48.431085" lon="-4.236775"><ele>172.0</ele><time>2026-04-28T08:12:49.675Z</time></trkpt><trkpt lat="48.4309067" lon="-4.236835"><ele>172.0</ele><time>2026-04-28T08:12:50.678Z</time></trkpt><trkpt lat="48.43073" lon="-4.23689"><ele>172.0</ele><time>2026-04-28T08:12:51.677Z</time></trkpt><trkpt lat="48.4305567" lon="-4.2369417"><ele>172.0</ele><time>2026-04-28T08:12:52.676Z</time></trkpt><trkpt lat="48.4303867" lon="-4.2369867"><ele>172.33333333333334</ele><time>2026-04-28T08:12:53.676Z</time></trkpt><trkpt lat="48.43022" lon="-4.23703"><ele>172.66666666666666</ele><time>2026-04-28T08:12:54.673Z</time></trkpt><trkpt lat="48.43006" lon="-4.2370717"><ele>173.0</ele><time>2026-04-28T08:12:55.68Z</time></trkpt><trkpt lat="48.4299" lon="-4.2371133"><ele>173.0</ele><time>2026-04-28T08:12:56.671Z</time></trkpt><trkpt lat="48.4297383" lon="-4.2371567"><ele>173.0</ele><time>2026-04-28T08:12:57.677Z</time></trkpt><trkpt lat="48.429575" lon="-4.2372"><ele>173.0</ele><time>2026-04-28T08:12:58.677Z</time></trkpt><trkpt lat="48.4294133" lon="-4.2372433"><ele>173.0</ele><time>2026-04-28T08:12:59.683Z</time></trkpt><trkpt lat="48.4292617" lon="-4.2372817"><ele>173.0</ele><time>2026-04-28T08:13:00.681Z</time></trkpt><trkpt lat="48.4291183" lon="-4.23732"><ele>173.0</ele><time>2026-04-28T08:13:01.679Z</time></trkpt><trkpt lat="48.4289817" lon="-4.2373567"><ele>173.0</ele><time>2026-04-28T08:13:02.685Z</time></trkpt><trkpt lat="48.4288467" lon="-4.2373883"><ele>173.25</ele><time>2026-04-28T08:13:03.679Z</time></trkpt><trkpt lat="48.4287167" lon="-4.237425"><ele>173.5</ele><time>2026-04-28T08:13:04.677Z</time></trkpt><trkpt lat="48.4285867" lon="-4.2374617"><ele>173.75</ele><time>2026-04-28T08:13:05.68Z</time></trkpt><trkpt lat="48.42846" lon="-4.237495"><ele>174.0</ele><time>2026-04-28T08:13:06.681Z</time></trkpt><trkpt lat="48.4283333" lon="-4.23753"><ele>174.0</ele><time>2026-04-28T08:13:07.676Z</time></trkpt><trkpt lat="48.4282033" lon="-4.237565"><ele>174.0</ele><time>2026-04-28T08:13:08.677Z</time></trkpt><trkpt lat="48.4280717" lon="-4.2376017"><ele>174.0</ele><time>2026-04-28T08:13:09.679Z</time></trkpt><trkpt lat="48.4279383" lon="-4.2376367"><ele>174.0</ele><time>2026-04-28T08:13:10.675Z</time></trkpt><trkpt lat="48.427805" lon="-4.2376717"><ele>173.75</ele><time>2026-04-28T08:13:11.678Z</time></trkpt><trkpt lat="48.42767" lon="-4.2377033"><ele>173.5</ele><time>2026-04-28T08:13:12.68Z</time></trkpt><trkpt lat="48.4275367" lon="-4.2377383"><ele>173.25</ele><time>2026-04-28T08:13:13.675Z</time></trkpt><trkpt lat="48.427405" lon="-4.2377783"><ele>173.0</ele><time>2026-04-28T08:13:14.675Z</time></trkpt><trkpt lat="48.4272767" lon="-4.23781"><ele>173.0</ele><time>2026-04-28T08:13:15.677Z</time></trkpt><trkpt lat="48.4271483" lon="-4.23784"><ele>173.0</ele><time>2026-04-28T08:13:16.677Z</time></trkpt><trkpt lat="48.4270283" lon="-4.23787"><ele>173.0</ele><time>2026-04-28T08:13:17.68Z</time></trkpt><trkpt lat="48.4269167" lon="-4.2378933"><ele>173.0</ele><time>2026-04-28T08:13:18.677Z</time></trkpt><trkpt lat="48.426815" lon="-4.2379183"><ele>172.8</ele><time>2026-04-28T08:13:19.677Z</time></trkpt><trkpt lat="48.4267217" lon="-4.2379433"><ele>172.60000000000002</ele><time>2026-04-28T08:13:20.679Z</time></trkpt><trkpt lat="48.42664" lon="-4.2379767"><ele>172.39999999999998</ele><time>2026-04-28T08:13:21.677Z</time></trkpt><trkpt lat="48.4265717" lon="-4.238015"><ele>172.2</ele><time>2026-04-28T08:13:22.679Z</time></trkpt><trkpt lat="48.4264817" lon="-4.23809"><ele>172.0</ele><time>2026-04-28T08:13:24.677Z</time></trkpt><trkpt lat="48.4263717" lon="-4.2381267"><ele>172.33333333333334</ele><time>2026-04-28T08:13:30.679Z</time></trkpt><trkpt lat="48.42631" lon="-4.23809"><ele>172.66666666666669</ele><time>2026-04-28T08:13:31.679Z</time></trkpt><trkpt lat="48.426255" lon="-4.2380283"><ele>173.0</ele><time>2026-04-28T08:13:32.679Z</time></trkpt><trkpt lat="48.426195" lon="-4.2379483"><ele>173.33333333333334</ele><time>2026-04-28T08:13:33.68Z</time></trkpt><trkpt lat="48.426125" lon="-4.2378467"><ele>173.66666666666666</ele><time>2026-04-28T08:13:34.68Z</time></trkpt><trkpt lat="48.42605" lon="-4.2377417"><ele>174.0</ele><time>2026-04-28T08:13:35.676Z</time></trkpt><trkpt lat="48.4259617" lon="-4.23762"><ele>174.0</ele><time>2026-04-28T08:13:36.682Z</time></trkpt><trkpt lat="48.4258717" lon="-4.2374983"><ele>174.0</ele><time>2026-04-28T08:13:37.681Z</time></trkpt><trkpt lat="48.425775" lon="-4.2373733"><ele>174.0</ele><time>2026-04-28T08:13:38.678Z</time></trkpt><trkpt lat="48.4256733" lon="-4.2372417"><ele>174.0</ele><time>2026-04-28T08:13:39.674Z</time></trkpt><trkpt lat="48.4255667" lon="-4.237105"><ele>174.0</ele><time>2026-04-28T08:13:40.675Z</time></trkpt><trkpt lat="48.4254583" lon="-4.23696"><ele>174.0</ele><time>2026-04-28T08:13:41.68Z</time></trkpt><trkpt lat="48.4253483" lon="-4.23681"><ele>174.0</ele><time>2026-04-28T08:13:42.679Z</time></trkpt><trkpt lat="48.4252367" lon="-4.2366583"><ele>174.0</ele><time>2026-04-28T08:13:43.679Z</time></trkpt><trkpt lat="48.425125" lon="-4.2365033"><ele>174.25</ele><time>2026-04-28T08:13:44.677Z</time></trkpt><trkpt lat="48.425015" lon="-4.2363533"><ele>174.5</ele><time>2026-04-28T08:13:45.679Z</time></trkpt><trkpt lat="48.4249067" lon="-4.2361983"><ele>174.75</ele><time>2026-04-28T08:13:46.677Z</time></trkpt><trkpt lat="48.4247933" lon="-4.2360467"><ele>175.0</ele><time>2026-04-28T08:13:47.679Z</time></trkpt><trkpt lat="48.42468" lon="-4.2358933"><ele>175.66666666666669</ele><time>2026-04-28T08:13:48.687Z</time></trkpt><trkpt lat="48.4245633" lon="-4.2357367"><ele>176.33333333333334</ele><time>2026-04-28T08:13:49.68Z</time></trkpt><trkpt lat="48.4244467" lon="-4.2355833"><ele>177.0</ele><time>2026-04-28T08:13:50.682Z</time></trkpt><trkpt lat="48.4243333" lon="-4.2354283"><ele>177.0</ele><time>2026-04-28T08:13:51.679Z</time></trkpt><trkpt lat="48.42422" lon="-4.2352767"><ele>177.0</ele><time>2026-04-28T08:13:52.679Z</time></trkpt><trkpt lat="48.4241083" lon="-4.235125"><ele>177.0</ele><time>2026-04-28T08:13:53.679Z</time></trkpt><trkpt lat="48.4239967" lon="-4.23497"><ele>177.0</ele><time>2026-04-28T08:13:54.682Z</time></trkpt><trkpt lat="48.423885" lon="-4.234815"><ele>177.0</ele><time>2026-04-28T08:13:55.677Z</time></trkpt><trkpt lat="48.4237767" lon="-4.2346617"><ele>177.0</ele><time>2026-04-28T08:13:56.678Z</time></trkpt><trkpt lat="48.4236683" lon="-4.2345083"><ele>177.0</ele><time>2026-04-28T08:13:57.679Z</time></trkpt><trkpt lat="48.4235467" lon="-4.23437"><ele>177.33333333333334</ele><time>2026-04-28T08:13:58.684Z</time></trkpt><trkpt lat="48.423415" lon="-4.23425"><ele>177.66666666666669</ele><time>2026-04-28T08:13:59.677Z</time></trkpt><trkpt lat="48.42328" lon="-4.2341467"><ele>178.0</ele><time>2026-04-28T08:14:00.679Z</time></trkpt><trkpt lat="48.4231467" lon="-4.2340433"><ele>178.33333333333334</ele><time>2026-04-28T08:14:01.681Z</time></trkpt><trkpt lat="48.4230067" lon="-4.23394"><ele>178.66666666666666</ele><time>2026-04-28T08:14:02.68Z</time></trkpt><trkpt lat="48.4228667" lon="-4.233835"><ele>179.0</ele><time>2026-04-28T08:14:03.679Z</time></trkpt><trkpt lat="48.4227267" lon="-4.2337317"><ele>179.0</ele><time>2026-04-28T08:14:04.681Z</time></trkpt><trkpt lat="48.4225883" lon="-4.2336267"><ele>179.0</ele><time>2026-04-28T08:14:05.681Z</time></trkpt><trkpt lat="48.4224517" lon="-4.23352"><ele>179.0</ele><time>2026-04-28T08:14:06.682Z</time></trkpt><trkpt lat="48.4223167" lon="-4.2334133"><ele>179.0</ele><time>2026-04-28T08:14:07.679Z</time></trkpt><trkpt lat="48.4221783" lon="-4.2333083"><ele>179.0</ele><time>2026-04-28T08:14:08.68Z</time></trkpt><trkpt lat="48.42204" lon="-4.2332017"><ele>179.0</ele><time>2026-04-28T08:14:09.674Z</time></trkpt><trkpt lat="48.4218967" lon="-4.2330933"><ele>178.66666666666666</ele><time>2026-04-28T08:14:10.675Z</time></trkpt><trkpt lat="48.4217483" lon="-4.232985"><ele>178.33333333333334</ele><time>2026-04-28T08:14:11.681Z</time></trkpt><trkpt lat="48.4215983" lon="-4.2328733"><ele>178.0</ele><time>2026-04-28T08:14:12.678Z</time></trkpt><trkpt lat="48.4214433" lon="-4.2327567"><ele>177.66666666666669</ele><time>2026-04-28T08:14:13.678Z</time></trkpt><trkpt lat="48.421285" lon="-4.2326417"><ele>177.33333333333334</ele><time>2026-04-28T08:14:14.68Z</time></trkpt><trkpt lat="48.42112" lon="-4.23253"><ele>177.0</ele><time>2026-04-28T08:14:15.681Z</time></trkpt><trkpt lat="48.4209533" lon="-4.2324217"><ele>177.0</ele><time>2026-04-28T08:14:16.68Z</time></trkpt><trkpt lat="48.42079" lon="-4.2323183"><ele>177.0</ele><time>2026-04-28T08:14:17.682Z</time></trkpt><trkpt lat="48.420625" lon="-4.23222"><ele>177.0</ele><time>2026-04-28T08:14:18.682Z</time></trkpt><trkpt lat="48.42046" lon="-4.2321267"><ele>176.33333333333334</ele><time>2026-04-28T08:14:19.681Z</time></trkpt><trkpt lat="48.4202983" lon="-4.23203"><ele>175.66666666666669</ele><time>2026-04-28T08:14:20.677Z</time></trkpt><trkpt lat="48.420135" lon="-4.23193"><ele>175.0</ele><time>2026-04-28T08:14:21.68Z</time></trkpt><trkpt lat="48.4199717" lon="-4.2318283"><ele>175.0</ele><time>2026-04-28T08:14:22.677Z</time></trkpt><trkpt lat="48.41981" lon="-4.2317283"><ele>175.0</ele><time>2026-04-28T08:14:23.68Z</time></trkpt><trkpt lat="48.4196467" lon="-4.2316317"><ele>175.0</ele><time>2026-04-28T08:14:24.678Z</time></trkpt><trkpt lat="48.419485" lon="-4.23154"><ele>174.33333333333334</ele><time>2026-04-28T08:14:25.677Z</time></trkpt><trkpt lat="48.4193233" lon="-4.2314433"><ele>173.66666666666666</ele><time>2026-04-28T08:14:26.684Z</time></trkpt><trkpt lat="48.4191633" lon="-4.231345"><ele>173.0</ele><time>2026-04-28T08:14:27.68Z</time></trkpt><trkpt lat="48.4190067" lon="-4.2312467"><ele>173.0</ele><time>2026-04-28T08:14:28.677Z</time></trkpt><trkpt lat="48.41885" lon="-4.2311483"><ele>173.0</ele><time>2026-04-28T08:14:29.675Z</time></trkpt><trkpt lat="48.4186933" lon="-4.2310533"><ele>173.0</ele><time>2026-04-28T08:14:30.682Z</time></trkpt><trkpt lat="48.4185383" lon="-4.23096"><ele>172.0</ele><time>2026-04-28T08:14:31.68Z</time></trkpt><trkpt lat="48.4183833" lon="-4.2308667"><ele>171.0</ele><time>2026-04-28T08:14:32.678Z</time></trkpt><trkpt lat="48.418225" lon="-4.2307733"><ele>170.0</ele><time>2026-04-28T08:14:33.679Z</time></trkpt><trkpt lat="48.4180683" lon="-4.2306833"><ele>169.33333333333331</ele><time>2026-04-28T08:14:34.675Z</time></trkpt><trkpt lat="48.4179117" lon="-4.23059"><ele>168.66666666666666</ele><time>2026-04-28T08:14:35.677Z</time></trkpt><trkpt lat="48.4177533" lon="-4.2304983"><ele>168.0</ele><time>2026-04-28T08:14:36.678Z</time></trkpt><trkpt lat="48.417595" lon="-4.2304033"><ele>168.0</ele><time>2026-04-28T08:14:37.68Z</time></trkpt><trkpt lat="48.4174383" lon="-4.23031"><ele>168.0</ele><time>2026-04-28T08:14:38.678Z</time></trkpt><trkpt lat="48.4172917" lon="-4.23022"><ele>168.0</ele><time>2026-04-28T08:14:39.678Z</time></trkpt><trkpt lat="48.4171583" lon="-4.23014"><ele>167.60000000000002</ele><time>2026-04-28T08:14:40.674Z</time></trkpt><trkpt lat="48.4170433" lon="-4.2300717"><ele>167.20000000000002</ele><time>2026-04-28T08:14:41.675Z</time></trkpt><trkpt lat="48.416945" lon="-4.2300117"><ele>166.8</ele><time>2026-04-28T08:14:42.676Z</time></trkpt><trkpt lat="48.4168667" lon="-4.2299617"><ele>166.4</ele><time>2026-04-28T08:14:43.678Z</time></trkpt><trkpt lat="48.4168" lon="-4.22992"><ele>166.0</ele><time>2026-04-28T08:14:44.677Z</time></trkpt><trkpt lat="48.4167067" lon="-4.22987"><ele>166.0</ele><time>2026-04-28T08:14:46.676Z</time></trkpt><trkpt lat="48.416635" lon="-4.22989"><ele>166.0</ele><time>2026-04-28T08:14:49.678Z</time></trkpt><trkpt lat="48.4166" lon="-4.2299817"><ele>166.0</ele><time>2026-04-28T08:15:05.68Z</time></trkpt><trkpt lat="48.4165883" lon="-4.2300833"><ele>166.0</ele><time>2026-04-28T08:15:07.682Z</time></trkpt><trkpt lat="48.4165883" lon="-4.2302117"><ele>166.0</ele><time>2026-04-28T08:15:09.681Z</time></trkpt><trkpt lat="48.4165867" lon="-4.2303567"><ele>166.0</ele><time>2026-04-28T08:15:11.679Z</time></trkpt><trkpt lat="48.416585" lon="-4.2305083"><ele>165.8</ele><time>2026-04-28T08:15:13.679Z</time></trkpt><trkpt lat="48.416585" lon="-4.2306617"><ele>165.60000000000002</ele><time>2026-04-28T08:15:15.684Z</time></trkpt><trkpt lat="48.416575" lon="-4.2308233"><ele>165.4</ele><time>2026-04-28T08:15:17.68Z</time></trkpt><trkpt lat="48.41657" lon="-4.230975"><ele>165.2</ele><time>2026-04-28T08:15:19.679Z</time></trkpt><trkpt lat="48.4165667" lon="-4.23111"><ele>165.0</ele><time>2026-04-28T08:15:21.679Z</time></trkpt><trkpt lat="48.4165667" lon="-4.2312267"><ele>165.0</ele><time>2026-04-28T08:15:23.681Z</time></trkpt><trkpt lat="48.416565" lon="-4.2313267"><ele>165.0</ele><time>2026-04-28T08:15:25.677Z</time></trkpt><trkpt lat="48.4165583" lon="-4.23145"><ele>165.0</ele><time>2026-04-28T08:15:28.674Z</time></trkpt><trkpt lat="48.4165483" lon="-4.23159"><ele>165.0</ele><time>2026-04-28T08:15:31.673Z</time></trkpt><trkpt lat="48.4165383" lon="-4.231695"><ele>165.0</ele><time>2026-04-28T08:15:33.678Z</time></trkpt><trkpt lat="48.41652" lon="-4.2317883"><ele>165.0</ele><time>2026-04-28T08:15:35.677Z</time></trkpt><trkpt lat="48.416465" lon="-4.231915"><ele>165.0</ele><time>2026-04-28T08:15:50.676Z</time></trkpt><trkpt lat="48.4163767" lon="-4.2319667"><ele>165.0</ele><time>2026-04-28T08:15:53.68Z</time></trkpt><trkpt lat="48.416305" lon="-4.2320067"><ele>165.0</ele><time>2026-04-28T08:15:55.675Z</time></trkpt><trkpt lat="48.4162333" lon="-4.23205"><ele>165.0</ele><time>2026-04-28T08:15:57.676Z</time></trkpt><trkpt lat="48.4161633" lon="-4.23208"><ele>165.0</ele><time>2026-04-28T08:15:59.678Z</time></trkpt><trkpt lat="48.416085" lon="-4.2321083"><ele>165.0</ele><time>2026-04-28T08:16:01.677Z</time></trkpt><trkpt lat="48.4159917" lon="-4.2321383"><ele>165.0</ele><time>2026-04-28T08:16:03.67Z</time></trkpt><trkpt lat="48.415905" lon="-4.2321717"><ele>165.0</ele><time>2026-04-28T08:16:05.678Z</time></trkpt><trkpt lat="48.41582" lon="-4.2322"><ele>165.0</ele><time>2026-04-28T08:16:07.679Z</time></trkpt><trkpt lat="48.415745" lon="-4.2322383"><ele>165.0</ele><time>2026-04-28T08:16:09.679Z</time></trkpt><trkpt lat="48.4156767" lon="-4.2322817"><ele>165.0</ele><time>2026-04-28T08:16:11.677Z</time></trkpt><trkpt lat="48.4155917" lon="-4.2323"><ele>165.0</ele><time>2026-04-28T08:16:13.687Z</time></trkpt><trkpt lat="48.4154983" lon="-4.2323233"><ele>165.6</ele><time>2026-04-28T08:16:15.673Z</time></trkpt><trkpt lat="48.41539" lon="-4.2323467"><ele>166.2</ele><time>2026-04-28T08:16:17.677Z</time></trkpt><trkpt lat="48.4152883" lon="-4.2323767"><ele>166.8</ele><time>2026-04-28T08:16:19.676Z</time></trkpt><trkpt lat="48.4151933" lon="-4.2324133"><ele>167.4</ele><time>2026-04-28T08:16:21.679Z</time></trkpt><trkpt lat="48.41511" lon="-4.2324317"><ele>168.0</ele><time>2026-04-28T08:16:23.679Z</time></trkpt><trkpt lat="48.4150255" lon="-4.2324326"><ele>168.0</ele><time>2026-04-28T08:16:25.677Z</time></trkpt><trkpt lat="48.4149425" lon="-4.232425"><ele>168.0</ele><time>2026-04-28T08:16:27.677Z</time></trkpt><trkpt lat="48.414871" lon="-4.2324165"><ele>168.0</ele><time>2026-04-28T08:16:29.677Z</time></trkpt><trkpt lat="48.4147819" lon="-4.2324286"><ele>168.0</ele><time>2026-04-28T08:16:33.621Z</time></trkpt><trkpt lat="48.4147302" lon="-4.232489"><ele>168.0</ele><time>2026-04-28T08:16:35.679Z</time></trkpt><trkpt lat="48.4147163" lon="-4.2326108"><ele>168.0</ele><time>2026-04-28T08:16:37.699Z</time></trkpt><trkpt lat="48.4147191" lon="-4.2327561"><ele>168.0</ele><time>2026-04-28T08:16:39.679Z</time></trkpt><trkpt lat="48.4146921" lon="-4.2328947"><ele>168.0</ele><time>2026-04-28T08:16:41.675Z</time></trkpt><trkpt lat="48.4146783" lon="-4.2330347"><ele>168.0</ele><time>2026-04-28T08:16:43.685Z</time></trkpt><trkpt lat="48.4146655" lon="-4.2331819"><ele>168.0</ele><time>2026-04-28T08:16:45.677Z</time></trkpt><trkpt lat="48.4146586" lon="-4.2333314"><ele>168.0</ele><time>2026-04-28T08:16:47.679Z</time></trkpt><trkpt lat="48.4146394" lon="-4.233472"><ele>167.66666666666666</ele><time>2026-04-28T08:16:49.681Z</time></trkpt><trkpt lat="48.4146134" lon="-4.2336184"><ele>167.33333333333334</ele><time>2026-04-28T08:16:51.685Z</time></trkpt><trkpt lat="48.4145977" lon="-4.2337571"><ele>167.0</ele><time>2026-04-28T08:16:53.681Z</time></trkpt><trkpt lat="48.4146073" lon="-4.2338523"><ele>166.66666666666669</ele><time>2026-04-28T08:16:55.682Z</time></trkpt><trkpt lat="48.414578" lon="-4.2339773"><ele>166.33333333333334</ele><time>2026-04-28T08:16:57.587Z</time></trkpt><trkpt lat="48.4145054" lon="-4.2340735"><ele>166.0</ele><time>2026-04-28T08:17:00.675Z</time></trkpt><trkpt lat="48.4143964" lon="-4.2341525"><ele>165.8</ele><time>2026-04-28T08:17:02.673Z</time></trkpt><trkpt lat="48.4142839" lon="-4.2342398"><ele>165.60000000000002</ele><time>2026-04-28T08:17:04.672Z</time></trkpt><trkpt lat="48.4141904" lon="-4.2343388"><ele>165.4</ele><time>2026-04-28T08:17:06.679Z</time></trkpt><trkpt lat="48.4141311" lon="-4.2344205"><ele>165.2</ele><time>2026-04-28T08:17:08.675Z</time></trkpt><trkpt lat="48.4141154" lon="-4.2345384"><ele>165.0</ele><time>2026-04-28T08:17:11.682Z</time></trkpt><trkpt lat="48.4141013" lon="-4.2346356"><ele>165.0</ele><time>2026-04-28T08:17:14.675Z</time></trkpt><trkpt lat="48.4140881" lon="-4.2347362"><ele>165.0</ele><time>2026-04-28T08:17:16.675Z</time></trkpt><trkpt lat="48.4140611" lon="-4.2348403"><ele>165.0</ele><time>2026-04-28T08:17:18.684Z</time></trkpt><trkpt lat="48.4140296" lon="-4.2349385"><ele>165.0</ele><time>2026-04-28T08:17:20.684Z</time></trkpt><trkpt lat="48.4140287" lon="-4.2350686"><ele>165.0</ele><time>2026-04-28T08:17:23.69Z</time></trkpt><trkpt lat="48.4140245" lon="-4.2351972"><ele>165.0</ele><time>2026-04-28T08:17:25.685Z</time></trkpt><trkpt lat="48.4139905" lon="-4.2353056"><ele>164.4</ele><time>2026-04-28T08:17:27.679Z</time></trkpt><trkpt lat="48.4139383" lon="-4.2354215"><ele>163.8</ele><time>2026-04-28T08:17:29.657Z</time></trkpt><trkpt lat="48.4138885" lon="-4.2355482"><ele>163.2</ele><time>2026-04-28T08:17:31.678Z</time></trkpt><trkpt lat="48.4138274" lon="-4.2356529"><ele>162.6</ele><time>2026-04-28T08:17:33.679Z</time></trkpt><trkpt lat="48.413763" lon="-4.2357504"><ele>162.0</ele><time>2026-04-28T08:17:35.677Z</time></trkpt><trkpt lat="48.4136982" lon="-4.2358359"><ele>161.16666666666666</ele><time>2026-04-28T08:17:37.676Z</time></trkpt><trkpt lat="48.4136311" lon="-4.2359086"><ele>160.33333333333334</ele><time>2026-04-28T08:17:39.639Z</time></trkpt><trkpt lat="48.4135663" lon="-4.2359566"><ele>159.5</ele><time>2026-04-28T08:17:41.679Z</time></trkpt><trkpt lat="48.4134976" lon="-4.2360136"><ele>158.66666666666669</ele><time>2026-04-28T08:17:43.68Z</time></trkpt><trkpt lat="48.4134113" lon="-4.2361026"><ele>157.83333333333334</ele><time>2026-04-28T08:17:45.679Z</time></trkpt><trkpt lat="48.4133322" lon="-4.2361357"><ele>157.0</ele><time>2026-04-28T08:17:47.695Z</time></trkpt><trkpt lat="48.4132542" lon="-4.236183"><ele>157.0</ele><time>2026-04-28T08:17:49.677Z</time></trkpt><trkpt lat="48.413166" lon="-4.2361975"><ele>157.0</ele><time>2026-04-28T08:17:51.703Z</time></trkpt><trkpt lat="48.4130695" lon="-4.2361679"><ele>157.0</ele><time>2026-04-28T08:17:53.677Z</time></trkpt><trkpt lat="48.4131353" lon="-4.2362635"><ele>157.0</ele><time>2026-04-28T08:17:58.675Z</time></trkpt><trkpt lat="48.4131872" lon="-4.2363826"><ele>157.0</ele><time>2026-04-28T08:18:00.675Z</time></trkpt><trkpt lat="48.4132129" lon="-4.2364822"><ele>157.0</ele><time>2026-04-28T08:18:02.678Z</time></trkpt><trkpt lat="48.4132116" lon="-4.2366292"><ele>156.4</ele><time>2026-04-28T08:18:04.681Z</time></trkpt><trkpt lat="48.41319" lon="-4.2367616"><ele>155.79999999999998</ele><time>2026-04-28T08:18:06.678Z</time></trkpt><trkpt lat="48.4131437" lon="-4.2368762"><ele>155.2</ele><time>2026-04-28T08:18:08.682Z</time></trkpt><trkpt lat="48.4130746" lon="-4.2369943"><ele>154.6</ele><time>2026-04-28T08:18:10.679Z</time></trkpt><trkpt lat="48.412999" lon="-4.2371163"><ele>154.0</ele><time>2026-04-28T08:18:12.68Z</time></trkpt><trkpt lat="48.4129374" lon="-4.2372111"><ele>153.83333333333334</ele><time>2026-04-28T08:18:14.68Z</time></trkpt><trkpt lat="48.4128935" lon="-4.2373014"><ele>153.66666666666669</ele><time>2026-04-28T08:18:16.678Z</time></trkpt><trkpt lat="48.4128595" lon="-4.2373893"><ele>153.5</ele><time>2026-04-28T08:18:18.676Z</time></trkpt><trkpt lat="48.4128259" lon="-4.2375036"><ele>153.33333333333334</ele><time>2026-04-28T08:18:20.674Z</time></trkpt><trkpt lat="48.4127781" lon="-4.2376532"><ele>153.16666666666666</ele><time>2026-04-28T08:18:22.673Z</time></trkpt><trkpt lat="48.412708" lon="-4.2377686"><ele>153.0</ele><time>2026-04-28T08:18:24.679Z</time></trkpt><trkpt lat="48.4126324" lon="-4.2378611"><ele>152.8</ele><time>2026-04-28T08:18:26.68Z</time></trkpt><trkpt lat="48.4125684" lon="-4.2379999"><ele>152.60000000000002</ele><time>2026-04-28T08:18:28.678Z</time></trkpt><trkpt lat="48.4125367" lon="-4.2380883"><ele>152.39999999999998</ele><time>2026-04-28T08:18:29.676Z</time></trkpt><trkpt lat="48.4124867" lon="-4.23823"><ele>152.2</ele><time>2026-04-28T08:18:31.677Z</time></trkpt><trkpt lat="48.4124233" lon="-4.238385"><ele>152.0</ele><time>2026-04-28T08:18:33.681Z</time></trkpt><trkpt lat="48.41239" lon="-4.2384733"><ele>152.66666666666666</ele><time>2026-04-28T08:18:34.675Z</time></trkpt><trkpt lat="48.4123533" lon="-4.2385617"><ele>153.33333333333331</ele><time>2026-04-28T08:18:35.68Z</time></trkpt><trkpt lat="48.4123233" lon="-4.2386517"><ele>154.0</ele><time>2026-04-28T08:18:36.679Z</time></trkpt><trkpt lat="48.4122883" lon="-4.2387333"><ele>154.66666666666666</ele><time>2026-04-28T08:18:37.676Z</time></trkpt><trkpt lat="48.4122217" lon="-4.2388967"><ele>155.33333333333334</ele><time>2026-04-28T08:18:39.683Z</time></trkpt><trkpt lat="48.4121817" lon="-4.23905"><ele>156.0</ele><time>2026-04-28T08:18:41.679Z</time></trkpt><trkpt lat="48.4121717" lon="-4.2392117"><ele>156.5</ele><time>2026-04-28T08:18:43.678Z</time></trkpt><trkpt lat="48.4122133" lon="-4.2393433"><ele>157.0</ele><time>2026-04-28T08:18:45.678Z</time></trkpt><trkpt lat="48.412265" lon="-4.2394583"><ele>157.5</ele><time>2026-04-28T08:18:47.679Z</time></trkpt><trkpt lat="48.412365" lon="-4.2395217"><ele>158.0</ele><time>2026-04-28T08:18:49.676Z</time></trkpt><trkpt lat="48.4124333" lon="-4.2395167"><ele>158.5</ele><time>2026-04-28T08:18:50.679Z</time></trkpt><trkpt lat="48.412505" lon="-4.2395067"><ele>159.0</ele><time>2026-04-28T08:18:51.676Z</time></trkpt><trkpt lat="48.4125767" lon="-4.2395117"><ele>159.0</ele><time>2026-04-28T08:18:52.676Z</time></trkpt><trkpt lat="48.4126417" lon="-4.23952"><ele>159.0</ele><time>2026-04-28T08:18:53.676Z</time></trkpt><trkpt lat="48.4127617" lon="-4.2395483"><ele>159.0</ele><time>2026-04-28T08:18:55.68Z</time></trkpt><trkpt lat="48.412855" lon="-4.2396167"><ele>159.0</ele><time>2026-04-28T08:18:57.68Z</time></trkpt><trkpt lat="48.41288" lon="-4.2397167"><ele>159.0</ele><time>2026-04-28T08:18:59.679Z</time></trkpt><trkpt lat="48.4128583" lon="-4.2398667"><ele>159.66666666666666</ele><time>2026-04-28T08:19:01.68Z</time></trkpt><trkpt lat="48.412825" lon="-4.23995"><ele>160.33333333333334</ele><time>2026-04-28T08:19:02.673Z</time></trkpt><trkpt lat="48.41277" lon="-4.240115"><ele>161.0</ele><time>2026-04-28T08:19:04.675Z</time></trkpt><trkpt lat="48.412735" lon="-4.2402167"><ele>161.66666666666669</ele><time>2026-04-28T08:19:05.682Z</time></trkpt><trkpt lat="48.4126833" lon="-4.2403317"><ele>162.33333333333334</ele><time>2026-04-28T08:19:06.68Z</time></trkpt><trkpt lat="48.4126317" lon="-4.2404467"><ele>163.0</ele><time>2026-04-28T08:19:07.676Z</time></trkpt><trkpt lat="48.412585" lon="-4.2405667"><ele>163.60000000000002</ele><time>2026-04-28T08:19:08.677Z</time></trkpt><trkpt lat="48.4125367" lon="-4.24069"><ele>164.20000000000002</ele><time>2026-04-28T08:19:09.679Z</time></trkpt><trkpt lat="48.4124817" lon="-4.2408183"><ele>164.8</ele><time>2026-04-28T08:19:10.672Z</time></trkpt><trkpt lat="48.4124367" lon="-4.24094"><ele>165.4</ele><time>2026-04-28T08:19:11.677Z</time></trkpt><trkpt lat="48.4123783" lon="-4.2410567"><ele>166.0</ele><time>2026-04-28T08:19:12.682Z</time></trkpt><trkpt lat="48.412335" lon="-4.2411667"><ele>166.0</ele><time>2026-04-28T08:19:13.678Z</time></trkpt><trkpt lat="48.4122833" lon="-4.24128"><ele>166.0</ele><time>2026-04-28T08:19:14.679Z</time></trkpt><trkpt lat="48.4122333" lon="-4.241395"><ele>166.0</ele><time>2026-04-28T08:19:15.68Z</time></trkpt><trkpt lat="48.4121833" lon="-4.2415083"><ele>166.0</ele><time>2026-04-28T08:19:16.676Z</time></trkpt><trkpt lat="48.4121367" lon="-4.2416233"><ele>166.0</ele><time>2026-04-28T08:19:17.676Z</time></trkpt><trkpt lat="48.4120967" lon="-4.2417267"><ele>166.0</ele><time>2026-04-28T08:19:18.675Z</time></trkpt><trkpt lat="48.412055" lon="-4.2418317"><ele>165.83333333333334</ele><time>2026-04-28T08:19:19.676Z</time></trkpt><trkpt lat="48.4120133" lon="-4.2419317"><ele>165.66666666666669</ele><time>2026-04-28T08:19:20.678Z</time></trkpt><trkpt lat="48.4119833" lon="-4.2420333"><ele>165.5</ele><time>2026-04-28T08:19:21.676Z</time></trkpt><trkpt lat="48.4119583" lon="-4.24213"><ele>165.33333333333334</ele><time>2026-04-28T08:19:22.672Z</time></trkpt><trkpt lat="48.4119367" lon="-4.242225"><ele>165.16666666666666</ele><time>2026-04-28T08:19:23.675Z</time></trkpt><trkpt lat="48.4119117" lon="-4.242405"><ele>165.0</ele><time>2026-04-28T08:19:25.678Z</time></trkpt><trkpt lat="48.41189" lon="-4.2425967"><ele>165.5</ele><time>2026-04-28T08:19:27.684Z</time></trkpt><trkpt lat="48.41189" lon="-4.242695"><ele>166.0</ele><time>2026-04-28T08:19:28.677Z</time></trkpt><trkpt lat="48.4118867" lon="-4.2428083"><ele>166.5</ele><time>2026-04-28T08:19:29.681Z</time></trkpt><trkpt lat="48.411885" lon="-4.242915"><ele>167.0</ele><time>2026-04-28T08:19:30.677Z</time></trkpt><trkpt lat="48.4118833" lon="-4.24301"><ele>167.5</ele><time>2026-04-28T08:19:31.674Z</time></trkpt><trkpt lat="48.41187" lon="-4.2431817"><ele>168.0</ele><time>2026-04-28T08:19:33.675Z</time></trkpt><trkpt lat="48.4118717" lon="-4.2432967"><ele>168.0</ele><time>2026-04-28T08:19:35.675Z</time></trkpt><trkpt lat="48.41187" lon="-4.2434467"><ele>168.0</ele><time>2026-04-28T08:19:45.675Z</time></trkpt><trkpt lat="48.411755" lon="-4.2436183"><ele>168.0</ele><time>2026-04-28T08:19:47.678Z</time></trkpt><trkpt lat="48.411655" lon="-4.243735"><ele>168.0</ele><time>2026-04-28T08:19:48.679Z</time></trkpt><trkpt lat="48.411555" lon="-4.2438667"><ele>167.25</ele><time>2026-04-28T08:19:49.676Z</time></trkpt><trkpt lat="48.41145" lon="-4.2440083"><ele>166.5</ele><time>2026-04-28T08:19:50.688Z</time></trkpt><trkpt lat="48.411345" lon="-4.244155"><ele>165.75</ele><time>2026-04-28T08:19:51.683Z</time></trkpt><trkpt lat="48.4112317" lon="-4.244305"><ele>165.0</ele><time>2026-04-28T08:19:52.68Z</time></trkpt><trkpt lat="48.411115" lon="-4.2444517"><ele>165.0</ele><time>2026-04-28T08:19:53.679Z</time></trkpt><trkpt lat="48.4110067" lon="-4.2446017"><ele>165.0</ele><time>2026-04-28T08:19:54.681Z</time></trkpt><trkpt lat="48.4109017" lon="-4.24475"><ele>165.0</ele><time>2026-04-28T08:19:55.68Z</time></trkpt><trkpt lat="48.4107983" lon="-4.2448983"><ele>165.0</ele><time>2026-04-28T08:19:56.678Z</time></trkpt><trkpt lat="48.4106967" lon="-4.2450483"><ele>164.0</ele><time>2026-04-28T08:19:57.683Z</time></trkpt><trkpt lat="48.4105933" lon="-4.2451967"><ele>163.0</ele><time>2026-04-28T08:19:58.677Z</time></trkpt><trkpt lat="48.4104933" lon="-4.2453433"><ele>162.0</ele><time>2026-04-28T08:19:59.677Z</time></trkpt><trkpt lat="48.4103967" lon="-4.2454883"><ele>161.0</ele><time>2026-04-28T08:20:00.689Z</time></trkpt><trkpt lat="48.4102967" lon="-4.2456317"><ele>160.25</ele><time>2026-04-28T08:20:01.678Z</time></trkpt><trkpt lat="48.4102033" lon="-4.2457733"><ele>159.5</ele><time>2026-04-28T08:20:02.677Z</time></trkpt><trkpt lat="48.4101133" lon="-4.2459133"><ele>158.75</ele><time>2026-04-28T08:20:03.681Z</time></trkpt><trkpt lat="48.41003" lon="-4.2460583"><ele>158.0</ele><time>2026-04-28T08:20:04.679Z</time></trkpt><trkpt lat="48.4099517" lon="-4.2462033"><ele>158.0</ele><time>2026-04-28T08:20:05.675Z</time></trkpt><trkpt lat="48.4098817" lon="-4.246355"><ele>158.0</ele><time>2026-04-28T08:20:06.675Z</time></trkpt><trkpt lat="48.4098183" lon="-4.246505"><ele>158.0</ele><time>2026-04-28T08:20:07.68Z</time></trkpt><trkpt lat="48.40976" lon="-4.246655"><ele>158.0</ele><time>2026-04-28T08:20:08.68Z</time></trkpt><trkpt lat="48.4097083" lon="-4.2468017"><ele>157.6</ele><time>2026-04-28T08:20:09.674Z</time></trkpt><trkpt lat="48.4096633" lon="-4.2469467"><ele>157.20000000000002</ele><time>2026-04-28T08:20:10.675Z</time></trkpt><trkpt lat="48.409625" lon="-4.2470833"><ele>156.8</ele><time>2026-04-28T08:20:11.676Z</time></trkpt><trkpt lat="48.4095933" lon="-4.2472133"><ele>156.4</ele><time>2026-04-28T08:20:12.677Z</time></trkpt><trkpt lat="48.40956" lon="-4.2473367"><ele>156.0</ele><time>2026-04-28T08:20:13.675Z</time></trkpt><trkpt lat="48.4095267" lon="-4.24745"><ele>154.83333333333334</ele><time>2026-04-28T08:20:14.679Z</time></trkpt><trkpt lat="48.409485" lon="-4.2475433"><ele>153.66666666666666</ele><time>2026-04-28T08:20:15.68Z</time></trkpt><trkpt lat="48.4094367" lon="-4.247615"><ele>152.5</ele><time>2026-04-28T08:20:16.68Z</time></trkpt><trkpt lat="48.40939" lon="-4.2476917"><ele>151.33333333333331</ele><time>2026-04-28T08:20:17.678Z</time></trkpt><trkpt lat="48.40936" lon="-4.2477883"><ele>150.16666666666666</ele><time>2026-04-28T08:20:18.679Z</time></trkpt><trkpt lat="48.4093517" lon="-4.2479117"><ele>149.0</ele><time>2026-04-28T08:20:19.678Z</time></trkpt><trkpt lat="48.40935" lon="-4.2480517"><ele>149.0</ele><time>2026-04-28T08:20:20.673Z</time></trkpt><trkpt lat="48.409345" lon="-4.2482017"><ele>149.0</ele><time>2026-04-28T08:20:21.676Z</time></trkpt><trkpt lat="48.4093283" lon="-4.2483633"><ele>149.0</ele><time>2026-04-28T08:20:22.676Z</time></trkpt><trkpt lat="48.409305" lon="-4.248535"><ele>149.0</ele><time>2026-04-28T08:20:23.677Z</time></trkpt><trkpt lat="48.409275" lon="-4.2487117"><ele>149.0</ele><time>2026-04-28T08:20:24.676Z</time></trkpt><trkpt lat="48.4092383" lon="-4.2488833"><ele>148.75</ele><time>2026-04-28T08:20:25.679Z</time></trkpt><trkpt lat="48.4091983" lon="-4.24905"><ele>148.5</ele><time>2026-04-28T08:20:26.676Z</time></trkpt><trkpt lat="48.4091567" lon="-4.24921"><ele>148.25</ele><time>2026-04-28T08:20:27.678Z</time></trkpt><trkpt lat="48.4091133" lon="-4.249365"><ele>148.0</ele><time>2026-04-28T08:20:28.677Z</time></trkpt><trkpt lat="48.4090667" lon="-4.24951"><ele>148.0</ele><time>2026-04-28T08:20:29.678Z</time></trkpt><trkpt lat="48.40902" lon="-4.2496483"><ele>148.0</ele><time>2026-04-28T08:20:30.68Z</time></trkpt><trkpt lat="48.4089767" lon="-4.2497817"><ele>148.0</ele><time>2026-04-28T08:20:31.676Z</time></trkpt><trkpt lat="48.4089433" lon="-4.24992"><ele>148.0</ele><time>2026-04-28T08:20:32.679Z</time></trkpt><trkpt lat="48.4089333" lon="-4.2500717"><ele>148.0</ele><time>2026-04-28T08:20:33.678Z</time></trkpt><trkpt lat="48.4089483" lon="-4.2502267"><ele>147.6</ele><time>2026-04-28T08:20:34.677Z</time></trkpt><trkpt lat="48.4089667" lon="-4.2503767"><ele>147.20000000000002</ele><time>2026-04-28T08:20:35.676Z</time></trkpt><trkpt lat="48.4089683" lon="-4.2505167"><ele>146.8</ele><time>2026-04-28T08:20:36.68Z</time></trkpt><trkpt lat="48.4089433" lon="-4.250655"><ele>146.4</ele><time>2026-04-28T08:20:37.679Z</time></trkpt><trkpt lat="48.4088933" lon="-4.25079"><ele>146.0</ele><time>2026-04-28T08:20:38.673Z</time></trkpt><trkpt lat="48.4088167" lon="-4.2509183"><ele>146.0</ele><time>2026-04-28T08:20:39.679Z</time></trkpt><trkpt lat="48.40873" lon="-4.25105"><ele>146.0</ele><time>2026-04-28T08:20:40.679Z</time></trkpt><trkpt lat="48.408635" lon="-4.2511933"><ele>146.0</ele><time>2026-04-28T08:20:41.684Z</time></trkpt><trkpt lat="48.408535" lon="-4.2513483"><ele>146.0</ele><time>2026-04-28T08:20:42.68Z</time></trkpt><trkpt lat="48.4084333" lon="-4.2515083"><ele>146.0</ele><time>2026-04-28T08:20:43.68Z</time></trkpt><trkpt lat="48.40833" lon="-4.251675"><ele>146.0</ele><time>2026-04-28T08:20:44.682Z</time></trkpt><trkpt lat="48.4082283" lon="-4.2518567"><ele>146.0</ele><time>2026-04-28T08:20:45.68Z</time></trkpt><trkpt lat="48.408125" lon="-4.2520533"><ele>146.0</ele><time>2026-04-28T08:20:46.679Z</time></trkpt><trkpt lat="48.4080267" lon="-4.25226"><ele>146.0</ele><time>2026-04-28T08:20:47.68Z</time></trkpt><trkpt lat="48.4079367" lon="-4.25247"><ele>146.0</ele><time>2026-04-28T08:20:48.683Z</time></trkpt><trkpt lat="48.40785" lon="-4.25268"><ele>146.33333333333331</ele><time>2026-04-28T08:20:49.681Z</time></trkpt><trkpt lat="48.4077683" lon="-4.25289"><ele>146.66666666666666</ele><time>2026-04-28T08:20:50.677Z</time></trkpt><trkpt lat="48.407685" lon="-4.2530983"><ele>147.0</ele><time>2026-04-28T08:20:51.676Z</time></trkpt><trkpt lat="48.4076" lon="-4.25331"><ele>147.33333333333334</ele><time>2026-04-28T08:20:52.679Z</time></trkpt><trkpt lat="48.407515" lon="-4.2535167"><ele>147.66666666666669</ele><time>2026-04-28T08:20:53.681Z</time></trkpt><trkpt lat="48.4074317" lon="-4.25372"><ele>148.0</ele><time>2026-04-28T08:20:54.685Z</time></trkpt><trkpt lat="48.4073517" lon="-4.25392"><ele>148.0</ele><time>2026-04-28T08:20:55.677Z</time></trkpt><trkpt lat="48.40727" lon="-4.2541183"><ele>148.0</ele><time>2026-04-28T08:20:56.684Z</time></trkpt><trkpt lat="48.40719" lon="-4.254315"><ele>148.0</ele><time>2026-04-28T08:20:57.677Z</time></trkpt><trkpt lat="48.4071067" lon="-4.25451"><ele>147.33333333333334</ele><time>2026-04-28T08:20:58.677Z</time></trkpt><trkpt lat="48.407025" lon="-4.2547067"><ele>146.66666666666666</ele><time>2026-04-28T08:20:59.675Z</time></trkpt><trkpt lat="48.4069417" lon="-4.2549033"><ele>146.0</ele><time>2026-04-28T08:21:00.679Z</time></trkpt><trkpt lat="48.4068567" lon="-4.2551033"><ele>145.66666666666666</ele><time>2026-04-28T08:21:01.679Z</time></trkpt><trkpt lat="48.4067667" lon="-4.2552983"><ele>145.33333333333334</ele><time>2026-04-28T08:21:02.685Z</time></trkpt><trkpt lat="48.4066717" lon="-4.25549"><ele>145.0</ele><time>2026-04-28T08:21:03.681Z</time></trkpt><trkpt lat="48.4065717" lon="-4.2556767"><ele>145.33333333333334</ele><time>2026-04-28T08:21:04.679Z</time></trkpt><trkpt lat="48.406465" lon="-4.2558617"><ele>145.66666666666666</ele><time>2026-04-28T08:21:05.68Z</time></trkpt><trkpt lat="48.406355" lon="-4.2560417"><ele>146.0</ele><time>2026-04-28T08:21:06.681Z</time></trkpt><trkpt lat="48.4062383" lon="-4.2562183"><ele>146.0</ele><time>2026-04-28T08:21:07.681Z</time></trkpt><trkpt lat="48.4061183" lon="-4.256395"><ele>146.0</ele><time>2026-04-28T08:21:08.682Z</time></trkpt><trkpt lat="48.4060033" lon="-4.2565683"><ele>146.0</ele><time>2026-04-28T08:21:09.678Z</time></trkpt><trkpt lat="48.40589" lon="-4.25674"><ele>146.0</ele><time>2026-04-28T08:21:10.679Z</time></trkpt><trkpt lat="48.4057783" lon="-4.2569083"><ele>146.0</ele><time>2026-04-28T08:21:11.677Z</time></trkpt><trkpt lat="48.4056683" lon="-4.257075"><ele>146.0</ele><time>2026-04-28T08:21:12.676Z</time></trkpt><trkpt lat="48.4055567" lon="-4.2572433"><ele>145.0</ele><time>2026-04-28T08:21:13.683Z</time></trkpt><trkpt lat="48.405445" lon="-4.257415"><ele>144.0</ele><time>2026-04-28T08:21:14.681Z</time></trkpt><trkpt lat="48.4053317" lon="-4.2575867"><ele>143.0</ele><time>2026-04-28T08:21:15.68Z</time></trkpt><trkpt lat="48.4052183" lon="-4.2577567"><ele>143.0</ele><time>2026-04-28T08:21:16.682Z</time></trkpt><trkpt lat="48.405105" lon="-4.2579267"><ele>143.0</ele><time>2026-04-28T08:21:17.686Z</time></trkpt><trkpt lat="48.40499" lon="-4.2580983"><ele>143.0</ele><time>2026-04-28T08:21:18.682Z</time></trkpt><trkpt lat="48.4048767" lon="-4.2582717"><ele>143.33333333333331</ele><time>2026-04-28T08:21:19.685Z</time></trkpt><trkpt lat="48.4047633" lon="-4.258445"><ele>143.66666666666666</ele><time>2026-04-28T08:21:20.68Z</time></trkpt><trkpt lat="48.40465" lon="-4.258615"><ele>144.0</ele><time>2026-04-28T08:21:21.682Z</time></trkpt><trkpt lat="48.40454" lon="-4.2587817"><ele>143.66666666666666</ele><time>2026-04-28T08:21:22.678Z</time></trkpt><trkpt lat="48.4044317" lon="-4.2589467"><ele>143.33333333333331</ele><time>2026-04-28T08:21:23.685Z</time></trkpt><trkpt lat="48.4043233" lon="-4.2591117"><ele>143.0</ele><time>2026-04-28T08:21:24.684Z</time></trkpt><trkpt lat="48.404215" lon="-4.2592767"><ele>143.0</ele><time>2026-04-28T08:21:25.68Z</time></trkpt><trkpt lat="48.4041067" lon="-4.2594433"><ele>143.0</ele><time>2026-04-28T08:21:26.678Z</time></trkpt><trkpt lat="48.4039967" lon="-4.2596167"><ele>143.0</ele><time>2026-04-28T08:21:27.684Z</time></trkpt><trkpt lat="48.4038817" lon="-4.2597883"><ele>141.33333333333331</ele><time>2026-04-28T08:21:28.68Z</time></trkpt><trkpt lat="48.4037667" lon="-4.2599617"><ele>139.66666666666666</ele><time>2026-04-28T08:21:29.68Z</time></trkpt><trkpt lat="48.4036517" lon="-4.2601333"><ele>138.0</ele><time>2026-04-28T08:21:30.677Z</time></trkpt><trkpt lat="48.4035383" lon="-4.2603067"><ele>138.0</ele><time>2026-04-28T08:21:31.678Z</time></trkpt><trkpt lat="48.403425" lon="-4.2604783"><ele>138.0</ele><time>2026-04-28T08:21:32.677Z</time></trkpt><trkpt lat="48.4033133" lon="-4.2606483"><ele>138.0</ele><time>2026-04-28T08:21:33.677Z</time></trkpt><trkpt lat="48.4032033" lon="-4.2608183"><ele>139.0</ele><time>2026-04-28T08:21:34.675Z</time></trkpt><trkpt lat="48.403095" lon="-4.2609883"><ele>140.0</ele><time>2026-04-28T08:21:35.679Z</time></trkpt><trkpt lat="48.4029883" lon="-4.261155"><ele>141.0</ele><time>2026-04-28T08:21:36.683Z</time></trkpt><trkpt lat="48.4028817" lon="-4.26132"><ele>140.5</ele><time>2026-04-28T08:21:37.68Z</time></trkpt><trkpt lat="48.402775" lon="-4.2614783"><ele>140.0</ele><time>2026-04-28T08:21:38.675Z</time></trkpt><trkpt lat="48.40267" lon="-4.2616333"><ele>139.5</ele><time>2026-04-28T08:21:39.679Z</time></trkpt><trkpt lat="48.4025683" lon="-4.2617783"><ele>139.0</ele><time>2026-04-28T08:21:40.68Z</time></trkpt><trkpt lat="48.402475" lon="-4.261915"><ele>139.0</ele><time>2026-04-28T08:21:41.678Z</time></trkpt><trkpt lat="48.4023867" lon="-4.2620433"><ele>139.0</ele><time>2026-04-28T08:21:42.679Z</time></trkpt><trkpt lat="48.4023067" lon="-4.2621683"><ele>139.0</ele><time>2026-04-28T08:21:43.677Z</time></trkpt><trkpt lat="48.4022317" lon="-4.2622833"><ele>139.0</ele><time>2026-04-28T08:21:44.677Z</time></trkpt><trkpt lat="48.4021617" lon="-4.262385"><ele>139.0</ele><time>2026-04-28T08:21:45.682Z</time></trkpt><trkpt lat="48.402105" lon="-4.2624767"><ele>138.66666666666669</ele><time>2026-04-28T08:21:46.677Z</time></trkpt><trkpt lat="48.4020517" lon="-4.2625667"><ele>138.33333333333334</ele><time>2026-04-28T08:21:47.679Z</time></trkpt><trkpt lat="48.401995" lon="-4.2626617"><ele>138.0</ele><time>2026-04-28T08:21:48.677Z</time></trkpt><trkpt lat="48.4019267" lon="-4.2627483"><ele>137.66666666666666</ele><time>2026-04-28T08:21:49.679Z</time></trkpt><trkpt lat="48.4018617" lon="-4.2628267"><ele>137.33333333333331</ele><time>2026-04-28T08:21:50.678Z</time></trkpt><trkpt lat="48.4018" lon="-4.2628967"><ele>137.0</ele><time>2026-04-28T08:21:51.679Z</time></trkpt><trkpt lat="48.401745" lon="-4.2629617"><ele>137.0</ele><time>2026-04-28T08:21:52.68Z</time></trkpt><trkpt lat="48.40169" lon="-4.2630217"><ele>137.0</ele><time>2026-04-28T08:21:53.679Z</time></trkpt><trkpt lat="48.4016367" lon="-4.263075"><ele>137.0</ele><time>2026-04-28T08:21:54.678Z</time></trkpt><trkpt lat="48.4015733" lon="-4.263135"><ele>137.0</ele><time>2026-04-28T08:21:55.677Z</time></trkpt><trkpt lat="48.4014983" lon="-4.2631867"><ele>137.0</ele><time>2026-04-28T08:21:56.685Z</time></trkpt><trkpt lat="48.4014267" lon="-4.2632433"><ele>137.0</ele><time>2026-04-28T08:21:57.679Z</time></trkpt><trkpt lat="48.40132" lon="-4.263305"><ele>137.0</ele><time>2026-04-28T08:21:58.675Z</time></trkpt><trkpt lat="48.4012233" lon="-4.263365"><ele>137.0</ele><time>2026-04-28T08:21:59.676Z</time></trkpt><trkpt lat="48.4011183" lon="-4.263425"><ele>137.0</ele><time>2026-04-28T08:22:00.674Z</time></trkpt><trkpt lat="48.401015" lon="-4.2634867"><ele>137.0</ele><time>2026-04-28T08:22:01.679Z</time></trkpt><trkpt lat="48.400905" lon="-4.2635533"><ele>137.0</ele><time>2026-04-28T08:22:02.681Z</time></trkpt><trkpt lat="48.4008" lon="-4.2636167"><ele>137.0</ele><time>2026-04-28T08:22:03.677Z</time></trkpt><trkpt lat="48.4006967" lon="-4.2636733"><ele>137.0</ele><time>2026-04-28T08:22:04.678Z</time></trkpt><trkpt lat="48.4005983" lon="-4.2637283"><ele>137.0</ele><time>2026-04-28T08:22:05.674Z</time></trkpt><trkpt lat="48.4005017" lon="-4.2637817"><ele>137.0</ele><time>2026-04-28T08:22:06.676Z</time></trkpt><trkpt lat="48.4004083" lon="-4.263835"><ele>137.0</ele><time>2026-04-28T08:22:07.683Z</time></trkpt><trkpt lat="48.400315" lon="-4.2638883"><ele>136.83333333333331</ele><time>2026-04-28T08:22:08.681Z</time></trkpt><trkpt lat="48.4002267" lon="-4.263945"><ele>136.66666666666666</ele><time>2026-04-28T08:22:09.679Z</time></trkpt><trkpt lat="48.400145" lon="-4.264"><ele>136.5</ele><time>2026-04-28T08:22:10.68Z</time></trkpt><trkpt lat="48.400075" lon="-4.26405"><ele>136.33333333333334</ele><time>2026-04-28T08:22:11.675Z</time></trkpt><trkpt lat="48.400015" lon="-4.2640917"><ele>136.16666666666669</ele><time>2026-04-28T08:22:12.685Z</time></trkpt><trkpt lat="48.399945" lon="-4.26417"><ele>136.0</ele><time>2026-04-28T08:22:14.678Z</time></trkpt><trkpt lat="48.39993" lon="-4.264265"><ele>137.4</ele><time>2026-04-28T08:22:17.677Z</time></trkpt><trkpt lat="48.4000033" lon="-4.2643333"><ele>138.8</ele><time>2026-04-28T08:22:21.68Z</time></trkpt><trkpt lat="48.4000733" lon="-4.2643633"><ele>140.20000000000002</ele><time>2026-04-28T08:22:23.678Z</time></trkpt><trkpt lat="48.40016" lon="-4.2644133"><ele>141.6</ele><time>2026-04-28T08:22:25.673Z</time></trkpt><trkpt lat="48.4002533" lon="-4.2644567"><ele>143.0</ele><time>2026-04-28T08:22:27.676Z</time></trkpt><trkpt lat="48.40035" lon="-4.2645017"><ele>143.0</ele><time>2026-04-28T08:22:29.677Z</time></trkpt><trkpt lat="48.4004567" lon="-4.264535"><ele>143.0</ele><time>2026-04-28T08:22:31.676Z</time></trkpt><trkpt lat="48.400575" lon="-4.2645783"><ele>143.0</ele><time>2026-04-28T08:22:33.68Z</time></trkpt><trkpt lat="48.4006967" lon="-4.2646117"><ele>143.0</ele><time>2026-04-28T08:22:35.679Z</time></trkpt><trkpt lat="48.4008267" lon="-4.2646183"><ele>142.85714285714283</ele><time>2026-04-28T08:22:37.68Z</time></trkpt><trkpt lat="48.4008967" lon="-4.2646133"><ele>142.71428571428572</ele><time>2026-04-28T08:22:38.676Z</time></trkpt><trkpt lat="48.4009617" lon="-4.264595"><ele>142.57142857142856</ele><time>2026-04-28T08:22:39.676Z</time></trkpt><trkpt lat="48.4010267" lon="-4.2645683"><ele>142.42857142857142</ele><time>2026-04-28T08:22:40.679Z</time></trkpt><trkpt lat="48.4010933" lon="-4.2645417"><ele>142.28571428571428</ele><time>2026-04-28T08:22:41.68Z</time></trkpt><trkpt lat="48.4011617" lon="-4.2645167"><ele>142.14285714285714</ele><time>2026-04-28T08:22:42.676Z</time></trkpt><trkpt lat="48.4012383" lon="-4.2644967"><ele>142.0</ele><time>2026-04-28T08:22:43.676Z</time></trkpt><trkpt lat="48.4013167" lon="-4.264465"><ele>142.16666666666669</ele><time>2026-04-28T08:22:44.677Z</time></trkpt><trkpt lat="48.4013967" lon="-4.2644417"><ele>142.33333333333334</ele><time>2026-04-28T08:22:45.679Z</time></trkpt><trkpt lat="48.4014783" lon="-4.2644217"><ele>142.5</ele><time>2026-04-28T08:22:46.683Z</time></trkpt><trkpt lat="48.4015583" lon="-4.2643933"><ele>142.66666666666666</ele><time>2026-04-28T08:22:47.68Z</time></trkpt><trkpt lat="48.4016367" lon="-4.2643667"><ele>142.83333333333331</ele><time>2026-04-28T08:22:48.678Z</time></trkpt><trkpt lat="48.4017183" lon="-4.264345"><ele>143.0</ele><time>2026-04-28T08:22:49.681Z</time></trkpt><trkpt lat="48.40179" lon="-4.2643367"><ele>143.0</ele><time>2026-04-28T08:22:50.68Z</time></trkpt><trkpt lat="48.401865" lon="-4.2643233"><ele>143.0</ele><time>2026-04-28T08:22:51.679Z</time></trkpt><trkpt lat="48.4019367" lon="-4.264305"><ele>143.0</ele><time>2026-04-28T08:22:52.677Z</time></trkpt><trkpt lat="48.4020167" lon="-4.264285"><ele>143.0</ele><time>2026-04-28T08:22:53.677Z</time></trkpt><trkpt lat="48.402135" lon="-4.264285"><ele>143.0</ele><time>2026-04-28T08:22:55.674Z</time></trkpt><trkpt lat="48.402205" lon="-4.2642817"><ele>143.0</ele><time>2026-04-28T08:22:56.678Z</time></trkpt><trkpt lat="48.4023067" lon="-4.2643017"><ele>144.0</ele><time>2026-04-28T08:22:58.68Z</time></trkpt><trkpt lat="48.4023733" lon="-4.264315"><ele>145.0</ele><time>2026-04-28T08:22:59.678Z</time></trkpt><trkpt lat="48.4024353" lon="-4.2643331"><ele>146.0</ele><time>2026-04-28T08:23:00.675Z</time></trkpt><trkpt lat="48.4025444" lon="-4.2643742"><ele>147.0</ele><time>2026-04-28T08:23:02.673Z</time></trkpt><trkpt lat="48.4026175" lon="-4.2644002"><ele>148.0</ele><time>2026-04-28T08:23:04.682Z</time></trkpt><trkpt lat="48.4026202" lon="-4.2645291"><ele>149.0</ele><time>2026-04-28T08:23:09.678Z</time></trkpt><trkpt lat="48.4026149" lon="-4.2646463"><ele>148.8</ele><time>2026-04-28T08:23:11.679Z</time></trkpt><trkpt lat="48.4026039" lon="-4.2648221"><ele>148.60000000000002</ele><time>2026-04-28T08:23:13.679Z</time></trkpt><trkpt lat="48.4025827" lon="-4.2649921"><ele>148.4</ele><time>2026-04-28T08:23:15.68Z</time></trkpt><trkpt lat="48.4025656" lon="-4.2651518"><ele>148.20000000000002</ele><time>2026-04-28T08:23:17.675Z</time></trkpt><trkpt lat="48.402546" lon="-4.2652973"><ele>148.0</ele><time>2026-04-28T08:23:19.679Z</time></trkpt><trkpt lat="48.402531" lon="-4.2654558"><ele>146.75</ele><time>2026-04-28T08:23:21.678Z</time></trkpt><trkpt lat="48.4025169" lon="-4.265624"><ele>145.5</ele><time>2026-04-28T08:23:23.679Z</time></trkpt><trkpt lat="48.4024889" lon="-4.2657982"><ele>144.25</ele><time>2026-04-28T08:23:25.674Z</time></trkpt><trkpt lat="48.4024592" lon="-4.2659639"><ele>143.0</ele><time>2026-04-28T08:23:27.677Z</time></trkpt><trkpt lat="48.4024421" lon="-4.2661444"><ele>143.0</ele><time>2026-04-28T08:23:29.679Z</time></trkpt><trkpt lat="48.4024649" lon="-4.2663057"><ele>143.0</ele><time>2026-04-28T08:23:31.676Z</time></trkpt><trkpt lat="48.4025123" lon="-4.2664531"><ele>143.0</ele><time>2026-04-28T08:23:33.678Z</time></trkpt><trkpt lat="48.4025478" lon="-4.2665985"><ele>143.0</ele><time>2026-04-28T08:23:35.68Z</time></trkpt><trkpt lat="48.4025542" lon="-4.2667873"><ele>143.0</ele><time>2026-04-28T08:23:37.69Z</time></trkpt><trkpt lat="48.4025481" lon="-4.2668941"><ele>141.8</ele><time>2026-04-28T08:23:38.683Z</time></trkpt><trkpt lat="48.4025397" lon="-4.2670115"><ele>140.60000000000002</ele><time>2026-04-28T08:23:39.681Z</time></trkpt><trkpt lat="48.4025236" lon="-4.2671396"><ele>139.39999999999998</ele><time>2026-04-28T08:23:40.679Z</time></trkpt><trkpt lat="48.4025029" lon="-4.2672833"><ele>138.2</ele><time>2026-04-28T08:23:41.676Z</time></trkpt><trkpt lat="48.4024759" lon="-4.26744"><ele>137.0</ele><time>2026-04-28T08:23:42.682Z</time></trkpt><trkpt lat="48.4024503" lon="-4.267583"><ele>136.33333333333331</ele><time>2026-04-28T08:23:43.677Z</time></trkpt><trkpt lat="48.4024236" lon="-4.2677134"><ele>135.66666666666666</ele><time>2026-04-28T08:23:44.676Z</time></trkpt><trkpt lat="48.4023962" lon="-4.2678329"><ele>135.0</ele><time>2026-04-28T08:23:45.676Z</time></trkpt><trkpt lat="48.4023733" lon="-4.2679393"><ele>134.33333333333334</ele><time>2026-04-28T08:23:46.674Z</time></trkpt><trkpt lat="48.4023489" lon="-4.2680589"><ele>133.66666666666669</ele><time>2026-04-28T08:23:47.678Z</time></trkpt><trkpt lat="48.4023218" lon="-4.2681979"><ele>133.0</ele><time>2026-04-28T08:23:48.678Z</time></trkpt><trkpt lat="48.4022988" lon="-4.2683129"><ele>132.83333333333334</ele><time>2026-04-28T08:23:49.678Z</time></trkpt><trkpt lat="48.4022716" lon="-4.2684139"><ele>132.66666666666669</ele><time>2026-04-28T08:23:50.679Z</time></trkpt><trkpt lat="48.402243" lon="-4.2685207"><ele>132.5</ele><time>2026-04-28T08:23:51.678Z</time></trkpt><trkpt lat="48.4022147" lon="-4.2686382"><ele>132.33333333333334</ele><time>2026-04-28T08:23:52.677Z</time></trkpt><trkpt lat="48.4021847" lon="-4.2687626"><ele>132.16666666666666</ele><time>2026-04-28T08:23:53.677Z</time></trkpt><trkpt lat="48.4021496" lon="-4.2689039"><ele>132.0</ele><time>2026-04-28T08:23:54.677Z</time></trkpt><trkpt lat="48.4021153" lon="-4.2690467"><ele>132.0</ele><time>2026-04-28T08:23:55.675Z</time></trkpt><trkpt lat="48.4020841" lon="-4.2691926"><ele>132.0</ele><time>2026-04-28T08:23:56.676Z</time></trkpt><trkpt lat="48.4020528" lon="-4.2693367"><ele>132.0</ele><time>2026-04-28T08:23:57.677Z</time></trkpt><trkpt lat="48.402026" lon="-4.2694707"><ele>132.0</ele><time>2026-04-28T08:23:58.676Z</time></trkpt><trkpt lat="48.4020046" lon="-4.2696002"><ele>132.0</ele><time>2026-04-28T08:23:59.673Z</time></trkpt><trkpt lat="48.4019852" lon="-4.2697313"><ele>132.0</ele><time>2026-04-28T08:24:00.677Z</time></trkpt><trkpt lat="48.4019656" lon="-4.2698607"><ele>132.0</ele><time>2026-04-28T08:24:01.675Z</time></trkpt><trkpt lat="48.40195" lon="-4.2699905"><ele>132.0</ele><time>2026-04-28T08:24:02.681Z</time></trkpt><trkpt lat="48.4019356" lon="-4.2701173"><ele>132.0</ele><time>2026-04-28T08:24:03.679Z</time></trkpt><trkpt lat="48.4019159" lon="-4.2702412"><ele>132.0</ele><time>2026-04-28T08:24:04.679Z</time></trkpt><trkpt lat="48.401894" lon="-4.2703651"><ele>132.0</ele><time>2026-04-28T08:24:05.679Z</time></trkpt><trkpt lat="48.4018722" lon="-4.270488"><ele>132.0</ele><time>2026-04-28T08:24:06.678Z</time></trkpt><trkpt lat="48.4018493" lon="-4.2706032"><ele>132.0</ele><time>2026-04-28T08:24:07.677Z</time></trkpt><trkpt lat="48.4018133" lon="-4.2707096"><ele>132.0</ele><time>2026-04-28T08:24:08.68Z</time></trkpt><trkpt lat="48.401776" lon="-4.2708106"><ele>132.0</ele><time>2026-04-28T08:24:09.677Z</time></trkpt><trkpt lat="48.4017463" lon="-4.2709058"><ele>132.0</ele><time>2026-04-28T08:24:10.674Z</time></trkpt><trkpt lat="48.4017049" lon="-4.2710596"><ele>132.0</ele><time>2026-04-28T08:24:12.674Z</time></trkpt><trkpt lat="48.4016551" lon="-4.2712078"><ele>132.0</ele><time>2026-04-28T08:24:14.68Z</time></trkpt><trkpt lat="48.401618" lon="-4.271297"><ele>132.0</ele><time>2026-04-28T08:24:15.681Z</time></trkpt><trkpt lat="48.4015752" lon="-4.2713959"><ele>132.0</ele><time>2026-04-28T08:24:16.674Z</time></trkpt><trkpt lat="48.4015323" lon="-4.2715011"><ele>132.0</ele><time>2026-04-28T08:24:17.681Z</time></trkpt><trkpt lat="48.4014902" lon="-4.2716109"><ele>132.0</ele><time>2026-04-28T08:24:18.68Z</time></trkpt><trkpt lat="48.4014521" lon="-4.2717214"><ele>132.0</ele><time>2026-04-28T08:24:19.68Z</time></trkpt><trkpt lat="48.4014136" lon="-4.2718356"><ele>131.66666666666666</ele><time>2026-04-28T08:24:20.68Z</time></trkpt><trkpt lat="48.4013752" lon="-4.271948"><ele>131.33333333333334</ele><time>2026-04-28T08:24:21.677Z</time></trkpt><trkpt lat="48.4013356" lon="-4.2720639"><ele>131.0</ele><time>2026-04-28T08:24:22.68Z</time></trkpt><trkpt lat="48.401298" lon="-4.2721752"><ele>130.66666666666669</ele><time>2026-04-28T08:24:23.677Z</time></trkpt><trkpt lat="48.4012597" lon="-4.2723021"><ele>130.33333333333334</ele><time>2026-04-28T08:24:24.682Z</time></trkpt><trkpt lat="48.4012189" lon="-4.2724219"><ele>130.0</ele><time>2026-04-28T08:24:25.678Z</time></trkpt><trkpt lat="48.4011787" lon="-4.2725459"><ele>129.5</ele><time>2026-04-28T08:24:26.675Z</time></trkpt><trkpt lat="48.4011501" lon="-4.2726547"><ele>129.0</ele><time>2026-04-28T08:24:27.678Z</time></trkpt><trkpt lat="48.4011223" lon="-4.2727552"><ele>128.5</ele><time>2026-04-28T08:24:28.679Z</time></trkpt><trkpt lat="48.4010895" lon="-4.2728548"><ele>128.0</ele><time>2026-04-28T08:24:29.678Z</time></trkpt><trkpt lat="48.4010539" lon="-4.2729644"><ele>127.50000000000001</ele><time>2026-04-28T08:24:30.68Z</time></trkpt><trkpt lat="48.4010132" lon="-4.2730768"><ele>127.0</ele><time>2026-04-28T08:24:31.681Z</time></trkpt><trkpt lat="48.4009627" lon="-4.2731996"><ele>125.6</ele><time>2026-04-28T08:24:32.683Z</time></trkpt><trkpt lat="48.4009158" lon="-4.2733022"><ele>124.19999999999999</ele><time>2026-04-28T08:24:33.678Z</time></trkpt><trkpt lat="48.4008554" lon="-4.2734222"><ele>122.8</ele><time>2026-04-28T08:24:34.681Z</time></trkpt><trkpt lat="48.4007914" lon="-4.2735422"><ele>121.4</ele><time>2026-04-28T08:24:35.684Z</time></trkpt><trkpt lat="48.4007172" lon="-4.2736707"><ele>120.0</ele><time>2026-04-28T08:24:36.679Z</time></trkpt><trkpt lat="48.4006414" lon="-4.2737982"><ele>120.0</ele><time>2026-04-28T08:24:37.679Z</time></trkpt><trkpt lat="48.4005666" lon="-4.2739282"><ele>120.0</ele><time>2026-04-28T08:24:38.679Z</time></trkpt><trkpt lat="48.4004948" lon="-4.2740596"><ele>120.0</ele><time>2026-04-28T08:24:39.678Z</time></trkpt><trkpt lat="48.4004238" lon="-4.2741878"><ele>120.0</ele><time>2026-04-28T08:24:40.675Z</time></trkpt><trkpt lat="48.4003533" lon="-4.2743118"><ele>120.0</ele><time>2026-04-28T08:24:41.685Z</time></trkpt><trkpt lat="48.4002822" lon="-4.2744369"><ele>119.6</ele><time>2026-04-28T08:24:42.679Z</time></trkpt><trkpt lat="48.4002111" lon="-4.2745626"><ele>119.2</ele><time>2026-04-28T08:24:43.687Z</time></trkpt><trkpt lat="48.4001403" lon="-4.2746875"><ele>118.80000000000001</ele><time>2026-04-28T08:24:44.682Z</time></trkpt><trkpt lat="48.4000702" lon="-4.2748112"><ele>118.4</ele><time>2026-04-28T08:24:45.674Z</time></trkpt><trkpt lat="48.4000011" lon="-4.2749329"><ele>118.0</ele><time>2026-04-28T08:24:46.68Z</time></trkpt><trkpt lat="48.3999349" lon="-4.2750517"><ele>118.4</ele><time>2026-04-28T08:24:47.679Z</time></trkpt><trkpt lat="48.3998698" lon="-4.2751713"><ele>118.80000000000001</ele><time>2026-04-28T08:24:48.681Z</time></trkpt><trkpt lat="48.3998077" lon="-4.275291"><ele>119.2</ele><time>2026-04-28T08:24:49.677Z</time></trkpt><trkpt lat="48.3997479" lon="-4.2754127"><ele>119.6</ele><time>2026-04-28T08:24:50.675Z</time></trkpt><trkpt lat="48.3996901" lon="-4.275539"><ele>120.0</ele><time>2026-04-28T08:24:51.679Z</time></trkpt><trkpt lat="48.3996364" lon="-4.2756665"><ele>120.0</ele><time>2026-04-28T08:24:52.681Z</time></trkpt><trkpt lat="48.3995875" lon="-4.2757971"><ele>120.0</ele><time>2026-04-28T08:24:53.675Z</time></trkpt><trkpt lat="48.3995396" lon="-4.2759338"><ele>120.0</ele><time>2026-04-28T08:24:54.677Z</time></trkpt><trkpt lat="48.399491" lon="-4.2760743"><ele>120.0</ele><time>2026-04-28T08:24:55.675Z</time></trkpt><trkpt lat="48.3994429" lon="-4.2762209"><ele>120.0</ele><time>2026-04-28T08:24:56.677Z</time></trkpt><trkpt lat="48.399394" lon="-4.276362"><ele>120.0</ele><time>2026-04-28T08:24:57.676Z</time></trkpt><trkpt lat="48.3993498" lon="-4.2764982"><ele>120.0</ele><time>2026-04-28T08:24:58.68Z</time></trkpt><trkpt lat="48.3993107" lon="-4.2766279"><ele>120.0</ele><time>2026-04-28T08:24:59.676Z</time></trkpt><trkpt lat="48.3992726" lon="-4.276754"><ele>120.0</ele><time>2026-04-28T08:25:00.678Z</time></trkpt><trkpt lat="48.3992346" lon="-4.2768766"><ele>120.0</ele><time>2026-04-28T08:25:01.677Z</time></trkpt><trkpt lat="48.3991954" lon="-4.2770047"><ele>120.0</ele><time>2026-04-28T08:25:02.678Z</time></trkpt><trkpt lat="48.3991571" lon="-4.277136"><ele>120.0</ele><time>2026-04-28T08:25:03.678Z</time></trkpt><trkpt lat="48.3991203" lon="-4.2772694"><ele>120.0</ele><time>2026-04-28T08:25:04.679Z</time></trkpt><trkpt lat="48.399081" lon="-4.2774043"><ele>120.0</ele><time>2026-04-28T08:25:05.677Z</time></trkpt><trkpt lat="48.3990394" lon="-4.277546"><ele>120.0</ele><time>2026-04-28T08:25:06.678Z</time></trkpt><trkpt lat="48.3990015" lon="-4.2776923"><ele>119.16666666666667</ele><time>2026-04-28T08:25:07.678Z</time></trkpt><trkpt lat="48.3989699" lon="-4.2778343"><ele>118.33333333333334</ele><time>2026-04-28T08:25:08.678Z</time></trkpt><trkpt lat="48.3989468" lon="-4.2779632"><ele>117.5</ele><time>2026-04-28T08:25:09.679Z</time></trkpt><trkpt lat="48.3989245" lon="-4.2780807"><ele>116.66666666666667</ele><time>2026-04-28T08:25:10.682Z</time></trkpt><trkpt lat="48.3989063" lon="-4.2781863"><ele>115.83333333333334</ele><time>2026-04-28T08:25:11.671Z</time></trkpt><trkpt lat="48.3988773" lon="-4.2783405"><ele>115.0</ele><time>2026-04-28T08:25:13.678Z</time></trkpt><trkpt lat="48.3988438" lon="-4.2784223"><ele>114.50000000000001</ele><time>2026-04-28T08:25:15.68Z</time></trkpt><trkpt lat="48.3988086" lon="-4.2785041"><ele>114.0</ele><time>2026-04-28T08:25:19.682Z</time></trkpt><trkpt lat="48.3988205" lon="-4.2786216"><ele>113.5</ele><time>2026-04-28T08:25:22.678Z</time></trkpt><trkpt lat="48.3988421" lon="-4.2787178"><ele>113.0</ele><time>2026-04-28T08:25:23.68Z</time></trkpt><trkpt lat="48.398867" lon="-4.2788074"><ele>112.50000000000001</ele><time>2026-04-28T08:25:24.677Z</time></trkpt><trkpt lat="48.398867" lon="-4.2789735"><ele>112.0</ele><time>2026-04-28T08:25:26.681Z</time></trkpt><trkpt lat="48.3987794" lon="-4.2791054"><ele>112.00000000000001</ele><time>2026-04-28T08:25:28.675Z</time></trkpt><trkpt lat="48.3987361" lon="-4.2791811"><ele>112.0</ele><time>2026-04-28T08:25:29.676Z</time></trkpt><trkpt lat="48.3987027" lon="-4.2792733"><ele>112.0</ele><time>2026-04-28T08:25:30.677Z</time></trkpt><trkpt lat="48.3986736" lon="-4.2793878"><ele>112.0</ele><time>2026-04-28T08:25:31.678Z</time></trkpt><trkpt lat="48.3986448" lon="-4.2795106"><ele>112.00000000000001</ele><time>2026-04-28T08:25:32.683Z</time></trkpt><trkpt lat="48.398614" lon="-4.2796388"><ele>112.0</ele><time>2026-04-28T08:25:33.682Z</time></trkpt><trkpt lat="48.3985808" lon="-4.2797776"><ele>112.19999999999999</ele><time>2026-04-28T08:25:34.681Z</time></trkpt><trkpt lat="48.3985433" lon="-4.2799241"><ele>112.39999999999999</ele><time>2026-04-28T08:25:35.675Z</time></trkpt><trkpt lat="48.3984984" lon="-4.2800758"><ele>112.60000000000001</ele><time>2026-04-28T08:25:36.68Z</time></trkpt><trkpt lat="48.3984427" lon="-4.2802273"><ele>112.80000000000001</ele><time>2026-04-28T08:25:37.681Z</time></trkpt><trkpt lat="48.3983761" lon="-4.2803744"><ele>113.0</ele><time>2026-04-28T08:25:38.678Z</time></trkpt><trkpt lat="48.3983008" lon="-4.2805117"><ele>113.4</ele><time>2026-04-28T08:25:39.679Z</time></trkpt><trkpt lat="48.3982211" lon="-4.2806389"><ele>113.80000000000001</ele><time>2026-04-28T08:25:40.678Z</time></trkpt><trkpt lat="48.3981379" lon="-4.28075"><ele>114.2</ele><time>2026-04-28T08:25:41.676Z</time></trkpt><trkpt lat="48.3980511" lon="-4.2808563"><ele>114.6</ele><time>2026-04-28T08:25:42.678Z</time></trkpt><trkpt lat="48.3979693" lon="-4.2809552"><ele>115.0</ele><time>2026-04-28T08:25:43.673Z</time></trkpt><trkpt lat="48.3978891" lon="-4.2810457"><ele>115.00000000000001</ele><time>2026-04-28T08:25:44.68Z</time></trkpt><trkpt lat="48.3978115" lon="-4.2811361"><ele>115.0</ele><time>2026-04-28T08:25:45.674Z</time></trkpt><trkpt lat="48.3977399" lon="-4.2812266"><ele>115.0</ele><time>2026-04-28T08:25:46.683Z</time></trkpt><trkpt lat="48.3976754" lon="-4.2813141"><ele>115.0</ele><time>2026-04-28T08:25:47.676Z</time></trkpt><trkpt lat="48.3976133" lon="-4.2814"><ele>115.00000000000001</ele><time>2026-04-28T08:25:48.683Z</time></trkpt><trkpt lat="48.397555" lon="-4.2814683"><ele>115.0</ele><time>2026-04-28T08:25:49.674Z</time></trkpt><trkpt lat="48.39749" lon="-4.2815333"><ele>115.00000000000001</ele><time>2026-04-28T08:25:50.682Z</time></trkpt><trkpt lat="48.3974233" lon="-4.28161"><ele>115.0</ele><time>2026-04-28T08:25:51.682Z</time></trkpt><trkpt lat="48.3973467" lon="-4.2816983"><ele>115.0</ele><time>2026-04-28T08:25:52.681Z</time></trkpt><trkpt lat="48.3972783" lon="-4.281785"><ele>115.0</ele><time>2026-04-28T08:25:53.674Z</time></trkpt><trkpt lat="48.3972117" lon="-4.2818667"><ele>115.00000000000001</ele><time>2026-04-28T08:25:54.679Z</time></trkpt><trkpt lat="48.39715" lon="-4.281945"><ele>115.0</ele><time>2026-04-28T08:25:55.676Z</time></trkpt><trkpt lat="48.3970867" lon="-4.282005"><ele>114.83333333333334</ele><time>2026-04-28T08:25:56.683Z</time></trkpt><trkpt lat="48.3970283" lon="-4.282055"><ele>114.66666666666667</ele><time>2026-04-28T08:25:57.679Z</time></trkpt><trkpt lat="48.3969717" lon="-4.2821083"><ele>114.5</ele><time>2026-04-28T08:25:58.676Z</time></trkpt><trkpt lat="48.39691" lon="-4.282165"><ele>114.33333333333334</ele><time>2026-04-28T08:25:59.682Z</time></trkpt><trkpt lat="48.3968167" lon="-4.2822533"><ele>114.16666666666667</ele><time>2026-04-28T08:26:01.676Z</time></trkpt><trkpt lat="48.3967267" lon="-4.2822967"><ele>114.0</ele><time>2026-04-28T08:26:03.674Z</time></trkpt><trkpt lat="48.3966417" lon="-4.2823367"><ele>114.4</ele><time>2026-04-28T08:26:05.679Z</time></trkpt><trkpt lat="48.3965467" lon="-4.2823917"><ele>114.80000000000001</ele><time>2026-04-28T08:26:07.679Z</time></trkpt><trkpt lat="48.396435" lon="-4.2824483"><ele>115.19999999999999</ele><time>2026-04-28T08:26:09.676Z</time></trkpt><trkpt lat="48.3963333" lon="-4.2825017"><ele>115.6</ele><time>2026-04-28T08:26:11.678Z</time></trkpt><trkpt lat="48.3962383" lon="-4.28257"><ele>116.0</ele><time>2026-04-28T08:26:13.676Z</time></trkpt><trkpt lat="48.3961633" lon="-4.2826117"><ele>115.99999999999999</ele><time>2026-04-28T08:26:15.676Z</time></trkpt><trkpt lat="48.396105" lon="-4.2826517"><ele>116.0</ele><time>2026-04-28T08:26:17.678Z</time></trkpt><trkpt lat="48.396155" lon="-4.2825783"><ele>116.0</ele><time>2026-04-28T08:26:23.681Z</time></trkpt><trkpt lat="48.3962633" lon="-4.282525"><ele>116.0</ele><time>2026-04-28T08:26:25.678Z</time></trkpt><trkpt lat="48.3963283" lon="-4.2824867"><ele>115.99999999999999</ele><time>2026-04-28T08:26:26.678Z</time></trkpt><trkpt lat="48.3963917" lon="-4.28245"><ele>116.0</ele><time>2026-04-28T08:26:27.677Z</time></trkpt><trkpt lat="48.3964617" lon="-4.2824167"><ele>116.0</ele><time>2026-04-28T08:26:28.679Z</time></trkpt><trkpt lat="48.3965417" lon="-4.2823767"><ele>116.0</ele><time>2026-04-28T08:26:29.679Z</time></trkpt><trkpt lat="48.3966267" lon="-4.2823383"><ele>116.0</ele><time>2026-04-28T08:26:30.676Z</time></trkpt><trkpt lat="48.3967083" lon="-4.2822883"><ele>116.0</ele><time>2026-04-28T08:26:31.673Z</time></trkpt><trkpt lat="48.3967933" lon="-4.2822283"><ele>116.0</ele><time>2026-04-28T08:26:32.679Z</time></trkpt><trkpt lat="48.3968817" lon="-4.2821583"><ele>115.8</ele><time>2026-04-28T08:26:33.679Z</time></trkpt><trkpt lat="48.39696" lon="-4.2820817"><ele>115.6</ele><time>2026-04-28T08:26:34.674Z</time></trkpt><trkpt lat="48.3970333" lon="-4.2820067"><ele>115.4</ele><time>2026-04-28T08:26:35.68Z</time></trkpt><trkpt lat="48.3971133" lon="-4.2819217"><ele>115.2</ele><time>2026-04-28T08:26:36.679Z</time></trkpt><trkpt lat="48.3971983" lon="-4.2818267"><ele>115.0</ele><time>2026-04-28T08:26:37.678Z</time></trkpt><trkpt lat="48.3972767" lon="-4.2817417"><ele>115.0</ele><time>2026-04-28T08:26:38.675Z</time></trkpt><trkpt lat="48.397355" lon="-4.2816467"><ele>115.0</ele><time>2026-04-28T08:26:39.681Z</time></trkpt><trkpt lat="48.39744" lon="-4.28155"><ele>115.0</ele><time>2026-04-28T08:26:40.682Z</time></trkpt><trkpt lat="48.39752" lon="-4.281455"><ele>115.0</ele><time>2026-04-28T08:26:41.678Z</time></trkpt><trkpt lat="48.3975933" lon="-4.281355"><ele>115.0</ele><time>2026-04-28T08:26:42.681Z</time></trkpt><trkpt lat="48.3976717" lon="-4.2812567"><ele>115.0</ele><time>2026-04-28T08:26:43.678Z</time></trkpt><trkpt lat="48.39775" lon="-4.2811633"><ele>115.0</ele><time>2026-04-28T08:26:44.682Z</time></trkpt><trkpt lat="48.397825" lon="-4.2810683"><ele>115.0</ele><time>2026-04-28T08:26:45.677Z</time></trkpt><trkpt lat="48.3978917" lon="-4.2809767"><ele>115.0</ele><time>2026-04-28T08:26:46.678Z</time></trkpt><trkpt lat="48.3979517" lon="-4.280895"><ele>115.0</ele><time>2026-04-28T08:26:47.677Z</time></trkpt><trkpt lat="48.3980167" lon="-4.2808083"><ele>115.00000000000001</ele><time>2026-04-28T08:26:48.686Z</time></trkpt><trkpt lat="48.3980767" lon="-4.2807267"><ele>115.0</ele><time>2026-04-28T08:26:49.679Z</time></trkpt><trkpt lat="48.3981367" lon="-4.2806517"><ele>115.0</ele><time>2026-04-28T08:26:50.681Z</time></trkpt><trkpt lat="48.3981933" lon="-4.280575"><ele>115.0</ele><time>2026-04-28T08:26:51.674Z</time></trkpt><trkpt lat="48.39824" lon="-4.2805083"><ele>115.00000000000001</ele><time>2026-04-28T08:26:52.676Z</time></trkpt><trkpt lat="48.3983067" lon="-4.2803933"><ele>115.0</ele><time>2026-04-28T08:26:54.676Z</time></trkpt><trkpt lat="48.398385" lon="-4.2803917"><ele>115.0</ele><time>2026-04-28T08:26:58.675Z</time></trkpt><trkpt lat="48.39841" lon="-4.28048"><ele>115.0</ele><time>2026-04-28T08:27:00.676Z</time></trkpt><trkpt lat="48.39841" lon="-4.28058"><ele>115.0</ele><time>2026-04-28T08:27:02.678Z</time></trkpt><trkpt lat="48.398405" lon="-4.2807367"><ele>115.0</ele><time>2026-04-28T08:27:04.681Z</time></trkpt><trkpt lat="48.398395" lon="-4.2809133"><ele>115.0</ele><time>2026-04-28T08:27:06.673Z</time></trkpt><trkpt lat="48.39839" lon="-4.2810983"><ele>115.0</ele><time>2026-04-28T08:27:08.678Z</time></trkpt><trkpt lat="48.39839" lon="-4.2812767"><ele>115.0</ele><time>2026-04-28T08:27:10.681Z</time></trkpt><trkpt lat="48.3983883" lon="-4.281455"><ele>115.0</ele><time>2026-04-28T08:27:12.677Z</time></trkpt><trkpt lat="48.3983783" lon="-4.28164"><ele>115.0</ele><time>2026-04-28T08:27:14.676Z</time></trkpt><trkpt lat="48.3983667" lon="-4.2817983"><ele>114.33333333333334</ele><time>2026-04-28T08:27:16.678Z</time></trkpt><trkpt lat="48.39836" lon="-4.2818933"><ele>113.66666666666667</ele><time>2026-04-28T08:27:17.68Z</time></trkpt><trkpt lat="48.3983267" lon="-4.2820567"><ele>113.0</ele><time>2026-04-28T08:27:19.676Z</time></trkpt><trkpt lat="48.3983033" lon="-4.2821483"><ele>112.33333333333334</ele><time>2026-04-28T08:27:20.678Z</time></trkpt><trkpt lat="48.3982367" lon="-4.28232"><ele>111.66666666666667</ele><time>2026-04-28T08:27:22.678Z</time></trkpt><trkpt lat="48.3982067" lon="-4.282405"><ele>111.0</ele><time>2026-04-28T08:27:23.679Z</time></trkpt><trkpt lat="48.3981683" lon="-4.2825"><ele>111.16666666666667</ele><time>2026-04-28T08:27:24.68Z</time></trkpt><trkpt lat="48.398125" lon="-4.2825983"><ele>111.33333333333334</ele><time>2026-04-28T08:27:25.68Z</time></trkpt><trkpt lat="48.3980817" lon="-4.2826967"><ele>111.5</ele><time>2026-04-28T08:27:26.68Z</time></trkpt><trkpt lat="48.398035" lon="-4.282795"><ele>111.66666666666667</ele><time>2026-04-28T08:27:27.679Z</time></trkpt><trkpt lat="48.398" lon="-4.2828883"><ele>111.83333333333334</ele><time>2026-04-28T08:27:28.675Z</time></trkpt><trkpt lat="48.3979683" lon="-4.2829917"><ele>112.0</ele><time>2026-04-28T08:27:29.679Z</time></trkpt><trkpt lat="48.3979317" lon="-4.2831017"><ele>112.19999999999999</ele><time>2026-04-28T08:27:30.683Z</time></trkpt><trkpt lat="48.397895" lon="-4.2832067"><ele>112.39999999999999</ele><time>2026-04-28T08:27:31.675Z</time></trkpt><trkpt lat="48.39786" lon="-4.2832983"><ele>112.60000000000001</ele><time>2026-04-28T08:27:32.681Z</time></trkpt><trkpt lat="48.3978033" lon="-4.283475"><ele>112.80000000000001</ele><time>2026-04-28T08:27:34.687Z</time></trkpt><trkpt lat="48.3977567" lon="-4.28363"><ele>113.0</ele><time>2026-04-28T08:27:36.681Z</time></trkpt><trkpt lat="48.3976983" lon="-4.2837917"><ele>113.0</ele><time>2026-04-28T08:27:38.679Z</time></trkpt><trkpt lat="48.3976533" lon="-4.2839117"><ele>113.0</ele><time>2026-04-28T08:27:39.675Z</time></trkpt><trkpt lat="48.3976183" lon="-4.283995"><ele>113.0</ele><time>2026-04-28T08:27:40.685Z</time></trkpt><trkpt lat="48.3975817" lon="-4.2840833"><ele>113.0</ele><time>2026-04-28T08:27:41.678Z</time></trkpt><trkpt lat="48.3975383" lon="-4.28417"><ele>113.0</ele><time>2026-04-28T08:27:42.677Z</time></trkpt><trkpt lat="48.3974967" lon="-4.284255"><ele>113.0</ele><time>2026-04-28T08:27:43.683Z</time></trkpt><trkpt lat="48.3974533" lon="-4.2843517"><ele>113.0</ele><time>2026-04-28T08:27:44.68Z</time></trkpt><trkpt lat="48.397415" lon="-4.2844433"><ele>113.0</ele><time>2026-04-28T08:27:45.673Z</time></trkpt><trkpt lat="48.3973733" lon="-4.2845333"><ele>113.0</ele><time>2026-04-28T08:27:46.679Z</time></trkpt><trkpt lat="48.3973283" lon="-4.2846283"><ele>113.0</ele><time>2026-04-28T08:27:47.678Z</time></trkpt><trkpt lat="48.3972867" lon="-4.284715"><ele>113.0</ele><time>2026-04-28T08:27:48.675Z</time></trkpt><trkpt lat="48.3972417" lon="-4.2848067"><ele>113.0</ele><time>2026-04-28T08:27:49.681Z</time></trkpt><trkpt lat="48.397195" lon="-4.2848867"><ele>113.0</ele><time>2026-04-28T08:27:50.676Z</time></trkpt><trkpt lat="48.39715" lon="-4.2849767"><ele>113.0</ele><time>2026-04-28T08:27:51.671Z</time></trkpt><trkpt lat="48.397105" lon="-4.2850933"><ele>112.99999999999999</ele><time>2026-04-28T08:27:52.678Z</time></trkpt><trkpt lat="48.3970583" lon="-4.28521"><ele>113.0</ele><time>2026-04-28T08:27:53.68Z</time></trkpt><trkpt lat="48.39701" lon="-4.2853233"><ele>113.0</ele><time>2026-04-28T08:27:54.68Z</time></trkpt><trkpt lat="48.3969633" lon="-4.2854283"><ele>113.0</ele><time>2026-04-28T08:27:55.677Z</time></trkpt><trkpt lat="48.39692" lon="-4.2855267"><ele>112.99999999999999</ele><time>2026-04-28T08:27:56.68Z</time></trkpt><trkpt lat="48.396885" lon="-4.2856267"><ele>113.0</ele><time>2026-04-28T08:27:57.676Z</time></trkpt><trkpt lat="48.3968517" lon="-4.2857267"><ele>112.60000000000001</ele><time>2026-04-28T08:27:58.68Z</time></trkpt><trkpt lat="48.3968183" lon="-4.2858867"><ele>112.20000000000002</ele><time>2026-04-28T08:28:00.677Z</time></trkpt><trkpt lat="48.3967867" lon="-4.28599"><ele>111.8</ele><time>2026-04-28T08:28:01.674Z</time></trkpt><trkpt lat="48.3967517" lon="-4.286075"><ele>111.4</ele><time>2026-04-28T08:28:02.677Z</time></trkpt><trkpt lat="48.39669" lon="-4.2861917"><ele>111.0</ele><time>2026-04-28T08:28:03.675Z</time></trkpt><trkpt lat="48.396615" lon="-4.2863217"><ele>111.0</ele><time>2026-04-28T08:28:04.677Z</time></trkpt><trkpt lat="48.396535" lon="-4.2864483"><ele>111.0</ele><time>2026-04-28T08:28:05.681Z</time></trkpt><trkpt lat="48.3964583" lon="-4.28656"><ele>111.0</ele><time>2026-04-28T08:28:06.676Z</time></trkpt><trkpt lat="48.3963967" lon="-4.2866517"><ele>111.0</ele><time>2026-04-28T08:28:07.678Z</time></trkpt><trkpt lat="48.3963183" lon="-4.2867717"><ele>111.0</ele><time>2026-04-28T08:28:09.677Z</time></trkpt><trkpt lat="48.3962379" lon="-4.2868694"><ele>111.0</ele><time>2026-04-28T08:28:11.679Z</time></trkpt><trkpt lat="48.3961581" lon="-4.2869218"><ele>111.0</ele><time>2026-04-28T08:28:13.679Z</time></trkpt><trkpt lat="48.3960697" lon="-4.2870103"><ele>111.0</ele><time>2026-04-28T08:28:15.677Z</time></trkpt><trkpt lat="48.3959982" lon="-4.2870696"><ele>111.0</ele><time>2026-04-28T08:28:17.675Z</time></trkpt><trkpt lat="48.3959361" lon="-4.2871233"><ele>111.0</ele><time>2026-04-28T08:28:20.674Z</time></trkpt><trkpt lat="48.395893" lon="-4.2872805"><ele>110.5</ele><time>2026-04-28T08:28:22.677Z</time></trkpt><trkpt lat="48.3958778" lon="-4.28741"><ele>110.0</ele><time>2026-04-28T08:28:23.674Z</time></trkpt><trkpt lat="48.3958647" lon="-4.2875272"><ele>109.5</ele><time>2026-04-28T08:28:24.676Z</time></trkpt><trkpt lat="48.3958533" lon="-4.287625"><ele>109.0</ele><time>2026-04-28T08:28:25.676Z</time></trkpt><trkpt lat="48.3958383" lon="-4.287785"><ele>108.5</ele><time>2026-04-28T08:28:27.68Z</time></trkpt><trkpt lat="48.395815" lon="-4.287935"><ele>108.0</ele><time>2026-04-28T08:28:29.675Z</time></trkpt><trkpt lat="48.3957733" lon="-4.2880767"><ele>108.0</ele><time>2026-04-28T08:28:31.676Z</time></trkpt><trkpt lat="48.3957317" lon="-4.2881833"><ele>108.0</ele><time>2026-04-28T08:28:33.675Z</time></trkpt><trkpt lat="48.3956833" lon="-4.2882917"><ele>108.0</ele><time>2026-04-28T08:28:38.683Z</time></trkpt><trkpt lat="48.3956233" lon="-4.2884167"><ele>108.0</ele><time>2026-04-28T08:28:40.681Z</time></trkpt><trkpt lat="48.3955783" lon="-4.288525"><ele>108.0</ele><time>2026-04-28T08:28:41.68Z</time></trkpt><trkpt lat="48.3955383" lon="-4.2886517"><ele>108.0</ele><time>2026-04-28T08:28:42.678Z</time></trkpt><trkpt lat="48.3955017" lon="-4.2888017"><ele>108.75</ele><time>2026-04-28T08:28:43.68Z</time></trkpt><trkpt lat="48.3954617" lon="-4.2889667"><ele>109.5</ele><time>2026-04-28T08:28:44.683Z</time></trkpt><trkpt lat="48.39542" lon="-4.2891417"><ele>110.25</ele><time>2026-04-28T08:28:45.677Z</time></trkpt><trkpt lat="48.3953767" lon="-4.2893267"><ele>111.0</ele><time>2026-04-28T08:28:46.678Z</time></trkpt><trkpt lat="48.3953333" lon="-4.2895133"><ele>111.0</ele><time>2026-04-28T08:28:47.681Z</time></trkpt><trkpt lat="48.3952933" lon="-4.2897033"><ele>111.0</ele><time>2026-04-28T08:28:48.677Z</time></trkpt><trkpt lat="48.395255" lon="-4.2898833"><ele>111.0</ele><time>2026-04-28T08:28:49.678Z</time></trkpt><trkpt lat="48.39522" lon="-4.290055"><ele>111.0</ele><time>2026-04-28T08:28:50.681Z</time></trkpt><trkpt lat="48.3951867" lon="-4.2902183"><ele>110.8</ele><time>2026-04-28T08:28:51.682Z</time></trkpt><trkpt lat="48.39515" lon="-4.29037"><ele>110.6</ele><time>2026-04-28T08:28:52.677Z</time></trkpt><trkpt lat="48.3951217" lon="-4.2905217"><ele>110.4</ele><time>2026-04-28T08:28:53.676Z</time></trkpt><trkpt lat="48.3950833" lon="-4.2906683"><ele>110.2</ele><time>2026-04-28T08:28:54.688Z</time></trkpt><trkpt lat="48.3950433" lon="-4.290825"><ele>110.0</ele><time>2026-04-28T08:28:55.689Z</time></trkpt><trkpt lat="48.3949983" lon="-4.2909783"><ele>110.0</ele><time>2026-04-28T08:28:56.68Z</time></trkpt><trkpt lat="48.3949567" lon="-4.291135"><ele>110.0</ele><time>2026-04-28T08:28:57.682Z</time></trkpt><trkpt lat="48.394905" lon="-4.2912933"><ele>110.0</ele><time>2026-04-28T08:28:58.694Z</time></trkpt><trkpt lat="48.3948583" lon="-4.291455"><ele>110.0</ele><time>2026-04-28T08:28:59.68Z</time></trkpt><trkpt lat="48.3948267" lon="-4.2916183"><ele>109.5</ele><time>2026-04-28T08:29:00.681Z</time></trkpt><trkpt lat="48.394795" lon="-4.2917883"><ele>109.0</ele><time>2026-04-28T08:29:01.679Z</time></trkpt><trkpt lat="48.39477" lon="-4.291955"><ele>108.5</ele><time>2026-04-28T08:29:02.675Z</time></trkpt><trkpt lat="48.3947317" lon="-4.2921283"><ele>108.0</ele><time>2026-04-28T08:29:03.677Z</time></trkpt><trkpt lat="48.39469" lon="-4.2923017"><ele>108.5</ele><time>2026-04-28T08:29:04.675Z</time></trkpt><trkpt lat="48.3946467" lon="-4.292465"><ele>109.0</ele><time>2026-04-28T08:29:05.677Z</time></trkpt><trkpt lat="48.3946017" lon="-4.29262"><ele>109.5</ele><time>2026-04-28T08:29:06.682Z</time></trkpt><trkpt lat="48.394555" lon="-4.292775"><ele>110.0</ele><time>2026-04-28T08:29:07.672Z</time></trkpt><trkpt lat="48.394515" lon="-4.29294"><ele>109.5</ele><time>2026-04-28T08:29:08.68Z</time></trkpt><trkpt lat="48.3944767" lon="-4.29311"><ele>109.0</ele><time>2026-04-28T08:29:09.677Z</time></trkpt><trkpt lat="48.3944367" lon="-4.2932817"><ele>108.5</ele><time>2026-04-28T08:29:10.679Z</time></trkpt><trkpt lat="48.394385" lon="-4.29346"><ele>108.0</ele><time>2026-04-28T08:29:11.679Z</time></trkpt><trkpt lat="48.3943367" lon="-4.29365"><ele>108.0</ele><time>2026-04-28T08:29:12.676Z</time></trkpt><trkpt lat="48.3942883" lon="-4.2938267"><ele>108.0</ele><time>2026-04-28T08:29:13.68Z</time></trkpt><trkpt lat="48.3942333" lon="-4.2940017"><ele>108.0</ele><time>2026-04-28T08:29:14.678Z</time></trkpt><trkpt lat="48.3941783" lon="-4.2941783"><ele>108.0</ele><time>2026-04-28T08:29:15.681Z</time></trkpt><trkpt lat="48.39412" lon="-4.29434"><ele>108.0</ele><time>2026-04-28T08:29:16.678Z</time></trkpt><trkpt lat="48.3940783" lon="-4.2944917"><ele>108.0</ele><time>2026-04-28T08:29:17.68Z</time></trkpt><trkpt lat="48.3940467" lon="-4.2946267"><ele>108.0</ele><time>2026-04-28T08:29:18.678Z</time></trkpt><trkpt lat="48.3940233" lon="-4.29473"><ele>108.0</ele><time>2026-04-28T08:29:19.679Z</time></trkpt><trkpt lat="48.3939917" lon="-4.2948667"><ele>108.0</ele><time>2026-04-28T08:29:21.68Z</time></trkpt><trkpt lat="48.3939767" lon="-4.2949717"><ele>108.0</ele><time>2026-04-28T08:29:23.683Z</time></trkpt><trkpt lat="48.39395" lon="-4.2951117"><ele>108.2</ele><time>2026-04-28T08:29:25.683Z</time></trkpt><trkpt lat="48.39393" lon="-4.2952567"><ele>108.4</ele><time>2026-04-28T08:29:27.681Z</time></trkpt><trkpt lat="48.393905" lon="-4.2954"><ele>108.60000000000001</ele><time>2026-04-28T08:29:29.678Z</time></trkpt><trkpt lat="48.3938717" lon="-4.2955367"><ele>108.80000000000001</ele><time>2026-04-28T08:29:31.68Z</time></trkpt><trkpt lat="48.3938567" lon="-4.2956967"><ele>109.0</ele><time>2026-04-28T08:29:33.683Z</time></trkpt><trkpt lat="48.393865" lon="-4.2957967"><ele>109.0</ele><time>2026-04-28T08:29:34.675Z</time></trkpt><trkpt lat="48.3938667" lon="-4.2959067"><ele>109.0</ele><time>2026-04-28T08:29:35.683Z</time></trkpt><trkpt lat="48.39387" lon="-4.2960033"><ele>109.0</ele><time>2026-04-28T08:29:36.683Z</time></trkpt><trkpt lat="48.3938633" lon="-4.29611"><ele>109.0</ele><time>2026-04-28T08:29:37.679Z</time></trkpt><trkpt lat="48.3938567" lon="-4.29621"><ele>109.0</ele><time>2026-04-28T08:29:38.678Z</time></trkpt><trkpt lat="48.39384" lon="-4.2963117"><ele>109.0</ele><time>2026-04-28T08:29:39.678Z</time></trkpt><trkpt lat="48.3938217" lon="-4.29642"><ele>109.0</ele><time>2026-04-28T08:29:40.677Z</time></trkpt><trkpt lat="48.393805" lon="-4.2965233"><ele>109.42857142857143</ele><time>2026-04-28T08:29:41.682Z</time></trkpt><trkpt lat="48.3937817" lon="-4.2966167"><ele>109.85714285714286</ele><time>2026-04-28T08:29:42.68Z</time></trkpt><trkpt lat="48.3937717" lon="-4.2967183"><ele>110.28571428571428</ele><time>2026-04-28T08:29:43.681Z</time></trkpt><trkpt lat="48.3937717" lon="-4.2968217"><ele>110.71428571428572</ele><time>2026-04-28T08:29:44.681Z</time></trkpt><trkpt lat="48.3937767" lon="-4.29693"><ele>111.14285714285714</ele><time>2026-04-28T08:29:45.68Z</time></trkpt><trkpt lat="48.3937867" lon="-4.297035"><ele>111.57142857142857</ele><time>2026-04-28T08:29:46.678Z</time></trkpt><trkpt lat="48.3938017" lon="-4.2971317"><ele>112.0</ele><time>2026-04-28T08:29:47.679Z</time></trkpt><trkpt lat="48.3938167" lon="-4.2973133"><ele>112.16666666666667</ele><time>2026-04-28T08:29:49.68Z</time></trkpt><trkpt lat="48.3938117" lon="-4.2974167"><ele>112.33333333333334</ele><time>2026-04-28T08:29:50.683Z</time></trkpt><trkpt lat="48.3938083" lon="-4.2975367"><ele>112.5</ele><time>2026-04-28T08:29:51.68Z</time></trkpt><trkpt lat="48.39381" lon="-4.2977217"><ele>112.66666666666666</ele><time>2026-04-28T08:29:53.679Z</time></trkpt><trkpt lat="48.3937967" lon="-4.297835"><ele>112.83333333333333</ele><time>2026-04-28T08:29:54.678Z</time></trkpt><trkpt lat="48.3937867" lon="-4.297935"><ele>113.0</ele><time>2026-04-28T08:29:55.682Z</time></trkpt><trkpt lat="48.39378" lon="-4.29803"><ele>113.0</ele><time>2026-04-28T08:29:56.68Z</time></trkpt><trkpt lat="48.393765" lon="-4.2981333"><ele>113.0</ele><time>2026-04-28T08:29:57.68Z</time></trkpt><trkpt lat="48.3937383" lon="-4.2982467"><ele>113.0</ele><time>2026-04-28T08:29:58.675Z</time></trkpt><trkpt lat="48.393725" lon="-4.2983533"><ele>113.0</ele><time>2026-04-28T08:29:59.68Z</time></trkpt><trkpt lat="48.3937083" lon="-4.2984467"><ele>113.0</ele><time>2026-04-28T08:30:00.684Z</time></trkpt><trkpt lat="48.39369" lon="-4.2985417"><ele>113.0</ele><time>2026-04-28T08:30:01.679Z</time></trkpt><trkpt lat="48.39368" lon="-4.2986433"><ele>113.0</ele><time>2026-04-28T08:30:02.678Z</time></trkpt><trkpt lat="48.393665" lon="-4.298745"><ele>113.0</ele><time>2026-04-28T08:30:03.673Z</time></trkpt><trkpt lat="48.393645" lon="-4.2988533"><ele>113.0</ele><time>2026-04-28T08:30:04.674Z</time></trkpt><trkpt lat="48.3936317" lon="-4.2989533"><ele>113.0</ele><time>2026-04-28T08:30:05.675Z</time></trkpt><trkpt lat="48.39362" lon="-4.29906"><ele>113.0</ele><time>2026-04-28T08:30:06.681Z</time></trkpt><trkpt lat="48.3936067" lon="-4.2991583"><ele>113.0</ele><time>2026-04-28T08:30:07.676Z</time></trkpt><trkpt lat="48.39359" lon="-4.2992533"><ele>113.0</ele><time>2026-04-28T08:30:08.679Z</time></trkpt><trkpt lat="48.3935767" lon="-4.2993483"><ele>113.0</ele><time>2026-04-28T08:30:09.679Z</time></trkpt><trkpt lat="48.39355" lon="-4.2995217"><ele>112.99999999999999</ele><time>2026-04-28T08:30:11.676Z</time></trkpt><trkpt lat="48.393525" lon="-4.2996983"><ele>113.0</ele><time>2026-04-28T08:30:13.673Z</time></trkpt><trkpt lat="48.393535" lon="-4.299805"><ele>113.0</ele><time>2026-04-28T08:30:14.685Z</time></trkpt><trkpt lat="48.3935433" lon="-4.2999183"><ele>113.0</ele><time>2026-04-28T08:30:15.682Z</time></trkpt><trkpt lat="48.39355" lon="-4.3000417"><ele>112.99999999999999</ele><time>2026-04-28T08:30:16.678Z</time></trkpt><trkpt lat="48.39356" lon="-4.30016"><ele>113.0</ele><time>2026-04-28T08:30:17.681Z</time></trkpt><trkpt lat="48.3935683" lon="-4.3002633"><ele>113.33333333333333</ele><time>2026-04-28T08:30:18.685Z</time></trkpt><trkpt lat="48.3935767" lon="-4.3003867"><ele>113.66666666666666</ele><time>2026-04-28T08:30:19.681Z</time></trkpt><trkpt lat="48.3935867" lon="-4.3005033"><ele>114.0</ele><time>2026-04-28T08:30:20.679Z</time></trkpt><trkpt lat="48.39359" lon="-4.300615"><ele>114.33333333333334</ele><time>2026-04-28T08:30:21.675Z</time></trkpt><trkpt lat="48.39359" lon="-4.3007283"><ele>114.66666666666667</ele><time>2026-04-28T08:30:22.681Z</time></trkpt><trkpt lat="48.393575" lon="-4.3008433"><ele>115.0</ele><time>2026-04-28T08:30:23.675Z</time></trkpt><trkpt lat="48.3935533" lon="-4.3009717"><ele>115.2</ele><time>2026-04-28T08:30:24.679Z</time></trkpt><trkpt lat="48.3935433" lon="-4.3010667"><ele>115.4</ele><time>2026-04-28T08:30:25.683Z</time></trkpt><trkpt lat="48.39353" lon="-4.3012467"><ele>115.6</ele><time>2026-04-28T08:30:27.677Z</time></trkpt><trkpt lat="48.393535" lon="-4.3014233"><ele>115.8</ele><time>2026-04-28T08:30:29.682Z</time></trkpt><trkpt lat="48.393535" lon="-4.301615"><ele>116.0</ele><time>2026-04-28T08:30:31.682Z</time></trkpt><trkpt lat="48.3935333" lon="-4.301715"><ele>116.16666666666666</ele><time>2026-04-28T08:30:32.685Z</time></trkpt><trkpt lat="48.3935417" lon="-4.3018133"><ele>116.33333333333333</ele><time>2026-04-28T08:30:33.677Z</time></trkpt><trkpt lat="48.393555" lon="-4.3019067"><ele>116.5</ele><time>2026-04-28T08:30:34.678Z</time></trkpt><trkpt lat="48.3935833" lon="-4.30208"><ele>116.66666666666666</ele><time>2026-04-28T08:30:36.684Z</time></trkpt><trkpt lat="48.3936" lon="-4.3021767"><ele>116.83333333333333</ele><time>2026-04-28T08:30:37.681Z</time></trkpt><trkpt lat="48.393615" lon="-4.30228"><ele>117.0</ele><time>2026-04-28T08:30:38.681Z</time></trkpt><trkpt lat="48.39363" lon="-4.30239"><ele>117.14285714285715</ele><time>2026-04-28T08:30:39.676Z</time></trkpt><trkpt lat="48.3936533" lon="-4.3024983"><ele>117.2857142857143</ele><time>2026-04-28T08:30:40.675Z</time></trkpt><trkpt lat="48.3936767" lon="-4.3026033"><ele>117.42857142857143</ele><time>2026-04-28T08:30:41.681Z</time></trkpt><trkpt lat="48.3936967" lon="-4.3027117"><ele>117.57142857142858</ele><time>2026-04-28T08:30:42.681Z</time></trkpt><trkpt lat="48.3937183" lon="-4.3028217"><ele>117.71428571428572</ele><time>2026-04-28T08:30:43.681Z</time></trkpt><trkpt lat="48.3937383" lon="-4.3029283"><ele>117.85714285714286</ele><time>2026-04-28T08:30:44.681Z</time></trkpt><trkpt lat="48.393755" lon="-4.3030283"><ele>118.0</ele><time>2026-04-28T08:30:45.681Z</time></trkpt><trkpt lat="48.3937733" lon="-4.30313"><ele>118.83333333333334</ele><time>2026-04-28T08:30:46.677Z</time></trkpt><trkpt lat="48.3937883" lon="-4.30323"><ele>119.66666666666667</ele><time>2026-04-28T08:30:47.68Z</time></trkpt><trkpt lat="48.3937917" lon="-4.30342"><ele>120.5</ele><time>2026-04-28T08:30:49.679Z</time></trkpt><trkpt lat="48.39379" lon="-4.30353"><ele>121.33333333333334</ele><time>2026-04-28T08:30:50.684Z</time></trkpt><trkpt lat="48.39379" lon="-4.303645"><ele>122.16666666666667</ele><time>2026-04-28T08:30:51.678Z</time></trkpt><trkpt lat="48.393795" lon="-4.3037617"><ele>123.0</ele><time>2026-04-28T08:30:52.681Z</time></trkpt><trkpt lat="48.3937967" lon="-4.30389"><ele>123.5</ele><time>2026-04-28T08:30:53.678Z</time></trkpt><trkpt lat="48.3938" lon="-4.30402"><ele>124.0</ele><time>2026-04-28T08:30:54.677Z</time></trkpt><trkpt lat="48.3938033" lon="-4.3041467"><ele>124.5</ele><time>2026-04-28T08:30:55.676Z</time></trkpt><trkpt lat="48.3938083" lon="-4.304275"><ele>125.0</ele><time>2026-04-28T08:30:56.679Z</time></trkpt><trkpt lat="48.3938067" lon="-4.3044017"><ele>125.5</ele><time>2026-04-28T08:30:57.673Z</time></trkpt><trkpt lat="48.3938067" lon="-4.3045233"><ele>126.0</ele><time>2026-04-28T08:30:58.679Z</time></trkpt><trkpt lat="48.39381" lon="-4.3046433"><ele>126.0</ele><time>2026-04-28T08:30:59.679Z</time></trkpt><trkpt lat="48.3938183" lon="-4.3047583"><ele>126.0</ele><time>2026-04-28T08:31:00.684Z</time></trkpt><trkpt lat="48.39383" lon="-4.3048667"><ele>126.0</ele><time>2026-04-28T08:31:01.68Z</time></trkpt><trkpt lat="48.3938467" lon="-4.3049717"><ele>126.0</ele><time>2026-04-28T08:31:02.682Z</time></trkpt><trkpt lat="48.39387" lon="-4.30506"><ele>126.0</ele><time>2026-04-28T08:31:03.68Z</time></trkpt><trkpt lat="48.393905" lon="-4.3052183"><ele>126.0</ele><time>2026-04-28T08:31:05.68Z</time></trkpt><trkpt lat="48.393935" lon="-4.3053283"><ele>125.8</ele><time>2026-04-28T08:31:08.674Z</time></trkpt><trkpt lat="48.3940033" lon="-4.305405"><ele>125.6</ele><time>2026-04-28T08:31:12.679Z</time></trkpt><trkpt lat="48.3940633" lon="-4.3054733"><ele>125.4</ele><time>2026-04-28T08:31:14.678Z</time></trkpt><trkpt lat="48.394105" lon="-4.3056083"><ele>125.2</ele><time>2026-04-28T08:31:16.681Z</time></trkpt><trkpt lat="48.3941333" lon="-4.3057683"><ele>125.0</ele><time>2026-04-28T08:31:18.679Z</time></trkpt><trkpt lat="48.394175" lon="-4.30594"><ele>125.0</ele><time>2026-04-28T08:31:20.677Z</time></trkpt><trkpt lat="48.3942033" lon="-4.3060283"><ele>125.0</ele><time>2026-04-28T08:31:21.681Z</time></trkpt><trkpt lat="48.394255" lon="-4.306205"><ele>125.0</ele><time>2026-04-28T08:31:23.68Z</time></trkpt><trkpt lat="48.394305" lon="-4.3063717"><ele>125.0</ele><time>2026-04-28T08:31:25.68Z</time></trkpt><trkpt lat="48.39434" lon="-4.306545"><ele>125.0</ele><time>2026-04-28T08:31:27.678Z</time></trkpt><trkpt lat="48.39438" lon="-4.30673"><ele>125.14285714285714</ele><time>2026-04-28T08:31:29.679Z</time></trkpt><trkpt lat="48.3944083" lon="-4.3068383"><ele>125.28571428571429</ele><time>2026-04-28T08:31:30.68Z</time></trkpt><trkpt lat="48.39443" lon="-4.30694"><ele>125.42857142857143</ele><time>2026-04-28T08:31:31.675Z</time></trkpt><trkpt lat="48.3944533" lon="-4.3070483"><ele>125.57142857142857</ele><time>2026-04-28T08:31:32.682Z</time></trkpt><trkpt lat="48.3944817" lon="-4.3071567"><ele>125.71428571428572</ele><time>2026-04-28T08:31:33.684Z</time></trkpt><trkpt lat="48.3945083" lon="-4.3072667"><ele>125.85714285714286</ele><time>2026-04-28T08:31:34.68Z</time></trkpt><trkpt lat="48.3945333" lon="-4.3073633"><ele>126.0</ele><time>2026-04-28T08:31:35.687Z</time></trkpt><trkpt lat="48.3945467" lon="-4.3075533"><ele>126.0</ele><time>2026-04-28T08:31:37.676Z</time></trkpt><trkpt lat="48.3945367" lon="-4.3076517"><ele>126.0</ele><time>2026-04-28T08:31:38.677Z</time></trkpt><trkpt lat="48.39455" lon="-4.3077983"><ele>126.0</ele><time>2026-04-28T08:31:40.674Z</time></trkpt><trkpt lat="48.394565" lon="-4.30792"><ele>126.0</ele><time>2026-04-28T08:31:42.683Z</time></trkpt><trkpt lat="48.3945833" lon="-4.3080183"><ele>126.0</ele><time>2026-04-28T08:31:44.68Z</time></trkpt><trkpt lat="48.3946067" lon="-4.3081283"><ele>126.0</ele><time>2026-04-28T08:31:46.677Z</time></trkpt><trkpt lat="48.3946267" lon="-4.3082583"><ele>125.8</ele><time>2026-04-28T08:31:48.68Z</time></trkpt><trkpt lat="48.3946467" lon="-4.30838"><ele>125.6</ele><time>2026-04-28T08:31:50.675Z</time></trkpt><trkpt lat="48.3946683" lon="-4.3084967"><ele>125.4</ele><time>2026-04-28T08:31:52.676Z</time></trkpt><trkpt lat="48.3946867" lon="-4.3086267"><ele>125.2</ele><time>2026-04-28T08:31:54.678Z</time></trkpt><trkpt lat="48.3947083" lon="-4.3088"><ele>125.0</ele><time>2026-04-28T08:31:56.683Z</time></trkpt><trkpt lat="48.3947267" lon="-4.3089917"><ele>125.66666666666666</ele><time>2026-04-28T08:31:58.677Z</time></trkpt><trkpt lat="48.39473" lon="-4.3091017"><ele>126.33333333333333</ele><time>2026-04-28T08:31:59.679Z</time></trkpt><trkpt lat="48.3947367" lon="-4.3092117"><ele>127.0</ele><time>2026-04-28T08:32:00.68Z</time></trkpt><trkpt lat="48.3947467" lon="-4.30933"><ele>127.66666666666666</ele><time>2026-04-28T08:32:01.68Z</time></trkpt><trkpt lat="48.3947583" lon="-4.309445"><ele>128.33333333333334</ele><time>2026-04-28T08:32:02.678Z</time></trkpt><trkpt lat="48.3947733" lon="-4.30955"><ele>129.0</ele><time>2026-04-28T08:32:03.678Z</time></trkpt><trkpt lat="48.3947917" lon="-4.3096633"><ele>129.0</ele><time>2026-04-28T08:32:04.677Z</time></trkpt><trkpt lat="48.394805" lon="-4.3097683"><ele>129.0</ele><time>2026-04-28T08:32:05.676Z</time></trkpt><trkpt lat="48.3948217" lon="-4.3098783"><ele>129.0</ele><time>2026-04-28T08:32:06.678Z</time></trkpt><trkpt lat="48.3948267" lon="-4.3099883"><ele>129.0</ele><time>2026-04-28T08:32:07.682Z</time></trkpt><trkpt lat="48.3948417" lon="-4.3100883"><ele>129.0</ele><time>2026-04-28T08:32:08.675Z</time></trkpt><trkpt lat="48.3948633" lon="-4.3102467"><ele>129.0</ele><time>2026-04-28T08:32:10.675Z</time></trkpt><trkpt lat="48.3948717" lon="-4.3103783"><ele>129.0</ele><time>2026-04-28T08:32:12.679Z</time></trkpt><trkpt lat="48.3948317" lon="-4.3104667"><ele>129.0</ele><time>2026-04-28T08:32:15.681Z</time></trkpt><trkpt lat="48.3947483" lon="-4.3105133"><ele>129.0</ele><time>2026-04-28T08:32:17.676Z</time></trkpt><trkpt lat="48.39467" lon="-4.3105517"><ele>129.0</ele><time>2026-04-28T08:32:19.677Z</time></trkpt><trkpt lat="48.3945767" lon="-4.310635"><ele>129.0</ele><time>2026-04-28T08:32:36.678Z</time></trkpt><trkpt lat="48.3945" lon="-4.3106417"><ele>129.0</ele><time>2026-04-28T08:32:38.673Z</time></trkpt><trkpt lat="48.3944283" lon="-4.310625"><ele>128.2</ele><time>2026-04-28T08:32:39.676Z</time></trkpt><trkpt lat="48.39436" lon="-4.3106117"><ele>127.4</ele><time>2026-04-28T08:32:40.678Z</time></trkpt><trkpt lat="48.39426" lon="-4.3105917"><ele>126.6</ele><time>2026-04-28T08:32:41.678Z</time></trkpt><trkpt lat="48.3941567" lon="-4.310575"><ele>125.8</ele><time>2026-04-28T08:32:42.676Z</time></trkpt><trkpt lat="48.394035" lon="-4.3105667"><ele>125.0</ele><time>2026-04-28T08:32:43.676Z</time></trkpt><trkpt lat="48.3939083" lon="-4.3105583"><ele>124.0</ele><time>2026-04-28T08:32:44.671Z</time></trkpt><trkpt lat="48.3937717" lon="-4.3105433"><ele>123.0</ele><time>2026-04-28T08:32:45.672Z</time></trkpt><trkpt lat="48.39364" lon="-4.3105267"><ele>122.0</ele><time>2026-04-28T08:32:46.679Z</time></trkpt><trkpt lat="48.3935033" lon="-4.3105133"><ele>121.0</ele><time>2026-04-28T08:32:47.675Z</time></trkpt><trkpt lat="48.3933633" lon="-4.3104967"><ele>121.0</ele><time>2026-04-28T08:32:48.68Z</time></trkpt><trkpt lat="48.3932267" lon="-4.3104817"><ele>121.0</ele><time>2026-04-28T08:32:49.682Z</time></trkpt><trkpt lat="48.3930933" lon="-4.3104633"><ele>121.0</ele><time>2026-04-28T08:32:50.679Z</time></trkpt><trkpt lat="48.39296" lon="-4.31043"><ele>121.0</ele><time>2026-04-28T08:32:51.676Z</time></trkpt><trkpt lat="48.3928233" lon="-4.3103817"><ele>120.25</ele><time>2026-04-28T08:32:52.678Z</time></trkpt><trkpt lat="48.3926833" lon="-4.3103183"><ele>119.5</ele><time>2026-04-28T08:32:53.676Z</time></trkpt><trkpt lat="48.3925433" lon="-4.3102433"><ele>118.75</ele><time>2026-04-28T08:32:54.676Z</time></trkpt><trkpt lat="48.3924" lon="-4.31016"><ele>118.0</ele><time>2026-04-28T08:32:55.679Z</time></trkpt><trkpt lat="48.3922467" lon="-4.3100617"><ele>118.0</ele><time>2026-04-28T08:32:56.678Z</time></trkpt><trkpt lat="48.392085" lon="-4.3099583"><ele>118.0</ele><time>2026-04-28T08:32:57.674Z</time></trkpt><trkpt lat="48.3919233" lon="-4.30985"><ele>118.0</ele><time>2026-04-28T08:32:58.675Z</time></trkpt><trkpt lat="48.39176" lon="-4.3097333"><ele>118.66666666666667</ele><time>2026-04-28T08:32:59.677Z</time></trkpt><trkpt lat="48.3915983" lon="-4.3096217"><ele>119.33333333333334</ele><time>2026-04-28T08:33:00.68Z</time></trkpt><trkpt lat="48.3914367" lon="-4.3095167"><ele>120.0</ele><time>2026-04-28T08:33:01.675Z</time></trkpt><trkpt lat="48.39128" lon="-4.30941"><ele>120.33333333333334</ele><time>2026-04-28T08:33:02.679Z</time></trkpt><trkpt lat="48.3911233" lon="-4.3093067"><ele>120.66666666666667</ele><time>2026-04-28T08:33:03.68Z</time></trkpt><trkpt lat="48.3909683" lon="-4.3092083"><ele>121.0</ele><time>2026-04-28T08:33:04.679Z</time></trkpt><trkpt lat="48.3908083" lon="-4.309125"><ele>121.0</ele><time>2026-04-28T08:33:05.676Z</time></trkpt><trkpt lat="48.3906483" lon="-4.3090667"><ele>121.0</ele><time>2026-04-28T08:33:06.685Z</time></trkpt><trkpt lat="48.3904867" lon="-4.3090367"><ele>121.0</ele><time>2026-04-28T08:33:07.678Z</time></trkpt><trkpt lat="48.3903233" lon="-4.3090217"><ele>120.0</ele><time>2026-04-28T08:33:08.677Z</time></trkpt><trkpt lat="48.39016" lon="-4.3090083"><ele>119.0</ele><time>2026-04-28T08:33:09.678Z</time></trkpt><trkpt lat="48.3899933" lon="-4.308985"><ele>118.0</ele><time>2026-04-28T08:33:10.683Z</time></trkpt><trkpt lat="48.3898267" lon="-4.3089433"><ele>115.66666666666667</ele><time>2026-04-28T08:33:11.684Z</time></trkpt><trkpt lat="48.389675" lon="-4.3088783"><ele>113.33333333333334</ele><time>2026-04-28T08:33:12.677Z</time></trkpt><trkpt lat="48.3895183" lon="-4.30882"><ele>111.0</ele><time>2026-04-28T08:33:13.676Z</time></trkpt><trkpt lat="48.3893567" lon="-4.3087667"><ele>111.0</ele><time>2026-04-28T08:33:14.677Z</time></trkpt><trkpt lat="48.3891917" lon="-4.308725"><ele>111.0</ele><time>2026-04-28T08:33:15.679Z</time></trkpt><trkpt lat="48.3890267" lon="-4.3086867"><ele>111.0</ele><time>2026-04-28T08:33:16.676Z</time></trkpt><trkpt lat="48.3888617" lon="-4.30866"><ele>109.33333333333334</ele><time>2026-04-28T08:33:17.677Z</time></trkpt><trkpt lat="48.3886933" lon="-4.3086517"><ele>107.66666666666667</ele><time>2026-04-28T08:33:18.682Z</time></trkpt><trkpt lat="48.388525" lon="-4.30867"><ele>106.0</ele><time>2026-04-28T08:33:19.68Z</time></trkpt><trkpt lat="48.388355" lon="-4.30871"><ele>106.0</ele><time>2026-04-28T08:33:20.684Z</time></trkpt><trkpt lat="48.38819" lon="-4.3087633"><ele>106.0</ele><time>2026-04-28T08:33:21.673Z</time></trkpt><trkpt lat="48.388025" lon="-4.3088217"><ele>106.0</ele><time>2026-04-28T08:33:22.679Z</time></trkpt><trkpt lat="48.3878583" lon="-4.3088817"><ele>104.0</ele><time>2026-04-28T08:33:23.675Z</time></trkpt><trkpt lat="48.3876867" lon="-4.308925"><ele>102.0</ele><time>2026-04-28T08:33:24.674Z</time></trkpt><trkpt lat="48.387515" lon="-4.3089517"><ele>100.0</ele><time>2026-04-28T08:33:25.674Z</time></trkpt><trkpt lat="48.3873467" lon="-4.3089667"><ele>100.0</ele><time>2026-04-28T08:33:26.675Z</time></trkpt><trkpt lat="48.38718" lon="-4.3089717"><ele>100.0</ele><time>2026-04-28T08:33:27.674Z</time></trkpt><trkpt lat="48.387015" lon="-4.308975"><ele>100.0</ele><time>2026-04-28T08:33:28.674Z</time></trkpt><trkpt lat="48.3868517" lon="-4.3089783"><ele>98.0</ele><time>2026-04-28T08:33:29.675Z</time></trkpt><trkpt lat="48.386695" lon="-4.3089783"><ele>96.0</ele><time>2026-04-28T08:33:30.677Z</time></trkpt><trkpt lat="48.386555" lon="-4.3089733"><ele>94.0</ele><time>2026-04-28T08:33:31.68Z</time></trkpt><trkpt lat="48.38643" lon="-4.3089667"><ele>92.0</ele><time>2026-04-28T08:33:32.675Z</time></trkpt><trkpt lat="48.386315" lon="-4.3089617"><ele>91.0</ele><time>2026-04-28T08:33:33.678Z</time></trkpt><trkpt lat="48.3862167" lon="-4.3089583"><ele>90.0</ele><time>2026-04-28T08:33:34.676Z</time></trkpt><trkpt lat="48.3861283" lon="-4.3089517"><ele>89.0</ele><time>2026-04-28T08:33:35.679Z</time></trkpt><trkpt lat="48.3860533" lon="-4.3089467"><ele>88.0</ele><time>2026-04-28T08:33:36.679Z</time></trkpt><trkpt lat="48.3859883" lon="-4.30896"><ele>87.0</ele><time>2026-04-28T08:33:37.677Z</time></trkpt><trkpt lat="48.3859283" lon="-4.3089933"><ele>86.0</ele><time>2026-04-28T08:33:38.675Z</time></trkpt><trkpt lat="48.385865" lon="-4.3091517"><ele>86.0</ele><time>2026-04-28T08:33:40.675Z</time></trkpt><trkpt lat="48.385855" lon="-4.3092733"><ele>86.0</ele><time>2026-04-28T08:33:41.68Z</time></trkpt><trkpt lat="48.385855" lon="-4.3094117"><ele>86.0</ele><time>2026-04-28T08:33:42.677Z</time></trkpt><trkpt lat="48.3858567" lon="-4.309575"><ele>86.0</ele><time>2026-04-28T08:33:43.676Z</time></trkpt><trkpt lat="48.3858583" lon="-4.3097617"><ele>86.0</ele><time>2026-04-28T08:33:44.681Z</time></trkpt><trkpt lat="48.385855" lon="-4.30995"><ele>86.0</ele><time>2026-04-28T08:33:45.672Z</time></trkpt><trkpt lat="48.3858517" lon="-4.31014"><ele>86.0</ele><time>2026-04-28T08:33:46.679Z</time></trkpt><trkpt lat="48.3858483" lon="-4.3103383"><ele>86.0</ele><time>2026-04-28T08:33:47.676Z</time></trkpt><trkpt lat="48.385845" lon="-4.310545"><ele>86.0</ele><time>2026-04-28T08:33:48.676Z</time></trkpt><trkpt lat="48.3858417" lon="-4.3107583"><ele>86.0</ele><time>2026-04-28T08:33:49.675Z</time></trkpt><trkpt lat="48.3858433" lon="-4.31098"><ele>86.0</ele><time>2026-04-28T08:33:50.675Z</time></trkpt><trkpt lat="48.3858483" lon="-4.3112017"><ele>86.0</ele><time>2026-04-28T08:33:51.677Z</time></trkpt><trkpt lat="48.3858533" lon="-4.3114267"><ele>86.0</ele><time>2026-04-28T08:33:52.678Z</time></trkpt><trkpt lat="48.3858567" lon="-4.3116533"><ele>85.66666666666667</ele><time>2026-04-28T08:33:53.678Z</time></trkpt><trkpt lat="48.3858567" lon="-4.3118833"><ele>85.33333333333333</ele><time>2026-04-28T08:33:54.679Z</time></trkpt><trkpt lat="48.3858533" lon="-4.31211"><ele>85.0</ele><time>2026-04-28T08:33:55.683Z</time></trkpt><trkpt lat="48.3858517" lon="-4.312335"><ele>84.0</ele><time>2026-04-28T08:33:56.678Z</time></trkpt><trkpt lat="48.38585" lon="-4.31256"><ele>83.0</ele><time>2026-04-28T08:33:57.68Z</time></trkpt><trkpt lat="48.3858483" lon="-4.31279"><ele>82.0</ele><time>2026-04-28T08:33:58.677Z</time></trkpt><trkpt lat="48.3858483" lon="-4.313015"><ele>81.75</ele><time>2026-04-28T08:33:59.684Z</time></trkpt><trkpt lat="48.3858433" lon="-4.3132333"><ele>81.5</ele><time>2026-04-28T08:34:00.684Z</time></trkpt><trkpt lat="48.3858333" lon="-4.3134483"><ele>81.25</ele><time>2026-04-28T08:34:01.683Z</time></trkpt><trkpt lat="48.3858133" lon="-4.3136667"><ele>81.0</ele><time>2026-04-28T08:34:02.683Z</time></trkpt><trkpt lat="48.3857833" lon="-4.3138783"><ele>80.75</ele><time>2026-04-28T08:34:03.679Z</time></trkpt><trkpt lat="48.38574" lon="-4.3140767"><ele>80.5</ele><time>2026-04-28T08:34:04.677Z</time></trkpt><trkpt lat="48.38568" lon="-4.31426"><ele>80.25</ele><time>2026-04-28T08:34:05.675Z</time></trkpt><trkpt lat="48.38561" lon="-4.3144333"><ele>80.0</ele><time>2026-04-28T08:34:06.679Z</time></trkpt><trkpt lat="48.3855483" lon="-4.314605"><ele>79.25</ele><time>2026-04-28T08:34:07.677Z</time></trkpt><trkpt lat="48.38551" lon="-4.31478"><ele>78.5</ele><time>2026-04-28T08:34:08.68Z</time></trkpt><trkpt lat="48.3855" lon="-4.3149583"><ele>77.75</ele><time>2026-04-28T08:34:09.677Z</time></trkpt><trkpt lat="48.3855117" lon="-4.3151333"><ele>77.0</ele><time>2026-04-28T08:34:10.674Z</time></trkpt><trkpt lat="48.3855567" lon="-4.31529"><ele>77.0</ele><time>2026-04-28T08:34:11.673Z</time></trkpt><trkpt lat="48.38562" lon="-4.3154433"><ele>77.0</ele><time>2026-04-28T08:34:12.674Z</time></trkpt><trkpt lat="48.3856933" lon="-4.3155867"><ele>77.0</ele><time>2026-04-28T08:34:13.681Z</time></trkpt><trkpt lat="48.3857633" lon="-4.3157267"><ele>77.0</ele><time>2026-04-28T08:34:14.679Z</time></trkpt><trkpt lat="48.3858317" lon="-4.31586"><ele>76.6</ele><time>2026-04-28T08:34:15.673Z</time></trkpt><trkpt lat="48.3859" lon="-4.3159867"><ele>76.2</ele><time>2026-04-28T08:34:16.679Z</time></trkpt><trkpt lat="48.3859633" lon="-4.3161117"><ele>75.8</ele><time>2026-04-28T08:34:17.68Z</time></trkpt><trkpt lat="48.3860183" lon="-4.3162383"><ele>75.4</ele><time>2026-04-28T08:34:18.679Z</time></trkpt><trkpt lat="48.386075" lon="-4.3163583"><ele>75.0</ele><time>2026-04-28T08:34:19.676Z</time></trkpt><trkpt lat="48.3861267" lon="-4.3164667"><ele>74.66666666666667</ele><time>2026-04-28T08:34:20.677Z</time></trkpt><trkpt lat="48.3861717" lon="-4.3165617"><ele>74.33333333333333</ele><time>2026-04-28T08:34:21.677Z</time></trkpt><trkpt lat="48.386215" lon="-4.3166367"><ele>74.0</ele><time>2026-04-28T08:34:22.676Z</time></trkpt><trkpt lat="48.3862733" lon="-4.3167683"><ele>73.66666666666666</ele><time>2026-04-28T08:34:24.676Z</time></trkpt><trkpt lat="48.38627" lon="-4.316905"><ele>73.33333333333333</ele><time>2026-04-28T08:34:26.68Z</time></trkpt><trkpt lat="48.3862467" lon="-4.316995"><ele>73.0</ele><time>2026-04-28T08:34:27.677Z</time></trkpt><trkpt lat="48.386225" lon="-4.3171083"><ele>73.0</ele><time>2026-04-28T08:34:28.677Z</time></trkpt><trkpt lat="48.3862067" lon="-4.317235"><ele>73.0</ele><time>2026-04-28T08:34:29.672Z</time></trkpt><trkpt lat="48.3861883" lon="-4.317375"><ele>73.0</ele><time>2026-04-28T08:34:30.683Z</time></trkpt><trkpt lat="48.3861717" lon="-4.317535"><ele>73.0</ele><time>2026-04-28T08:34:31.683Z</time></trkpt><trkpt lat="48.386165" lon="-4.3177033"><ele>73.0</ele><time>2026-04-28T08:34:32.68Z</time></trkpt><trkpt lat="48.3861667" lon="-4.317885"><ele>72.0</ele><time>2026-04-28T08:34:33.678Z</time></trkpt><trkpt lat="48.3861633" lon="-4.3180767"><ele>71.0</ele><time>2026-04-28T08:34:34.678Z</time></trkpt><trkpt lat="48.38615" lon="-4.3182717"><ele>70.0</ele><time>2026-04-28T08:34:35.679Z</time></trkpt><trkpt lat="48.3861267" lon="-4.3184583"><ele>69.0</ele><time>2026-04-28T08:34:36.679Z</time></trkpt><trkpt lat="48.3860917" lon="-4.31864"><ele>69.0</ele><time>2026-04-28T08:34:37.681Z</time></trkpt><trkpt lat="48.3860417" lon="-4.318825"><ele>69.0</ele><time>2026-04-28T08:34:38.678Z</time></trkpt><trkpt lat="48.3859717" lon="-4.3190067"><ele>69.0</ele><time>2026-04-28T08:34:39.678Z</time></trkpt><trkpt lat="48.3858967" lon="-4.3191833"><ele>69.0</ele><time>2026-04-28T08:34:40.679Z</time></trkpt><trkpt lat="48.3858217" lon="-4.3193567"><ele>69.0</ele><time>2026-04-28T08:34:41.676Z</time></trkpt><trkpt lat="48.3857483" lon="-4.3195333"><ele>69.0</ele><time>2026-04-28T08:34:42.678Z</time></trkpt><trkpt lat="48.385675" lon="-4.3197117"><ele>69.0</ele><time>2026-04-28T08:34:43.681Z</time></trkpt><trkpt lat="48.385605" lon="-4.3198883"><ele>69.0</ele><time>2026-04-28T08:34:44.677Z</time></trkpt><trkpt lat="48.38555" lon="-4.3200733"><ele>70.0</ele><time>2026-04-28T08:34:45.677Z</time></trkpt><trkpt lat="48.3855033" lon="-4.3202533"><ele>71.0</ele><time>2026-04-28T08:34:46.674Z</time></trkpt><trkpt lat="48.3854617" lon="-4.320425"><ele>72.0</ele><time>2026-04-28T08:34:47.679Z</time></trkpt><trkpt lat="48.3854133" lon="-4.3205883"><ele>73.0</ele><time>2026-04-28T08:34:48.677Z</time></trkpt><trkpt lat="48.3853633" lon="-4.32075"><ele>73.75</ele><time>2026-04-28T08:34:49.679Z</time></trkpt><trkpt lat="48.3853133" lon="-4.3209133"><ele>74.5</ele><time>2026-04-28T08:34:50.68Z</time></trkpt><trkpt lat="48.3852617" lon="-4.3210767"><ele>75.25</ele><time>2026-04-28T08:34:51.686Z</time></trkpt><trkpt lat="48.3852067" lon="-4.3212367"><ele>76.0</ele><time>2026-04-28T08:34:52.687Z</time></trkpt><trkpt lat="48.385155" lon="-4.3213933"><ele>76.39999999999999</ele><time>2026-04-28T08:34:53.681Z</time></trkpt><trkpt lat="48.38511" lon="-4.3215483"><ele>76.8</ele><time>2026-04-28T08:34:54.679Z</time></trkpt><trkpt lat="48.3850717" lon="-4.3217"><ele>77.19999999999999</ele><time>2026-04-28T08:34:55.676Z</time></trkpt><trkpt lat="48.3850467" lon="-4.3218617"><ele>77.6</ele><time>2026-04-28T08:34:56.679Z</time></trkpt><trkpt lat="48.3850317" lon="-4.3220333"><ele>78.0</ele><time>2026-04-28T08:34:57.675Z</time></trkpt><trkpt lat="48.3850267" lon="-4.3222033"><ele>78.0</ele><time>2026-04-28T08:34:58.675Z</time></trkpt><trkpt lat="48.3850417" lon="-4.3223717"><ele>78.0</ele><time>2026-04-28T08:34:59.681Z</time></trkpt><trkpt lat="48.3850783" lon="-4.3225233"><ele>78.0</ele><time>2026-04-28T08:35:00.677Z</time></trkpt><trkpt lat="48.3851433" lon="-4.3226567"><ele>78.0</ele><time>2026-04-28T08:35:01.678Z</time></trkpt><trkpt lat="48.3852117" lon="-4.3227883"><ele>78.0</ele><time>2026-04-28T08:35:02.68Z</time></trkpt><trkpt lat="48.3852733" lon="-4.3229317"><ele>77.5</ele><time>2026-04-28T08:35:03.679Z</time></trkpt><trkpt lat="48.3853217" lon="-4.32309"><ele>77.0</ele><time>2026-04-28T08:35:04.674Z</time></trkpt><trkpt lat="48.3853483" lon="-4.3232617"><ele>76.5</ele><time>2026-04-28T08:35:05.679Z</time></trkpt><trkpt lat="48.3853517" lon="-4.3234333"><ele>76.0</ele><time>2026-04-28T08:35:06.683Z</time></trkpt><trkpt lat="48.385335" lon="-4.3236083"><ele>76.0</ele><time>2026-04-28T08:35:07.678Z</time></trkpt><trkpt lat="48.3853067" lon="-4.3237717"><ele>76.0</ele><time>2026-04-28T08:35:08.68Z</time></trkpt><trkpt lat="48.3852733" lon="-4.3239117"><ele>76.0</ele><time>2026-04-28T08:35:09.68Z</time></trkpt><trkpt lat="48.38524" lon="-4.3240333"><ele>76.0</ele><time>2026-04-28T08:35:10.676Z</time></trkpt><trkpt lat="48.38522" lon="-4.3241283"><ele>76.0</ele><time>2026-04-28T08:35:11.677Z</time></trkpt><trkpt lat="48.38522" lon="-4.3242883"><ele>76.0</ele><time>2026-04-28T08:35:13.674Z</time></trkpt><trkpt lat="48.3852933" lon="-4.3244033"><ele>76.0</ele><time>2026-04-28T08:35:15.675Z</time></trkpt><trkpt lat="48.385355" lon="-4.3244583"><ele>76.0</ele><time>2026-04-28T08:35:16.674Z</time></trkpt><trkpt lat="48.3854333" lon="-4.32452"><ele>76.0</ele><time>2026-04-28T08:35:17.679Z</time></trkpt><trkpt lat="48.385525" lon="-4.3245783"><ele>76.0</ele><time>2026-04-28T08:35:18.678Z</time></trkpt><trkpt lat="48.38563" lon="-4.32464"><ele>77.25</ele><time>2026-04-28T08:35:19.679Z</time></trkpt><trkpt lat="48.385745" lon="-4.3247067"><ele>78.5</ele><time>2026-04-28T08:35:20.676Z</time></trkpt><trkpt lat="48.3858583" lon="-4.32478"><ele>79.75</ele><time>2026-04-28T08:35:21.676Z</time></trkpt><trkpt lat="48.38596" lon="-4.324845"><ele>81.0</ele><time>2026-04-28T08:35:22.68Z</time></trkpt><trkpt lat="48.386055" lon="-4.324905"><ele>81.28571428571429</ele><time>2026-04-28T08:35:23.676Z</time></trkpt><trkpt lat="48.38614" lon="-4.3249533"><ele>81.57142857142857</ele><time>2026-04-28T08:35:24.681Z</time></trkpt><trkpt lat="48.3862133" lon="-4.324995"><ele>81.85714285714286</ele><time>2026-04-28T08:35:25.678Z</time></trkpt><trkpt lat="48.38628" lon="-4.325035"><ele>82.14285714285714</ele><time>2026-04-28T08:35:26.675Z</time></trkpt><trkpt lat="48.3863483" lon="-4.3250817"><ele>82.42857142857143</ele><time>2026-04-28T08:35:27.682Z</time></trkpt><trkpt lat="48.3864067" lon="-4.325135"><ele>82.71428571428571</ele><time>2026-04-28T08:35:28.675Z</time></trkpt><trkpt lat="48.38646" lon="-4.3251883"><ele>83.0</ele><time>2026-04-28T08:35:29.673Z</time></trkpt><trkpt lat="48.386535" lon="-4.32526"><ele>84.80000000000001</ele><time>2026-04-28T08:35:31.677Z</time></trkpt><trkpt lat="48.386615" lon="-4.3253083"><ele>86.6</ele><time>2026-04-28T08:35:34.684Z</time></trkpt><trkpt lat="48.386685" lon="-4.3253617"><ele>88.4</ele><time>2026-04-28T08:35:37.677Z</time></trkpt><trkpt lat="48.3865933" lon="-4.3253167"><ele>90.19999999999999</ele><time>2026-04-28T08:35:43.681Z</time></trkpt><trkpt lat="48.386505" lon="-4.3252083"><ele>92.0</ele><time>2026-04-28T08:35:45.678Z</time></trkpt><trkpt lat="48.3864033" lon="-4.325115"><ele>90.5</ele><time>2026-04-28T08:35:47.677Z</time></trkpt><trkpt lat="48.3863417" lon="-4.32506"><ele>89.0</ele><time>2026-04-28T08:35:48.679Z</time></trkpt><trkpt lat="48.386275" lon="-4.3250133"><ele>87.5</ele><time>2026-04-28T08:35:49.677Z</time></trkpt><trkpt lat="48.3862017" lon="-4.3249717"><ele>86.0</ele><time>2026-04-28T08:35:50.678Z</time></trkpt><trkpt lat="48.38613" lon="-4.3249367"><ele>84.5</ele><time>2026-04-28T08:35:51.678Z</time></trkpt><trkpt lat="48.38606" lon="-4.3249133"><ele>83.0</ele><time>2026-04-28T08:35:52.675Z</time></trkpt><trkpt lat="48.3859567" lon="-4.3249717"><ele>83.0</ele><time>2026-04-28T08:35:54.684Z</time></trkpt><trkpt lat="48.3859133" lon="-4.3251383"><ele>83.0</ele><time>2026-04-28T08:35:56.673Z</time></trkpt><trkpt lat="48.3858867" lon="-4.3252583"><ele>83.0</ele><time>2026-04-28T08:35:57.676Z</time></trkpt><trkpt lat="48.385855" lon="-4.32539"><ele>83.0</ele><time>2026-04-28T08:35:58.679Z</time></trkpt><trkpt lat="48.3858183" lon="-4.325525"><ele>83.0</ele><time>2026-04-28T08:35:59.675Z</time></trkpt><trkpt lat="48.3857883" lon="-4.32567"><ele>83.2</ele><time>2026-04-28T08:36:00.678Z</time></trkpt><trkpt lat="48.38575" lon="-4.3258183"><ele>83.4</ele><time>2026-04-28T08:36:01.684Z</time></trkpt><trkpt lat="48.385715" lon="-4.3259683"><ele>83.60000000000001</ele><time>2026-04-28T08:36:02.677Z</time></trkpt><trkpt lat="48.38568" lon="-4.32612"><ele>83.80000000000001</ele><time>2026-04-28T08:36:03.682Z</time></trkpt><trkpt lat="48.385645" lon="-4.3262733"><ele>84.0</ele><time>2026-04-28T08:36:04.678Z</time></trkpt><trkpt lat="48.3856067" lon="-4.32643"><ele>84.0</ele><time>2026-04-28T08:36:05.678Z</time></trkpt><trkpt lat="48.3855717" lon="-4.3265933"><ele>84.0</ele><time>2026-04-28T08:36:06.676Z</time></trkpt><trkpt lat="48.3855317" lon="-4.32676"><ele>84.0</ele><time>2026-04-28T08:36:07.676Z</time></trkpt><trkpt lat="48.385495" lon="-4.3269267"><ele>84.0</ele><time>2026-04-28T08:36:08.677Z</time></trkpt><trkpt lat="48.3854533" lon="-4.3270867"><ele>82.4</ele><time>2026-04-28T08:36:09.679Z</time></trkpt><trkpt lat="48.385415" lon="-4.32724"><ele>80.80000000000001</ele><time>2026-04-28T08:36:10.677Z</time></trkpt><trkpt lat="48.3853717" lon="-4.3273817"><ele>79.19999999999999</ele><time>2026-04-28T08:36:11.678Z</time></trkpt><trkpt lat="48.38532" lon="-4.3275167"><ele>77.6</ele><time>2026-04-28T08:36:12.68Z</time></trkpt><trkpt lat="48.3852567" lon="-4.3276467"><ele>76.0</ele><time>2026-04-28T08:36:13.679Z</time></trkpt><trkpt lat="48.3851767" lon="-4.3277733"><ele>76.0</ele><time>2026-04-28T08:36:14.676Z</time></trkpt><trkpt lat="48.385085" lon="-4.3278983"><ele>76.0</ele><time>2026-04-28T08:36:15.675Z</time></trkpt><trkpt lat="48.3849883" lon="-4.3280067"><ele>76.0</ele><time>2026-04-28T08:36:16.678Z</time></trkpt><trkpt lat="48.384885" lon="-4.328105"><ele>76.0</ele><time>2026-04-28T08:36:17.677Z</time></trkpt><trkpt lat="48.384785" lon="-4.3281933"><ele>77.0</ele><time>2026-04-28T08:36:18.678Z</time></trkpt><trkpt lat="48.3846867" lon="-4.3282733"><ele>78.0</ele><time>2026-04-28T08:36:19.68Z</time></trkpt><trkpt lat="48.3845967" lon="-4.328345"><ele>79.0</ele><time>2026-04-28T08:36:20.677Z</time></trkpt><trkpt lat="48.384515" lon="-4.32841"><ele>80.0</ele><time>2026-04-28T08:36:21.676Z</time></trkpt><trkpt lat="48.3844417" lon="-4.32847"><ele>81.0</ele><time>2026-04-28T08:36:22.676Z</time></trkpt><trkpt lat="48.3843767" lon="-4.3285233"><ele>81.0</ele><time>2026-04-28T08:36:23.678Z</time></trkpt><trkpt lat="48.3843183" lon="-4.3285683"><ele>81.0</ele><time>2026-04-28T08:36:24.681Z</time></trkpt><trkpt lat="48.384225" lon="-4.3286383"><ele>81.0</ele><time>2026-04-28T08:36:26.679Z</time></trkpt><trkpt lat="48.3841667" lon="-4.3287117"><ele>81.0</ele><time>2026-04-28T08:36:28.675Z</time></trkpt><trkpt lat="48.3841833" lon="-4.3288083"><ele>81.0</ele><time>2026-04-28T08:36:30.674Z</time></trkpt><trkpt lat="48.3842567" lon="-4.32892"><ele>81.0</ele><time>2026-04-28T08:36:32.679Z</time></trkpt><trkpt lat="48.384335" lon="-4.329035"><ele>81.5</ele><time>2026-04-28T08:36:34.682Z</time></trkpt><trkpt lat="48.38439" lon="-4.3291067"><ele>82.0</ele><time>2026-04-28T08:36:36.68Z</time></trkpt><trkpt lat="48.3844167" lon="-4.329195"><ele>82.5</ele><time>2026-04-28T08:36:38.683Z</time></trkpt><trkpt lat="48.3843917" lon="-4.3292917"><ele>83.0</ele><time>2026-04-28T08:36:40.678Z</time></trkpt><trkpt lat="48.3843117" lon="-4.32938"><ele>83.5</ele><time>2026-04-28T08:36:42.682Z</time></trkpt><trkpt lat="48.3842067" lon="-4.329485"><ele>84.0</ele><time>2026-04-28T08:36:44.678Z</time></trkpt><trkpt lat="48.3841467" lon="-4.32955"><ele>84.0</ele><time>2026-04-28T08:36:45.676Z</time></trkpt><trkpt lat="48.3840867" lon="-4.3296183"><ele>84.0</ele><time>2026-04-28T08:36:46.677Z</time></trkpt><trkpt lat="48.3840317" lon="-4.3296833"><ele>84.0</ele><time>2026-04-28T08:36:47.682Z</time></trkpt><trkpt lat="48.3839783" lon="-4.3297483"><ele>84.0</ele><time>2026-04-28T08:36:48.677Z</time></trkpt><trkpt lat="48.38393" lon="-4.3298183"><ele>84.0</ele><time>2026-04-28T08:36:49.677Z</time></trkpt><trkpt lat="48.3838867" lon="-4.3298933"><ele>84.0</ele><time>2026-04-28T08:36:50.677Z</time></trkpt><trkpt lat="48.3838483" lon="-4.3299717"><ele>84.0</ele><time>2026-04-28T08:36:51.68Z</time></trkpt><trkpt lat="48.3838167" lon="-4.33006"><ele>83.71428571428571</ele><time>2026-04-28T08:36:52.678Z</time></trkpt><trkpt lat="48.3837917" lon="-4.3301617"><ele>83.42857142857143</ele><time>2026-04-28T08:36:53.678Z</time></trkpt><trkpt lat="48.3837717" lon="-4.3302683"><ele>83.14285714285714</ele><time>2026-04-28T08:36:54.679Z</time></trkpt><trkpt lat="48.3837483" lon="-4.3303733"><ele>82.85714285714286</ele><time>2026-04-28T08:36:55.678Z</time></trkpt><trkpt lat="48.38372" lon="-4.3304767"><ele>82.57142857142857</ele><time>2026-04-28T08:36:56.678Z</time></trkpt><trkpt lat="48.383685" lon="-4.3305583"><ele>82.28571428571428</ele><time>2026-04-28T08:36:57.676Z</time></trkpt><trkpt lat="48.38365" lon="-4.330645"><ele>82.0</ele><time>2026-04-28T08:36:58.675Z</time></trkpt><trkpt lat="48.3836133" lon="-4.3307433"><ele>82.0</ele><time>2026-04-28T08:36:59.674Z</time></trkpt><trkpt lat="48.3835867" lon="-4.3308567"><ele>82.0</ele><time>2026-04-28T08:37:00.676Z</time></trkpt><trkpt lat="48.3835667" lon="-4.3309833"><ele>82.0</ele><time>2026-04-28T08:37:01.676Z</time></trkpt><trkpt lat="48.38355" lon="-4.33112"><ele>82.0</ele><time>2026-04-28T08:37:02.674Z</time></trkpt><trkpt lat="48.38354" lon="-4.3312617"><ele>82.0</ele><time>2026-04-28T08:37:03.674Z</time></trkpt><trkpt lat="48.3835367" lon="-4.3314067"><ele>82.0</ele><time>2026-04-28T08:37:04.674Z</time></trkpt><trkpt lat="48.383535" lon="-4.3315433"><ele>82.0</ele><time>2026-04-28T08:37:05.671Z</time></trkpt><trkpt lat="48.3835333" lon="-4.3316717"><ele>82.0</ele><time>2026-04-28T08:37:06.675Z</time></trkpt><trkpt lat="48.3835433" lon="-4.3317733"><ele>82.0</ele><time>2026-04-28T08:37:07.682Z</time></trkpt><trkpt lat="48.383565" lon="-4.3318633"><ele>82.0</ele><time>2026-04-28T08:37:08.681Z</time></trkpt><trkpt lat="48.3836067" lon="-4.3319433"><ele>82.0</ele><time>2026-04-28T08:37:09.678Z</time></trkpt><trkpt lat="48.3836533" lon="-4.3320333"><ele>82.0</ele><time>2026-04-28T08:37:10.675Z</time></trkpt><trkpt lat="48.383705" lon="-4.3321217"><ele>82.0</ele><time>2026-04-28T08:37:11.684Z</time></trkpt><trkpt lat="48.3837633" lon="-4.33221"><ele>82.0</ele><time>2026-04-28T08:37:12.678Z</time></trkpt><trkpt lat="48.3838233" lon="-4.3323017"><ele>82.0</ele><time>2026-04-28T08:37:13.677Z</time></trkpt><trkpt lat="48.3838817" lon="-4.3323883"><ele>82.0</ele><time>2026-04-28T08:37:14.67Z</time></trkpt><trkpt lat="48.383935" lon="-4.3324667"><ele>82.0</ele><time>2026-04-28T08:37:15.681Z</time></trkpt><trkpt lat="48.3839817" lon="-4.3325383"><ele>82.6</ele><time>2026-04-28T08:37:16.674Z</time></trkpt><trkpt lat="48.3840633" lon="-4.3326567"><ele>83.19999999999999</ele><time>2026-04-28T08:37:18.675Z</time></trkpt><trkpt lat="48.3841233" lon="-4.332755"><ele>83.8</ele><time>2026-04-28T08:37:20.677Z</time></trkpt><trkpt lat="48.3841083" lon="-4.332865"><ele>84.4</ele><time>2026-04-28T08:37:22.676Z</time></trkpt><trkpt lat="48.384" lon="-4.3329817"><ele>85.0</ele><time>2026-04-28T08:37:24.677Z</time></trkpt><trkpt lat="48.383935" lon="-4.3330483"><ele>85.0</ele><time>2026-04-28T08:37:25.678Z</time></trkpt><trkpt lat="48.383875" lon="-4.3331117"><ele>85.0</ele><time>2026-04-28T08:37:26.679Z</time></trkpt><trkpt lat="48.3838133" lon="-4.3331767"><ele>85.0</ele><time>2026-04-28T08:37:27.676Z</time></trkpt><trkpt lat="48.383755" lon="-4.333245"><ele>85.0</ele><time>2026-04-28T08:37:28.678Z</time></trkpt><trkpt lat="48.3836967" lon="-4.3333133"><ele>85.0</ele><time>2026-04-28T08:37:29.677Z</time></trkpt><trkpt lat="48.3836417" lon="-4.3333833"><ele>85.0</ele><time>2026-04-28T08:37:30.674Z</time></trkpt><trkpt lat="48.3835883" lon="-4.3334667"><ele>85.0</ele><time>2026-04-28T08:37:32.676Z</time></trkpt><trkpt lat="48.3836267" lon="-4.3335933"><ele>85.0</ele><time>2026-04-28T08:37:41.68Z</time></trkpt><trkpt lat="48.3836917" lon="-4.33368"><ele>85.0</ele><time>2026-04-28T08:37:43.684Z</time></trkpt><trkpt lat="48.3837533" lon="-4.3337617"><ele>85.0</ele><time>2026-04-28T08:37:45.678Z</time></trkpt><trkpt lat="48.3838167" lon="-4.33383"><ele>85.0</ele><time>2026-04-28T08:37:47.68Z</time></trkpt><trkpt lat="48.3838767" lon="-4.3338733"><ele>85.0</ele><time>2026-04-28T08:37:49.678Z</time></trkpt><trkpt lat="48.3839383" lon="-4.33393"><ele>85.0</ele><time>2026-04-28T08:37:51.675Z</time></trkpt><trkpt lat="48.38402" lon="-4.3340067"><ele>84.5</ele><time>2026-04-28T08:37:53.677Z</time></trkpt><trkpt lat="48.3841" lon="-4.3340883"><ele>84.0</ele><time>2026-04-28T08:37:55.682Z</time></trkpt><trkpt lat="48.38417" lon="-4.3341683"><ele>83.5</ele><time>2026-04-28T08:37:57.681Z</time></trkpt><trkpt lat="48.3842417" lon="-4.3342417"><ele>83.0</ele><time>2026-04-28T08:37:59.679Z</time></trkpt><trkpt lat="48.3843167" lon="-4.3343183"><ele>82.5</ele><time>2026-04-28T08:38:01.676Z</time></trkpt><trkpt lat="48.3843833" lon="-4.33439"><ele>82.0</ele><time>2026-04-28T08:38:03.674Z</time></trkpt><trkpt lat="48.3844567" lon="-4.33445"><ele>82.0</ele><time>2026-04-28T08:38:05.675Z</time></trkpt><trkpt lat="48.3845383" lon="-4.3344967"><ele>82.0</ele><time>2026-04-28T08:38:07.678Z</time></trkpt><trkpt lat="48.3846033" lon="-4.3345233"><ele>82.0</ele><time>2026-04-28T08:38:09.682Z</time></trkpt><trkpt lat="48.3847033" lon="-4.334535"><ele>82.0</ele><time>2026-04-28T08:38:12.675Z</time></trkpt><trkpt lat="48.38478" lon="-4.334535"><ele>82.0</ele><time>2026-04-28T08:38:14.677Z</time></trkpt><trkpt lat="48.3848533" lon="-4.334525"><ele>82.0</ele><time>2026-04-28T08:38:16.678Z</time></trkpt><trkpt lat="48.3849217" lon="-4.3345017"><ele>83.0</ele><time>2026-04-28T08:38:18.673Z</time></trkpt><trkpt lat="48.3850042" lon="-4.3344797"><ele>84.0</ele><time>2026-04-28T08:38:20.673Z</time></trkpt><trkpt lat="48.3850878" lon="-4.3344668"><ele>85.0</ele><time>2026-04-28T08:38:22.679Z</time></trkpt><trkpt lat="48.3852047" lon="-4.3344332"><ele>86.0</ele><time>2026-04-28T08:38:25.68Z</time></trkpt><trkpt lat="48.3852704" lon="-4.3344028"><ele>87.0</ele><time>2026-04-28T08:38:27.678Z</time></trkpt><trkpt lat="48.3853574" lon="-4.334415"><ele>88.0</ele><time>2026-04-28T08:38:29.679Z</time></trkpt><trkpt lat="48.3854519" lon="-4.3344693"><ele>88.80000000000001</ele><time>2026-04-28T08:38:31.679Z</time></trkpt><trkpt lat="48.3855394" lon="-4.3345126"><ele>89.6</ele><time>2026-04-28T08:38:33.679Z</time></trkpt><trkpt lat="48.3856442" lon="-4.334557"><ele>90.4</ele><time>2026-04-28T08:38:35.678Z</time></trkpt><trkpt lat="48.3857514" lon="-4.3346078"><ele>91.19999999999999</ele><time>2026-04-28T08:38:37.68Z</time></trkpt><trkpt lat="48.3858494" lon="-4.3346768"><ele>92.0</ele><time>2026-04-28T08:38:39.678Z</time></trkpt><trkpt lat="48.3859394" lon="-4.3347496"><ele>92.0</ele><time>2026-04-28T08:38:41.678Z</time></trkpt><trkpt lat="48.3860333" lon="-4.3348174"><ele>92.0</ele><time>2026-04-28T08:38:43.68Z</time></trkpt><trkpt lat="48.3861283" lon="-4.3348876"><ele>92.0</ele><time>2026-04-28T08:38:45.684Z</time></trkpt><trkpt lat="48.3862161" lon="-4.334959"><ele>92.0</ele><time>2026-04-28T08:38:47.678Z</time></trkpt><trkpt lat="48.3862983" lon="-4.3350382"><ele>92.0</ele><time>2026-04-28T08:38:49.681Z</time></trkpt><trkpt lat="48.3863866" lon="-4.3351548"><ele>92.5</ele><time>2026-04-28T08:38:51.683Z</time></trkpt><trkpt lat="48.3864827" lon="-4.3352922"><ele>93.0</ele><time>2026-04-28T08:38:53.677Z</time></trkpt><trkpt lat="48.3865323" lon="-4.3353636"><ele>93.5</ele><time>2026-04-28T08:38:54.68Z</time></trkpt><trkpt lat="48.3865813" lon="-4.335435"><ele>94.0</ele><time>2026-04-28T08:38:55.681Z</time></trkpt><trkpt lat="48.386634" lon="-4.3355054"><ele>94.5</ele><time>2026-04-28T08:38:56.68Z</time></trkpt><trkpt lat="48.3866856" lon="-4.3355754"><ele>95.0</ele><time>2026-04-28T08:38:57.676Z</time></trkpt><trkpt lat="48.386737" lon="-4.3356433"><ele>95.0</ele><time>2026-04-28T08:38:58.679Z</time></trkpt><trkpt lat="48.3867836" lon="-4.3357137"><ele>95.0</ele><time>2026-04-28T08:38:59.681Z</time></trkpt><trkpt lat="48.3868316" lon="-4.3357821"><ele>95.0</ele><time>2026-04-28T08:39:00.678Z</time></trkpt><trkpt lat="48.3869222" lon="-4.3358908"><ele>95.0</ele><time>2026-04-28T08:39:02.675Z</time></trkpt><trkpt lat="48.3870185" lon="-4.3359802"><ele>95.0</ele><time>2026-04-28T08:39:04.678Z</time></trkpt><trkpt lat="48.3871101" lon="-4.3360465"><ele>96.6</ele><time>2026-04-28T08:39:06.679Z</time></trkpt><trkpt lat="48.3872147" lon="-4.3361045"><ele>98.2</ele><time>2026-04-28T08:39:08.679Z</time></trkpt><trkpt lat="48.3872737" lon="-4.3361388"><ele>99.80000000000001</ele><time>2026-04-28T08:39:09.676Z</time></trkpt><trkpt lat="48.3873569" lon="-4.336182"><ele>101.4</ele><time>2026-04-28T08:39:11.682Z</time></trkpt><trkpt lat="48.387424" lon="-4.3363007"><ele>103.0</ele><time>2026-04-28T08:39:14.678Z</time></trkpt><trkpt lat="48.3874766" lon="-4.3364586"><ele>103.16666666666667</ele><time>2026-04-28T08:39:16.679Z</time></trkpt><trkpt lat="48.3875025" lon="-4.3365592"><ele>103.33333333333334</ele><time>2026-04-28T08:39:17.675Z</time></trkpt><trkpt lat="48.3875315" lon="-4.336659"><ele>103.5</ele><time>2026-04-28T08:39:18.676Z</time></trkpt><trkpt lat="48.3875602" lon="-4.3367632"><ele>103.66666666666666</ele><time>2026-04-28T08:39:19.672Z</time></trkpt><trkpt lat="48.3875875" lon="-4.3368653"><ele>103.83333333333333</ele><time>2026-04-28T08:39:20.676Z</time></trkpt><trkpt lat="48.3876104" lon="-4.3369633"><ele>104.0</ele><time>2026-04-28T08:39:21.683Z</time></trkpt><trkpt lat="48.3876566" lon="-4.337114"><ele>104.4</ele><time>2026-04-28T08:39:23.676Z</time></trkpt><trkpt lat="48.3876963" lon="-4.3372411"><ele>104.80000000000001</ele><time>2026-04-28T08:39:25.676Z</time></trkpt><trkpt lat="48.3877611" lon="-4.3373454"><ele>105.19999999999999</ele><time>2026-04-28T08:39:27.674Z</time></trkpt><trkpt lat="48.387836" lon="-4.3374313"><ele>105.6</ele><time>2026-04-28T08:39:29.675Z</time></trkpt><trkpt lat="48.3879247" lon="-4.3375043"><ele>106.0</ele><time>2026-04-28T08:39:31.679Z</time></trkpt><trkpt lat="48.3880343" lon="-4.3375689"><ele>107.33333333333334</ele><time>2026-04-28T08:39:33.677Z</time></trkpt><trkpt lat="48.3881555" lon="-4.3376387"><ele>108.66666666666667</ele><time>2026-04-28T08:39:35.683Z</time></trkpt><trkpt lat="48.3882218" lon="-4.337678"><ele>110.0</ele><time>2026-04-28T08:39:36.677Z</time></trkpt><trkpt lat="48.3882815" lon="-4.3377169"><ele>111.33333333333334</ele><time>2026-04-28T08:39:37.675Z</time></trkpt><trkpt lat="48.3883442" lon="-4.3377531"><ele>112.66666666666667</ele><time>2026-04-28T08:39:38.681Z</time></trkpt><trkpt lat="48.3884125" lon="-4.337782"><ele>114.0</ele><time>2026-04-28T08:39:39.679Z</time></trkpt><trkpt lat="48.3884849" lon="-4.3378011"><ele>114.0</ele><time>2026-04-28T08:39:40.678Z</time></trkpt><trkpt lat="48.3885509" lon="-4.3378245"><ele>113.99999999999999</ele><time>2026-04-28T08:39:41.679Z</time></trkpt><trkpt lat="48.3886203" lon="-4.3378497"><ele>114.0</ele><time>2026-04-28T08:39:42.674Z</time></trkpt><trkpt lat="48.388688" lon="-4.3378746"><ele>114.0</ele><time>2026-04-28T08:39:43.678Z</time></trkpt><trkpt lat="48.3887585" lon="-4.3378973"><ele>113.99999999999999</ele><time>2026-04-28T08:39:44.677Z</time></trkpt><trkpt lat="48.3888282" lon="-4.3379284"><ele>114.0</ele><time>2026-04-28T08:39:45.675Z</time></trkpt><trkpt lat="48.3888955" lon="-4.3379604"><ele>114.0</ele><time>2026-04-28T08:39:46.681Z</time></trkpt><trkpt lat="48.3889674" lon="-4.3379935"><ele>114.71428571428571</ele><time>2026-04-28T08:39:47.678Z</time></trkpt><trkpt lat="48.3890333" lon="-4.3380178"><ele>115.42857142857142</ele><time>2026-04-28T08:39:48.676Z</time></trkpt><trkpt lat="48.3891033" lon="-4.3380562"><ele>116.14285714285714</ele><time>2026-04-28T08:39:49.675Z</time></trkpt><trkpt lat="48.3891746" lon="-4.3380831"><ele>116.85714285714286</ele><time>2026-04-28T08:39:50.673Z</time></trkpt><trkpt lat="48.3892492" lon="-4.3381113"><ele>117.57142857142857</ele><time>2026-04-28T08:39:51.677Z</time></trkpt><trkpt lat="48.3893218" lon="-4.3381335"><ele>118.28571428571428</ele><time>2026-04-28T08:39:52.674Z</time></trkpt><trkpt lat="48.3893925" lon="-4.3381536"><ele>119.0</ele><time>2026-04-28T08:39:53.678Z</time></trkpt><trkpt lat="48.3894651" lon="-4.338185"><ele>119.16666666666666</ele><time>2026-04-28T08:39:54.676Z</time></trkpt><trkpt lat="48.3895373" lon="-4.3382136"><ele>119.33333333333333</ele><time>2026-04-28T08:39:55.683Z</time></trkpt><trkpt lat="48.3896084" lon="-4.3382369"><ele>119.5</ele><time>2026-04-28T08:39:56.674Z</time></trkpt><trkpt lat="48.3896775" lon="-4.3382636"><ele>119.66666666666666</ele><time>2026-04-28T08:39:57.682Z</time></trkpt><trkpt lat="48.3897404" lon="-4.3382873"><ele>119.83333333333333</ele><time>2026-04-28T08:39:58.677Z</time></trkpt><trkpt lat="48.3898463" lon="-4.3383388"><ele>120.0</ele><time>2026-04-28T08:40:00.679Z</time></trkpt><trkpt lat="48.3899503" lon="-4.3383847"><ele>121.4</ele><time>2026-04-28T08:40:02.678Z</time></trkpt><trkpt lat="48.3900581" lon="-4.3384116"><ele>122.8</ele><time>2026-04-28T08:40:04.676Z</time></trkpt><trkpt lat="48.3901662" lon="-4.338449"><ele>124.19999999999999</ele><time>2026-04-28T08:40:06.676Z</time></trkpt><trkpt lat="48.3902818" lon="-4.3385002"><ele>125.6</ele><time>2026-04-28T08:40:08.678Z</time></trkpt><trkpt lat="48.3903808" lon="-4.3385384"><ele>127.0</ele><time>2026-04-28T08:40:10.675Z</time></trkpt><trkpt lat="48.3904444" lon="-4.3385577"><ele>126.6</ele><time>2026-04-28T08:40:12.678Z</time></trkpt><trkpt lat="48.3905225" lon="-4.3386987"><ele>126.19999999999999</ele><time>2026-04-28T08:40:21.677Z</time></trkpt><trkpt lat="48.390502" lon="-4.3388938"><ele>125.8</ele><time>2026-04-28T08:40:23.674Z</time></trkpt><trkpt lat="48.3904716" lon="-4.3389983"><ele>125.4</ele><time>2026-04-28T08:40:24.675Z</time></trkpt><trkpt lat="48.3904359" lon="-4.33911"><ele>125.0</ele><time>2026-04-28T08:40:25.672Z</time></trkpt><trkpt lat="48.3904034" lon="-4.3392293"><ele>124.99999999999999</ele><time>2026-04-28T08:40:26.678Z</time></trkpt><trkpt lat="48.3903755" lon="-4.3393471"><ele>125.0</ele><time>2026-04-28T08:40:27.678Z</time></trkpt><trkpt lat="48.390346" lon="-4.3394596"><ele>125.0</ele><time>2026-04-28T08:40:28.677Z</time></trkpt><trkpt lat="48.390315" lon="-4.33957"><ele>125.0</ele><time>2026-04-28T08:40:29.675Z</time></trkpt><trkpt lat="48.3902817" lon="-4.3396733"><ele>124.99999999999999</ele><time>2026-04-28T08:40:30.678Z</time></trkpt><trkpt lat="48.3902533" lon="-4.33977"><ele>125.0</ele><time>2026-04-28T08:40:31.68Z</time></trkpt><trkpt lat="48.3902217" lon="-4.3399217"><ele>124.8</ele><time>2026-04-28T08:40:33.678Z</time></trkpt><trkpt lat="48.390245" lon="-4.340045"><ele>124.6</ele><time>2026-04-28T08:40:35.675Z</time></trkpt><trkpt lat="48.3903317" lon="-4.3401067"><ele>124.4</ele><time>2026-04-28T08:40:37.673Z</time></trkpt><trkpt lat="48.3904333" lon="-4.3401483"><ele>124.2</ele><time>2026-04-28T08:40:39.678Z</time></trkpt><trkpt lat="48.3905583" lon="-4.3401883"><ele>124.0</ele><time>2026-04-28T08:40:41.678Z</time></trkpt><trkpt lat="48.3906283" lon="-4.3402117"><ele>125.0</ele><time>2026-04-28T08:40:42.681Z</time></trkpt><trkpt lat="48.3907" lon="-4.3402267"><ele>126.00000000000001</ele><time>2026-04-28T08:40:43.678Z</time></trkpt><trkpt lat="48.3907717" lon="-4.3402533"><ele>127.0</ele><time>2026-04-28T08:40:44.682Z</time></trkpt><trkpt lat="48.390835" lon="-4.3402833"><ele>128.0</ele><time>2026-04-28T08:40:45.68Z</time></trkpt><trkpt lat="48.3908983" lon="-4.340315"><ele>129.0</ele><time>2026-04-28T08:40:46.678Z</time></trkpt><trkpt lat="48.39096" lon="-4.3403383"><ele>130.0</ele><time>2026-04-28T08:40:47.678Z</time></trkpt><trkpt lat="48.39106" lon="-4.3403833"><ele>131.0</ele><time>2026-04-28T08:40:49.674Z</time></trkpt><trkpt lat="48.3911533" lon="-4.34044"><ele>131.0</ele><time>2026-04-28T08:40:51.675Z</time></trkpt><trkpt lat="48.3912267" lon="-4.3404917"><ele>131.0</ele><time>2026-04-28T08:40:53.673Z</time></trkpt><trkpt lat="48.39127" lon="-4.3406217"><ele>131.0</ele><time>2026-04-28T08:41:34.679Z</time></trkpt><trkpt lat="48.39125" lon="-4.3407317"><ele>131.0</ele><time>2026-04-28T08:41:35.676Z</time></trkpt><trkpt lat="48.3912167" lon="-4.3408467"><ele>131.0</ele><time>2026-04-28T08:41:36.678Z</time></trkpt><trkpt lat="48.391175" lon="-4.340985"><ele>131.0</ele><time>2026-04-28T08:41:37.68Z</time></trkpt><trkpt lat="48.3911283" lon="-4.3411417"><ele>130.25</ele><time>2026-04-28T08:41:38.679Z</time></trkpt><trkpt lat="48.3910733" lon="-4.341315"><ele>129.5</ele><time>2026-04-28T08:41:39.672Z</time></trkpt><trkpt lat="48.3910033" lon="-4.3414983"><ele>128.75</ele><time>2026-04-28T08:41:40.674Z</time></trkpt><trkpt lat="48.39092" lon="-4.3416917"><ele>128.0</ele><time>2026-04-28T08:41:41.679Z</time></trkpt><trkpt lat="48.390825" lon="-4.341895"><ele>127.0</ele><time>2026-04-28T08:41:42.68Z</time></trkpt><trkpt lat="48.3907267" lon="-4.3421"><ele>126.0</ele><time>2026-04-28T08:41:43.68Z</time></trkpt><trkpt lat="48.3906283" lon="-4.342305"><ele>125.0</ele><time>2026-04-28T08:41:44.683Z</time></trkpt><trkpt lat="48.3905267" lon="-4.3425133"><ele>123.33333333333333</ele><time>2026-04-28T08:41:45.681Z</time></trkpt><trkpt lat="48.3904233" lon="-4.3427233"><ele>121.66666666666666</ele><time>2026-04-28T08:41:46.679Z</time></trkpt><trkpt lat="48.3903217" lon="-4.3429333"><ele>120.0</ele><time>2026-04-28T08:41:47.676Z</time></trkpt><trkpt lat="48.3902167" lon="-4.3431433"><ele>119.66666666666666</ele><time>2026-04-28T08:41:48.68Z</time></trkpt><trkpt lat="48.3901117" lon="-4.3433533"><ele>119.33333333333333</ele><time>2026-04-28T08:41:49.681Z</time></trkpt><trkpt lat="48.39" lon="-4.34356"><ele>119.0</ele><time>2026-04-28T08:41:50.684Z</time></trkpt><trkpt lat="48.3898933" lon="-4.34377"><ele>118.66666666666666</ele><time>2026-04-28T08:41:51.68Z</time></trkpt><trkpt lat="48.3897883" lon="-4.34398"><ele>118.33333333333334</ele><time>2026-04-28T08:41:52.679Z</time></trkpt><trkpt lat="48.3896817" lon="-4.3441867"><ele>118.0</ele><time>2026-04-28T08:41:53.677Z</time></trkpt><trkpt lat="48.389575" lon="-4.3443933"><ele>117.66666666666667</ele><time>2026-04-28T08:41:54.676Z</time></trkpt><trkpt lat="48.3894667" lon="-4.3445983"><ele>117.33333333333334</ele><time>2026-04-28T08:41:55.68Z</time></trkpt><trkpt lat="48.3893583" lon="-4.344805"><ele>117.0</ele><time>2026-04-28T08:41:56.684Z</time></trkpt><trkpt lat="48.3892483" lon="-4.345005"><ele>116.33333333333334</ele><time>2026-04-28T08:41:57.68Z</time></trkpt><trkpt lat="48.3891433" lon="-4.34521"><ele>115.66666666666667</ele><time>2026-04-28T08:41:58.677Z</time></trkpt><trkpt lat="48.3890383" lon="-4.345415"><ele>115.0</ele><time>2026-04-28T08:41:59.678Z</time></trkpt><trkpt lat="48.388935" lon="-4.34562"><ele>114.66666666666667</ele><time>2026-04-28T08:42:00.677Z</time></trkpt><trkpt lat="48.38883" lon="-4.3458283"><ele>114.33333333333334</ele><time>2026-04-28T08:42:01.679Z</time></trkpt><trkpt lat="48.3887283" lon="-4.3460417"><ele>114.0</ele><time>2026-04-28T08:42:02.68Z</time></trkpt><trkpt lat="48.3886333" lon="-4.3462567"><ele>113.0</ele><time>2026-04-28T08:42:03.678Z</time></trkpt><trkpt lat="48.3885467" lon="-4.346465"><ele>112.0</ele><time>2026-04-28T08:42:04.678Z</time></trkpt><trkpt lat="48.3884667" lon="-4.346665"><ele>111.0</ele><time>2026-04-28T08:42:05.678Z</time></trkpt><trkpt lat="48.3883933" lon="-4.3468567"><ele>111.0</ele><time>2026-04-28T08:42:06.676Z</time></trkpt><trkpt lat="48.3883233" lon="-4.3470417"><ele>111.0</ele><time>2026-04-28T08:42:07.677Z</time></trkpt><trkpt lat="48.3882617" lon="-4.3472217"><ele>111.0</ele><time>2026-04-28T08:42:08.675Z</time></trkpt><trkpt lat="48.3882083" lon="-4.3473917"><ele>111.0</ele><time>2026-04-28T08:42:09.675Z</time></trkpt><trkpt lat="48.3881583" lon="-4.3475533"><ele>110.8</ele><time>2026-04-28T08:42:10.678Z</time></trkpt><trkpt lat="48.38811" lon="-4.3477067"><ele>110.6</ele><time>2026-04-28T08:42:11.677Z</time></trkpt><trkpt lat="48.3880633" lon="-4.3478533"><ele>110.4</ele><time>2026-04-28T08:42:12.673Z</time></trkpt><trkpt lat="48.38802" lon="-4.347995"><ele>110.2</ele><time>2026-04-28T08:42:13.675Z</time></trkpt><trkpt lat="48.3879767" lon="-4.3481333"><ele>110.0</ele><time>2026-04-28T08:42:14.678Z</time></trkpt><trkpt lat="48.387935" lon="-4.34827"><ele>110.0</ele><time>2026-04-28T08:42:15.678Z</time></trkpt><trkpt lat="48.38789" lon="-4.3484133"><ele>110.0</ele><time>2026-04-28T08:42:16.681Z</time></trkpt><trkpt lat="48.387845" lon="-4.3485683"><ele>110.0</ele><time>2026-04-28T08:42:17.678Z</time></trkpt><trkpt lat="48.3877983" lon="-4.348725"><ele>110.0</ele><time>2026-04-28T08:42:18.678Z</time></trkpt><trkpt lat="48.3877533" lon="-4.348875"><ele>110.0</ele><time>2026-04-28T08:42:19.676Z</time></trkpt><trkpt lat="48.3877083" lon="-4.3490267"><ele>109.4</ele><time>2026-04-28T08:42:20.675Z</time></trkpt><trkpt lat="48.3876667" lon="-4.349175"><ele>108.8</ele><time>2026-04-28T08:42:21.676Z</time></trkpt><trkpt lat="48.387625" lon="-4.3493233"><ele>108.19999999999999</ele><time>2026-04-28T08:42:22.674Z</time></trkpt><trkpt lat="48.38758" lon="-4.3494767"><ele>107.6</ele><time>2026-04-28T08:42:23.675Z</time></trkpt><trkpt lat="48.3875333" lon="-4.3496317"><ele>107.0</ele><time>2026-04-28T08:42:24.676Z</time></trkpt><trkpt lat="48.38749" lon="-4.349785"><ele>107.0</ele><time>2026-04-28T08:42:25.675Z</time></trkpt><trkpt lat="48.38745" lon="-4.3499317"><ele>106.99999999999999</ele><time>2026-04-28T08:42:26.677Z</time></trkpt><trkpt lat="48.3874117" lon="-4.35007"><ele>106.99999999999999</ele><time>2026-04-28T08:42:27.681Z</time></trkpt><trkpt lat="48.3873733" lon="-4.3502067"><ele>107.0</ele><time>2026-04-28T08:42:28.671Z</time></trkpt><trkpt lat="48.3873283" lon="-4.3503533"><ele>107.0</ele><time>2026-04-28T08:42:29.672Z</time></trkpt><trkpt lat="48.3872767" lon="-4.35051"><ele>106.75</ele><time>2026-04-28T08:42:30.677Z</time></trkpt><trkpt lat="48.3872183" lon="-4.3506683"><ele>106.5</ele><time>2026-04-28T08:42:31.679Z</time></trkpt><trkpt lat="48.3871533" lon="-4.3508317"><ele>106.25</ele><time>2026-04-28T08:42:32.682Z</time></trkpt><trkpt lat="48.38708" lon="-4.3509917"><ele>106.0</ele><time>2026-04-28T08:42:33.682Z</time></trkpt><trkpt lat="48.3870017" lon="-4.3511467"><ele>106.25</ele><time>2026-04-28T08:42:34.676Z</time></trkpt><trkpt lat="48.3869183" lon="-4.3513017"><ele>106.5</ele><time>2026-04-28T08:42:35.68Z</time></trkpt><trkpt lat="48.38683" lon="-4.351455"><ele>106.75</ele><time>2026-04-28T08:42:36.684Z</time></trkpt><trkpt lat="48.3867367" lon="-4.35161"><ele>107.0</ele><time>2026-04-28T08:42:37.68Z</time></trkpt><trkpt lat="48.3866433" lon="-4.35176"><ele>107.0</ele><time>2026-04-28T08:42:38.678Z</time></trkpt><trkpt lat="48.38655" lon="-4.3519067"><ele>107.0</ele><time>2026-04-28T08:42:39.676Z</time></trkpt><trkpt lat="48.3864533" lon="-4.3520533"><ele>107.0</ele><time>2026-04-28T08:42:40.675Z</time></trkpt><trkpt lat="48.3863567" lon="-4.3521983"><ele>107.0</ele><time>2026-04-28T08:42:41.677Z</time></trkpt><trkpt lat="48.3862583" lon="-4.3523417"><ele>107.5</ele><time>2026-04-28T08:42:42.674Z</time></trkpt><trkpt lat="48.3861567" lon="-4.3524817"><ele>108.0</ele><time>2026-04-28T08:42:43.675Z</time></trkpt><trkpt lat="48.3860533" lon="-4.3526233"><ele>108.5</ele><time>2026-04-28T08:42:44.679Z</time></trkpt><trkpt lat="48.38595" lon="-4.3527617"><ele>109.0</ele><time>2026-04-28T08:42:45.678Z</time></trkpt><trkpt lat="48.38585" lon="-4.3529"><ele>109.0</ele><time>2026-04-28T08:42:46.677Z</time></trkpt><trkpt lat="48.3857517" lon="-4.353045"><ele>109.0</ele><time>2026-04-28T08:42:47.674Z</time></trkpt><trkpt lat="48.3856533" lon="-4.3531983"><ele>109.0</ele><time>2026-04-28T08:42:48.678Z</time></trkpt><trkpt lat="48.3855567" lon="-4.35335"><ele>109.0</ele><time>2026-04-28T08:42:49.676Z</time></trkpt><trkpt lat="48.385465" lon="-4.3534933"><ele>109.0</ele><time>2026-04-28T08:42:50.678Z</time></trkpt><trkpt lat="48.3853767" lon="-4.3536267"><ele>109.0</ele><time>2026-04-28T08:42:51.677Z</time></trkpt><trkpt lat="48.3852933" lon="-4.35375"><ele>109.0</ele><time>2026-04-28T08:42:52.676Z</time></trkpt><trkpt lat="48.3852133" lon="-4.3538683"><ele>109.0</ele><time>2026-04-28T08:42:53.676Z</time></trkpt><trkpt lat="48.38514" lon="-4.3539783"><ele>109.00000000000001</ele><time>2026-04-28T08:42:54.674Z</time></trkpt><trkpt lat="48.3850717" lon="-4.3540733"><ele>109.0</ele><time>2026-04-28T08:42:55.678Z</time></trkpt><trkpt lat="48.3850033" lon="-4.3541533"><ele>109.0</ele><time>2026-04-28T08:42:56.678Z</time></trkpt><trkpt lat="48.3849367" lon="-4.3542267"><ele>109.0</ele><time>2026-04-28T08:42:57.675Z</time></trkpt><trkpt lat="48.3848717" lon="-4.3542967"><ele>109.00000000000001</ele><time>2026-04-28T08:42:58.677Z</time></trkpt><trkpt lat="48.3848133" lon="-4.3543583"><ele>109.0</ele><time>2026-04-28T08:42:59.676Z</time></trkpt><trkpt lat="48.3847117" lon="-4.3544533"><ele>108.83333333333334</ele><time>2026-04-28T08:43:01.675Z</time></trkpt><trkpt lat="48.38463" lon="-4.35453"><ele>108.66666666666667</ele><time>2026-04-28T08:43:03.679Z</time></trkpt><trkpt lat="48.38456" lon="-4.354595"><ele>108.5</ele><time>2026-04-28T08:43:05.674Z</time></trkpt><trkpt lat="48.384525" lon="-4.354685"><ele>108.33333333333334</ele><time>2026-04-28T08:43:07.676Z</time></trkpt><trkpt lat="48.3845683" lon="-4.354765"><ele>108.16666666666667</ele><time>2026-04-28T08:43:53.679Z</time></trkpt><trkpt lat="48.3846533" lon="-4.3547083"><ele>108.0</ele><time>2026-04-28T08:44:03.678Z</time></trkpt><trkpt lat="48.3846067" lon="-4.3547883"><ele>108.4</ele><time>2026-04-28T08:46:11.675Z</time></trkpt><trkpt lat="48.38459" lon="-4.35491"><ele>108.80000000000001</ele><time>2026-04-28T08:46:13.678Z</time></trkpt><trkpt lat="48.3845583" lon="-4.3550383"><ele>109.2</ele><time>2026-04-28T08:46:15.682Z</time></trkpt><trkpt lat="48.3845283" lon="-4.3551667"><ele>109.6</ele><time>2026-04-28T08:46:17.68Z</time></trkpt><trkpt lat="48.38449" lon="-4.355315"><ele>110.0</ele><time>2026-04-28T08:46:19.681Z</time></trkpt><trkpt lat="48.384455" lon="-4.3554733"><ele>110.2</ele><time>2026-04-28T08:46:21.68Z</time></trkpt><trkpt lat="48.38442" lon="-4.3556317"><ele>110.4</ele><time>2026-04-28T08:46:23.684Z</time></trkpt><trkpt lat="48.3843867" lon="-4.355795"><ele>110.6</ele><time>2026-04-28T08:46:25.68Z</time></trkpt><trkpt lat="48.38437" lon="-4.3558867"><ele>110.8</ele><time>2026-04-28T08:46:26.68Z</time></trkpt><trkpt lat="48.3843567" lon="-4.35598"><ele>111.0</ele><time>2026-04-28T08:46:27.675Z</time></trkpt><trkpt lat="48.384335" lon="-4.3561617"><ele>111.0</ele><time>2026-04-28T08:46:29.678Z</time></trkpt><trkpt lat="48.3843133" lon="-4.3563517"><ele>111.0</ele><time>2026-04-28T08:46:31.678Z</time></trkpt><trkpt lat="48.3842983" lon="-4.356445"><ele>111.0</ele><time>2026-04-28T08:46:32.678Z</time></trkpt><trkpt lat="48.3842817" lon="-4.3565383"><ele>111.0</ele><time>2026-04-28T08:46:33.674Z</time></trkpt><trkpt lat="48.3842583" lon="-4.35672"><ele>111.0</ele><time>2026-04-28T08:46:35.681Z</time></trkpt><trkpt lat="48.384245" lon="-4.3568783"><ele>111.4</ele><time>2026-04-28T08:46:37.682Z</time></trkpt><trkpt lat="48.384235" lon="-4.3570233"><ele>111.8</ele><time>2026-04-28T08:46:39.68Z</time></trkpt><trkpt lat="48.38421" lon="-4.3571667"><ele>112.20000000000002</ele><time>2026-04-28T08:46:41.68Z</time></trkpt><trkpt lat="48.3841783" lon="-4.3573217"><ele>112.60000000000001</ele><time>2026-04-28T08:46:43.682Z</time></trkpt><trkpt lat="48.3841367" lon="-4.3574783"><ele>113.0</ele><time>2026-04-28T08:46:45.677Z</time></trkpt><trkpt lat="48.3841" lon="-4.3576417"><ele>113.0</ele><time>2026-04-28T08:46:47.681Z</time></trkpt><trkpt lat="48.384065" lon="-4.3578"><ele>113.00000000000001</ele><time>2026-04-28T08:46:49.677Z</time></trkpt><trkpt lat="48.3840317" lon="-4.357965"><ele>113.00000000000001</ele><time>2026-04-28T08:46:51.674Z</time></trkpt><trkpt lat="48.383995" lon="-4.358125"><ele>113.0</ele><time>2026-04-28T08:46:53.676Z</time></trkpt><trkpt lat="48.383955" lon="-4.3582767"><ele>113.0</ele><time>2026-04-28T08:46:55.68Z</time></trkpt><trkpt lat="48.3839117" lon="-4.3584167"><ele>113.2</ele><time>2026-04-28T08:46:57.675Z</time></trkpt><trkpt lat="48.3838633" lon="-4.358555"><ele>113.4</ele><time>2026-04-28T08:46:59.678Z</time></trkpt><trkpt lat="48.3838283" lon="-4.358705"><ele>113.60000000000001</ele><time>2026-04-28T08:47:01.679Z</time></trkpt><trkpt lat="48.3837983" lon="-4.3588367"><ele>113.80000000000001</ele><time>2026-04-28T08:47:03.675Z</time></trkpt><trkpt lat="48.3837717" lon="-4.3589967"><ele>114.0</ele><time>2026-04-28T08:47:05.679Z</time></trkpt><trkpt lat="48.383755" lon="-4.3591617"><ele>114.16666666666667</ele><time>2026-04-28T08:47:07.683Z</time></trkpt><trkpt lat="48.3837483" lon="-4.3592983"><ele>114.33333333333334</ele><time>2026-04-28T08:47:09.678Z</time></trkpt><trkpt lat="48.3837733" lon="-4.3594283"><ele>114.5</ele><time>2026-04-28T08:47:11.68Z</time></trkpt><trkpt lat="48.3837983" lon="-4.3595583"><ele>114.66666666666667</ele><time>2026-04-28T08:47:13.681Z</time></trkpt><trkpt lat="48.3838167" lon="-4.35968"><ele>114.83333333333334</ele><time>2026-04-28T08:47:15.684Z</time></trkpt><trkpt lat="48.3838433" lon="-4.3598033"><ele>115.0</ele><time>2026-04-28T08:47:17.677Z</time></trkpt><trkpt lat="48.38388" lon="-4.3599083"><ele>114.66666666666667</ele><time>2026-04-28T08:47:19.674Z</time></trkpt><trkpt lat="48.383905" lon="-4.3600083"><ele>114.33333333333334</ele><time>2026-04-28T08:47:23.68Z</time></trkpt><trkpt lat="48.3839683" lon="-4.3600433"><ele>114.0</ele><time>2026-04-28T08:47:27.679Z</time></trkpt><trkpt lat="48.384085" lon="-4.3600817"><ele>113.66666666666666</ele><time>2026-04-28T08:48:18.677Z</time></trkpt><trkpt lat="48.384155" lon="-4.3600383"><ele>113.33333333333333</ele><time>2026-04-28T08:49:18.678Z</time></trkpt><trkpt lat="48.3842583" lon="-4.36006"><ele>113.0</ele><time>2026-04-28T08:49:20.682Z</time></trkpt><trkpt lat="48.3843667" lon="-4.3600683"><ele>112.99999999999999</ele><time>2026-04-28T08:49:22.671Z</time></trkpt><trkpt lat="48.3844833" lon="-4.3600817"><ele>113.0</ele><time>2026-04-28T08:49:24.677Z</time></trkpt><trkpt lat="48.3845583" lon="-4.3600933"><ele>113.0</ele><time>2026-04-28T08:49:25.673Z</time></trkpt><trkpt lat="48.3846417" lon="-4.3601033"><ele>113.0</ele><time>2026-04-28T08:49:26.673Z</time></trkpt><trkpt lat="48.3847283" lon="-4.3601117"><ele>112.99999999999999</ele><time>2026-04-28T08:49:27.679Z</time></trkpt><trkpt lat="48.3848133" lon="-4.3601167"><ele>113.0</ele><time>2026-04-28T08:49:28.672Z</time></trkpt><trkpt lat="48.3848967" lon="-4.3601183"><ele>112.71428571428572</ele><time>2026-04-28T08:49:29.677Z</time></trkpt><trkpt lat="48.384975" lon="-4.36012"><ele>112.42857142857142</ele><time>2026-04-28T08:49:30.68Z</time></trkpt><trkpt lat="48.3850467" lon="-4.3601233"><ele>112.14285714285714</ele><time>2026-04-28T08:49:31.678Z</time></trkpt><trkpt lat="48.3851167" lon="-4.360125"><ele>111.85714285714286</ele><time>2026-04-28T08:49:32.678Z</time></trkpt><trkpt lat="48.3851817" lon="-4.36012"><ele>111.57142857142858</ele><time>2026-04-28T08:49:33.677Z</time></trkpt><trkpt lat="48.3852467" lon="-4.3601183"><ele>111.28571428571428</ele><time>2026-04-28T08:49:34.676Z</time></trkpt><trkpt lat="48.3853117" lon="-4.360115"><ele>111.0</ele><time>2026-04-28T08:49:35.677Z</time></trkpt><trkpt lat="48.38538" lon="-4.36011"><ele>111.0</ele><time>2026-04-28T08:49:36.679Z</time></trkpt><trkpt lat="48.3854467" lon="-4.3601033"><ele>111.0</ele><time>2026-04-28T08:49:37.675Z</time></trkpt><trkpt lat="48.3855167" lon="-4.3600933"><ele>111.0</ele><time>2026-04-28T08:49:38.677Z</time></trkpt><trkpt lat="48.385585" lon="-4.36009"><ele>111.0</ele><time>2026-04-28T08:49:39.674Z</time></trkpt><trkpt lat="48.38565" lon="-4.3600917"><ele>111.0</ele><time>2026-04-28T08:49:40.677Z</time></trkpt><trkpt lat="48.3857133" lon="-4.3600983"><ele>111.0</ele><time>2026-04-28T08:49:41.678Z</time></trkpt><trkpt lat="48.3857767" lon="-4.3601133"><ele>111.0</ele><time>2026-04-28T08:49:42.679Z</time></trkpt><trkpt lat="48.3858417" lon="-4.36014"><ele>110.5</ele><time>2026-04-28T08:49:43.672Z</time></trkpt><trkpt lat="48.38591" lon="-4.3601767"><ele>110.0</ele><time>2026-04-28T08:49:44.679Z</time></trkpt><trkpt lat="48.385975" lon="-4.360225"><ele>109.5</ele><time>2026-04-28T08:49:45.678Z</time></trkpt><trkpt lat="48.3860333" lon="-4.3602733"><ele>109.0</ele><time>2026-04-28T08:49:46.68Z</time></trkpt><trkpt lat="48.3860883" lon="-4.3603217"><ele>108.5</ele><time>2026-04-28T08:49:47.673Z</time></trkpt><trkpt lat="48.3861867" lon="-4.3604117"><ele>108.0</ele><time>2026-04-28T08:49:49.677Z</time></trkpt><trkpt lat="48.38627" lon="-4.3604983"><ele>108.4</ele><time>2026-04-28T08:49:51.677Z</time></trkpt><trkpt lat="48.3863333" lon="-4.36058"><ele>108.80000000000001</ele><time>2026-04-28T08:49:54.678Z</time></trkpt><trkpt lat="48.3863267" lon="-4.3607217"><ele>109.2</ele><time>2026-04-28T08:49:58.681Z</time></trkpt><trkpt lat="48.3862383" lon="-4.3608883"><ele>109.6</ele><time>2026-04-28T08:50:00.682Z</time></trkpt><trkpt lat="48.3861883" lon="-4.3609867"><ele>110.0</ele><time>2026-04-28T08:50:01.681Z</time></trkpt><trkpt lat="48.3861317" lon="-4.3610967"><ele>110.0</ele><time>2026-04-28T08:50:02.673Z</time></trkpt><trkpt lat="48.38606" lon="-4.36122"><ele>110.0</ele><time>2026-04-28T08:50:03.679Z</time></trkpt><trkpt lat="48.3859817" lon="-4.3613433"><ele>110.0</ele><time>2026-04-28T08:50:04.676Z</time></trkpt><trkpt lat="48.3859017" lon="-4.3614633"><ele>110.0</ele><time>2026-04-28T08:50:05.679Z</time></trkpt><trkpt lat="48.3858133" lon="-4.3615783"><ele>110.0</ele><time>2026-04-28T08:50:06.675Z</time></trkpt><trkpt lat="48.3857233" lon="-4.3616917"><ele>110.0</ele><time>2026-04-28T08:50:07.679Z</time></trkpt><trkpt lat="48.3856317" lon="-4.36181"><ele>110.0</ele><time>2026-04-28T08:50:08.68Z</time></trkpt><trkpt lat="48.3855567" lon="-4.3619483"><ele>110.0</ele><time>2026-04-28T08:50:09.68Z</time></trkpt><trkpt lat="48.3854967" lon="-4.3621017"><ele>110.25</ele><time>2026-04-28T08:50:10.682Z</time></trkpt><trkpt lat="48.38544" lon="-4.362265"><ele>110.5</ele><time>2026-04-28T08:50:11.68Z</time></trkpt><trkpt lat="48.38538" lon="-4.3624283"><ele>110.75</ele><time>2026-04-28T08:50:12.671Z</time></trkpt><trkpt lat="48.3853183" lon="-4.3626033"><ele>111.0</ele><time>2026-04-28T08:50:13.681Z</time></trkpt><trkpt lat="48.3852517" lon="-4.36279"><ele>111.0</ele><time>2026-04-28T08:50:14.677Z</time></trkpt><trkpt lat="48.3851833" lon="-4.3629617"><ele>111.0</ele><time>2026-04-28T08:50:15.68Z</time></trkpt><trkpt lat="48.3851083" lon="-4.3631267"><ele>111.0</ele><time>2026-04-28T08:50:16.679Z</time></trkpt><trkpt lat="48.385035" lon="-4.3632917"><ele>111.0</ele><time>2026-04-28T08:50:17.679Z</time></trkpt><trkpt lat="48.3849633" lon="-4.3634483"><ele>111.6</ele><time>2026-04-28T08:50:18.677Z</time></trkpt><trkpt lat="48.3848933" lon="-4.3635917"><ele>112.19999999999999</ele><time>2026-04-28T08:50:19.678Z</time></trkpt><trkpt lat="48.3848317" lon="-4.36373"><ele>112.80000000000001</ele><time>2026-04-28T08:50:20.672Z</time></trkpt><trkpt lat="48.384775" lon="-4.3638633"><ele>113.4</ele><time>2026-04-28T08:50:21.675Z</time></trkpt><trkpt lat="48.38472" lon="-4.36399"><ele>114.0</ele><time>2026-04-28T08:50:22.673Z</time></trkpt><trkpt lat="48.38467" lon="-4.3641083"><ele>114.2</ele><time>2026-04-28T08:50:23.677Z</time></trkpt><trkpt lat="48.384625" lon="-4.3642217"><ele>114.4</ele><time>2026-04-28T08:50:24.675Z</time></trkpt><trkpt lat="48.38459" lon="-4.3643183"><ele>114.6</ele><time>2026-04-28T08:50:25.673Z</time></trkpt><trkpt lat="48.3845517" lon="-4.3644433"><ele>114.8</ele><time>2026-04-28T08:50:27.675Z</time></trkpt><trkpt lat="48.38448" lon="-4.3646067"><ele>115.0</ele><time>2026-04-28T08:50:33.677Z</time></trkpt><trkpt lat="48.3844583" lon="-4.364735"><ele>115.00000000000001</ele><time>2026-04-28T08:50:35.676Z</time></trkpt><trkpt lat="48.3844383" lon="-4.3648483"><ele>115.0</ele><time>2026-04-28T08:50:37.674Z</time></trkpt><trkpt lat="48.38442" lon="-4.3649517"><ele>115.0</ele><time>2026-04-28T08:50:39.674Z</time></trkpt><trkpt lat="48.3844083" lon="-4.3650583"><ele>115.0</ele><time>2026-04-28T08:50:41.686Z</time></trkpt><trkpt lat="48.3843733" lon="-4.365205"><ele>115.00000000000001</ele><time>2026-04-28T08:50:43.675Z</time></trkpt><trkpt lat="48.384345" lon="-4.3653483"><ele>115.0</ele><time>2026-04-28T08:50:45.678Z</time></trkpt><trkpt lat="48.3843117" lon="-4.3655183"><ele>114.6</ele><time>2026-04-28T08:50:47.684Z</time></trkpt><trkpt lat="48.3842667" lon="-4.3656883"><ele>114.2</ele><time>2026-04-28T08:50:49.686Z</time></trkpt><trkpt lat="48.3842183" lon="-4.36582"><ele>113.80000000000001</ele><time>2026-04-28T08:50:51.679Z</time></trkpt><trkpt lat="48.384165" lon="-4.3659367"><ele>113.4</ele><time>2026-04-28T08:50:53.683Z</time></trkpt><trkpt lat="48.3840983" lon="-4.3660433"><ele>113.0</ele><time>2026-04-28T08:50:55.683Z</time></trkpt><trkpt lat="48.38406" lon="-4.3661567"><ele>113.0</ele><time>2026-04-28T08:50:57.683Z</time></trkpt><trkpt lat="48.384045" lon="-4.366315"><ele>113.00000000000001</ele><time>2026-04-28T08:50:59.676Z</time></trkpt><trkpt lat="48.3840517" lon="-4.36646"><ele>113.00000000000001</ele><time>2026-04-28T08:51:01.679Z</time></trkpt><trkpt lat="48.3840667" lon="-4.3666333"><ele>113.0</ele><time>2026-04-28T08:51:03.679Z</time></trkpt><trkpt lat="48.38408" lon="-4.3668067"><ele>113.0</ele><time>2026-04-28T08:51:05.681Z</time></trkpt><trkpt lat="48.384095" lon="-4.3669833"><ele>112.60000000000001</ele><time>2026-04-28T08:51:07.681Z</time></trkpt><trkpt lat="48.38411" lon="-4.36711"><ele>112.20000000000002</ele><time>2026-04-28T08:51:09.682Z</time></trkpt><trkpt lat="48.3841183" lon="-4.3672517"><ele>111.8</ele><time>2026-04-28T08:51:11.68Z</time></trkpt><trkpt lat="48.38413" lon="-4.367405"><ele>111.4</ele><time>2026-04-28T08:51:13.688Z</time></trkpt><trkpt lat="48.3841567" lon="-4.3675317"><ele>111.0</ele><time>2026-04-28T08:51:15.68Z</time></trkpt><trkpt lat="48.38418" lon="-4.3676633"><ele>110.8</ele><time>2026-04-28T08:51:17.682Z</time></trkpt><trkpt lat="48.3842017" lon="-4.3677983"><ele>110.6</ele><time>2026-04-28T08:51:19.678Z</time></trkpt><trkpt lat="48.38424" lon="-4.36794"><ele>110.4</ele><time>2026-04-28T08:51:21.68Z</time></trkpt><trkpt lat="48.384275" lon="-4.3680917"><ele>110.2</ele><time>2026-04-28T08:51:23.683Z</time></trkpt><trkpt lat="48.3842983" lon="-4.3681867"><ele>110.0</ele><time>2026-04-28T08:51:24.678Z</time></trkpt><trkpt lat="48.3843433" lon="-4.3683717"><ele>109.0</ele><time>2026-04-28T08:51:26.681Z</time></trkpt><trkpt lat="48.3843767" lon="-4.368545"><ele>108.0</ele><time>2026-04-28T08:51:28.679Z</time></trkpt><trkpt lat="48.3844033" lon="-4.368705"><ele>107.0</ele><time>2026-04-28T08:51:30.678Z</time></trkpt><trkpt lat="48.3844333" lon="-4.3688717"><ele>106.0</ele><time>2026-04-28T08:51:32.68Z</time></trkpt><trkpt lat="48.38444" lon="-4.36897"><ele>105.0</ele><time>2026-04-28T08:51:33.68Z</time></trkpt><trkpt lat="48.38445" lon="-4.3690683"><ele>103.2</ele><time>2026-04-28T08:51:34.679Z</time></trkpt><trkpt lat="48.3844683" lon="-4.369235"><ele>101.4</ele><time>2026-04-28T08:51:36.682Z</time></trkpt><trkpt lat="48.384485" lon="-4.36941"><ele>99.6</ele><time>2026-04-28T08:51:38.683Z</time></trkpt><trkpt lat="48.3844933" lon="-4.3696183"><ele>97.8</ele><time>2026-04-28T08:51:40.678Z</time></trkpt><trkpt lat="48.3844933" lon="-4.3697267"><ele>96.0</ele><time>2026-04-28T08:51:41.686Z</time></trkpt><trkpt lat="48.3844933" lon="-4.36984"><ele>95.57142857142857</ele><time>2026-04-28T08:51:42.678Z</time></trkpt><trkpt lat="48.3844867" lon="-4.3699467"><ele>95.14285714285714</ele><time>2026-04-28T08:51:43.676Z</time></trkpt><trkpt lat="48.3844783" lon="-4.3700567"><ele>94.71428571428572</ele><time>2026-04-28T08:51:44.68Z</time></trkpt><trkpt lat="48.3844733" lon="-4.3701617"><ele>94.28571428571428</ele><time>2026-04-28T08:51:45.68Z</time></trkpt><trkpt lat="48.3844733" lon="-4.3702617"><ele>93.85714285714286</ele><time>2026-04-28T08:51:46.674Z</time></trkpt><trkpt lat="48.3844733" lon="-4.3703633"><ele>93.42857142857143</ele><time>2026-04-28T08:51:47.679Z</time></trkpt><trkpt lat="48.3844733" lon="-4.3704617"><ele>93.0</ele><time>2026-04-28T08:51:48.68Z</time></trkpt><trkpt lat="48.3844717" lon="-4.3705633"><ele>92.71428571428572</ele><time>2026-04-28T08:51:49.677Z</time></trkpt><trkpt lat="48.3844783" lon="-4.37067"><ele>92.42857142857143</ele><time>2026-04-28T08:51:50.681Z</time></trkpt><trkpt lat="48.3844867" lon="-4.370775"><ele>92.14285714285714</ele><time>2026-04-28T08:51:51.681Z</time></trkpt><trkpt lat="48.3845017" lon="-4.37088"><ele>91.85714285714286</ele><time>2026-04-28T08:51:52.675Z</time></trkpt><trkpt lat="48.3845183" lon="-4.3709883"><ele>91.57142857142857</ele><time>2026-04-28T08:51:53.678Z</time></trkpt><trkpt lat="48.3845367" lon="-4.3710967"><ele>91.28571428571429</ele><time>2026-04-28T08:51:54.679Z</time></trkpt><trkpt lat="48.3845583" lon="-4.3712167"><ele>91.0</ele><time>2026-04-28T08:51:55.687Z</time></trkpt><trkpt lat="48.3845733" lon="-4.3713233"><ele>90.4</ele><time>2026-04-28T08:51:56.682Z</time></trkpt><trkpt lat="48.3846252" lon="-4.3715057"><ele>89.8</ele><time>2026-04-28T08:51:58.676Z</time></trkpt><trkpt lat="48.3846574" lon="-4.3715908"><ele>89.2</ele><time>2026-04-28T08:51:59.679Z</time></trkpt><trkpt lat="48.3847172" lon="-4.3717332"><ele>88.60000000000001</ele><time>2026-04-28T08:52:01.679Z</time></trkpt><trkpt lat="48.3847851" lon="-4.3718095"><ele>88.0</ele><time>2026-04-28T08:52:03.679Z</time></trkpt><trkpt lat="48.3848301" lon="-4.3718961"><ele>88.0</ele><time>2026-04-28T08:52:05.679Z</time></trkpt><trkpt lat="48.3847921" lon="-4.3719793"><ele>88.0</ele><time>2026-04-28T08:52:09.682Z</time></trkpt><trkpt lat="48.3847311" lon="-4.3718913"><ele>88.0</ele><time>2026-04-28T08:52:12.678Z</time></trkpt><trkpt lat="48.3846874" lon="-4.3717487"><ele>88.0</ele><time>2026-04-28T08:52:14.682Z</time></trkpt><trkpt lat="48.3846554" lon="-4.3716667"><ele>88.0</ele><time>2026-04-28T08:52:15.677Z</time></trkpt><trkpt lat="48.3846156" lon="-4.3715778"><ele>88.0</ele><time>2026-04-28T08:52:16.677Z</time></trkpt><trkpt lat="48.3845764" lon="-4.3714903"><ele>88.0</ele><time>2026-04-28T08:52:17.678Z</time></trkpt><trkpt lat="48.3845462" lon="-4.3713931"><ele>88.0</ele><time>2026-04-28T08:52:18.683Z</time></trkpt><trkpt lat="48.3845223" lon="-4.3712976"><ele>88.0</ele><time>2026-04-28T08:52:19.677Z</time></trkpt><trkpt lat="48.3844995" lon="-4.3712076"><ele>88.0</ele><time>2026-04-28T08:52:20.68Z</time></trkpt><trkpt lat="48.3844805" lon="-4.3711034"><ele>88.0</ele><time>2026-04-28T08:52:21.68Z</time></trkpt><trkpt lat="48.3844679" lon="-4.3709944"><ele>88.0</ele><time>2026-04-28T08:52:22.681Z</time></trkpt><trkpt lat="48.3844609" lon="-4.3708824"><ele>88.0</ele><time>2026-04-28T08:52:23.68Z</time></trkpt><trkpt lat="48.3844576" lon="-4.3707744"><ele>88.5</ele><time>2026-04-28T08:52:24.675Z</time></trkpt><trkpt lat="48.3844573" lon="-4.3706717"><ele>89.0</ele><time>2026-04-28T08:52:25.68Z</time></trkpt><trkpt lat="48.3844588" lon="-4.3705598"><ele>89.5</ele><time>2026-04-28T08:52:26.679Z</time></trkpt><trkpt lat="48.3844612" lon="-4.3704389"><ele>90.0</ele><time>2026-04-28T08:52:27.677Z</time></trkpt><trkpt lat="48.3844683" lon="-4.3703188"><ele>90.5</ele><time>2026-04-28T08:52:28.68Z</time></trkpt><trkpt lat="48.3844784" lon="-4.370204"><ele>91.0</ele><time>2026-04-28T08:52:29.677Z</time></trkpt><trkpt lat="48.3844847" lon="-4.3700892"><ele>91.28571428571429</ele><time>2026-04-28T08:52:30.683Z</time></trkpt><trkpt lat="48.3844875" lon="-4.3699775"><ele>91.57142857142857</ele><time>2026-04-28T08:52:31.674Z</time></trkpt><trkpt lat="48.3844863" lon="-4.3698695"><ele>91.85714285714286</ele><time>2026-04-28T08:52:32.683Z</time></trkpt><trkpt lat="48.3844857" lon="-4.3697646"><ele>92.14285714285714</ele><time>2026-04-28T08:52:33.683Z</time></trkpt><trkpt lat="48.3844803" lon="-4.3696559"><ele>92.42857142857143</ele><time>2026-04-28T08:52:34.679Z</time></trkpt><trkpt lat="48.3844672" lon="-4.3695449"><ele>92.71428571428572</ele><time>2026-04-28T08:52:35.68Z</time></trkpt><trkpt lat="48.3844596" lon="-4.3694386"><ele>93.0</ele><time>2026-04-28T08:52:36.68Z</time></trkpt><trkpt lat="48.3844511" lon="-4.369327"><ele>93.5</ele><time>2026-04-28T08:52:37.676Z</time></trkpt><trkpt lat="48.3844348" lon="-4.3692159"><ele>94.0</ele><time>2026-04-28T08:52:38.684Z</time></trkpt><trkpt lat="48.3844135" lon="-4.3691019"><ele>94.5</ele><time>2026-04-28T08:52:39.685Z</time></trkpt><trkpt lat="48.3843938" lon="-4.3689883"><ele>95.0</ele><time>2026-04-28T08:52:40.678Z</time></trkpt><trkpt lat="48.3843694" lon="-4.3688775"><ele>95.5</ele><time>2026-04-28T08:52:41.674Z</time></trkpt><trkpt lat="48.3843427" lon="-4.3687681"><ele>96.0</ele><time>2026-04-28T08:52:42.681Z</time></trkpt><trkpt lat="48.3843107" lon="-4.368666"><ele>97.5</ele><time>2026-04-28T08:52:43.678Z</time></trkpt><trkpt lat="48.3842833" lon="-4.368552"><ele>99.0</ele><time>2026-04-28T08:52:44.684Z</time></trkpt><trkpt lat="48.3842576" lon="-4.3684414"><ele>100.5</ele><time>2026-04-28T08:52:45.682Z</time></trkpt><trkpt lat="48.3842284" lon="-4.3683289"><ele>102.0</ele><time>2026-04-28T08:52:46.68Z</time></trkpt><trkpt lat="48.3841997" lon="-4.3682127"><ele>103.5</ele><time>2026-04-28T08:52:47.682Z</time></trkpt><trkpt lat="48.3841739" lon="-4.3680984"><ele>105.0</ele><time>2026-04-28T08:52:48.682Z</time></trkpt><trkpt lat="48.3841489" lon="-4.3679824"><ele>105.83333333333333</ele><time>2026-04-28T08:52:49.679Z</time></trkpt><trkpt lat="48.3841165" lon="-4.3678652"><ele>106.66666666666666</ele><time>2026-04-28T08:52:50.682Z</time></trkpt><trkpt lat="48.3840923" lon="-4.3677441"><ele>107.5</ele><time>2026-04-28T08:52:51.681Z</time></trkpt><trkpt lat="48.3840723" lon="-4.3676308"><ele>108.33333333333333</ele><time>2026-04-28T08:52:52.678Z</time></trkpt><trkpt lat="48.3840691" lon="-4.3675174"><ele>109.16666666666666</ele><time>2026-04-28T08:52:53.679Z</time></trkpt><trkpt lat="48.3840618" lon="-4.3674071"><ele>110.0</ele><time>2026-04-28T08:52:54.678Z</time></trkpt><trkpt lat="48.3840571" lon="-4.3672952"><ele>110.16666666666666</ele><time>2026-04-28T08:52:55.674Z</time></trkpt><trkpt lat="48.3840462" lon="-4.3671821"><ele>110.33333333333333</ele><time>2026-04-28T08:52:56.675Z</time></trkpt><trkpt lat="48.3840357" lon="-4.36707"><ele>110.5</ele><time>2026-04-28T08:52:57.685Z</time></trkpt><trkpt lat="48.3840245" lon="-4.366954"><ele>110.66666666666666</ele><time>2026-04-28T08:52:58.674Z</time></trkpt><trkpt lat="48.3840171" lon="-4.3668348"><ele>110.83333333333333</ele><time>2026-04-28T08:52:59.685Z</time></trkpt><trkpt lat="48.384013" lon="-4.3667093"><ele>111.0</ele><time>2026-04-28T08:53:00.683Z</time></trkpt><trkpt lat="48.3840108" lon="-4.3665802"><ele>111.0</ele><time>2026-04-28T08:53:01.682Z</time></trkpt><trkpt lat="48.3840078" lon="-4.3664592"><ele>111.0</ele><time>2026-04-28T08:53:02.68Z</time></trkpt><trkpt lat="48.3840112" lon="-4.3663485"><ele>111.0</ele><time>2026-04-28T08:53:03.684Z</time></trkpt><trkpt lat="48.3840185" lon="-4.3662438"><ele>111.0</ele><time>2026-04-28T08:53:04.675Z</time></trkpt><trkpt lat="48.3840382" lon="-4.3661436"><ele>111.0</ele><time>2026-04-28T08:53:05.683Z</time></trkpt><trkpt lat="48.3840687" lon="-4.3660539"><ele>111.0</ele><time>2026-04-28T08:53:06.679Z</time></trkpt><trkpt lat="48.3841046" lon="-4.3659705"><ele>111.0</ele><time>2026-04-28T08:53:07.683Z</time></trkpt><trkpt lat="48.3841374" lon="-4.3658865"><ele>111.28571428571428</ele><time>2026-04-28T08:53:08.681Z</time></trkpt><trkpt lat="48.3841727" lon="-4.3658063"><ele>111.57142857142858</ele><time>2026-04-28T08:53:09.679Z</time></trkpt><trkpt lat="48.3842059" lon="-4.3657214"><ele>111.85714285714286</ele><time>2026-04-28T08:53:10.675Z</time></trkpt><trkpt lat="48.3842393" lon="-4.3656296"><ele>112.14285714285714</ele><time>2026-04-28T08:53:11.68Z</time></trkpt><trkpt lat="48.3842722" lon="-4.3655429"><ele>112.42857142857142</ele><time>2026-04-28T08:53:12.677Z</time></trkpt><trkpt lat="48.3843021" lon="-4.365459"><ele>112.71428571428572</ele><time>2026-04-28T08:53:13.685Z</time></trkpt><trkpt lat="48.3843443" lon="-4.3653068"><ele>113.0</ele><time>2026-04-28T08:53:15.684Z</time></trkpt><trkpt lat="48.3843812" lon="-4.3651727"><ele>113.33333333333333</ele><time>2026-04-28T08:53:17.683Z</time></trkpt><trkpt lat="48.3844013" lon="-4.3650606"><ele>113.66666666666666</ele><time>2026-04-28T08:53:19.68Z</time></trkpt><trkpt lat="48.3843935" lon="-4.3649634"><ele>114.0</ele><time>2026-04-28T08:53:22.677Z</time></trkpt><trkpt lat="48.384405" lon="-4.3651167"><ele>114.33333333333334</ele><time>2026-04-28T08:54:17.674Z</time></trkpt><trkpt lat="48.3843833" lon="-4.36521"><ele>114.66666666666667</ele><time>2026-04-28T08:54:18.679Z</time></trkpt><trkpt lat="48.3843617" lon="-4.3653117"><ele>115.0</ele><time>2026-04-28T08:54:19.679Z</time></trkpt><trkpt lat="48.3843367" lon="-4.365425"><ele>114.66666666666667</ele><time>2026-04-28T08:54:20.683Z</time></trkpt><trkpt lat="48.3843167" lon="-4.3655333"><ele>114.33333333333334</ele><time>2026-04-28T08:54:21.683Z</time></trkpt><trkpt lat="48.38427" lon="-4.365705"><ele>114.0</ele><time>2026-04-28T08:54:23.68Z</time></trkpt><trkpt lat="48.384235" lon="-4.3657883"><ele>113.66666666666666</ele><time>2026-04-28T08:54:24.682Z</time></trkpt><trkpt lat="48.3841933" lon="-4.3658683"><ele>113.33333333333333</ele><time>2026-04-28T08:54:25.679Z</time></trkpt><trkpt lat="48.38415" lon="-4.36594"><ele>113.0</ele><time>2026-04-28T08:54:26.685Z</time></trkpt><trkpt lat="48.3840767" lon="-4.366075"><ele>113.0</ele><time>2026-04-28T08:54:28.679Z</time></trkpt><trkpt lat="48.3840567" lon="-4.3662233"><ele>113.00000000000001</ele><time>2026-04-28T08:54:30.675Z</time></trkpt><trkpt lat="48.384035" lon="-4.3663917"><ele>113.00000000000001</ele><time>2026-04-28T08:54:32.682Z</time></trkpt><trkpt lat="48.3840383" lon="-4.3665183"><ele>113.0</ele><time>2026-04-28T08:54:33.678Z</time></trkpt><trkpt lat="48.384045" lon="-4.3666383"><ele>113.0</ele><time>2026-04-28T08:54:34.684Z</time></trkpt><trkpt lat="48.3840467" lon="-4.3667483"><ele>112.66666666666666</ele><time>2026-04-28T08:54:35.683Z</time></trkpt><trkpt lat="48.384055" lon="-4.3668617"><ele>112.33333333333333</ele><time>2026-04-28T08:54:36.678Z</time></trkpt><trkpt lat="48.3840617" lon="-4.36697"><ele>112.0</ele><time>2026-04-28T08:54:37.68Z</time></trkpt><trkpt lat="48.3840817" lon="-4.3671583"><ele>111.66666666666666</ele><time>2026-04-28T08:54:39.679Z</time></trkpt><trkpt lat="48.3840867" lon="-4.3672567"><ele>111.33333333333333</ele><time>2026-04-28T08:54:40.679Z</time></trkpt><trkpt lat="48.3840917" lon="-4.367365"><ele>111.0</ele><time>2026-04-28T08:54:41.682Z</time></trkpt><trkpt lat="48.384095" lon="-4.3674733"><ele>110.83333333333333</ele><time>2026-04-28T08:54:42.685Z</time></trkpt><trkpt lat="48.3841067" lon="-4.3675667"><ele>110.66666666666666</ele><time>2026-04-28T08:54:43.682Z</time></trkpt><trkpt lat="48.3841417" lon="-4.3677433"><ele>110.5</ele><time>2026-04-28T08:54:45.677Z</time></trkpt><trkpt lat="48.3841883" lon="-4.3679217"><ele>110.33333333333333</ele><time>2026-04-28T08:54:47.678Z</time></trkpt><trkpt lat="48.38421" lon="-4.3680167"><ele>110.16666666666666</ele><time>2026-04-28T08:54:48.682Z</time></trkpt><trkpt lat="48.3842367" lon="-4.3681133"><ele>110.0</ele><time>2026-04-28T08:54:49.679Z</time></trkpt><trkpt lat="48.38426" lon="-4.3682083"><ele>109.16666666666666</ele><time>2026-04-28T08:54:50.678Z</time></trkpt><trkpt lat="48.3842833" lon="-4.3682983"><ele>108.33333333333333</ele><time>2026-04-28T08:54:51.682Z</time></trkpt><trkpt lat="48.3843267" lon="-4.3684833"><ele>107.5</ele><time>2026-04-28T08:54:53.677Z</time></trkpt><trkpt lat="48.3843433" lon="-4.3685883"><ele>106.66666666666666</ele><time>2026-04-28T08:54:54.682Z</time></trkpt><trkpt lat="48.384365" lon="-4.3686933"><ele>105.83333333333333</ele><time>2026-04-28T08:54:55.679Z</time></trkpt><trkpt lat="48.38439" lon="-4.3688033"><ele>105.0</ele><time>2026-04-28T08:54:56.676Z</time></trkpt><trkpt lat="48.3844117" lon="-4.368905"><ele>103.71428571428571</ele><time>2026-04-28T08:54:57.68Z</time></trkpt><trkpt lat="48.3844267" lon="-4.36901"><ele>102.42857142857143</ele><time>2026-04-28T08:54:58.676Z</time></trkpt><trkpt lat="48.38444" lon="-4.3691133"><ele>101.14285714285714</ele><time>2026-04-28T08:54:59.679Z</time></trkpt><trkpt lat="48.3844533" lon="-4.3692217"><ele>99.85714285714286</ele><time>2026-04-28T08:55:00.678Z</time></trkpt><trkpt lat="48.3844617" lon="-4.3693283"><ele>98.57142857142857</ele><time>2026-04-28T08:55:01.678Z</time></trkpt><trkpt lat="48.384465" lon="-4.36943"><ele>97.28571428571428</ele><time>2026-04-28T08:55:02.68Z</time></trkpt><trkpt lat="48.38448" lon="-4.3695267"><ele>96.0</ele><time>2026-04-28T08:55:03.675Z</time></trkpt><trkpt lat="48.3844667" lon="-4.3696383"><ele>95.4</ele><time>2026-04-28T08:55:04.683Z</time></trkpt><trkpt lat="48.3844717" lon="-4.369765"><ele>94.8</ele><time>2026-04-28T08:55:05.678Z</time></trkpt><trkpt lat="48.3844717" lon="-4.3699117"><ele>94.2</ele><time>2026-04-28T08:55:06.68Z</time></trkpt><trkpt lat="48.3844633" lon="-4.3700583"><ele>93.60000000000001</ele><time>2026-04-28T08:55:07.682Z</time></trkpt><trkpt lat="48.3844517" lon="-4.3702017"><ele>93.0</ele><time>2026-04-28T08:55:08.682Z</time></trkpt><trkpt lat="48.384445" lon="-4.3703417"><ele>93.0</ele><time>2026-04-28T08:55:09.679Z</time></trkpt><trkpt lat="48.38444" lon="-4.3704833"><ele>93.0</ele><time>2026-04-28T08:55:10.682Z</time></trkpt><trkpt lat="48.38444" lon="-4.37062"><ele>93.0</ele><time>2026-04-28T08:55:11.677Z</time></trkpt><trkpt lat="48.384445" lon="-4.3707617"><ele>93.0</ele><time>2026-04-28T08:55:12.683Z</time></trkpt><trkpt lat="48.3844483" lon="-4.3708883"><ele>93.0</ele><time>2026-04-28T08:55:13.679Z</time></trkpt><trkpt lat="48.384465" lon="-4.3710067"><ele>93.0</ele><time>2026-04-28T08:55:14.677Z</time></trkpt><trkpt lat="48.3844883" lon="-4.3711483"><ele>92.60000000000001</ele><time>2026-04-28T08:55:15.687Z</time></trkpt><trkpt lat="48.3845067" lon="-4.3712733"><ele>92.2</ele><time>2026-04-28T08:55:16.678Z</time></trkpt><trkpt lat="48.38454" lon="-4.371455"><ele>91.8</ele><time>2026-04-28T08:55:17.682Z</time></trkpt><trkpt lat="48.3845783" lon="-4.3715767"><ele>91.4</ele><time>2026-04-28T08:55:18.681Z</time></trkpt><trkpt lat="48.384625" lon="-4.3716967"><ele>91.0</ele><time>2026-04-28T08:55:19.681Z</time></trkpt><trkpt lat="48.3846817" lon="-4.3717983"><ele>89.4</ele><time>2026-04-28T08:55:20.681Z</time></trkpt><trkpt lat="48.38474" lon="-4.3719"><ele>87.8</ele><time>2026-04-28T08:55:21.68Z</time></trkpt><trkpt lat="48.3848117" lon="-4.3719917"><ele>86.2</ele><time>2026-04-28T08:55:22.677Z</time></trkpt><trkpt lat="48.3848817" lon="-4.3720983"><ele>84.60000000000001</ele><time>2026-04-28T08:55:23.674Z</time></trkpt><trkpt lat="48.3849567" lon="-4.3721783"><ele>83.0</ele><time>2026-04-28T08:55:24.682Z</time></trkpt><trkpt lat="48.38502" lon="-4.37229"><ele>83.0</ele><time>2026-04-28T08:55:25.68Z</time></trkpt><trkpt lat="48.38508" lon="-4.3724033"><ele>83.0</ele><time>2026-04-28T08:55:26.684Z</time></trkpt><trkpt lat="48.3851367" lon="-4.3725133"><ele>83.0</ele><time>2026-04-28T08:55:27.679Z</time></trkpt><trkpt lat="48.38519" lon="-4.3726133"><ele>83.0</ele><time>2026-04-28T08:55:28.678Z</time></trkpt><trkpt lat="48.3852367" lon="-4.37271"><ele>83.0</ele><time>2026-04-28T08:55:29.676Z</time></trkpt><trkpt lat="48.3852767" lon="-4.3728067"><ele>83.0</ele><time>2026-04-28T08:55:30.68Z</time></trkpt><trkpt lat="48.3853167" lon="-4.3729"><ele>83.0</ele><time>2026-04-28T08:55:31.675Z</time></trkpt><trkpt lat="48.385355" lon="-4.3729783"><ele>83.0</ele><time>2026-04-28T08:55:32.68Z</time></trkpt><trkpt lat="48.385435" lon="-4.373115"><ele>83.0</ele><time>2026-04-28T08:55:34.679Z</time></trkpt><trkpt lat="48.3855233" lon="-4.3732317"><ele>83.0</ele><time>2026-04-28T08:55:36.676Z</time></trkpt><trkpt lat="48.3856217" lon="-4.3733383"><ele>83.0</ele><time>2026-04-28T08:55:38.674Z</time></trkpt><trkpt lat="48.3856833" lon="-4.3733933"><ele>82.83333333333334</ele><time>2026-04-28T08:55:39.677Z</time></trkpt><trkpt lat="48.385755" lon="-4.3734533"><ele>82.66666666666667</ele><time>2026-04-28T08:55:40.682Z</time></trkpt><trkpt lat="48.3858267" lon="-4.373515"><ele>82.5</ele><time>2026-04-28T08:55:41.681Z</time></trkpt><trkpt lat="48.3858967" lon="-4.3735833"><ele>82.33333333333333</ele><time>2026-04-28T08:55:42.676Z</time></trkpt><trkpt lat="48.3859633" lon="-4.3736633"><ele>82.16666666666666</ele><time>2026-04-28T08:55:43.677Z</time></trkpt><trkpt lat="48.3860233" lon="-4.373755"><ele>82.0</ele><time>2026-04-28T08:55:44.674Z</time></trkpt><trkpt lat="48.3860767" lon="-4.373855"><ele>82.19999999999999</ele><time>2026-04-28T08:55:45.675Z</time></trkpt><trkpt lat="48.386125" lon="-4.3739633"><ele>82.4</ele><time>2026-04-28T08:55:46.677Z</time></trkpt><trkpt lat="48.3861617" lon="-4.3740867"><ele>82.6</ele><time>2026-04-28T08:55:47.676Z</time></trkpt><trkpt lat="48.386185" lon="-4.37422"><ele>82.80000000000001</ele><time>2026-04-28T08:55:48.673Z</time></trkpt><trkpt lat="48.3862067" lon="-4.3743533"><ele>83.0</ele><time>2026-04-28T08:55:49.672Z</time></trkpt><trkpt lat="48.3862317" lon="-4.37449"><ele>83.0</ele><time>2026-04-28T08:55:50.68Z</time></trkpt><trkpt lat="48.386255" lon="-4.3746217"><ele>83.0</ele><time>2026-04-28T08:55:51.678Z</time></trkpt><trkpt lat="48.3862767" lon="-4.3747467"><ele>83.0</ele><time>2026-04-28T08:55:52.676Z</time></trkpt><trkpt lat="48.3862983" lon="-4.374865"><ele>83.0</ele><time>2026-04-28T08:55:53.679Z</time></trkpt><trkpt lat="48.3863167" lon="-4.3749717"><ele>83.0</ele><time>2026-04-28T08:55:54.681Z</time></trkpt><trkpt lat="48.3863517" lon="-4.375135"><ele>83.0</ele><time>2026-04-28T08:55:56.684Z</time></trkpt><trkpt lat="48.3863883" lon="-4.37525"><ele>83.0</ele><time>2026-04-28T08:55:58.675Z</time></trkpt><trkpt lat="48.3864217" lon="-4.375425"><ele>83.0</ele><time>2026-04-28T08:56:24.677Z</time></trkpt><trkpt lat="48.3863467" lon="-4.3754883"><ele>83.0</ele><time>2026-04-28T08:56:26.679Z</time></trkpt><trkpt lat="48.3862267" lon="-4.3755683"><ele>83.0</ele><time>2026-04-28T08:56:28.676Z</time></trkpt><trkpt lat="48.386155" lon="-4.3756283"><ele>83.0</ele><time>2026-04-28T08:56:29.679Z</time></trkpt><trkpt lat="48.38608" lon="-4.375695"><ele>84.33333333333334</ele><time>2026-04-28T08:56:30.678Z</time></trkpt><trkpt lat="48.3860067" lon="-4.37576"><ele>85.66666666666667</ele><time>2026-04-28T08:56:31.674Z</time></trkpt><trkpt lat="48.3859417" lon="-4.3758133"><ele>87.0</ele><time>2026-04-28T08:56:32.674Z</time></trkpt><trkpt lat="48.38587" lon="-4.3758867"><ele>88.33333333333333</ele><time>2026-04-28T08:56:34.676Z</time></trkpt><trkpt lat="48.3857883" lon="-4.3759883"><ele>89.66666666666666</ele><time>2026-04-28T08:56:40.677Z</time></trkpt><trkpt lat="48.3857233" lon="-4.3760267"><ele>91.0</ele><time>2026-04-28T08:56:41.68Z</time></trkpt><trkpt lat="48.3856433" lon="-4.3760667"><ele>91.0</ele><time>2026-04-28T08:56:42.68Z</time></trkpt><trkpt lat="48.3855733" lon="-4.3761317"><ele>91.0</ele><time>2026-04-28T08:56:43.679Z</time></trkpt><trkpt lat="48.385505" lon="-4.3762133"><ele>91.0</ele><time>2026-04-28T08:56:44.676Z</time></trkpt><trkpt lat="48.38544" lon="-4.3763083"><ele>91.0</ele><time>2026-04-28T08:56:45.676Z</time></trkpt><trkpt lat="48.3853733" lon="-4.3764083"><ele>91.0</ele><time>2026-04-28T08:56:46.673Z</time></trkpt><trkpt lat="48.38531" lon="-4.37651"><ele>91.0</ele><time>2026-04-28T08:56:47.674Z</time></trkpt><trkpt lat="48.3852483" lon="-4.3766133"><ele>91.8</ele><time>2026-04-28T08:56:48.676Z</time></trkpt><trkpt lat="48.3851867" lon="-4.37672"><ele>92.6</ele><time>2026-04-28T08:56:49.677Z</time></trkpt><trkpt lat="48.385125" lon="-4.376825"><ele>93.4</ele><time>2026-04-28T08:56:50.677Z</time></trkpt><trkpt lat="48.3850633" lon="-4.3769333"><ele>94.2</ele><time>2026-04-28T08:56:51.677Z</time></trkpt><trkpt lat="48.3850133" lon="-4.3770467"><ele>95.0</ele><time>2026-04-28T08:56:52.677Z</time></trkpt><trkpt lat="48.3849583" lon="-4.3771533"><ele>95.33333333333334</ele><time>2026-04-28T08:56:53.675Z</time></trkpt><trkpt lat="48.3849" lon="-4.3772533"><ele>95.66666666666667</ele><time>2026-04-28T08:56:54.678Z</time></trkpt><trkpt lat="48.3848433" lon="-4.377345"><ele>96.0</ele><time>2026-04-28T08:56:55.682Z</time></trkpt><trkpt lat="48.38479" lon="-4.377425"><ele>96.33333333333334</ele><time>2026-04-28T08:56:56.68Z</time></trkpt><trkpt lat="48.38474" lon="-4.3774933"><ele>96.66666666666667</ele><time>2026-04-28T08:56:57.679Z</time></trkpt><trkpt lat="48.3846517" lon="-4.3776067"><ele>97.0</ele><time>2026-04-28T08:56:59.68Z</time></trkpt><trkpt lat="48.3845983" lon="-4.3776683"><ele>97.0</ele><time>2026-04-28T08:57:00.678Z</time></trkpt><trkpt lat="48.3845317" lon="-4.3777417"><ele>97.0</ele><time>2026-04-28T08:57:01.678Z</time></trkpt><trkpt lat="48.3844483" lon="-4.37782"><ele>97.0</ele><time>2026-04-28T08:57:02.679Z</time></trkpt><trkpt lat="48.38436" lon="-4.377895"><ele>97.0</ele><time>2026-04-28T08:57:03.677Z</time></trkpt><trkpt lat="48.3842683" lon="-4.3779867"><ele>97.0</ele><time>2026-04-28T08:57:04.683Z</time></trkpt><trkpt lat="48.3841717" lon="-4.3780933"><ele>97.0</ele><time>2026-04-28T08:57:05.675Z</time></trkpt><trkpt lat="48.3840717" lon="-4.3782083"><ele>97.0</ele><time>2026-04-28T08:57:06.678Z</time></trkpt><trkpt lat="48.38397" lon="-4.378335"><ele>97.0</ele><time>2026-04-28T08:57:07.676Z</time></trkpt><trkpt lat="48.3838783" lon="-4.378485"><ele>97.0</ele><time>2026-04-28T08:57:08.673Z</time></trkpt><trkpt lat="48.3838067" lon="-4.37866"><ele>96.75</ele><time>2026-04-28T08:57:09.681Z</time></trkpt><trkpt lat="48.3837583" lon="-4.3788517"><ele>96.5</ele><time>2026-04-28T08:57:10.678Z</time></trkpt><trkpt lat="48.3837417" lon="-4.3790567"><ele>96.25</ele><time>2026-04-28T08:57:11.678Z</time></trkpt><trkpt lat="48.3837433" lon="-4.37928"><ele>96.0</ele><time>2026-04-28T08:57:12.682Z</time></trkpt><trkpt lat="48.3837517" lon="-4.37952"><ele>95.0</ele><time>2026-04-28T08:57:13.689Z</time></trkpt><trkpt lat="48.3837583" lon="-4.3797733"><ele>94.0</ele><time>2026-04-28T08:57:14.671Z</time></trkpt><trkpt lat="48.3837667" lon="-4.3800367"><ele>93.0</ele><time>2026-04-28T08:57:15.679Z</time></trkpt><trkpt lat="48.3837783" lon="-4.38031"><ele>92.0</ele><time>2026-04-28T08:57:16.679Z</time></trkpt><trkpt lat="48.3837833" lon="-4.38059"><ele>91.0</ele><time>2026-04-28T08:57:17.678Z</time></trkpt><trkpt lat="48.383785" lon="-4.3808833"><ele>90.0</ele><time>2026-04-28T08:57:18.678Z</time></trkpt><trkpt lat="48.3837917" lon="-4.3811867"><ele>89.33333333333333</ele><time>2026-04-28T08:57:19.678Z</time></trkpt><trkpt lat="48.38381" lon="-4.3814933"><ele>88.66666666666666</ele><time>2026-04-28T08:57:20.678Z</time></trkpt><trkpt lat="48.3838333" lon="-4.3818"><ele>88.0</ele><time>2026-04-28T08:57:21.676Z</time></trkpt><trkpt lat="48.38386" lon="-4.3821083"><ele>86.66666666666666</ele><time>2026-04-28T08:57:22.675Z</time></trkpt><trkpt lat="48.3838917" lon="-4.3824133"><ele>85.33333333333333</ele><time>2026-04-28T08:57:23.682Z</time></trkpt><trkpt lat="48.3839283" lon="-4.38271"><ele>84.0</ele><time>2026-04-28T08:57:24.676Z</time></trkpt><trkpt lat="48.3839633" lon="-4.383"><ele>83.0</ele><time>2026-04-28T08:57:25.683Z</time></trkpt><trkpt lat="48.3839983" lon="-4.3832867"><ele>82.0</ele><time>2026-04-28T08:57:26.675Z</time></trkpt><trkpt lat="48.3840333" lon="-4.3835733"><ele>81.0</ele><time>2026-04-28T08:57:27.679Z</time></trkpt><trkpt lat="48.384065" lon="-4.3838633"><ele>80.66666666666667</ele><time>2026-04-28T08:57:28.678Z</time></trkpt><trkpt lat="48.3840967" lon="-4.38415"><ele>80.33333333333334</ele><time>2026-04-28T08:57:29.678Z</time></trkpt><trkpt lat="48.3841283" lon="-4.3844383"><ele>80.0</ele><time>2026-04-28T08:57:30.685Z</time></trkpt><trkpt lat="48.3841567" lon="-4.3847283"><ele>80.0</ele><time>2026-04-28T08:57:31.68Z</time></trkpt><trkpt lat="48.3841783" lon="-4.38502"><ele>80.0</ele><time>2026-04-28T08:57:32.682Z</time></trkpt><trkpt lat="48.3841933" lon="-4.385315"><ele>80.0</ele><time>2026-04-28T08:57:33.679Z</time></trkpt><trkpt lat="48.3842033" lon="-4.38561"><ele>78.0</ele><time>2026-04-28T08:57:34.673Z</time></trkpt><trkpt lat="48.3842083" lon="-4.3859067"><ele>76.0</ele><time>2026-04-28T08:57:35.67Z</time></trkpt><trkpt lat="48.3842117" lon="-4.386205"><ele>74.0</ele><time>2026-04-28T08:57:36.678Z</time></trkpt><trkpt lat="48.38421" lon="-4.3865067"><ele>72.0</ele><time>2026-04-28T08:57:37.681Z</time></trkpt><trkpt lat="48.3842067" lon="-4.38681"><ele>70.0</ele><time>2026-04-28T08:57:38.678Z</time></trkpt><trkpt lat="48.3841933" lon="-4.387115"><ele>68.0</ele><time>2026-04-28T08:57:39.68Z</time></trkpt><trkpt lat="48.3841767" lon="-4.387415"><ele>66.66666666666667</ele><time>2026-04-28T08:57:40.677Z</time></trkpt><trkpt lat="48.384155" lon="-4.38771"><ele>65.33333333333333</ele><time>2026-04-28T08:57:41.679Z</time></trkpt><trkpt lat="48.3841333" lon="-4.388"><ele>64.0</ele><time>2026-04-28T08:57:42.679Z</time></trkpt><trkpt lat="48.3841117" lon="-4.3882867"><ele>63.0</ele><time>2026-04-28T08:57:43.679Z</time></trkpt><trkpt lat="48.38409" lon="-4.3885683"><ele>62.0</ele><time>2026-04-28T08:57:44.677Z</time></trkpt><trkpt lat="48.38407" lon="-4.3888467"><ele>61.0</ele><time>2026-04-28T08:57:45.686Z</time></trkpt><trkpt lat="48.3840467" lon="-4.3891267"><ele>60.0</ele><time>2026-04-28T08:57:46.678Z</time></trkpt><trkpt lat="48.3840217" lon="-4.3894067"><ele>59.0</ele><time>2026-04-28T08:57:47.678Z</time></trkpt><trkpt lat="48.3840017" lon="-4.38969"><ele>58.0</ele><time>2026-04-28T08:57:48.672Z</time></trkpt><trkpt lat="48.383985" lon="-4.3899717"><ele>56.666666666666664</ele><time>2026-04-28T08:57:49.684Z</time></trkpt><trkpt lat="48.38397" lon="-4.390255"><ele>55.33333333333333</ele><time>2026-04-28T08:57:50.681Z</time></trkpt><trkpt lat="48.3839617" lon="-4.3905383"><ele>54.0</ele><time>2026-04-28T08:57:51.681Z</time></trkpt><trkpt lat="48.38396" lon="-4.3908233"><ele>52.66666666666667</ele><time>2026-04-28T08:57:52.678Z</time></trkpt><trkpt lat="48.38397" lon="-4.3911117"><ele>51.333333333333336</ele><time>2026-04-28T08:57:53.677Z</time></trkpt><trkpt lat="48.38399" lon="-4.3913917"><ele>50.0</ele><time>2026-04-28T08:57:54.678Z</time></trkpt><trkpt lat="48.3840183" lon="-4.3916683"><ele>48.66666666666667</ele><time>2026-04-28T08:57:55.676Z</time></trkpt><trkpt lat="48.3840517" lon="-4.3919433"><ele>47.333333333333336</ele><time>2026-04-28T08:57:56.676Z</time></trkpt><trkpt lat="48.3840867" lon="-4.39222"><ele>46.0</ele><time>2026-04-28T08:57:57.682Z</time></trkpt><trkpt lat="48.38413" lon="-4.3924967"><ele>45.333333333333336</ele><time>2026-04-28T08:57:58.68Z</time></trkpt><trkpt lat="48.38419" lon="-4.3927733"><ele>44.666666666666664</ele><time>2026-04-28T08:57:59.679Z</time></trkpt><trkpt lat="48.3842633" lon="-4.393045"><ele>44.0</ele><time>2026-04-28T08:58:00.677Z</time></trkpt><trkpt lat="48.3843467" lon="-4.3933067"><ele>44.0</ele><time>2026-04-28T08:58:01.677Z</time></trkpt><trkpt lat="48.3844367" lon="-4.3935617"><ele>44.0</ele><time>2026-04-28T08:58:02.674Z</time></trkpt><trkpt lat="48.384535" lon="-4.3938067"><ele>44.0</ele><time>2026-04-28T08:58:03.673Z</time></trkpt><trkpt lat="48.3846433" lon="-4.394045"><ele>41.0</ele><time>2026-04-28T08:58:04.674Z</time></trkpt><trkpt lat="48.38476" lon="-4.3942717"><ele>38.0</ele><time>2026-04-28T08:58:05.675Z</time></trkpt><trkpt lat="48.3848817" lon="-4.39449"><ele>35.0</ele><time>2026-04-28T08:58:06.68Z</time></trkpt><trkpt lat="48.3850117" lon="-4.3946983"><ele>34.33333333333333</ele><time>2026-04-28T08:58:07.68Z</time></trkpt><trkpt lat="48.3851467" lon="-4.394895"><ele>33.666666666666664</ele><time>2026-04-28T08:58:08.681Z</time></trkpt><trkpt lat="48.3852883" lon="-4.3950817"><ele>33.0</ele><time>2026-04-28T08:58:09.679Z</time></trkpt><trkpt lat="48.385435" lon="-4.39526"><ele>30.333333333333336</ele><time>2026-04-28T08:58:10.68Z</time></trkpt><trkpt lat="48.3855833" lon="-4.3954333"><ele>27.666666666666668</ele><time>2026-04-28T08:58:11.676Z</time></trkpt><trkpt lat="48.3857333" lon="-4.3956033"><ele>25.0</ele><time>2026-04-28T08:58:12.68Z</time></trkpt><trkpt lat="48.3858867" lon="-4.3957817"><ele>22.666666666666668</ele><time>2026-04-28T08:58:13.677Z</time></trkpt><trkpt lat="48.3860433" lon="-4.395965"><ele>20.333333333333336</ele><time>2026-04-28T08:58:14.675Z</time></trkpt><trkpt lat="48.3862033" lon="-4.39615"><ele>18.0</ele><time>2026-04-28T08:58:15.681Z</time></trkpt><trkpt lat="48.3863617" lon="-4.39633"><ele>12.0</ele><time>2026-04-28T08:58:16.676Z</time></trkpt><trkpt lat="48.3865183" lon="-4.3965083"><ele>6.0</ele><time>2026-04-28T08:58:17.677Z</time></trkpt><trkpt lat="48.3866733" lon="-4.3966833"><ele>0.0</ele><time>2026-04-28T08:58:18.677Z</time></trkpt><trkpt lat="48.3868283" lon="-4.3968567"><ele>0.0</ele><time>2026-04-28T08:58:19.676Z</time></trkpt><trkpt lat="48.3869867" lon="-4.3970317"><ele>0.0</ele><time>2026-04-28T08:58:20.681Z</time></trkpt><trkpt lat="48.3871383" lon="-4.3972033"><ele>0.0</ele><time>2026-04-28T08:58:21.676Z</time></trkpt><trkpt lat="48.38729" lon="-4.397375"><ele>0.0</ele><time>2026-04-28T08:58:22.68Z</time></trkpt><trkpt lat="48.3874417" lon="-4.3975483"><ele>0.0</ele><time>2026-04-28T08:58:23.681Z</time></trkpt><trkpt lat="48.387595" lon="-4.3977233"><ele>0.0</ele><time>2026-04-28T08:58:24.679Z</time></trkpt><trkpt lat="48.3877483" lon="-4.3978983"><ele>0.0</ele><time>2026-04-28T08:58:25.683Z</time></trkpt><trkpt lat="48.3879017" lon="-4.3980733"><ele>0.0</ele><time>2026-04-28T08:58:26.679Z</time></trkpt><trkpt lat="48.388055" lon="-4.3982467"><ele>0.0</ele><time>2026-04-28T08:58:27.682Z</time></trkpt><trkpt lat="48.38821" lon="-4.3984233"><ele>0.0</ele><time>2026-04-28T08:58:28.677Z</time></trkpt><trkpt lat="48.388365" lon="-4.3986033"><ele>0.0</ele><time>2026-04-28T08:58:29.682Z</time></trkpt><trkpt lat="48.38852" lon="-4.3987833"><ele>0.0</ele><time>2026-04-28T08:58:30.688Z</time></trkpt><trkpt lat="48.3886767" lon="-4.3989667"><ele>0.0</ele><time>2026-04-28T08:58:31.679Z</time></trkpt><trkpt lat="48.3888333" lon="-4.3991467"><ele>0.0</ele><time>2026-04-28T08:58:32.679Z</time></trkpt><trkpt lat="48.3889867" lon="-4.3993267"><ele>0.0</ele><time>2026-04-28T08:58:33.677Z</time></trkpt><trkpt lat="48.3891417" lon="-4.399505"><ele>0.0</ele><time>2026-04-28T08:58:34.675Z</time></trkpt><trkpt lat="48.3892933" lon="-4.3996817"><ele>0.0</ele><time>2026-04-28T08:58:35.677Z</time></trkpt><trkpt lat="48.389445" lon="-4.39986"><ele>0.0</ele><time>2026-04-28T08:58:36.675Z</time></trkpt><trkpt lat="48.3895933" lon="-4.400035"><ele>0.0</ele><time>2026-04-28T08:58:37.684Z</time></trkpt><trkpt lat="48.38974" lon="-4.4002067"><ele>0.0</ele><time>2026-04-28T08:58:38.674Z</time></trkpt><trkpt lat="48.3898867" lon="-4.4003783"><ele>0.0</ele><time>2026-04-28T08:58:39.678Z</time></trkpt><trkpt lat="48.3900317" lon="-4.400545"><ele>3.3333333333333335</ele><time>2026-04-28T08:58:40.676Z</time></trkpt><trkpt lat="48.390175" lon="-4.40071"><ele>6.666666666666667</ele><time>2026-04-28T08:58:41.674Z</time></trkpt><trkpt lat="48.3903167" lon="-4.4008683"><ele>10.0</ele><time>2026-04-28T08:58:42.677Z</time></trkpt><trkpt lat="48.3904567" lon="-4.401025"><ele>13.0</ele><time>2026-04-28T08:58:43.678Z</time></trkpt><trkpt lat="48.3905933" lon="-4.40118"><ele>16.0</ele><time>2026-04-28T08:58:44.679Z</time></trkpt><trkpt lat="48.3907267" lon="-4.4013317"><ele>19.0</ele><time>2026-04-28T08:58:45.676Z</time></trkpt><trkpt lat="48.3908583" lon="-4.4014817"><ele>20.333333333333332</ele><time>2026-04-28T08:58:46.673Z</time></trkpt><trkpt lat="48.3909917" lon="-4.40163"><ele>21.666666666666668</ele><time>2026-04-28T08:58:47.678Z</time></trkpt><trkpt lat="48.3911267" lon="-4.401775"><ele>23.0</ele><time>2026-04-28T08:58:48.68Z</time></trkpt><trkpt lat="48.391265" lon="-4.4019083"><ele>24.0</ele><time>2026-04-28T08:58:49.674Z</time></trkpt><trkpt lat="48.3913983" lon="-4.4020433"><ele>25.0</ele><time>2026-04-28T08:58:50.675Z</time></trkpt><trkpt lat="48.3915317" lon="-4.4021883"><ele>26.0</ele><time>2026-04-28T08:58:51.675Z</time></trkpt><trkpt lat="48.3916633" lon="-4.4023333"><ele>26.0</ele><time>2026-04-28T08:58:52.676Z</time></trkpt><trkpt lat="48.3917967" lon="-4.4024733"><ele>26.0</ele><time>2026-04-28T08:58:53.677Z</time></trkpt><trkpt lat="48.391925" lon="-4.4026233"><ele>26.0</ele><time>2026-04-28T08:58:54.677Z</time></trkpt><trkpt lat="48.392055" lon="-4.4027717"><ele>25.0</ele><time>2026-04-28T08:58:55.676Z</time></trkpt><trkpt lat="48.3921817" lon="-4.4029217"><ele>24.0</ele><time>2026-04-28T08:58:56.674Z</time></trkpt><trkpt lat="48.3923083" lon="-4.4030667"><ele>23.0</ele><time>2026-04-28T08:58:57.68Z</time></trkpt><trkpt lat="48.392435" lon="-4.4032133"><ele>23.0</ele><time>2026-04-28T08:58:58.682Z</time></trkpt><trkpt lat="48.3925617" lon="-4.40336"><ele>23.0</ele><time>2026-04-28T08:58:59.678Z</time></trkpt><trkpt lat="48.3926883" lon="-4.403505"><ele>23.0</ele><time>2026-04-28T08:59:00.681Z</time></trkpt><trkpt lat="48.392815" lon="-4.4036517"><ele>23.0</ele><time>2026-04-28T08:59:01.68Z</time></trkpt><trkpt lat="48.3929417" lon="-4.403795"><ele>23.0</ele><time>2026-04-28T08:59:02.678Z</time></trkpt><trkpt lat="48.3930633" lon="-4.4039483"><ele>23.0</ele><time>2026-04-28T08:59:03.678Z</time></trkpt><trkpt lat="48.393185" lon="-4.4041017"><ele>23.666666666666668</ele><time>2026-04-28T08:59:04.677Z</time></trkpt><trkpt lat="48.393305" lon="-4.40425"><ele>24.333333333333336</ele><time>2026-04-28T08:59:05.673Z</time></trkpt><trkpt lat="48.3934233" lon="-4.4044067"><ele>25.0</ele><time>2026-04-28T08:59:06.68Z</time></trkpt><trkpt lat="48.3935367" lon="-4.4045633"><ele>25.333333333333336</ele><time>2026-04-28T08:59:07.683Z</time></trkpt><trkpt lat="48.393645" lon="-4.404725"><ele>25.666666666666664</ele><time>2026-04-28T08:59:08.677Z</time></trkpt><trkpt lat="48.3937483" lon="-4.404895"><ele>26.0</ele><time>2026-04-28T08:59:09.682Z</time></trkpt><trkpt lat="48.39385" lon="-4.4050717"><ele>27.333333333333332</ele><time>2026-04-28T08:59:10.682Z</time></trkpt><trkpt lat="48.39395" lon="-4.4052517"><ele>28.666666666666664</ele><time>2026-04-28T08:59:11.681Z</time></trkpt><trkpt lat="48.3940483" lon="-4.405435"><ele>30.0</ele><time>2026-04-28T08:59:12.678Z</time></trkpt><trkpt lat="48.3941467" lon="-4.40562"><ele>30.0</ele><time>2026-04-28T08:59:13.68Z</time></trkpt><trkpt lat="48.3942433" lon="-4.4058067"><ele>30.0</ele><time>2026-04-28T08:59:14.681Z</time></trkpt><trkpt lat="48.3943383" lon="-4.4059917"><ele>30.0</ele><time>2026-04-28T08:59:15.679Z</time></trkpt><trkpt lat="48.394435" lon="-4.406175"><ele>30.333333333333336</ele><time>2026-04-28T08:59:16.68Z</time></trkpt><trkpt lat="48.3945317" lon="-4.4063533"><ele>30.666666666666668</ele><time>2026-04-28T08:59:17.677Z</time></trkpt><trkpt lat="48.3946317" lon="-4.4065283"><ele>31.0</ele><time>2026-04-28T08:59:18.679Z</time></trkpt><trkpt lat="48.3947367" lon="-4.4066967"><ele>31.0</ele><time>2026-04-28T08:59:19.676Z</time></trkpt><trkpt lat="48.394845" lon="-4.4068533"><ele>31.0</ele><time>2026-04-28T08:59:20.676Z</time></trkpt><trkpt lat="48.3949583" lon="-4.4070033"><ele>31.0</ele><time>2026-04-28T08:59:21.675Z</time></trkpt><trkpt lat="48.3950717" lon="-4.407145"><ele>31.0</ele><time>2026-04-28T08:59:22.675Z</time></trkpt><trkpt lat="48.3951883" lon="-4.407275"><ele>30.75</ele><time>2026-04-28T08:59:23.673Z</time></trkpt><trkpt lat="48.39531" lon="-4.4073967"><ele>30.5</ele><time>2026-04-28T08:59:24.676Z</time></trkpt><trkpt lat="48.395435" lon="-4.4075183"><ele>30.25</ele><time>2026-04-28T08:59:25.681Z</time></trkpt><trkpt lat="48.3955567" lon="-4.4076317"><ele>30.0</ele><time>2026-04-28T08:59:26.681Z</time></trkpt><trkpt lat="48.395685" lon="-4.4077383"><ele>30.0</ele><time>2026-04-28T08:59:27.677Z</time></trkpt><trkpt lat="48.3958167" lon="-4.4078533"><ele>30.0</ele><time>2026-04-28T08:59:28.675Z</time></trkpt><trkpt lat="48.3959533" lon="-4.4079633"><ele>30.0</ele><time>2026-04-28T08:59:29.681Z</time></trkpt><trkpt lat="48.3960933" lon="-4.40806"><ele>29.333333333333336</ele><time>2026-04-28T08:59:30.682Z</time></trkpt><trkpt lat="48.396235" lon="-4.4081467"><ele>28.666666666666668</ele><time>2026-04-28T08:59:31.682Z</time></trkpt><trkpt lat="48.3963817" lon="-4.408215"><ele>28.0</ele><time>2026-04-28T08:59:32.679Z</time></trkpt><trkpt lat="48.39653" lon="-4.4082783"><ele>28.0</ele><time>2026-04-28T08:59:33.675Z</time></trkpt><trkpt lat="48.3966767" lon="-4.4083433"><ele>28.0</ele><time>2026-04-28T08:59:34.674Z</time></trkpt><trkpt lat="48.3968267" lon="-4.408405"><ele>28.0</ele><time>2026-04-28T08:59:35.681Z</time></trkpt><trkpt lat="48.3969733" lon="-4.408465"><ele>28.0</ele><time>2026-04-28T08:59:36.678Z</time></trkpt><trkpt lat="48.39712" lon="-4.4085233"><ele>28.0</ele><time>2026-04-28T08:59:37.682Z</time></trkpt><trkpt lat="48.3972667" lon="-4.4085783"><ele>28.0</ele><time>2026-04-28T08:59:38.678Z</time></trkpt><trkpt lat="48.3974083" lon="-4.40863"><ele>28.0</ele><time>2026-04-28T08:59:39.679Z</time></trkpt><trkpt lat="48.397545" lon="-4.4086717"><ele>27.5</ele><time>2026-04-28T08:59:40.676Z</time></trkpt><trkpt lat="48.397675" lon="-4.40871"><ele>27.0</ele><time>2026-04-28T08:59:41.676Z</time></trkpt><trkpt lat="48.3977967" lon="-4.4087467"><ele>26.5</ele><time>2026-04-28T08:59:42.686Z</time></trkpt><trkpt lat="48.39791" lon="-4.408785"><ele>26.0</ele><time>2026-04-28T08:59:43.681Z</time></trkpt><trkpt lat="48.3980167" lon="-4.408835"><ele>25.8</ele><time>2026-04-28T08:59:44.678Z</time></trkpt><trkpt lat="48.39812" lon="-4.4088967"><ele>25.6</ele><time>2026-04-28T08:59:45.677Z</time></trkpt><trkpt lat="48.3982133" lon="-4.4089667"><ele>25.4</ele><time>2026-04-28T08:59:46.681Z</time></trkpt><trkpt lat="48.3982983" lon="-4.4090417"><ele>25.2</ele><time>2026-04-28T08:59:47.679Z</time></trkpt><trkpt lat="48.3983733" lon="-4.40912"><ele>25.0</ele><time>2026-04-28T08:59:48.68Z</time></trkpt><trkpt lat="48.3984383" lon="-4.4091933"><ele>25.0</ele><time>2026-04-28T08:59:49.679Z</time></trkpt><trkpt lat="48.3984933" lon="-4.4092583"><ele>25.0</ele><time>2026-04-28T08:59:50.676Z</time></trkpt><trkpt lat="48.3985783" lon="-4.40936"><ele>25.0</ele><time>2026-04-28T08:59:52.676Z</time></trkpt><trkpt lat="48.398655" lon="-4.409435"><ele>25.0</ele><time>2026-04-28T08:59:54.677Z</time></trkpt><trkpt lat="48.3987683" lon="-4.4094933"><ele>25.0</ele><time>2026-04-28T08:59:56.684Z</time></trkpt><trkpt lat="48.398835" lon="-4.4095167"><ele>25.000000000000004</ele><time>2026-04-28T08:59:57.676Z</time></trkpt><trkpt lat="48.3988983" lon="-4.409545"><ele>25.0</ele><time>2026-04-28T08:59:58.678Z</time></trkpt><trkpt lat="48.398965" lon="-4.4095833"><ele>25.0</ele><time>2026-04-28T08:59:59.679Z</time></trkpt><trkpt lat="48.3990333" lon="-4.4096383"><ele>25.0</ele><time>2026-04-28T09:00:00.68Z</time></trkpt><trkpt lat="48.3990967" lon="-4.4097217"><ele>25.000000000000004</ele><time>2026-04-28T09:00:01.68Z</time></trkpt><trkpt lat="48.3991367" lon="-4.40983"><ele>25.0</ele><time>2026-04-28T09:00:02.678Z</time></trkpt><trkpt lat="48.3991533" lon="-4.40995"><ele>25.333333333333336</ele><time>2026-04-28T09:00:03.677Z</time></trkpt><trkpt lat="48.3991517" lon="-4.4100683"><ele>25.666666666666668</ele><time>2026-04-28T09:00:04.677Z</time></trkpt><trkpt lat="48.3991217" lon="-4.4101883"><ele>26.0</ele><time>2026-04-28T09:00:05.681Z</time></trkpt><trkpt lat="48.39907" lon="-4.4102983"><ele>26.333333333333336</ele><time>2026-04-28T09:00:06.675Z</time></trkpt><trkpt lat="48.399005" lon="-4.410375"><ele>26.666666666666668</ele><time>2026-04-28T09:00:07.676Z</time></trkpt><trkpt lat="48.3989317" lon="-4.4104233"><ele>27.0</ele><time>2026-04-28T09:00:08.674Z</time></trkpt><trkpt lat="48.398845" lon="-4.4104417"><ele>27.0</ele><time>2026-04-28T09:00:09.679Z</time></trkpt><trkpt lat="48.3987483" lon="-4.41042"><ele>27.000000000000004</ele><time>2026-04-28T09:00:10.677Z</time></trkpt><trkpt lat="48.398655" lon="-4.4103667"><ele>27.000000000000004</ele><time>2026-04-28T09:00:11.681Z</time></trkpt><trkpt lat="48.3985833" lon="-4.4102833"><ele>27.0</ele><time>2026-04-28T09:00:12.678Z</time></trkpt><trkpt lat="48.3985333" lon="-4.410175"><ele>27.0</ele><time>2026-04-28T09:00:13.681Z</time></trkpt><trkpt lat="48.3984933" lon="-4.4100333"><ele>27.0</ele><time>2026-04-28T09:00:14.681Z</time></trkpt><trkpt lat="48.3984467" lon="-4.4098833"><ele>27.000000000000004</ele><time>2026-04-28T09:00:15.682Z</time></trkpt><trkpt lat="48.3983833" lon="-4.4097433"><ele>27.000000000000004</ele><time>2026-04-28T09:00:16.676Z</time></trkpt><trkpt lat="48.3983067" lon="-4.40963"><ele>27.0</ele><time>2026-04-28T09:00:17.679Z</time></trkpt><trkpt lat="48.3982167" lon="-4.4095383"><ele>27.0</ele><time>2026-04-28T09:00:18.681Z</time></trkpt><trkpt lat="48.3981133" lon="-4.4094583"><ele>27.0</ele><time>2026-04-28T09:00:19.681Z</time></trkpt><trkpt lat="48.3979933" lon="-4.4093817"><ele>27.0</ele><time>2026-04-28T09:00:20.678Z</time></trkpt><trkpt lat="48.39785" lon="-4.4093117"><ele>27.0</ele><time>2026-04-28T09:00:21.681Z</time></trkpt><trkpt lat="48.397695" lon="-4.4092383"><ele>27.0</ele><time>2026-04-28T09:00:22.679Z</time></trkpt><trkpt lat="48.397525" lon="-4.4091633"><ele>27.0</ele><time>2026-04-28T09:00:23.684Z</time></trkpt><trkpt lat="48.3973533" lon="-4.4090867"><ele>27.0</ele><time>2026-04-28T09:00:24.681Z</time></trkpt><trkpt lat="48.3971883" lon="-4.4090083"><ele>27.0</ele><time>2026-04-28T09:00:25.682Z</time></trkpt><trkpt lat="48.3970317" lon="-4.4089233"><ele>27.333333333333336</ele><time>2026-04-28T09:00:26.683Z</time></trkpt><trkpt lat="48.3968767" lon="-4.408835"><ele>27.666666666666668</ele><time>2026-04-28T09:00:27.679Z</time></trkpt><trkpt lat="48.39673" lon="-4.4087417"><ele>28.0</ele><time>2026-04-28T09:00:28.677Z</time></trkpt><trkpt lat="48.3965867" lon="-4.40865"><ele>28.0</ele><time>2026-04-28T09:00:29.674Z</time></trkpt><trkpt lat="48.396445" lon="-4.408555"><ele>28.0</ele><time>2026-04-28T09:00:30.678Z</time></trkpt><trkpt lat="48.3963017" lon="-4.4084533"><ele>28.0</ele><time>2026-04-28T09:00:31.68Z</time></trkpt><trkpt lat="48.39616" lon="-4.408345"><ele>28.666666666666668</ele><time>2026-04-28T09:00:32.681Z</time></trkpt><trkpt lat="48.3960167" lon="-4.4082333"><ele>29.333333333333336</ele><time>2026-04-28T09:00:33.674Z</time></trkpt><trkpt lat="48.3958733" lon="-4.408115"><ele>30.0</ele><time>2026-04-28T09:00:34.671Z</time></trkpt><trkpt lat="48.39573" lon="-4.40799"><ele>30.0</ele><time>2026-04-28T09:00:35.678Z</time></trkpt><trkpt lat="48.3955833" lon="-4.4078617"><ele>30.0</ele><time>2026-04-28T09:00:36.675Z</time></trkpt><trkpt lat="48.3954367" lon="-4.40773"><ele>30.0</ele><time>2026-04-28T09:00:37.677Z</time></trkpt><trkpt lat="48.3952933" lon="-4.4075917"><ele>30.333333333333336</ele><time>2026-04-28T09:00:38.678Z</time></trkpt><trkpt lat="48.39515" lon="-4.4074467"><ele>30.666666666666668</ele><time>2026-04-28T09:00:39.677Z</time></trkpt><trkpt lat="48.3950117" lon="-4.4072933"><ele>31.0</ele><time>2026-04-28T09:00:40.679Z</time></trkpt><trkpt lat="48.39488" lon="-4.4071283"><ele>31.0</ele><time>2026-04-28T09:00:41.679Z</time></trkpt><trkpt lat="48.39475" lon="-4.4069417"><ele>31.0</ele><time>2026-04-28T09:00:42.679Z</time></trkpt><trkpt lat="48.394615" lon="-4.4067283"><ele>31.0</ele><time>2026-04-28T09:00:43.683Z</time></trkpt><trkpt lat="48.394475" lon="-4.40649"><ele>30.666666666666668</ele><time>2026-04-28T09:00:44.678Z</time></trkpt><trkpt lat="48.394335" lon="-4.4062383"><ele>30.333333333333336</ele><time>2026-04-28T09:00:45.679Z</time></trkpt><trkpt lat="48.3942" lon="-4.40598"><ele>30.0</ele><time>2026-04-28T09:00:46.676Z</time></trkpt><trkpt lat="48.39407" lon="-4.40572"><ele>30.333333333333336</ele><time>2026-04-28T09:00:47.678Z</time></trkpt><trkpt lat="48.3939417" lon="-4.4054667"><ele>30.666666666666668</ele><time>2026-04-28T09:00:48.675Z</time></trkpt><trkpt lat="48.3938083" lon="-4.4052167"><ele>31.0</ele><time>2026-04-28T09:00:49.679Z</time></trkpt><trkpt lat="48.3936733" lon="-4.4049783"><ele>29.333333333333336</ele><time>2026-04-28T09:00:50.682Z</time></trkpt><trkpt lat="48.3935267" lon="-4.4047483"><ele>27.666666666666664</ele><time>2026-04-28T09:00:51.681Z</time></trkpt><trkpt lat="48.3933733" lon="-4.40453"><ele>26.0</ele><time>2026-04-28T09:00:52.68Z</time></trkpt><trkpt lat="48.393215" lon="-4.4043217"><ele>25.666666666666664</ele><time>2026-04-28T09:00:53.679Z</time></trkpt><trkpt lat="48.3930533" lon="-4.4041217"><ele>25.333333333333336</ele><time>2026-04-28T09:00:54.68Z</time></trkpt><trkpt lat="48.39289" lon="-4.4039283"><ele>25.0</ele><time>2026-04-28T09:00:55.676Z</time></trkpt><trkpt lat="48.3927283" lon="-4.40374"><ele>24.333333333333336</ele><time>2026-04-28T09:00:56.683Z</time></trkpt><trkpt lat="48.392565" lon="-4.40355"><ele>23.666666666666668</ele><time>2026-04-28T09:00:57.678Z</time></trkpt><trkpt lat="48.3924017" lon="-4.4033617"><ele>23.0</ele><time>2026-04-28T09:00:58.677Z</time></trkpt><trkpt lat="48.39224" lon="-4.4031767"><ele>24.0</ele><time>2026-04-28T09:00:59.68Z</time></trkpt><trkpt lat="48.3920783" lon="-4.4029883"><ele>25.0</ele><time>2026-04-28T09:01:00.681Z</time></trkpt><trkpt lat="48.3919167" lon="-4.402805"><ele>26.0</ele><time>2026-04-28T09:01:01.678Z</time></trkpt><trkpt lat="48.3917567" lon="-4.4026267"><ele>26.0</ele><time>2026-04-28T09:01:02.681Z</time></trkpt><trkpt lat="48.3915933" lon="-4.402445"><ele>26.0</ele><time>2026-04-28T09:01:03.674Z</time></trkpt><trkpt lat="48.3914317" lon="-4.402265"><ele>26.0</ele><time>2026-04-28T09:01:04.68Z</time></trkpt><trkpt lat="48.3912683" lon="-4.4020833"><ele>25.0</ele><time>2026-04-28T09:01:05.679Z</time></trkpt><trkpt lat="48.3911083" lon="-4.4019033"><ele>24.0</ele><time>2026-04-28T09:01:06.682Z</time></trkpt><trkpt lat="48.39095" lon="-4.4017233"><ele>23.0</ele><time>2026-04-28T09:01:07.674Z</time></trkpt><trkpt lat="48.3907933" lon="-4.40154"><ele>23.0</ele><time>2026-04-28T09:01:08.683Z</time></trkpt><trkpt lat="48.3906367" lon="-4.40136"><ele>23.0</ele><time>2026-04-28T09:01:09.676Z</time></trkpt><trkpt lat="48.3904817" lon="-4.4011817"><ele>23.0</ele><time>2026-04-28T09:01:10.671Z</time></trkpt><trkpt lat="48.3903283" lon="-4.401005"><ele>18.666666666666668</ele><time>2026-04-28T09:01:11.679Z</time></trkpt><trkpt lat="48.390175" lon="-4.4008317"><ele>14.333333333333334</ele><time>2026-04-28T09:01:12.676Z</time></trkpt><trkpt lat="48.3900233" lon="-4.40066"><ele>10.0</ele><time>2026-04-28T09:01:13.68Z</time></trkpt><trkpt lat="48.3898733" lon="-4.4004867"><ele>6.666666666666667</ele><time>2026-04-28T09:01:14.677Z</time></trkpt><trkpt lat="48.389725" lon="-4.400315"><ele>3.3333333333333335</ele><time>2026-04-28T09:01:15.682Z</time></trkpt><trkpt lat="48.389575" lon="-4.4001433"><ele>0.0</ele><time>2026-04-28T09:01:16.678Z</time></trkpt><trkpt lat="48.3894267" lon="-4.39997"><ele>0.0</ele><time>2026-04-28T09:01:17.683Z</time></trkpt><trkpt lat="48.389275" lon="-4.3997967"><ele>0.0</ele><time>2026-04-28T09:01:18.679Z</time></trkpt><trkpt lat="48.3891217" lon="-4.3996217"><ele>0.0</ele><time>2026-04-28T09:01:19.68Z</time></trkpt><trkpt lat="48.38897" lon="-4.3994467"><ele>0.0</ele><time>2026-04-28T09:01:20.679Z</time></trkpt><trkpt lat="48.38881" lon="-4.3992617"><ele>0.0</ele><time>2026-04-28T09:01:21.682Z</time></trkpt><trkpt lat="48.3886383" lon="-4.3990667"><ele>0.0</ele><time>2026-04-28T09:01:22.676Z</time></trkpt><trkpt lat="48.38846" lon="-4.3988617"><ele>0.0</ele><time>2026-04-28T09:01:23.677Z</time></trkpt><trkpt lat="48.38828" lon="-4.3986533"><ele>0.0</ele><time>2026-04-28T09:01:24.683Z</time></trkpt><trkpt lat="48.3881017" lon="-4.3984517"><ele>0.0</ele><time>2026-04-28T09:01:25.678Z</time></trkpt><trkpt lat="48.387925" lon="-4.398255"><ele>0.0</ele><time>2026-04-28T09:01:26.677Z</time></trkpt><trkpt lat="48.38775" lon="-4.3980583"><ele>0.0</ele><time>2026-04-28T09:01:27.678Z</time></trkpt><trkpt lat="48.38758" lon="-4.397865"><ele>0.0</ele><time>2026-04-28T09:01:28.681Z</time></trkpt><trkpt lat="48.3874117" lon="-4.39767"><ele>0.0</ele><time>2026-04-28T09:01:29.679Z</time></trkpt><trkpt lat="48.3872433" lon="-4.397475"><ele>0.0</ele><time>2026-04-28T09:01:30.679Z</time></trkpt><trkpt lat="48.387075" lon="-4.3972767"><ele>0.0</ele><time>2026-04-28T09:01:31.683Z</time></trkpt><trkpt lat="48.3869067" lon="-4.3970783"><ele>0.0</ele><time>2026-04-28T09:01:32.684Z</time></trkpt><trkpt lat="48.3867367" lon="-4.3968817"><ele>0.0</ele><time>2026-04-28T09:01:33.682Z</time></trkpt><trkpt lat="48.3865667" lon="-4.3966867"><ele>0.0</ele><time>2026-04-28T09:01:34.68Z</time></trkpt><trkpt lat="48.3863967" lon="-4.39649"><ele>0.0</ele><time>2026-04-28T09:01:35.677Z</time></trkpt><trkpt lat="48.386225" lon="-4.3962933"><ele>0.0</ele><time>2026-04-28T09:01:36.682Z</time></trkpt><trkpt lat="48.3860533" lon="-4.3960983"><ele>6.0</ele><time>2026-04-28T09:01:37.678Z</time></trkpt><trkpt lat="48.3858833" lon="-4.3959083"><ele>12.0</ele><time>2026-04-28T09:01:38.685Z</time></trkpt><trkpt lat="48.3857233" lon="-4.39573"><ele>18.0</ele><time>2026-04-28T09:01:39.678Z</time></trkpt><trkpt lat="48.38557" lon="-4.3955633"><ele>23.0</ele><time>2026-04-28T09:01:40.675Z</time></trkpt><trkpt lat="48.38542" lon="-4.39541"><ele>28.0</ele><time>2026-04-28T09:01:41.688Z</time></trkpt><trkpt lat="48.3852767" lon="-4.3952517"><ele>33.0</ele><time>2026-04-28T09:01:42.683Z</time></trkpt><trkpt lat="48.3851417" lon="-4.3950817"><ele>33.0</ele><time>2026-04-28T09:01:43.679Z</time></trkpt><trkpt lat="48.3850133" lon="-4.394905"><ele>33.0</ele><time>2026-04-28T09:01:44.679Z</time></trkpt><trkpt lat="48.38489" lon="-4.39472"><ele>33.0</ele><time>2026-04-28T09:01:45.68Z</time></trkpt><trkpt lat="48.384775" lon="-4.3945267"><ele>36.666666666666664</ele><time>2026-04-28T09:01:46.679Z</time></trkpt><trkpt lat="48.3846633" lon="-4.3943283"><ele>40.33333333333333</ele><time>2026-04-28T09:01:47.684Z</time></trkpt><trkpt lat="48.38455" lon="-4.3941233"><ele>44.0</ele><time>2026-04-28T09:01:48.68Z</time></trkpt><trkpt lat="48.3844417" lon="-4.393915"><ele>43.666666666666664</ele><time>2026-04-28T09:01:49.677Z</time></trkpt><trkpt lat="48.38434" lon="-4.3937017"><ele>43.333333333333336</ele><time>2026-04-28T09:01:50.679Z</time></trkpt><trkpt lat="48.3842517" lon="-4.3934867"><ele>43.0</ele><time>2026-04-28T09:01:51.677Z</time></trkpt><trkpt lat="48.3841733" lon="-4.3932717"><ele>43.0</ele><time>2026-04-28T09:01:52.672Z</time></trkpt><trkpt lat="48.3841083" lon="-4.3930633"><ele>43.0</ele><time>2026-04-28T09:01:53.679Z</time></trkpt><trkpt lat="48.3840617" lon="-4.3928717"><ele>43.0</ele><time>2026-04-28T09:01:54.676Z</time></trkpt><trkpt lat="48.3840167" lon="-4.39271"><ele>43.0</ele><time>2026-04-28T09:01:55.679Z</time></trkpt><trkpt lat="48.38396" lon="-4.392585"><ele>43.16666666666667</ele><time>2026-04-28T09:01:56.678Z</time></trkpt><trkpt lat="48.383895" lon="-4.392495"><ele>43.333333333333336</ele><time>2026-04-28T09:01:57.682Z</time></trkpt><trkpt lat="48.3838317" lon="-4.3924267"><ele>43.5</ele><time>2026-04-28T09:01:58.678Z</time></trkpt><trkpt lat="48.383775" lon="-4.3923767"><ele>43.666666666666664</ele><time>2026-04-28T09:01:59.68Z</time></trkpt><trkpt lat="48.38368" lon="-4.3923083"><ele>43.83333333333333</ele><time>2026-04-28T09:02:01.67Z</time></trkpt><trkpt lat="48.3836083" lon="-4.3922367"><ele>44.0</ele><time>2026-04-28T09:02:04.679Z</time></trkpt><trkpt lat="48.3836033" lon="-4.39207"><ele>46.800000000000004</ele><time>2026-04-28T09:02:06.679Z</time></trkpt><trkpt lat="48.383615" lon="-4.3919483"><ele>49.6</ele><time>2026-04-28T09:02:07.682Z</time></trkpt><trkpt lat="48.3836267" lon="-4.3918067"><ele>52.4</ele><time>2026-04-28T09:02:08.681Z</time></trkpt><trkpt lat="48.3836383" lon="-4.391645"><ele>55.2</ele><time>2026-04-28T09:02:09.679Z</time></trkpt><trkpt lat="48.3836483" lon="-4.3914717"><ele>58.0</ele><time>2026-04-28T09:02:10.679Z</time></trkpt><trkpt lat="48.3836567" lon="-4.3912783"><ele>59.0</ele><time>2026-04-28T09:02:11.678Z</time></trkpt><trkpt lat="48.383655" lon="-4.39108"><ele>60.0</ele><time>2026-04-28T09:02:12.681Z</time></trkpt><trkpt lat="48.3836483" lon="-4.390875"><ele>61.0</ele><time>2026-04-28T09:02:13.677Z</time></trkpt><trkpt lat="48.38364" lon="-4.390655"><ele>62.0</ele><time>2026-04-28T09:02:14.679Z</time></trkpt><trkpt lat="48.3836283" lon="-4.3904367"><ele>62.75</ele><time>2026-04-28T09:02:15.675Z</time></trkpt><trkpt lat="48.3836217" lon="-4.39022"><ele>63.5</ele><time>2026-04-28T09:02:16.678Z</time></trkpt><trkpt lat="48.3836183" lon="-4.3900033"><ele>64.25</ele><time>2026-04-28T09:02:17.678Z</time></trkpt><trkpt lat="48.38362" lon="-4.3897817"><ele>65.0</ele><time>2026-04-28T09:02:18.68Z</time></trkpt><trkpt lat="48.3836233" lon="-4.3895583"><ele>65.75</ele><time>2026-04-28T09:02:19.68Z</time></trkpt><trkpt lat="48.3836367" lon="-4.3893333"><ele>66.5</ele><time>2026-04-28T09:02:20.68Z</time></trkpt><trkpt lat="48.383655" lon="-4.38911"><ele>67.25</ele><time>2026-04-28T09:02:21.679Z</time></trkpt><trkpt lat="48.3836733" lon="-4.3888867"><ele>68.0</ele><time>2026-04-28T09:02:22.679Z</time></trkpt><trkpt lat="48.3836967" lon="-4.3886617"><ele>69.33333333333334</ele><time>2026-04-28T09:02:23.671Z</time></trkpt><trkpt lat="48.383715" lon="-4.3884383"><ele>70.66666666666667</ele><time>2026-04-28T09:02:24.678Z</time></trkpt><trkpt lat="48.3837317" lon="-4.3882117"><ele>72.0</ele><time>2026-04-28T09:02:25.68Z</time></trkpt><trkpt lat="48.3837517" lon="-4.387985"><ele>73.33333333333333</ele><time>2026-04-28T09:02:26.678Z</time></trkpt><trkpt lat="48.3837667" lon="-4.3877583"><ele>74.66666666666666</ele><time>2026-04-28T09:02:27.684Z</time></trkpt><trkpt lat="48.3837817" lon="-4.3875333"><ele>76.0</ele><time>2026-04-28T09:02:28.677Z</time></trkpt><trkpt lat="48.3837917" lon="-4.38731"><ele>77.75</ele><time>2026-04-28T09:02:29.678Z</time></trkpt><trkpt lat="48.383805" lon="-4.3870867"><ele>79.5</ele><time>2026-04-28T09:02:30.681Z</time></trkpt><trkpt lat="48.3838183" lon="-4.386865"><ele>81.25</ele><time>2026-04-28T09:02:31.677Z</time></trkpt><trkpt lat="48.3838317" lon="-4.3866467"><ele>83.0</ele><time>2026-04-28T09:02:32.683Z</time></trkpt><trkpt lat="48.3838417" lon="-4.3864267"><ele>80.75</ele><time>2026-04-28T09:02:33.685Z</time></trkpt><trkpt lat="48.3838517" lon="-4.3862083"><ele>78.5</ele><time>2026-04-28T09:02:34.679Z</time></trkpt><trkpt lat="48.3838617" lon="-4.3859867"><ele>76.25</ele><time>2026-04-28T09:02:35.676Z</time></trkpt><trkpt lat="48.3838667" lon="-4.3857683"><ele>74.0</ele><time>2026-04-28T09:02:36.68Z</time></trkpt><trkpt lat="48.383875" lon="-4.3855467"><ele>75.5</ele><time>2026-04-28T09:02:37.678Z</time></trkpt><trkpt lat="48.3838767" lon="-4.3853233"><ele>77.0</ele><time>2026-04-28T09:02:38.677Z</time></trkpt><trkpt lat="48.3838767" lon="-4.3850983"><ele>78.5</ele><time>2026-04-28T09:02:39.676Z</time></trkpt><trkpt lat="48.3838683" lon="-4.384875"><ele>80.0</ele><time>2026-04-28T09:02:40.678Z</time></trkpt><trkpt lat="48.383865" lon="-4.3846517"><ele>80.0</ele><time>2026-04-28T09:02:41.679Z</time></trkpt><trkpt lat="48.3838583" lon="-4.3844267"><ele>80.0</ele><time>2026-04-28T09:02:42.678Z</time></trkpt><trkpt lat="48.3838467" lon="-4.3842"><ele>80.0</ele><time>2026-04-28T09:02:43.678Z</time></trkpt><trkpt lat="48.3838317" lon="-4.3839733"><ele>82.33333333333334</ele><time>2026-04-28T09:02:44.677Z</time></trkpt><trkpt lat="48.383805" lon="-4.38375"><ele>84.66666666666667</ele><time>2026-04-28T09:02:45.678Z</time></trkpt><trkpt lat="48.3837767" lon="-4.3835267"><ele>87.0</ele><time>2026-04-28T09:02:46.677Z</time></trkpt><trkpt lat="48.3837483" lon="-4.3833067"><ele>87.0</ele><time>2026-04-28T09:02:47.681Z</time></trkpt><trkpt lat="48.3837217" lon="-4.383085"><ele>87.0</ele><time>2026-04-28T09:02:48.678Z</time></trkpt><trkpt lat="48.383695" lon="-4.3828683"><ele>87.0</ele><time>2026-04-28T09:02:49.684Z</time></trkpt><trkpt lat="48.3836733" lon="-4.3826483"><ele>87.0</ele><time>2026-04-28T09:02:50.681Z</time></trkpt><trkpt lat="48.38365" lon="-4.3824283"><ele>86.75</ele><time>2026-04-28T09:02:51.682Z</time></trkpt><trkpt lat="48.38363" lon="-4.38221"><ele>86.5</ele><time>2026-04-28T09:02:52.679Z</time></trkpt><trkpt lat="48.3836117" lon="-4.38199"><ele>86.25</ele><time>2026-04-28T09:02:53.678Z</time></trkpt><trkpt lat="48.3835967" lon="-4.3817683"><ele>86.0</ele><time>2026-04-28T09:02:54.68Z</time></trkpt><trkpt lat="48.3835833" lon="-4.381545"><ele>87.33333333333334</ele><time>2026-04-28T09:02:55.677Z</time></trkpt><trkpt lat="48.3835683" lon="-4.38132"><ele>88.66666666666667</ele><time>2026-04-28T09:02:56.676Z</time></trkpt><trkpt lat="48.3835533" lon="-4.381095"><ele>90.0</ele><time>2026-04-28T09:02:57.68Z</time></trkpt><trkpt lat="48.3835417" lon="-4.38087"><ele>90.0</ele><time>2026-04-28T09:02:58.674Z</time></trkpt><trkpt lat="48.38353" lon="-4.380645"><ele>90.0</ele><time>2026-04-28T09:02:59.683Z</time></trkpt><trkpt lat="48.3835167" lon="-4.38042"><ele>90.0</ele><time>2026-04-28T09:03:00.682Z</time></trkpt><trkpt lat="48.3835033" lon="-4.3802"><ele>90.0</ele><time>2026-04-28T09:03:01.679Z</time></trkpt><trkpt lat="48.3834933" lon="-4.3799817"><ele>90.75</ele><time>2026-04-28T09:03:02.681Z</time></trkpt><trkpt lat="48.3834833" lon="-4.3797717"><ele>91.5</ele><time>2026-04-28T09:03:03.681Z</time></trkpt><trkpt lat="48.3834717" lon="-4.3795767"><ele>92.25</ele><time>2026-04-28T09:03:04.682Z</time></trkpt><trkpt lat="48.3834683" lon="-4.3794"><ele>93.0</ele><time>2026-04-28T09:03:05.68Z</time></trkpt><trkpt lat="48.3834583" lon="-4.3792383"><ele>93.60000000000001</ele><time>2026-04-28T09:03:06.676Z</time></trkpt><trkpt lat="48.383435" lon="-4.3790917"><ele>94.2</ele><time>2026-04-28T09:03:07.677Z</time></trkpt><trkpt lat="48.383395" lon="-4.3789617"><ele>94.8</ele><time>2026-04-28T09:03:08.683Z</time></trkpt><trkpt lat="48.3833433" lon="-4.3788383"><ele>95.4</ele><time>2026-04-28T09:03:09.675Z</time></trkpt><trkpt lat="48.3832817" lon="-4.37872"><ele>96.0</ele><time>2026-04-28T09:03:10.677Z</time></trkpt><trkpt lat="48.38322" lon="-4.3786117"><ele>96.0</ele><time>2026-04-28T09:03:11.682Z</time></trkpt><trkpt lat="48.3831567" lon="-4.378515"><ele>96.0</ele><time>2026-04-28T09:03:12.684Z</time></trkpt><trkpt lat="48.3830983" lon="-4.378415"><ele>96.0</ele><time>2026-04-28T09:03:13.678Z</time></trkpt><trkpt lat="48.3830483" lon="-4.3783133"><ele>96.0</ele><time>2026-04-28T09:03:14.678Z</time></trkpt><trkpt lat="48.3830083" lon="-4.3782067"><ele>96.0</ele><time>2026-04-28T09:03:15.672Z</time></trkpt><trkpt lat="48.3829733" lon="-4.3781033"><ele>96.0</ele><time>2026-04-28T09:03:16.678Z</time></trkpt><trkpt lat="48.38293" lon="-4.3780033"><ele>96.33333333333333</ele><time>2026-04-28T09:03:17.675Z</time></trkpt><trkpt lat="48.3828767" lon="-4.3779133"><ele>96.66666666666666</ele><time>2026-04-28T09:03:18.678Z</time></trkpt><trkpt lat="48.3828167" lon="-4.3778317"><ele>97.0</ele><time>2026-04-28T09:03:19.678Z</time></trkpt><trkpt lat="48.3827633" lon="-4.37774"><ele>97.33333333333333</ele><time>2026-04-28T09:03:20.676Z</time></trkpt><trkpt lat="48.38273" lon="-4.3776333"><ele>97.66666666666666</ele><time>2026-04-28T09:03:21.678Z</time></trkpt><trkpt lat="48.3827217" lon="-4.3775117"><ele>98.0</ele><time>2026-04-28T09:03:22.678Z</time></trkpt><trkpt lat="48.3827333" lon="-4.3773733"><ele>98.0</ele><time>2026-04-28T09:03:23.679Z</time></trkpt><trkpt lat="48.3827433" lon="-4.3772283"><ele>98.0</ele><time>2026-04-28T09:03:24.674Z</time></trkpt><trkpt lat="48.3827433" lon="-4.3770717"><ele>98.0</ele><time>2026-04-28T09:03:25.675Z</time></trkpt><trkpt lat="48.3827367" lon="-4.376895"><ele>98.0</ele><time>2026-04-28T09:03:26.676Z</time></trkpt><trkpt lat="48.3827233" lon="-4.376705"><ele>98.0</ele><time>2026-04-28T09:03:27.677Z</time></trkpt><trkpt lat="48.38271" lon="-4.3765133"><ele>97.5</ele><time>2026-04-28T09:03:28.673Z</time></trkpt><trkpt lat="48.382695" lon="-4.3763133"><ele>97.0</ele><time>2026-04-28T09:03:29.676Z</time></trkpt><trkpt lat="48.3826633" lon="-4.3761133"><ele>96.5</ele><time>2026-04-28T09:03:30.677Z</time></trkpt><trkpt lat="48.3826233" lon="-4.3759133"><ele>96.0</ele><time>2026-04-28T09:03:31.677Z</time></trkpt><trkpt lat="48.3825733" lon="-4.3757067"><ele>95.75</ele><time>2026-04-28T09:03:32.673Z</time></trkpt><trkpt lat="48.38252" lon="-4.3754967"><ele>95.5</ele><time>2026-04-28T09:03:33.679Z</time></trkpt><trkpt lat="48.3824633" lon="-4.3752883"><ele>95.25</ele><time>2026-04-28T09:03:34.676Z</time></trkpt><trkpt lat="48.382405" lon="-4.3750833"><ele>95.0</ele><time>2026-04-28T09:03:35.684Z</time></trkpt><trkpt lat="48.382345" lon="-4.374885"><ele>95.0</ele><time>2026-04-28T09:03:36.678Z</time></trkpt><trkpt lat="48.3822867" lon="-4.3746933"><ele>95.0</ele><time>2026-04-28T09:03:37.676Z</time></trkpt><trkpt lat="48.3822317" lon="-4.3745033"><ele>95.0</ele><time>2026-04-28T09:03:38.678Z</time></trkpt><trkpt lat="48.382175" lon="-4.3743183"><ele>95.0</ele><time>2026-04-28T09:03:39.679Z</time></trkpt><trkpt lat="48.38212" lon="-4.3741367"><ele>96.5</ele><time>2026-04-28T09:03:40.68Z</time></trkpt><trkpt lat="48.3820683" lon="-4.373955"><ele>98.0</ele><time>2026-04-28T09:03:41.676Z</time></trkpt><trkpt lat="48.3820183" lon="-4.373775"><ele>99.5</ele><time>2026-04-28T09:03:42.68Z</time></trkpt><trkpt lat="48.3819667" lon="-4.3735967"><ele>101.0</ele><time>2026-04-28T09:03:43.675Z</time></trkpt><trkpt lat="48.381915" lon="-4.37342"><ele>101.0</ele><time>2026-04-28T09:03:44.673Z</time></trkpt><trkpt lat="48.3818667" lon="-4.3732417"><ele>101.0</ele><time>2026-04-28T09:03:45.672Z</time></trkpt><trkpt lat="48.3818167" lon="-4.3730667"><ele>101.0</ele><time>2026-04-28T09:03:46.673Z</time></trkpt><trkpt lat="48.3817667" lon="-4.3728883"><ele>101.0</ele><time>2026-04-28T09:03:47.671Z</time></trkpt><trkpt lat="48.381715" lon="-4.372705"><ele>101.0</ele><time>2026-04-28T09:03:48.671Z</time></trkpt><trkpt lat="48.38166" lon="-4.37252"><ele>101.0</ele><time>2026-04-28T09:03:49.674Z</time></trkpt><trkpt lat="48.3816083" lon="-4.37234"><ele>101.0</ele><time>2026-04-28T09:03:50.678Z</time></trkpt><trkpt lat="48.3815617" lon="-4.3721517"><ele>101.0</ele><time>2026-04-28T09:03:51.683Z</time></trkpt><trkpt lat="48.3815233" lon="-4.3719617"><ele>100.75</ele><time>2026-04-28T09:03:52.678Z</time></trkpt><trkpt lat="48.3814917" lon="-4.3717717"><ele>100.5</ele><time>2026-04-28T09:03:53.672Z</time></trkpt><trkpt lat="48.38146" lon="-4.371585"><ele>100.25</ele><time>2026-04-28T09:03:54.678Z</time></trkpt><trkpt lat="48.3814283" lon="-4.371395"><ele>100.0</ele><time>2026-04-28T09:03:55.676Z</time></trkpt><trkpt lat="48.3813967" lon="-4.371205"><ele>101.25</ele><time>2026-04-28T09:03:56.678Z</time></trkpt><trkpt lat="48.3813683" lon="-4.3710133"><ele>102.5</ele><time>2026-04-28T09:03:57.675Z</time></trkpt><trkpt lat="48.38134" lon="-4.3708267"><ele>103.75</ele><time>2026-04-28T09:03:58.675Z</time></trkpt><trkpt lat="48.3813133" lon="-4.3706417"><ele>105.0</ele><time>2026-04-28T09:03:59.675Z</time></trkpt><trkpt lat="48.38129" lon="-4.3704617"><ele>105.75</ele><time>2026-04-28T09:04:00.673Z</time></trkpt><trkpt lat="48.3812667" lon="-4.3702833"><ele>106.5</ele><time>2026-04-28T09:04:01.674Z</time></trkpt><trkpt lat="48.3812467" lon="-4.3701083"><ele>107.25</ele><time>2026-04-28T09:04:02.677Z</time></trkpt><trkpt lat="48.38123" lon="-4.369935"><ele>108.0</ele><time>2026-04-28T09:04:03.672Z</time></trkpt><trkpt lat="48.38122" lon="-4.3697617"><ele>108.5</ele><time>2026-04-28T09:04:04.676Z</time></trkpt><trkpt lat="48.3812117" lon="-4.3695867"><ele>109.0</ele><time>2026-04-28T09:04:05.681Z</time></trkpt><trkpt lat="48.3812017" lon="-4.36941"><ele>109.5</ele><time>2026-04-28T09:04:06.677Z</time></trkpt><trkpt lat="48.3811967" lon="-4.36923"><ele>110.0</ele><time>2026-04-28T09:04:07.68Z</time></trkpt><trkpt lat="48.3811917" lon="-4.3690467"><ele>110.75</ele><time>2026-04-28T09:04:08.68Z</time></trkpt><trkpt lat="48.3811917" lon="-4.3688583"><ele>111.5</ele><time>2026-04-28T09:04:09.68Z</time></trkpt><trkpt lat="48.3811933" lon="-4.3686683"><ele>112.25</ele><time>2026-04-28T09:04:10.676Z</time></trkpt><trkpt lat="48.3811967" lon="-4.3684733"><ele>113.0</ele><time>2026-04-28T09:04:11.679Z</time></trkpt><trkpt lat="48.3811983" lon="-4.3682767"><ele>113.0</ele><time>2026-04-28T09:04:12.678Z</time></trkpt><trkpt lat="48.3812017" lon="-4.3680783"><ele>113.0</ele><time>2026-04-28T09:04:13.679Z</time></trkpt><trkpt lat="48.381205" lon="-4.3678767"><ele>113.0</ele><time>2026-04-28T09:04:14.679Z</time></trkpt><trkpt lat="48.38121" lon="-4.3676733"><ele>113.0</ele><time>2026-04-28T09:04:15.679Z</time></trkpt><trkpt lat="48.3812167" lon="-4.36747"><ele>113.5</ele><time>2026-04-28T09:04:16.679Z</time></trkpt><trkpt lat="48.3812233" lon="-4.367265"><ele>114.0</ele><time>2026-04-28T09:04:17.677Z</time></trkpt><trkpt lat="48.3812333" lon="-4.3670617"><ele>114.5</ele><time>2026-04-28T09:04:18.683Z</time></trkpt><trkpt lat="48.381245" lon="-4.3668583"><ele>115.0</ele><time>2026-04-28T09:04:19.681Z</time></trkpt><trkpt lat="48.3812583" lon="-4.3666583"><ele>115.25</ele><time>2026-04-28T09:04:20.678Z</time></trkpt><trkpt lat="48.3812733" lon="-4.3664583"><ele>115.5</ele><time>2026-04-28T09:04:21.682Z</time></trkpt><trkpt lat="48.3812883" lon="-4.3662617"><ele>115.75</ele><time>2026-04-28T09:04:22.677Z</time></trkpt><trkpt lat="48.3813067" lon="-4.3660633"><ele>116.0</ele><time>2026-04-28T09:04:23.681Z</time></trkpt><trkpt lat="48.381325" lon="-4.365865"><ele>116.0</ele><time>2026-04-28T09:04:24.677Z</time></trkpt><trkpt lat="48.381345" lon="-4.3656683"><ele>116.0</ele><time>2026-04-28T09:04:25.679Z</time></trkpt><trkpt lat="48.3813633" lon="-4.3654717"><ele>116.0</ele><time>2026-04-28T09:04:26.676Z</time></trkpt><trkpt lat="48.3813817" lon="-4.3652783"><ele>116.0</ele><time>2026-04-28T09:04:27.68Z</time></trkpt><trkpt lat="48.3814" lon="-4.365085"><ele>116.25</ele><time>2026-04-28T09:04:28.678Z</time></trkpt><trkpt lat="48.3814183" lon="-4.3648917"><ele>116.5</ele><time>2026-04-28T09:04:29.677Z</time></trkpt><trkpt lat="48.3814367" lon="-4.3646983"><ele>116.75</ele><time>2026-04-28T09:04:30.682Z</time></trkpt><trkpt lat="48.38145" lon="-4.36451"><ele>117.0</ele><time>2026-04-28T09:04:31.68Z</time></trkpt><trkpt lat="48.3814667" lon="-4.36432"><ele>117.0</ele><time>2026-04-28T09:04:32.681Z</time></trkpt><trkpt lat="48.3814833" lon="-4.36413"><ele>117.0</ele><time>2026-04-28T09:04:33.681Z</time></trkpt><trkpt lat="48.3815" lon="-4.363935"><ele>117.0</ele><time>2026-04-28T09:04:34.678Z</time></trkpt><trkpt lat="48.3815167" lon="-4.36374"><ele>117.0</ele><time>2026-04-28T09:04:35.681Z</time></trkpt><trkpt lat="48.3815317" lon="-4.3635433"><ele>117.25</ele><time>2026-04-28T09:04:36.682Z</time></trkpt><trkpt lat="48.3815517" lon="-4.3633483"><ele>117.5</ele><time>2026-04-28T09:04:37.68Z</time></trkpt><trkpt lat="48.3815717" lon="-4.3631648"><ele>117.75</ele><time>2026-04-28T09:04:38.683Z</time></trkpt><trkpt lat="48.3815935" lon="-4.3629913"><ele>118.0</ele><time>2026-04-28T09:04:39.677Z</time></trkpt><trkpt lat="48.3816145" lon="-4.3628204"><ele>118.25</ele><time>2026-04-28T09:04:40.681Z</time></trkpt><trkpt lat="48.381632" lon="-4.3626548"><ele>118.5</ele><time>2026-04-28T09:04:41.676Z</time></trkpt><trkpt lat="48.3816507" lon="-4.3624811"><ele>118.75</ele><time>2026-04-28T09:04:42.672Z</time></trkpt><trkpt lat="48.3816683" lon="-4.3622914"><ele>119.0</ele><time>2026-04-28T09:04:43.676Z</time></trkpt><trkpt lat="48.3816822" lon="-4.3620925"><ele>119.0</ele><time>2026-04-28T09:04:44.674Z</time></trkpt><trkpt lat="48.3816968" lon="-4.3618961"><ele>119.0</ele><time>2026-04-28T09:04:45.673Z</time></trkpt><trkpt lat="48.3817109" lon="-4.3617025"><ele>119.0</ele><time>2026-04-28T09:04:46.678Z</time></trkpt><trkpt lat="48.3817262" lon="-4.3615104"><ele>119.0</ele><time>2026-04-28T09:04:47.683Z</time></trkpt><trkpt lat="48.3817414" lon="-4.3613174"><ele>118.25</ele><time>2026-04-28T09:04:48.677Z</time></trkpt><trkpt lat="48.3817565" lon="-4.3611238"><ele>117.5</ele><time>2026-04-28T09:04:49.679Z</time></trkpt><trkpt lat="48.3817714" lon="-4.3609311"><ele>116.75</ele><time>2026-04-28T09:04:50.679Z</time></trkpt><trkpt lat="48.3817863" lon="-4.3607392"><ele>116.0</ele><time>2026-04-28T09:04:51.679Z</time></trkpt><trkpt lat="48.3818006" lon="-4.3605506"><ele>115.75</ele><time>2026-04-28T09:04:52.674Z</time></trkpt><trkpt lat="48.3818142" lon="-4.3603622"><ele>115.5</ele><time>2026-04-28T09:04:53.678Z</time></trkpt><trkpt lat="48.3818264" lon="-4.3601748"><ele>115.25</ele><time>2026-04-28T09:04:54.675Z</time></trkpt><trkpt lat="48.3818353" lon="-4.359983"><ele>115.0</ele><time>2026-04-28T09:04:55.679Z</time></trkpt><trkpt lat="48.3818414" lon="-4.3597884"><ele>115.0</ele><time>2026-04-28T09:04:56.677Z</time></trkpt><trkpt lat="48.3818454" lon="-4.3595903"><ele>115.0</ele><time>2026-04-28T09:04:57.677Z</time></trkpt><trkpt lat="48.3818519" lon="-4.3593895"><ele>115.0</ele><time>2026-04-28T09:04:58.674Z</time></trkpt><trkpt lat="48.3818603" lon="-4.3591868"><ele>115.0</ele><time>2026-04-28T09:04:59.679Z</time></trkpt><trkpt lat="48.3818662" lon="-4.3589891"><ele>115.0</ele><time>2026-04-28T09:05:00.676Z</time></trkpt><trkpt lat="48.3818662" lon="-4.3587985"><ele>115.0</ele><time>2026-04-28T09:05:01.678Z</time></trkpt><trkpt lat="48.3818642" lon="-4.3586181"><ele>115.0</ele><time>2026-04-28T09:05:02.676Z</time></trkpt><trkpt lat="48.3818595" lon="-4.3584418"><ele>115.0</ele><time>2026-04-28T09:05:03.679Z</time></trkpt><trkpt lat="48.3818524" lon="-4.3582733"><ele>115.0</ele><time>2026-04-28T09:05:04.678Z</time></trkpt><trkpt lat="48.3818443" lon="-4.3581151"><ele>115.0</ele><time>2026-04-28T09:05:05.682Z</time></trkpt><trkpt lat="48.3818381" lon="-4.3579723"><ele>115.0</ele><time>2026-04-28T09:05:06.677Z</time></trkpt><trkpt lat="48.3818344" lon="-4.3578364"><ele>115.0</ele><time>2026-04-28T09:05:07.681Z</time></trkpt><trkpt lat="48.3818311" lon="-4.3577067"><ele>115.0</ele><time>2026-04-28T09:05:08.68Z</time></trkpt><trkpt lat="48.3818295" lon="-4.3575865"><ele>115.00000000000001</ele><time>2026-04-28T09:05:09.677Z</time></trkpt><trkpt lat="48.3818215" lon="-4.3574799"><ele>115.0</ele><time>2026-04-28T09:05:10.672Z</time></trkpt><trkpt lat="48.3817833" lon="-4.3573183"><ele>115.0</ele><time>2026-04-28T09:05:12.678Z</time></trkpt><trkpt lat="48.381735" lon="-4.35723"><ele>115.0</ele><time>2026-04-28T09:05:15.679Z</time></trkpt><trkpt lat="48.3817217" lon="-4.3571083"><ele>115.00000000000001</ele><time>2026-04-28T09:05:20.68Z</time></trkpt><trkpt lat="48.3817483" lon="-4.35702"><ele>115.0</ele><time>2026-04-28T09:05:21.674Z</time></trkpt><trkpt lat="48.38177" lon="-4.3569267"><ele>114.8</ele><time>2026-04-28T09:05:22.676Z</time></trkpt><trkpt lat="48.3817833" lon="-4.3568117"><ele>114.6</ele><time>2026-04-28T09:05:23.681Z</time></trkpt><trkpt lat="48.38179" lon="-4.3566717"><ele>114.4</ele><time>2026-04-28T09:05:24.682Z</time></trkpt><trkpt lat="48.3817983" lon="-4.3564867"><ele>114.2</ele><time>2026-04-28T09:05:25.677Z</time></trkpt><trkpt lat="48.3818033" lon="-4.3562983"><ele>114.0</ele><time>2026-04-28T09:05:26.678Z</time></trkpt><trkpt lat="48.3818117" lon="-4.3560933"><ele>114.0</ele><time>2026-04-28T09:05:27.677Z</time></trkpt><trkpt lat="48.38182" lon="-4.3558817"><ele>114.0</ele><time>2026-04-28T09:05:28.675Z</time></trkpt><trkpt lat="48.3818283" lon="-4.3556683"><ele>114.0</ele><time>2026-04-28T09:05:29.678Z</time></trkpt><trkpt lat="48.3818383" lon="-4.3554517"><ele>114.0</ele><time>2026-04-28T09:05:30.681Z</time></trkpt><trkpt lat="48.3818467" lon="-4.3552317"><ele>113.5</ele><time>2026-04-28T09:05:31.683Z</time></trkpt><trkpt lat="48.3818583" lon="-4.3550117"><ele>113.0</ele><time>2026-04-28T09:05:32.679Z</time></trkpt><trkpt lat="48.38187" lon="-4.3547867"><ele>112.5</ele><time>2026-04-28T09:05:33.678Z</time></trkpt><trkpt lat="48.3818817" lon="-4.3545617"><ele>112.0</ele><time>2026-04-28T09:05:34.68Z</time></trkpt><trkpt lat="48.3818917" lon="-4.354335"><ele>111.75</ele><time>2026-04-28T09:05:35.68Z</time></trkpt><trkpt lat="48.3818983" lon="-4.354115"><ele>111.5</ele><time>2026-04-28T09:05:36.675Z</time></trkpt><trkpt lat="48.381905" lon="-4.3539"><ele>111.25</ele><time>2026-04-28T09:05:37.68Z</time></trkpt><trkpt lat="48.3819117" lon="-4.353685"><ele>111.0</ele><time>2026-04-28T09:05:38.687Z</time></trkpt><trkpt lat="48.3819183" lon="-4.3534733"><ele>111.0</ele><time>2026-04-28T09:05:39.677Z</time></trkpt><trkpt lat="48.3819267" lon="-4.353265"><ele>111.0</ele><time>2026-04-28T09:05:40.679Z</time></trkpt><trkpt lat="48.3819367" lon="-4.3530567"><ele>111.0</ele><time>2026-04-28T09:05:41.68Z</time></trkpt><trkpt lat="48.3819433" lon="-4.35285"><ele>111.0</ele><time>2026-04-28T09:05:42.683Z</time></trkpt><trkpt lat="48.38195" lon="-4.35264"><ele>110.5</ele><time>2026-04-28T09:05:43.679Z</time></trkpt><trkpt lat="48.3819567" lon="-4.3524333"><ele>110.0</ele><time>2026-04-28T09:05:44.683Z</time></trkpt><trkpt lat="48.381965" lon="-4.3522317"><ele>109.5</ele><time>2026-04-28T09:05:45.676Z</time></trkpt><trkpt lat="48.381975" lon="-4.3520283"><ele>109.0</ele><time>2026-04-28T09:05:46.679Z</time></trkpt><trkpt lat="48.3819817" lon="-4.351825"><ele>108.75</ele><time>2026-04-28T09:05:47.678Z</time></trkpt><trkpt lat="48.3819917" lon="-4.3516217"><ele>108.5</ele><time>2026-04-28T09:05:48.678Z</time></trkpt><trkpt lat="48.382" lon="-4.351415"><ele>108.25</ele><time>2026-04-28T09:05:49.677Z</time></trkpt><trkpt lat="48.3820033" lon="-4.3512083"><ele>108.0</ele><time>2026-04-28T09:05:50.679Z</time></trkpt><trkpt lat="48.382" lon="-4.3510033"><ele>108.0</ele><time>2026-04-28T09:05:51.679Z</time></trkpt><trkpt lat="48.3819867" lon="-4.3507983"><ele>108.0</ele><time>2026-04-28T09:05:52.674Z</time></trkpt><trkpt lat="48.3819717" lon="-4.350595"><ele>108.0</ele><time>2026-04-28T09:05:53.678Z</time></trkpt><trkpt lat="48.3819533" lon="-4.3503933"><ele>108.0</ele><time>2026-04-28T09:05:54.677Z</time></trkpt><trkpt lat="48.3819317" lon="-4.3501967"><ele>107.80000000000001</ele><time>2026-04-28T09:05:55.678Z</time></trkpt><trkpt lat="48.3819117" lon="-4.3500117"><ele>107.60000000000001</ele><time>2026-04-28T09:05:56.676Z</time></trkpt><trkpt lat="48.3818917" lon="-4.3498383"><ele>107.39999999999999</ele><time>2026-04-28T09:05:57.678Z</time></trkpt><trkpt lat="48.381875" lon="-4.349675"><ele>107.19999999999999</ele><time>2026-04-28T09:05:58.675Z</time></trkpt><trkpt lat="48.38186" lon="-4.3495317"><ele>107.0</ele><time>2026-04-28T09:05:59.675Z</time></trkpt><trkpt lat="48.3818483" lon="-4.3494033"><ele>106.99999999999999</ele><time>2026-04-28T09:06:00.675Z</time></trkpt><trkpt lat="48.3818433" lon="-4.34928"><ele>107.0</ele><time>2026-04-28T09:06:01.674Z</time></trkpt><trkpt lat="48.3818367" lon="-4.3491633"><ele>107.0</ele><time>2026-04-28T09:06:02.674Z</time></trkpt><trkpt lat="48.38183" lon="-4.349055"><ele>107.0</ele><time>2026-04-28T09:06:03.678Z</time></trkpt><trkpt lat="48.3818167" lon="-4.3489433"><ele>106.99999999999999</ele><time>2026-04-28T09:06:04.677Z</time></trkpt><trkpt lat="48.3817933" lon="-4.3488183"><ele>107.0</ele><time>2026-04-28T09:06:05.679Z</time></trkpt><trkpt lat="48.381755" lon="-4.348705"><ele>107.33333333333333</ele><time>2026-04-28T09:06:06.683Z</time></trkpt><trkpt lat="48.3817167" lon="-4.348595"><ele>107.66666666666666</ele><time>2026-04-28T09:06:07.68Z</time></trkpt><trkpt lat="48.3816683" lon="-4.3484933"><ele>108.0</ele><time>2026-04-28T09:06:08.684Z</time></trkpt><trkpt lat="48.3816033" lon="-4.34841"><ele>108.33333333333334</ele><time>2026-04-28T09:06:09.68Z</time></trkpt><trkpt lat="48.381525" lon="-4.3483333"><ele>108.66666666666667</ele><time>2026-04-28T09:06:10.678Z</time></trkpt><trkpt lat="48.3814333" lon="-4.348265"><ele>109.0</ele><time>2026-04-28T09:06:11.679Z</time></trkpt><trkpt lat="48.381325" lon="-4.348195"><ele>108.0</ele><time>2026-04-28T09:06:12.677Z</time></trkpt><trkpt lat="48.3812067" lon="-4.34813"><ele>107.0</ele><time>2026-04-28T09:06:13.678Z</time></trkpt><trkpt lat="48.3810833" lon="-4.34807"><ele>106.0</ele><time>2026-04-28T09:06:14.678Z</time></trkpt><trkpt lat="48.3809567" lon="-4.3480133"><ele>105.0</ele><time>2026-04-28T09:06:15.677Z</time></trkpt><trkpt lat="48.38083" lon="-4.34795"><ele>104.75</ele><time>2026-04-28T09:06:16.678Z</time></trkpt><trkpt lat="48.3807067" lon="-4.3478833"><ele>104.5</ele><time>2026-04-28T09:06:17.676Z</time></trkpt><trkpt lat="48.380585" lon="-4.3478233"><ele>104.25</ele><time>2026-04-28T09:06:18.68Z</time></trkpt><trkpt lat="48.3804667" lon="-4.3477533"><ele>104.0</ele><time>2026-04-28T09:06:19.678Z</time></trkpt><trkpt lat="48.3803467" lon="-4.3476883"><ele>103.0</ele><time>2026-04-28T09:06:20.672Z</time></trkpt><trkpt lat="48.380225" lon="-4.3476217"><ele>102.0</ele><time>2026-04-28T09:06:21.678Z</time></trkpt><trkpt lat="48.38011" lon="-4.34754"><ele>101.0</ele><time>2026-04-28T09:06:22.683Z</time></trkpt><trkpt lat="48.3799967" lon="-4.3474517"><ele>100.0</ele><time>2026-04-28T09:06:23.678Z</time></trkpt><trkpt lat="48.379885" lon="-4.3473667"><ele>100.0</ele><time>2026-04-28T09:06:24.681Z</time></trkpt><trkpt lat="48.3797733" lon="-4.34729"><ele>100.0</ele><time>2026-04-28T09:06:25.681Z</time></trkpt><trkpt lat="48.3796583" lon="-4.3472217"><ele>100.0</ele><time>2026-04-28T09:06:26.676Z</time></trkpt><trkpt lat="48.3795417" lon="-4.3471583"><ele>100.0</ele><time>2026-04-28T09:06:27.677Z</time></trkpt><trkpt lat="48.3794233" lon="-4.3470967"><ele>96.75</ele><time>2026-04-28T09:06:28.677Z</time></trkpt><trkpt lat="48.3793017" lon="-4.34704"><ele>93.5</ele><time>2026-04-28T09:06:29.675Z</time></trkpt><trkpt lat="48.37918" lon="-4.3469867"><ele>90.25</ele><time>2026-04-28T09:06:30.675Z</time></trkpt><trkpt lat="48.379055" lon="-4.34693"><ele>87.0</ele><time>2026-04-28T09:06:31.679Z</time></trkpt><trkpt lat="48.3789283" lon="-4.3468767"><ele>85.75</ele><time>2026-04-28T09:06:32.679Z</time></trkpt><trkpt lat="48.3787967" lon="-4.3468233"><ele>84.5</ele><time>2026-04-28T09:06:33.674Z</time></trkpt><trkpt lat="48.3786633" lon="-4.3467833"><ele>83.25</ele><time>2026-04-28T09:06:34.682Z</time></trkpt><trkpt lat="48.3785267" lon="-4.3467617"><ele>82.0</ele><time>2026-04-28T09:06:35.679Z</time></trkpt><trkpt lat="48.3783917" lon="-4.34675"><ele>82.0</ele><time>2026-04-28T09:06:36.678Z</time></trkpt><trkpt lat="48.37826" lon="-4.3467567"><ele>82.0</ele><time>2026-04-28T09:06:37.679Z</time></trkpt><trkpt lat="48.3781317" lon="-4.3467817"><ele>82.0</ele><time>2026-04-28T09:06:38.677Z</time></trkpt><trkpt lat="48.3780083" lon="-4.3468283"><ele>82.0</ele><time>2026-04-28T09:06:39.678Z</time></trkpt><trkpt lat="48.3778967" lon="-4.346895"><ele>81.83333333333333</ele><time>2026-04-28T09:06:40.676Z</time></trkpt><trkpt lat="48.3778133" lon="-4.3469733"><ele>81.66666666666666</ele><time>2026-04-28T09:06:41.677Z</time></trkpt><trkpt lat="48.377755" lon="-4.3470433"><ele>81.5</ele><time>2026-04-28T09:06:42.677Z</time></trkpt><trkpt lat="48.3776967" lon="-4.3471317"><ele>81.33333333333333</ele><time>2026-04-28T09:06:44.678Z</time></trkpt><trkpt lat="48.3776533" lon="-4.3472583"><ele>81.16666666666667</ele><time>2026-04-28T09:06:47.677Z</time></trkpt><trkpt lat="48.3776133" lon="-4.3473467"><ele>81.0</ele><time>2026-04-28T09:06:49.675Z</time></trkpt><trkpt lat="48.3775367" lon="-4.347405"><ele>81.0</ele><time>2026-04-28T09:06:51.681Z</time></trkpt><trkpt lat="48.37742" lon="-4.3473933"><ele>81.0</ele><time>2026-04-28T09:07:53.678Z</time></trkpt><trkpt lat="48.37736" lon="-4.3473233"><ele>81.0</ele><time>2026-04-28T09:07:55.673Z</time></trkpt><trkpt lat="48.3772917" lon="-4.3472467"><ele>81.0</ele><time>2026-04-28T09:07:57.68Z</time></trkpt><trkpt lat="48.3772233" lon="-4.3471967"><ele>81.0</ele><time>2026-04-28T09:07:59.677Z</time></trkpt><trkpt lat="48.3771567" lon="-4.347155"><ele>81.0</ele><time>2026-04-28T09:08:03.678Z</time></trkpt><trkpt lat="48.377225" lon="-4.3471833"><ele>81.0</ele><time>2026-04-28T09:08:20.681Z</time></trkpt><trkpt lat="48.3773167" lon="-4.347265"><ele>81.0</ele><time>2026-04-28T09:08:22.676Z</time></trkpt><trkpt lat="48.37741" lon="-4.34735"><ele>81.0</ele><time>2026-04-28T09:08:24.679Z</time></trkpt><trkpt lat="48.377485" lon="-4.347395"><ele>81.0</ele><time>2026-04-28T09:08:26.676Z</time></trkpt><trkpt lat="48.377545" lon="-4.3473567"><ele>81.0</ele><time>2026-04-28T09:08:28.678Z</time></trkpt><trkpt lat="48.37758" lon="-4.3472717"><ele>81.0</ele><time>2026-04-28T09:08:30.675Z</time></trkpt><trkpt lat="48.37761" lon="-4.3471517"><ele>80.85714285714286</ele><time>2026-04-28T09:08:33.68Z</time></trkpt><trkpt lat="48.377655" lon="-4.34707"><ele>80.71428571428571</ele><time>2026-04-28T09:09:17.679Z</time></trkpt><trkpt lat="48.3777283" lon="-4.3470133"><ele>80.57142857142857</ele><time>2026-04-28T09:09:19.674Z</time></trkpt><trkpt lat="48.37779" lon="-4.3469617"><ele>80.42857142857143</ele><time>2026-04-28T09:09:20.678Z</time></trkpt><trkpt lat="48.3778517" lon="-4.34691"><ele>80.28571428571429</ele><time>2026-04-28T09:09:21.676Z</time></trkpt><trkpt lat="48.37791" lon="-4.3468633"><ele>80.14285714285714</ele><time>2026-04-28T09:09:22.676Z</time></trkpt><trkpt lat="48.3779767" lon="-4.346825"><ele>80.0</ele><time>2026-04-28T09:09:23.678Z</time></trkpt><trkpt lat="48.37806" lon="-4.3467917"><ele>80.4</ele><time>2026-04-28T09:09:24.674Z</time></trkpt><trkpt lat="48.37815" lon="-4.3467683"><ele>80.8</ele><time>2026-04-28T09:09:25.673Z</time></trkpt><trkpt lat="48.3782367" lon="-4.346755"><ele>81.19999999999999</ele><time>2026-04-28T09:09:26.677Z</time></trkpt><trkpt lat="48.3783283" lon="-4.346745"><ele>81.6</ele><time>2026-04-28T09:09:27.677Z</time></trkpt><trkpt lat="48.3784283" lon="-4.34674"><ele>82.0</ele><time>2026-04-28T09:09:28.681Z</time></trkpt><trkpt lat="48.378535" lon="-4.3467467"><ele>82.0</ele><time>2026-04-28T09:09:29.674Z</time></trkpt><trkpt lat="48.3786467" lon="-4.3467667"><ele>82.0</ele><time>2026-04-28T09:09:30.683Z</time></trkpt><trkpt lat="48.378755" lon="-4.3467967"><ele>82.0</ele><time>2026-04-28T09:09:31.677Z</time></trkpt><trkpt lat="48.37886" lon="-4.3468333"><ele>82.0</ele><time>2026-04-28T09:09:32.676Z</time></trkpt><trkpt lat="48.3789617" lon="-4.3468717"><ele>82.0</ele><time>2026-04-28T09:09:33.678Z</time></trkpt><trkpt lat="48.3790583" lon="-4.3469117"><ele>82.83333333333333</ele><time>2026-04-28T09:09:34.676Z</time></trkpt><trkpt lat="48.37915" lon="-4.3469517"><ele>83.66666666666666</ele><time>2026-04-28T09:09:35.678Z</time></trkpt><trkpt lat="48.37924" lon="-4.3469917"><ele>84.5</ele><time>2026-04-28T09:09:36.684Z</time></trkpt><trkpt lat="48.379325" lon="-4.347025"><ele>85.33333333333333</ele><time>2026-04-28T09:09:37.683Z</time></trkpt><trkpt lat="48.379405" lon="-4.3470567"><ele>86.16666666666667</ele><time>2026-04-28T09:09:38.675Z</time></trkpt><trkpt lat="48.37948" lon="-4.3470933"><ele>87.0</ele><time>2026-04-28T09:09:39.676Z</time></trkpt><trkpt lat="48.379555" lon="-4.3471333"><ele>87.0</ele><time>2026-04-28T09:09:40.679Z</time></trkpt><trkpt lat="48.379625" lon="-4.3471717"><ele>87.0</ele><time>2026-04-28T09:09:41.676Z</time></trkpt><trkpt lat="48.379685" lon="-4.347205"><ele>87.0</ele><time>2026-04-28T09:09:42.68Z</time></trkpt><trkpt lat="48.379785" lon="-4.347235"><ele>87.0</ele><time>2026-04-28T09:09:44.685Z</time></trkpt><trkpt lat="48.3798583" lon="-4.34726"><ele>87.0</ele><time>2026-04-28T09:09:47.688Z</time></trkpt><trkpt lat="48.37993" lon="-4.3473517"><ele>87.0</ele><time>2026-04-28T09:09:50.687Z</time></trkpt><trkpt lat="48.3800483" lon="-4.34746"><ele>89.6</ele><time>2026-04-28T09:09:52.681Z</time></trkpt><trkpt lat="48.38013" lon="-4.3475167"><ele>92.19999999999999</ele><time>2026-04-28T09:09:53.675Z</time></trkpt><trkpt lat="48.3802167" lon="-4.3475767"><ele>94.8</ele><time>2026-04-28T09:09:54.678Z</time></trkpt><trkpt lat="48.3803067" lon="-4.3476367"><ele>97.4</ele><time>2026-04-28T09:09:55.682Z</time></trkpt><trkpt lat="48.380405" lon="-4.3477017"><ele>100.0</ele><time>2026-04-28T09:09:56.683Z</time></trkpt><trkpt lat="48.3805083" lon="-4.3477683"><ele>100.8</ele><time>2026-04-28T09:09:57.672Z</time></trkpt><trkpt lat="48.38061" lon="-4.347835"><ele>101.6</ele><time>2026-04-28T09:09:58.671Z</time></trkpt><trkpt lat="48.3807133" lon="-4.347895"><ele>102.4</ele><time>2026-04-28T09:09:59.675Z</time></trkpt><trkpt lat="48.3808183" lon="-4.34795"><ele>103.2</ele><time>2026-04-28T09:10:00.675Z</time></trkpt><trkpt lat="48.3809233" lon="-4.3480067"><ele>104.0</ele><time>2026-04-28T09:10:01.682Z</time></trkpt><trkpt lat="48.38103" lon="-4.348055"><ele>104.2</ele><time>2026-04-28T09:10:02.681Z</time></trkpt><trkpt lat="48.3811333" lon="-4.3481"><ele>104.4</ele><time>2026-04-28T09:10:03.674Z</time></trkpt><trkpt lat="48.3812333" lon="-4.3481467"><ele>104.6</ele><time>2026-04-28T09:10:04.686Z</time></trkpt><trkpt lat="48.3813333" lon="-4.3481967"><ele>104.8</ele><time>2026-04-28T09:10:05.674Z</time></trkpt><trkpt lat="48.381425" lon="-4.3482517"><ele>105.0</ele><time>2026-04-28T09:10:06.682Z</time></trkpt><trkpt lat="48.3815033" lon="-4.348305"><ele>105.0</ele><time>2026-04-28T09:10:07.676Z</time></trkpt><trkpt lat="48.3815667" lon="-4.3483467"><ele>105.0</ele><time>2026-04-28T09:10:08.678Z</time></trkpt><trkpt lat="48.381685" lon="-4.3483983"><ele>105.0</ele><time>2026-04-28T09:10:10.68Z</time></trkpt><trkpt lat="48.3817483" lon="-4.348395"><ele>105.0</ele><time>2026-04-28T09:10:11.679Z</time></trkpt><trkpt lat="48.3818117" lon="-4.348265"><ele>105.0</ele><time>2026-04-28T09:10:13.681Z</time></trkpt><trkpt lat="48.38181" lon="-4.3481483"><ele>105.0</ele><time>2026-04-28T09:10:14.679Z</time></trkpt><trkpt lat="48.38179" lon="-4.3480017"><ele>105.0</ele><time>2026-04-28T09:10:15.677Z</time></trkpt><trkpt lat="48.3817583" lon="-4.347855"><ele>105.0</ele><time>2026-04-28T09:10:16.68Z</time></trkpt><trkpt lat="48.381725" lon="-4.3477017"><ele>105.0</ele><time>2026-04-28T09:10:17.68Z</time></trkpt><trkpt lat="48.38169" lon="-4.3475383"><ele>105.0</ele><time>2026-04-28T09:10:18.681Z</time></trkpt><trkpt lat="48.381655" lon="-4.347375"><ele>105.0</ele><time>2026-04-28T09:10:19.678Z</time></trkpt><trkpt lat="48.3816133" lon="-4.3472083"><ele>104.5</ele><time>2026-04-28T09:10:20.678Z</time></trkpt><trkpt lat="48.38157" lon="-4.34704"><ele>104.0</ele><time>2026-04-28T09:10:21.682Z</time></trkpt><trkpt lat="48.3815183" lon="-4.3468733"><ele>103.5</ele><time>2026-04-28T09:10:22.675Z</time></trkpt><trkpt lat="48.38147" lon="-4.3467017"><ele>103.0</ele><time>2026-04-28T09:10:23.678Z</time></trkpt><trkpt lat="48.38142" lon="-4.3465283"><ele>102.25</ele><time>2026-04-28T09:10:24.679Z</time></trkpt><trkpt lat="48.3813717" lon="-4.3463517"><ele>101.5</ele><time>2026-04-28T09:10:25.678Z</time></trkpt><trkpt lat="48.38133" lon="-4.3461767"><ele>100.75</ele><time>2026-04-28T09:10:26.685Z</time></trkpt><trkpt lat="48.3812883" lon="-4.346005"><ele>100.0</ele><time>2026-04-28T09:10:27.677Z</time></trkpt><trkpt lat="48.3812517" lon="-4.3458367"><ele>100.0</ele><time>2026-04-28T09:10:28.678Z</time></trkpt><trkpt lat="48.3812217" lon="-4.3456633"><ele>100.0</ele><time>2026-04-28T09:10:29.678Z</time></trkpt><trkpt lat="48.3812" lon="-4.3454883"><ele>100.0</ele><time>2026-04-28T09:10:30.678Z</time></trkpt><trkpt lat="48.3811817" lon="-4.3453083"><ele>100.0</ele><time>2026-04-28T09:10:31.684Z</time></trkpt><trkpt lat="48.38117" lon="-4.3451283"><ele>99.5</ele><time>2026-04-28T09:10:32.68Z</time></trkpt><trkpt lat="48.3811633" lon="-4.3449467"><ele>99.0</ele><time>2026-04-28T09:10:33.679Z</time></trkpt><trkpt lat="48.3811617" lon="-4.344765"><ele>98.5</ele><time>2026-04-28T09:10:34.676Z</time></trkpt><trkpt lat="48.3811667" lon="-4.344585"><ele>98.0</ele><time>2026-04-28T09:10:35.683Z</time></trkpt><trkpt lat="48.38118" lon="-4.3444017"><ele>97.75</ele><time>2026-04-28T09:10:36.685Z</time></trkpt><trkpt lat="48.3811967" lon="-4.3442117"><ele>97.5</ele><time>2026-04-28T09:10:37.686Z</time></trkpt><trkpt lat="48.3812117" lon="-4.3440217"><ele>97.25</ele><time>2026-04-28T09:10:38.685Z</time></trkpt><trkpt lat="48.3812283" lon="-4.3438333"><ele>97.0</ele><time>2026-04-28T09:10:39.684Z</time></trkpt><trkpt lat="48.3812467" lon="-4.34365"><ele>96.5</ele><time>2026-04-28T09:10:40.683Z</time></trkpt><trkpt lat="48.381265" lon="-4.3434683"><ele>96.0</ele><time>2026-04-28T09:10:41.679Z</time></trkpt><trkpt lat="48.3812783" lon="-4.34329"><ele>95.5</ele><time>2026-04-28T09:10:42.681Z</time></trkpt><trkpt lat="48.38129" lon="-4.34311"><ele>95.0</ele><time>2026-04-28T09:10:43.685Z</time></trkpt><trkpt lat="48.3813017" lon="-4.34293"><ele>93.75</ele><time>2026-04-28T09:10:44.679Z</time></trkpt><trkpt lat="48.3813167" lon="-4.3427483"><ele>92.5</ele><time>2026-04-28T09:10:45.68Z</time></trkpt><trkpt lat="48.3813333" lon="-4.3425683"><ele>91.25</ele><time>2026-04-28T09:10:46.682Z</time></trkpt><trkpt lat="48.3813483" lon="-4.3423883"><ele>90.0</ele><time>2026-04-28T09:10:47.682Z</time></trkpt><trkpt lat="48.3813633" lon="-4.3422083"><ele>90.0</ele><time>2026-04-28T09:10:48.68Z</time></trkpt><trkpt lat="48.381375" lon="-4.3420267"><ele>90.0</ele><time>2026-04-28T09:10:49.677Z</time></trkpt><trkpt lat="48.381385" lon="-4.3418417"><ele>90.0</ele><time>2026-04-28T09:10:50.682Z</time></trkpt><trkpt lat="48.3813933" lon="-4.3416567"><ele>90.0</ele><time>2026-04-28T09:10:51.681Z</time></trkpt><trkpt lat="48.3814" lon="-4.34147"><ele>89.5</ele><time>2026-04-28T09:10:52.678Z</time></trkpt><trkpt lat="48.381405" lon="-4.3412833"><ele>89.0</ele><time>2026-04-28T09:10:53.683Z</time></trkpt><trkpt lat="48.3814017" lon="-4.34109"><ele>88.5</ele><time>2026-04-28T09:10:54.684Z</time></trkpt><trkpt lat="48.3814033" lon="-4.340905"><ele>88.0</ele><time>2026-04-28T09:10:55.679Z</time></trkpt><trkpt lat="48.3813983" lon="-4.3407183"><ele>87.5</ele><time>2026-04-28T09:10:56.677Z</time></trkpt><trkpt lat="48.3813917" lon="-4.3405317"><ele>87.0</ele><time>2026-04-28T09:10:57.679Z</time></trkpt><trkpt lat="48.3813867" lon="-4.3403483"><ele>86.5</ele><time>2026-04-28T09:10:58.682Z</time></trkpt><trkpt lat="48.3813833" lon="-4.3401667"><ele>86.0</ele><time>2026-04-28T09:10:59.678Z</time></trkpt><trkpt lat="48.38138" lon="-4.3399833"><ele>86.0</ele><time>2026-04-28T09:11:00.678Z</time></trkpt><trkpt lat="48.38138" lon="-4.3398017"><ele>86.0</ele><time>2026-04-28T09:11:01.679Z</time></trkpt><trkpt lat="48.3813833" lon="-4.3396183"><ele>86.0</ele><time>2026-04-28T09:11:02.68Z</time></trkpt><trkpt lat="48.3813883" lon="-4.33943"><ele>86.0</ele><time>2026-04-28T09:11:03.683Z</time></trkpt><trkpt lat="48.3813983" lon="-4.3392383"><ele>85.25</ele><time>2026-04-28T09:11:04.676Z</time></trkpt><trkpt lat="48.3814167" lon="-4.3390417"><ele>84.5</ele><time>2026-04-28T09:11:05.681Z</time></trkpt><trkpt lat="48.3814383" lon="-4.3388483"><ele>83.75</ele><time>2026-04-28T09:11:06.679Z</time></trkpt><trkpt lat="48.381475" lon="-4.3386617"><ele>83.0</ele><time>2026-04-28T09:11:07.676Z</time></trkpt><trkpt lat="48.3815167" lon="-4.3384783"><ele>82.25</ele><time>2026-04-28T09:11:08.684Z</time></trkpt><trkpt lat="48.3815667" lon="-4.3382933"><ele>81.5</ele><time>2026-04-28T09:11:09.681Z</time></trkpt><trkpt lat="48.3816283" lon="-4.3381083"><ele>80.75</ele><time>2026-04-28T09:11:10.683Z</time></trkpt><trkpt lat="48.3817" lon="-4.33792"><ele>80.0</ele><time>2026-04-28T09:11:11.677Z</time></trkpt><trkpt lat="48.3817783" lon="-4.3377333"><ele>79.0</ele><time>2026-04-28T09:11:12.682Z</time></trkpt><trkpt lat="48.3818583" lon="-4.3375467"><ele>78.0</ele><time>2026-04-28T09:11:13.677Z</time></trkpt><trkpt lat="48.381945" lon="-4.3373567"><ele>77.0</ele><time>2026-04-28T09:11:14.685Z</time></trkpt><trkpt lat="48.3820433" lon="-4.3371633"><ele>75.33333333333334</ele><time>2026-04-28T09:11:15.68Z</time></trkpt><trkpt lat="48.38214" lon="-4.336965"><ele>73.66666666666667</ele><time>2026-04-28T09:11:16.679Z</time></trkpt><trkpt lat="48.3822367" lon="-4.33676"><ele>72.0</ele><time>2026-04-28T09:11:17.686Z</time></trkpt><trkpt lat="48.382325" lon="-4.3365483"><ele>71.0</ele><time>2026-04-28T09:11:18.681Z</time></trkpt><trkpt lat="48.382405" lon="-4.3363283"><ele>70.0</ele><time>2026-04-28T09:11:19.678Z</time></trkpt><trkpt lat="48.3824733" lon="-4.3361"><ele>69.0</ele><time>2026-04-28T09:11:20.686Z</time></trkpt><trkpt lat="48.3825283" lon="-4.3358617"><ele>69.0</ele><time>2026-04-28T09:11:21.68Z</time></trkpt><trkpt lat="48.3825683" lon="-4.33562"><ele>69.0</ele><time>2026-04-28T09:11:22.677Z</time></trkpt><trkpt lat="48.3825933" lon="-4.3353717"><ele>69.0</ele><time>2026-04-28T09:11:23.681Z</time></trkpt><trkpt lat="48.3826017" lon="-4.3351183"><ele>68.66666666666667</ele><time>2026-04-28T09:11:24.677Z</time></trkpt><trkpt lat="48.3825917" lon="-4.3348583"><ele>68.33333333333334</ele><time>2026-04-28T09:11:25.681Z</time></trkpt><trkpt lat="48.3825567" lon="-4.334595"><ele>68.0</ele><time>2026-04-28T09:11:26.687Z</time></trkpt><trkpt lat="48.382505" lon="-4.33433"><ele>68.33333333333334</ele><time>2026-04-28T09:11:27.682Z</time></trkpt><trkpt lat="48.3824417" lon="-4.3340683"><ele>68.66666666666667</ele><time>2026-04-28T09:11:28.679Z</time></trkpt><trkpt lat="48.3823667" lon="-4.333815"><ele>69.0</ele><time>2026-04-28T09:11:29.68Z</time></trkpt><trkpt lat="48.3822917" lon="-4.33357"><ele>69.0</ele><time>2026-04-28T09:11:30.683Z</time></trkpt><trkpt lat="48.3822133" lon="-4.3333283"><ele>69.0</ele><time>2026-04-28T09:11:31.683Z</time></trkpt><trkpt lat="48.3821333" lon="-4.3330883"><ele>69.0</ele><time>2026-04-28T09:11:32.683Z</time></trkpt><trkpt lat="48.3820533" lon="-4.33285"><ele>68.33333333333333</ele><time>2026-04-28T09:11:33.683Z</time></trkpt><trkpt lat="48.3819767" lon="-4.33261"><ele>67.66666666666666</ele><time>2026-04-28T09:11:34.68Z</time></trkpt><trkpt lat="48.3819017" lon="-4.3323717"><ele>67.0</ele><time>2026-04-28T09:11:35.682Z</time></trkpt><trkpt lat="48.381825" lon="-4.3321317"><ele>67.0</ele><time>2026-04-28T09:11:36.679Z</time></trkpt><trkpt lat="48.3817417" lon="-4.33189"><ele>67.0</ele><time>2026-04-28T09:11:37.683Z</time></trkpt><trkpt lat="48.3816533" lon="-4.3316583"><ele>67.0</ele><time>2026-04-28T09:11:38.683Z</time></trkpt><trkpt lat="48.381555" lon="-4.3314433"><ele>67.66666666666666</ele><time>2026-04-28T09:11:39.681Z</time></trkpt><trkpt lat="48.381445" lon="-4.33124"><ele>68.33333333333333</ele><time>2026-04-28T09:11:40.676Z</time></trkpt><trkpt lat="48.3813283" lon="-4.3310383"><ele>69.0</ele><time>2026-04-28T09:11:41.681Z</time></trkpt><trkpt lat="48.381205" lon="-4.3308483"><ele>65.33333333333333</ele><time>2026-04-28T09:11:42.68Z</time></trkpt><trkpt lat="48.3810767" lon="-4.33066"><ele>61.666666666666664</ele><time>2026-04-28T09:11:43.683Z</time></trkpt><trkpt lat="48.380945" lon="-4.33047"><ele>58.0</ele><time>2026-04-28T09:11:44.679Z</time></trkpt><trkpt lat="48.38082" lon="-4.33028"><ele>58.0</ele><time>2026-04-28T09:11:45.682Z</time></trkpt><trkpt lat="48.3806933" lon="-4.3300917"><ele>58.0</ele><time>2026-04-28T09:11:46.677Z</time></trkpt><trkpt lat="48.3805683" lon="-4.3299067"><ele>58.0</ele><time>2026-04-28T09:11:47.679Z</time></trkpt><trkpt lat="48.3804433" lon="-4.3297217"><ele>55.33333333333333</ele><time>2026-04-28T09:11:48.682Z</time></trkpt><trkpt lat="48.3803217" lon="-4.3295367"><ele>52.66666666666667</ele><time>2026-04-28T09:11:49.682Z</time></trkpt><trkpt lat="48.380205" lon="-4.3293467"><ele>50.0</ele><time>2026-04-28T09:11:50.681Z</time></trkpt><trkpt lat="48.3800933" lon="-4.32915"><ele>50.0</ele><time>2026-04-28T09:11:51.68Z</time></trkpt><trkpt lat="48.379985" lon="-4.3289483"><ele>50.0</ele><time>2026-04-28T09:11:52.679Z</time></trkpt><trkpt lat="48.37988" lon="-4.32874"><ele>50.0</ele><time>2026-04-28T09:11:53.685Z</time></trkpt><trkpt lat="48.379775" lon="-4.328525"><ele>50.333333333333336</ele><time>2026-04-28T09:11:54.678Z</time></trkpt><trkpt lat="48.379675" lon="-4.3283117"><ele>50.66666666666667</ele><time>2026-04-28T09:11:55.674Z</time></trkpt><trkpt lat="48.3795767" lon="-4.328095"><ele>51.0</ele><time>2026-04-28T09:11:56.682Z</time></trkpt><trkpt lat="48.379485" lon="-4.3278767"><ele>51.33333333333333</ele><time>2026-04-28T09:11:57.678Z</time></trkpt><trkpt lat="48.3794017" lon="-4.327655"><ele>51.666666666666664</ele><time>2026-04-28T09:11:58.678Z</time></trkpt><trkpt lat="48.3793267" lon="-4.3274283"><ele>52.0</ele><time>2026-04-28T09:11:59.682Z</time></trkpt><trkpt lat="48.379265" lon="-4.327195"><ele>51.0</ele><time>2026-04-28T09:12:00.675Z</time></trkpt><trkpt lat="48.3792133" lon="-4.326955"><ele>50.0</ele><time>2026-04-28T09:12:01.68Z</time></trkpt><trkpt lat="48.3791733" lon="-4.3267067"><ele>49.0</ele><time>2026-04-28T09:12:02.681Z</time></trkpt><trkpt lat="48.3791467" lon="-4.3264533"><ele>48.33333333333333</ele><time>2026-04-28T09:12:03.681Z</time></trkpt><trkpt lat="48.37913" lon="-4.3261917"><ele>47.666666666666664</ele><time>2026-04-28T09:12:04.68Z</time></trkpt><trkpt lat="48.37912" lon="-4.3259217"><ele>47.0</ele><time>2026-04-28T09:12:05.679Z</time></trkpt><trkpt lat="48.379115" lon="-4.32565"><ele>45.666666666666664</ele><time>2026-04-28T09:12:06.681Z</time></trkpt><trkpt lat="48.3791183" lon="-4.3253733"><ele>44.333333333333336</ele><time>2026-04-28T09:12:07.675Z</time></trkpt><trkpt lat="48.3791217" lon="-4.3251"><ele>43.0</ele><time>2026-04-28T09:12:08.685Z</time></trkpt><trkpt lat="48.3791267" lon="-4.3248283"><ele>42.333333333333336</ele><time>2026-04-28T09:12:09.681Z</time></trkpt><trkpt lat="48.379125" lon="-4.32456"><ele>41.666666666666664</ele><time>2026-04-28T09:12:10.68Z</time></trkpt><trkpt lat="48.3791267" lon="-4.3242933"><ele>41.0</ele><time>2026-04-28T09:12:11.678Z</time></trkpt><trkpt lat="48.3791267" lon="-4.3240283"><ele>40.666666666666664</ele><time>2026-04-28T09:12:12.681Z</time></trkpt><trkpt lat="48.3791283" lon="-4.323765"><ele>40.333333333333336</ele><time>2026-04-28T09:12:13.682Z</time></trkpt><trkpt lat="48.3791283" lon="-4.3235067"><ele>40.0</ele><time>2026-04-28T09:12:14.682Z</time></trkpt><trkpt lat="48.3791267" lon="-4.3232517"><ele>40.0</ele><time>2026-04-28T09:12:15.678Z</time></trkpt><trkpt lat="48.3791217" lon="-4.3229983"><ele>40.0</ele><time>2026-04-28T09:12:16.672Z</time></trkpt><trkpt lat="48.3791133" lon="-4.322745"><ele>40.0</ele><time>2026-04-28T09:12:17.682Z</time></trkpt><trkpt lat="48.37909" lon="-4.3224917"><ele>40.0</ele><time>2026-04-28T09:12:18.68Z</time></trkpt><trkpt lat="48.379055" lon="-4.32224"><ele>40.0</ele><time>2026-04-28T09:12:19.683Z</time></trkpt><trkpt lat="48.379005" lon="-4.3219917"><ele>40.0</ele><time>2026-04-28T09:12:20.683Z</time></trkpt><trkpt lat="48.37894" lon="-4.3217467"><ele>40.333333333333336</ele><time>2026-04-28T09:12:21.678Z</time></trkpt><trkpt lat="48.3788633" lon="-4.3215083"><ele>40.666666666666664</ele><time>2026-04-28T09:12:22.678Z</time></trkpt><trkpt lat="48.3787717" lon="-4.321275"><ele>41.0</ele><time>2026-04-28T09:12:23.677Z</time></trkpt><trkpt lat="48.3786683" lon="-4.32105"><ele>40.0</ele><time>2026-04-28T09:12:24.681Z</time></trkpt><trkpt lat="48.378565" lon="-4.3208283"><ele>39.0</ele><time>2026-04-28T09:12:25.678Z</time></trkpt><trkpt lat="48.3784633" lon="-4.320615"><ele>38.0</ele><time>2026-04-28T09:12:26.685Z</time></trkpt><trkpt lat="48.3783667" lon="-4.3204"><ele>38.0</ele><time>2026-04-28T09:12:27.682Z</time></trkpt><trkpt lat="48.3782783" lon="-4.3201833"><ele>38.0</ele><time>2026-04-28T09:12:28.681Z</time></trkpt><trkpt lat="48.3782" lon="-4.3199633"><ele>38.0</ele><time>2026-04-28T09:12:29.682Z</time></trkpt><trkpt lat="48.3781283" lon="-4.3197367"><ele>38.33333333333333</ele><time>2026-04-28T09:12:30.68Z</time></trkpt><trkpt lat="48.3780717" lon="-4.3195067"><ele>38.666666666666664</ele><time>2026-04-28T09:12:31.681Z</time></trkpt><trkpt lat="48.37803" lon="-4.3192767"><ele>39.0</ele><time>2026-04-28T09:12:32.683Z</time></trkpt><trkpt lat="48.377995" lon="-4.3190417"><ele>41.75</ele><time>2026-04-28T09:12:33.684Z</time></trkpt><trkpt lat="48.3779733" lon="-4.3188117"><ele>44.5</ele><time>2026-04-28T09:12:34.68Z</time></trkpt><trkpt lat="48.37796" lon="-4.3185983"><ele>47.25</ele><time>2026-04-28T09:12:35.678Z</time></trkpt><trkpt lat="48.37795" lon="-4.3183967"><ele>50.0</ele><time>2026-04-28T09:12:36.679Z</time></trkpt><trkpt lat="48.3779383" lon="-4.3182033"><ele>50.5</ele><time>2026-04-28T09:12:37.681Z</time></trkpt><trkpt lat="48.3779267" lon="-4.3180117"><ele>51.0</ele><time>2026-04-28T09:12:38.681Z</time></trkpt><trkpt lat="48.3779133" lon="-4.3178217"><ele>51.5</ele><time>2026-04-28T09:12:39.678Z</time></trkpt><trkpt lat="48.3778983" lon="-4.3176383"><ele>52.0</ele><time>2026-04-28T09:12:40.677Z</time></trkpt><trkpt lat="48.3778833" lon="-4.317455"><ele>52.0</ele><time>2026-04-28T09:12:41.679Z</time></trkpt><trkpt lat="48.37787" lon="-4.3172683"><ele>52.0</ele><time>2026-04-28T09:12:42.675Z</time></trkpt><trkpt lat="48.3778517" lon="-4.3170783"><ele>52.0</ele><time>2026-04-28T09:12:43.683Z</time></trkpt><trkpt lat="48.377835" lon="-4.3168867"><ele>52.0</ele><time>2026-04-28T09:12:44.685Z</time></trkpt><trkpt lat="48.3778217" lon="-4.3166967"><ele>52.25</ele><time>2026-04-28T09:12:45.689Z</time></trkpt><trkpt lat="48.3778083" lon="-4.316505"><ele>52.5</ele><time>2026-04-28T09:12:46.683Z</time></trkpt><trkpt lat="48.3777967" lon="-4.3163133"><ele>52.75</ele><time>2026-04-28T09:12:47.681Z</time></trkpt><trkpt lat="48.3777883" lon="-4.3161217"><ele>53.0</ele><time>2026-04-28T09:12:48.677Z</time></trkpt><trkpt lat="48.3777833" lon="-4.3159317"><ele>53.25</ele><time>2026-04-28T09:12:49.682Z</time></trkpt><trkpt lat="48.3777883" lon="-4.3157367"><ele>53.5</ele><time>2026-04-28T09:12:50.679Z</time></trkpt><trkpt lat="48.3777983" lon="-4.3155417"><ele>53.75</ele><time>2026-04-28T09:12:51.68Z</time></trkpt><trkpt lat="48.377815" lon="-4.3153483"><ele>54.0</ele><time>2026-04-28T09:12:52.68Z</time></trkpt><trkpt lat="48.377835" lon="-4.3151533"><ele>56.0</ele><time>2026-04-28T09:12:53.682Z</time></trkpt><trkpt lat="48.3778567" lon="-4.31496"><ele>58.0</ele><time>2026-04-28T09:12:54.683Z</time></trkpt><trkpt lat="48.3778783" lon="-4.3147683"><ele>60.0</ele><time>2026-04-28T09:12:55.679Z</time></trkpt><trkpt lat="48.3778983" lon="-4.31458"><ele>62.0</ele><time>2026-04-28T09:12:56.677Z</time></trkpt><trkpt lat="48.377915" lon="-4.3143883"><ele>62.5</ele><time>2026-04-28T09:12:57.682Z</time></trkpt><trkpt lat="48.3779183" lon="-4.314195"><ele>63.0</ele><time>2026-04-28T09:12:58.674Z</time></trkpt><trkpt lat="48.3779167" lon="-4.3140033"><ele>63.5</ele><time>2026-04-28T09:12:59.679Z</time></trkpt><trkpt lat="48.3779117" lon="-4.3138133"><ele>64.0</ele><time>2026-04-28T09:13:00.679Z</time></trkpt><trkpt lat="48.3779083" lon="-4.3136267"><ele>64.0</ele><time>2026-04-28T09:13:01.675Z</time></trkpt><trkpt lat="48.3779033" lon="-4.313445"><ele>64.0</ele><time>2026-04-28T09:13:02.678Z</time></trkpt><trkpt lat="48.3778883" lon="-4.31326"><ele>64.0</ele><time>2026-04-28T09:13:03.681Z</time></trkpt><trkpt lat="48.3778767" lon="-4.313075"><ele>64.0</ele><time>2026-04-28T09:13:04.682Z</time></trkpt><trkpt lat="48.37787" lon="-4.31289"><ele>64.0</ele><time>2026-04-28T09:13:05.68Z</time></trkpt><trkpt lat="48.3778633" lon="-4.312705"><ele>64.0</ele><time>2026-04-28T09:13:06.678Z</time></trkpt><trkpt lat="48.3778533" lon="-4.3125217"><ele>64.0</ele><time>2026-04-28T09:13:07.678Z</time></trkpt><trkpt lat="48.37784" lon="-4.3123467"><ele>64.0</ele><time>2026-04-28T09:13:08.678Z</time></trkpt><trkpt lat="48.37783" lon="-4.3121833"><ele>63.99999999999999</ele><time>2026-04-28T09:13:09.68Z</time></trkpt><trkpt lat="48.377825" lon="-4.312035"><ele>64.0</ele><time>2026-04-28T09:13:10.676Z</time></trkpt><trkpt lat="48.377815" lon="-4.311905"><ele>64.0</ele><time>2026-04-28T09:13:11.678Z</time></trkpt><trkpt lat="48.3778067" lon="-4.3117933"><ele>64.0</ele><time>2026-04-28T09:13:12.678Z</time></trkpt><trkpt lat="48.3777983" lon="-4.311695"><ele>63.99999999999999</ele><time>2026-04-28T09:13:13.681Z</time></trkpt><trkpt lat="48.37778" lon="-4.3115117"><ele>64.0</ele><time>2026-04-28T09:13:15.672Z</time></trkpt><trkpt lat="48.377815" lon="-4.31135"><ele>63.99999999999999</ele><time>2026-04-28T09:13:17.677Z</time></trkpt><trkpt lat="48.3778733" lon="-4.3113017"><ele>64.0</ele><time>2026-04-28T09:13:18.679Z</time></trkpt><trkpt lat="48.3779533" lon="-4.3112483"><ele>64.0</ele><time>2026-04-28T09:13:19.677Z</time></trkpt><trkpt lat="48.378035" lon="-4.3111833"><ele>64.0</ele><time>2026-04-28T09:13:20.685Z</time></trkpt><trkpt lat="48.37812" lon="-4.3111283"><ele>63.99999999999999</ele><time>2026-04-28T09:13:21.679Z</time></trkpt><trkpt lat="48.37821" lon="-4.31107"><ele>64.0</ele><time>2026-04-28T09:13:22.685Z</time></trkpt><trkpt lat="48.378305" lon="-4.3110133"><ele>64.60000000000001</ele><time>2026-04-28T09:13:23.677Z</time></trkpt><trkpt lat="48.3784083" lon="-4.3109683"><ele>65.2</ele><time>2026-04-28T09:13:24.68Z</time></trkpt><trkpt lat="48.3785117" lon="-4.3109383"><ele>65.80000000000001</ele><time>2026-04-28T09:13:25.677Z</time></trkpt><trkpt lat="48.3786133" lon="-4.31092"><ele>66.4</ele><time>2026-04-28T09:13:26.677Z</time></trkpt><trkpt lat="48.378715" lon="-4.3109033"><ele>67.0</ele><time>2026-04-28T09:13:27.675Z</time></trkpt><trkpt lat="48.378815" lon="-4.31088"><ele>68.0</ele><time>2026-04-28T09:13:28.677Z</time></trkpt><trkpt lat="48.3789133" lon="-4.3108583"><ele>69.0</ele><time>2026-04-28T09:13:29.681Z</time></trkpt><trkpt lat="48.379005" lon="-4.3108433"><ele>70.0</ele><time>2026-04-28T09:13:30.68Z</time></trkpt><trkpt lat="48.3790967" lon="-4.31082"><ele>71.0</ele><time>2026-04-28T09:13:31.679Z</time></trkpt><trkpt lat="48.3791817" lon="-4.310785"><ele>72.0</ele><time>2026-04-28T09:13:32.683Z</time></trkpt><trkpt lat="48.379255" lon="-4.3107533"><ele>73.0</ele><time>2026-04-28T09:13:33.682Z</time></trkpt><trkpt lat="48.3793183" lon="-4.3107233"><ele>73.0</ele><time>2026-04-28T09:13:34.679Z</time></trkpt><trkpt lat="48.37938" lon="-4.310675"><ele>73.0</ele><time>2026-04-28T09:13:35.681Z</time></trkpt><trkpt lat="48.3794483" lon="-4.310605"><ele>73.0</ele><time>2026-04-28T09:13:36.678Z</time></trkpt><trkpt lat="48.3795217" lon="-4.3105183"><ele>73.0</ele><time>2026-04-28T09:13:37.681Z</time></trkpt><trkpt lat="48.3795983" lon="-4.3104317"><ele>73.0</ele><time>2026-04-28T09:13:38.678Z</time></trkpt><trkpt lat="48.3796767" lon="-4.3103383"><ele>73.0</ele><time>2026-04-28T09:13:39.681Z</time></trkpt><trkpt lat="48.3797667" lon="-4.310235"><ele>73.0</ele><time>2026-04-28T09:13:40.677Z</time></trkpt><trkpt lat="48.3798633" lon="-4.31012"><ele>73.0</ele><time>2026-04-28T09:13:41.679Z</time></trkpt><trkpt lat="48.3799617" lon="-4.3100033"><ele>73.0</ele><time>2026-04-28T09:13:42.681Z</time></trkpt><trkpt lat="48.380065" lon="-4.3098883"><ele>73.0</ele><time>2026-04-28T09:13:43.681Z</time></trkpt><trkpt lat="48.3801683" lon="-4.309765"><ele>73.25</ele><time>2026-04-28T09:13:44.682Z</time></trkpt><trkpt lat="48.3802733" lon="-4.3096417"><ele>73.5</ele><time>2026-04-28T09:13:45.683Z</time></trkpt><trkpt lat="48.3803817" lon="-4.30952"><ele>73.75</ele><time>2026-04-28T09:13:46.678Z</time></trkpt><trkpt lat="48.3804833" lon="-4.3094"><ele>74.0</ele><time>2026-04-28T09:13:47.676Z</time></trkpt><trkpt lat="48.3805833" lon="-4.3092833"><ele>74.0</ele><time>2026-04-28T09:13:48.676Z</time></trkpt><trkpt lat="48.3806833" lon="-4.3091683"><ele>74.0</ele><time>2026-04-28T09:13:49.676Z</time></trkpt><trkpt lat="48.3807817" lon="-4.30905"><ele>74.0</ele><time>2026-04-28T09:13:50.68Z</time></trkpt><trkpt lat="48.3808783" lon="-4.3089283"><ele>74.0</ele><time>2026-04-28T09:13:51.678Z</time></trkpt><trkpt lat="48.3809683" lon="-4.308795"><ele>74.0</ele><time>2026-04-28T09:13:52.678Z</time></trkpt><trkpt lat="48.3810533" lon="-4.3086517"><ele>74.0</ele><time>2026-04-28T09:13:53.677Z</time></trkpt><trkpt lat="48.38113" lon="-4.3085067"><ele>74.0</ele><time>2026-04-28T09:13:54.677Z</time></trkpt><trkpt lat="48.3812017" lon="-4.3083683"><ele>74.0</ele><time>2026-04-28T09:13:55.679Z</time></trkpt><trkpt lat="48.3812683" lon="-4.3082433"><ele>74.0</ele><time>2026-04-28T09:13:56.677Z</time></trkpt><trkpt lat="48.3813217" lon="-4.3081267"><ele>74.0</ele><time>2026-04-28T09:13:57.678Z</time></trkpt><trkpt lat="48.3813633" lon="-4.3080167"><ele>74.0</ele><time>2026-04-28T09:13:58.678Z</time></trkpt><trkpt lat="48.3813933" lon="-4.3079133"><ele>74.0</ele><time>2026-04-28T09:13:59.679Z</time></trkpt><trkpt lat="48.38142" lon="-4.3078117"><ele>74.0</ele><time>2026-04-28T09:14:00.676Z</time></trkpt><trkpt lat="48.38146" lon="-4.3077133"><ele>74.0</ele><time>2026-04-28T09:14:01.676Z</time></trkpt><trkpt lat="48.3815167" lon="-4.3076233"><ele>73.60000000000001</ele><time>2026-04-28T09:14:02.676Z</time></trkpt><trkpt lat="48.38158" lon="-4.307535"><ele>73.2</ele><time>2026-04-28T09:14:03.676Z</time></trkpt><trkpt lat="48.3816433" lon="-4.3074283"><ele>72.80000000000001</ele><time>2026-04-28T09:14:04.675Z</time></trkpt><trkpt lat="48.381705" lon="-4.3073133"><ele>72.4</ele><time>2026-04-28T09:14:05.677Z</time></trkpt><trkpt lat="48.381755" lon="-4.307195"><ele>72.0</ele><time>2026-04-28T09:14:06.68Z</time></trkpt><trkpt lat="48.3817933" lon="-4.3070833"><ele>71.83333333333333</ele><time>2026-04-28T09:14:07.677Z</time></trkpt><trkpt lat="48.3818233" lon="-4.30697"><ele>71.66666666666667</ele><time>2026-04-28T09:14:08.679Z</time></trkpt><trkpt lat="48.3818333" lon="-4.3068567"><ele>71.5</ele><time>2026-04-28T09:14:09.682Z</time></trkpt><trkpt lat="48.3818217" lon="-4.3067367"><ele>71.33333333333334</ele><time>2026-04-28T09:14:10.678Z</time></trkpt><trkpt lat="48.381805" lon="-4.3066133"><ele>71.16666666666667</ele><time>2026-04-28T09:14:11.679Z</time></trkpt><trkpt lat="48.3818067" lon="-4.3064967"><ele>71.0</ele><time>2026-04-28T09:14:12.677Z</time></trkpt><trkpt lat="48.381825" lon="-4.3063817"><ele>70.66666666666667</ele><time>2026-04-28T09:14:13.676Z</time></trkpt><trkpt lat="48.3818783" lon="-4.3062933"><ele>70.33333333333334</ele><time>2026-04-28T09:14:14.678Z</time></trkpt><trkpt lat="48.38196" lon="-4.3062517"><ele>70.0</ele><time>2026-04-28T09:14:15.675Z</time></trkpt><trkpt lat="48.3820433" lon="-4.3062367"><ele>69.66666666666667</ele><time>2026-04-28T09:14:16.678Z</time></trkpt><trkpt lat="48.38213" lon="-4.3062167"><ele>69.33333333333333</ele><time>2026-04-28T09:14:17.676Z</time></trkpt><trkpt lat="48.3822233" lon="-4.3061767"><ele>69.0</ele><time>2026-04-28T09:14:18.679Z</time></trkpt><trkpt lat="48.38231" lon="-4.3061067"><ele>68.60000000000001</ele><time>2026-04-28T09:14:19.677Z</time></trkpt><trkpt lat="48.3823933" lon="-4.3060267"><ele>68.2</ele><time>2026-04-28T09:14:20.682Z</time></trkpt><trkpt lat="48.382475" lon="-4.3059433"><ele>67.80000000000001</ele><time>2026-04-28T09:14:21.678Z</time></trkpt><trkpt lat="48.3825517" lon="-4.3058567"><ele>67.4</ele><time>2026-04-28T09:14:22.68Z</time></trkpt><trkpt lat="48.3826267" lon="-4.305765"><ele>67.0</ele><time>2026-04-28T09:14:23.684Z</time></trkpt><trkpt lat="48.3826883" lon="-4.3056617"><ele>66.66666666666666</ele><time>2026-04-28T09:14:24.681Z</time></trkpt><trkpt lat="48.38273" lon="-4.3055433"><ele>66.33333333333333</ele><time>2026-04-28T09:14:25.676Z</time></trkpt><trkpt lat="48.382755" lon="-4.305415"><ele>66.0</ele><time>2026-04-28T09:14:26.677Z</time></trkpt><trkpt lat="48.3827883" lon="-4.3052917"><ele>65.66666666666667</ele><time>2026-04-28T09:14:27.675Z</time></trkpt><trkpt lat="48.382835" lon="-4.305185"><ele>65.33333333333334</ele><time>2026-04-28T09:14:28.681Z</time></trkpt><trkpt lat="48.3829167" lon="-4.3051117"><ele>65.0</ele><time>2026-04-28T09:14:29.677Z</time></trkpt><trkpt lat="48.3830333" lon="-4.305085"><ele>65.0</ele><time>2026-04-28T09:14:30.681Z</time></trkpt><trkpt lat="48.3831467" lon="-4.305055"><ele>65.0</ele><time>2026-04-28T09:14:31.676Z</time></trkpt><trkpt lat="48.38326" lon="-4.3050083"><ele>65.0</ele><time>2026-04-28T09:14:32.68Z</time></trkpt><trkpt lat="48.3833683" lon="-4.304945"><ele>65.0</ele><time>2026-04-28T09:14:33.676Z</time></trkpt><trkpt lat="48.3834767" lon="-4.30487"><ele>65.0</ele><time>2026-04-28T09:14:34.674Z</time></trkpt><trkpt lat="48.3835883" lon="-4.3047867"><ele>65.0</ele><time>2026-04-28T09:14:35.676Z</time></trkpt><trkpt lat="48.3837033" lon="-4.3046883"><ele>65.0</ele><time>2026-04-28T09:14:36.674Z</time></trkpt><trkpt lat="48.3838217" lon="-4.3045767"><ele>65.0</ele><time>2026-04-28T09:14:37.684Z</time></trkpt><trkpt lat="48.38394" lon="-4.3044583"><ele>65.0</ele><time>2026-04-28T09:14:38.68Z</time></trkpt><trkpt lat="48.384055" lon="-4.30434"><ele>65.0</ele><time>2026-04-28T09:14:39.678Z</time></trkpt><trkpt lat="48.3841667" lon="-4.3042217"><ele>65.0</ele><time>2026-04-28T09:14:40.676Z</time></trkpt><trkpt lat="48.3842717" lon="-4.304105"><ele>65.0</ele><time>2026-04-28T09:14:41.679Z</time></trkpt><trkpt lat="48.3843717" lon="-4.3039933"><ele>65.25</ele><time>2026-04-28T09:14:42.678Z</time></trkpt><trkpt lat="48.38447" lon="-4.303885"><ele>65.5</ele><time>2026-04-28T09:14:43.679Z</time></trkpt><trkpt lat="48.384565" lon="-4.3037833"><ele>65.75</ele><time>2026-04-28T09:14:44.677Z</time></trkpt><trkpt lat="48.38466" lon="-4.3036917"><ele>66.0</ele><time>2026-04-28T09:14:45.675Z</time></trkpt><trkpt lat="48.384745" lon="-4.303615"><ele>66.83333333333333</ele><time>2026-04-28T09:14:46.678Z</time></trkpt><trkpt lat="48.3848167" lon="-4.30354"><ele>67.66666666666667</ele><time>2026-04-28T09:14:47.675Z</time></trkpt><trkpt lat="48.38487" lon="-4.3034567"><ele>68.5</ele><time>2026-04-28T09:14:48.675Z</time></trkpt><trkpt lat="48.3849083" lon="-4.30336"><ele>69.33333333333334</ele><time>2026-04-28T09:14:49.678Z</time></trkpt><trkpt lat="48.3849333" lon="-4.3032567"><ele>70.16666666666667</ele><time>2026-04-28T09:14:50.68Z</time></trkpt><trkpt lat="48.38495" lon="-4.3031533"><ele>71.0</ele><time>2026-04-28T09:14:51.678Z</time></trkpt><trkpt lat="48.3849667" lon="-4.3030467"><ele>71.5</ele><time>2026-04-28T09:14:52.677Z</time></trkpt><trkpt lat="48.3849867" lon="-4.302935"><ele>72.0</ele><time>2026-04-28T09:14:53.676Z</time></trkpt><trkpt lat="48.385005" lon="-4.3028233"><ele>72.5</ele><time>2026-04-28T09:14:54.679Z</time></trkpt><trkpt lat="48.385025" lon="-4.3027233"><ele>73.0</ele><time>2026-04-28T09:14:55.682Z</time></trkpt><trkpt lat="48.3850617" lon="-4.3025567"><ele>73.5</ele><time>2026-04-28T09:14:57.678Z</time></trkpt><trkpt lat="48.3850883" lon="-4.3024617"><ele>74.0</ele><time>2026-04-28T09:14:58.679Z</time></trkpt><trkpt lat="48.3851167" lon="-4.302355"><ele>74.33333333333334</ele><time>2026-04-28T09:14:59.677Z</time></trkpt><trkpt lat="48.38515" lon="-4.3022467"><ele>74.66666666666667</ele><time>2026-04-28T09:15:00.678Z</time></trkpt><trkpt lat="48.3851783" lon="-4.3021483"><ele>75.0</ele><time>2026-04-28T09:15:01.683Z</time></trkpt><trkpt lat="48.3852267" lon="-4.3020033"><ele>75.33333333333333</ele><time>2026-04-28T09:15:03.675Z</time></trkpt><trkpt lat="48.3852467" lon="-4.301885"><ele>75.66666666666666</ele><time>2026-04-28T09:15:05.676Z</time></trkpt><trkpt lat="48.3852383" lon="-4.3017767"><ele>76.0</ele><time>2026-04-28T09:15:07.679Z</time></trkpt><trkpt lat="48.3852" lon="-4.301665"><ele>76.0</ele><time>2026-04-28T09:15:09.684Z</time></trkpt><trkpt lat="48.3851217" lon="-4.30155"><ele>76.0</ele><time>2026-04-28T09:15:11.677Z</time></trkpt><trkpt lat="48.3850267" lon="-4.30142"><ele>76.0</ele><time>2026-04-28T09:15:13.678Z</time></trkpt><trkpt lat="48.3849717" lon="-4.3012733"><ele>76.0</ele><time>2026-04-28T09:15:15.678Z</time></trkpt><trkpt lat="48.3849667" lon="-4.3011683"><ele>76.0</ele><time>2026-04-28T09:15:16.675Z</time></trkpt><trkpt lat="48.3849833" lon="-4.3009767"><ele>75.85714285714285</ele><time>2026-04-28T09:15:18.678Z</time></trkpt><trkpt lat="48.3850067" lon="-4.30088"><ele>75.71428571428572</ele><time>2026-04-28T09:15:19.678Z</time></trkpt><trkpt lat="48.38504" lon="-4.300775"><ele>75.57142857142857</ele><time>2026-04-28T09:15:20.679Z</time></trkpt><trkpt lat="48.3850717" lon="-4.300665"><ele>75.42857142857142</ele><time>2026-04-28T09:15:21.679Z</time></trkpt><trkpt lat="48.3851" lon="-4.3005567"><ele>75.28571428571428</ele><time>2026-04-28T09:15:22.678Z</time></trkpt><trkpt lat="48.3851217" lon="-4.3004567"><ele>75.14285714285714</ele><time>2026-04-28T09:15:23.678Z</time></trkpt><trkpt lat="48.385145" lon="-4.3003667"><ele>75.0</ele><time>2026-04-28T09:15:24.679Z</time></trkpt><trkpt lat="48.3851717" lon="-4.3002767"><ele>74.2</ele><time>2026-04-28T09:15:25.679Z</time></trkpt><trkpt lat="48.3852017" lon="-4.3001767"><ele>73.4</ele><time>2026-04-28T09:15:26.685Z</time></trkpt><trkpt lat="48.38523" lon="-4.3000833"><ele>72.6</ele><time>2026-04-28T09:15:27.678Z</time></trkpt><trkpt lat="48.385275" lon="-4.2999133"><ele>71.8</ele><time>2026-04-28T09:15:29.676Z</time></trkpt><trkpt lat="48.3853017" lon="-4.2997483"><ele>71.0</ele><time>2026-04-28T09:15:31.684Z</time></trkpt><trkpt lat="48.38532" lon="-4.2996017"><ele>71.0</ele><time>2026-04-28T09:15:33.676Z</time></trkpt><trkpt lat="48.3853367" lon="-4.2994883"><ele>71.0</ele><time>2026-04-28T09:15:35.678Z</time></trkpt><trkpt lat="48.3853517" lon="-4.2993933"><ele>71.0</ele><time>2026-04-28T09:15:37.681Z</time></trkpt><trkpt lat="48.385355" lon="-4.299285"><ele>71.0</ele><time>2026-04-28T09:15:40.681Z</time></trkpt><trkpt lat="48.3853117" lon="-4.2991583"><ele>71.0</ele><time>2026-04-28T09:16:37.677Z</time></trkpt><trkpt lat="48.385265" lon="-4.2990783"><ele>71.0</ele><time>2026-04-28T09:16:39.678Z</time></trkpt><trkpt lat="48.3852017" lon="-4.29898"><ele>71.5</ele><time>2026-04-28T09:16:41.677Z</time></trkpt><trkpt lat="48.385145" lon="-4.29888"><ele>72.0</ele><time>2026-04-28T09:16:43.678Z</time></trkpt><trkpt lat="48.38508" lon="-4.2987933"><ele>72.5</ele><time>2026-04-28T09:16:45.677Z</time></trkpt><trkpt lat="48.3850183" lon="-4.2987217"><ele>73.0</ele><time>2026-04-28T09:16:47.675Z</time></trkpt><trkpt lat="48.3849867" lon="-4.2986167"><ele>73.5</ele><time>2026-04-28T09:16:49.675Z</time></trkpt><trkpt lat="48.3849817" lon="-4.2984717"><ele>74.0</ele><time>2026-04-28T09:16:51.673Z</time></trkpt><trkpt lat="48.3849983" lon="-4.2983017"><ele>74.0</ele><time>2026-04-28T09:16:53.683Z</time></trkpt><trkpt lat="48.385025" lon="-4.298105"><ele>74.0</ele><time>2026-04-28T09:16:55.685Z</time></trkpt><trkpt lat="48.38503" lon="-4.2979883"><ele>74.0</ele><time>2026-04-28T09:16:56.685Z</time></trkpt><trkpt lat="48.3850333" lon="-4.2978817"><ele>74.0</ele><time>2026-04-28T09:16:57.68Z</time></trkpt><trkpt lat="48.3850433" lon="-4.2977733"><ele>74.0</ele><time>2026-04-28T09:16:58.679Z</time></trkpt><trkpt lat="48.3850567" lon="-4.2976717"><ele>74.0</ele><time>2026-04-28T09:16:59.677Z</time></trkpt><trkpt lat="48.3850717" lon="-4.29757"><ele>74.2</ele><time>2026-04-28T09:17:00.68Z</time></trkpt><trkpt lat="48.385085" lon="-4.29747"><ele>74.4</ele><time>2026-04-28T09:17:01.682Z</time></trkpt><trkpt lat="48.3851033" lon="-4.2973067"><ele>74.6</ele><time>2026-04-28T09:17:03.681Z</time></trkpt><trkpt lat="48.3851233" lon="-4.2971483"><ele>74.8</ele><time>2026-04-28T09:17:05.685Z</time></trkpt><trkpt lat="48.38516" lon="-4.296975"><ele>75.0</ele><time>2026-04-28T09:17:07.675Z</time></trkpt><trkpt lat="48.38518" lon="-4.2967933"><ele>74.25</ele><time>2026-04-28T09:17:09.68Z</time></trkpt><trkpt lat="48.3851767" lon="-4.2966233"><ele>73.5</ele><time>2026-04-28T09:17:11.678Z</time></trkpt><trkpt lat="48.38515" lon="-4.29646"><ele>72.75</ele><time>2026-04-28T09:17:13.679Z</time></trkpt><trkpt lat="48.3851133" lon="-4.2962983"><ele>72.0</ele><time>2026-04-28T09:17:15.68Z</time></trkpt><trkpt lat="48.3850783" lon="-4.2961317"><ele>71.25</ele><time>2026-04-28T09:17:17.682Z</time></trkpt><trkpt lat="48.3850533" lon="-4.29598"><ele>70.5</ele><time>2026-04-28T09:17:19.683Z</time></trkpt><trkpt lat="48.3850433" lon="-4.295825"><ele>69.75</ele><time>2026-04-28T09:17:21.677Z</time></trkpt><trkpt lat="48.3850233" lon="-4.29565"><ele>69.0</ele><time>2026-04-28T09:17:23.679Z</time></trkpt><trkpt lat="48.3850283" lon="-4.29546"><ele>68.4</ele><time>2026-04-28T09:17:25.681Z</time></trkpt><trkpt lat="48.385035" lon="-4.295365"><ele>67.80000000000001</ele><time>2026-04-28T09:17:26.678Z</time></trkpt><trkpt lat="48.385055" lon="-4.2951917"><ele>67.19999999999999</ele><time>2026-04-28T09:17:28.679Z</time></trkpt><trkpt lat="48.385085" lon="-4.295025"><ele>66.6</ele><time>2026-04-28T09:17:30.683Z</time></trkpt><trkpt lat="48.385125" lon="-4.2948517"><ele>66.0</ele><time>2026-04-28T09:17:32.683Z</time></trkpt><trkpt lat="48.3851333" lon="-4.294745"><ele>65.66666666666667</ele><time>2026-04-28T09:17:33.682Z</time></trkpt><trkpt lat="48.3851467" lon="-4.2946283"><ele>65.33333333333333</ele><time>2026-04-28T09:17:34.679Z</time></trkpt><trkpt lat="48.385155" lon="-4.294515"><ele>65.0</ele><time>2026-04-28T09:17:35.685Z</time></trkpt><trkpt lat="48.385155" lon="-4.2944067"><ele>64.66666666666666</ele><time>2026-04-28T09:17:36.68Z</time></trkpt><trkpt lat="48.38515" lon="-4.2942983"><ele>64.33333333333333</ele><time>2026-04-28T09:17:37.676Z</time></trkpt><trkpt lat="48.3851517" lon="-4.2942"><ele>64.0</ele><time>2026-04-28T09:17:38.684Z</time></trkpt><trkpt lat="48.3851433" lon="-4.294015"><ele>64.0</ele><time>2026-04-28T09:17:40.68Z</time></trkpt><trkpt lat="48.3851467" lon="-4.29392"><ele>63.99999999999999</ele><time>2026-04-28T09:17:41.682Z</time></trkpt><trkpt lat="48.385155" lon="-4.2938167"><ele>64.0</ele><time>2026-04-28T09:17:42.683Z</time></trkpt><trkpt lat="48.385165" lon="-4.29372"><ele>64.0</ele><time>2026-04-28T09:17:43.68Z</time></trkpt><trkpt lat="48.3851833" lon="-4.29362"><ele>63.99999999999999</ele><time>2026-04-28T09:17:44.682Z</time></trkpt><trkpt lat="48.3852017" lon="-4.2935283"><ele>64.0</ele><time>2026-04-28T09:17:45.679Z</time></trkpt><trkpt lat="48.3852317" lon="-4.2933567"><ele>64.0</ele><time>2026-04-28T09:17:47.679Z</time></trkpt><trkpt lat="48.3852533" lon="-4.2931733"><ele>63.857142857142854</ele><time>2026-04-28T09:17:49.677Z</time></trkpt><trkpt lat="48.3852567" lon="-4.293075"><ele>63.71428571428571</ele><time>2026-04-28T09:17:50.682Z</time></trkpt><trkpt lat="48.385255" lon="-4.2929583"><ele>63.57142857142857</ele><time>2026-04-28T09:17:51.679Z</time></trkpt><trkpt lat="48.3852517" lon="-4.29285"><ele>63.42857142857143</ele><time>2026-04-28T09:17:52.682Z</time></trkpt><trkpt lat="48.3852467" lon="-4.2927483"><ele>63.285714285714285</ele><time>2026-04-28T09:17:53.681Z</time></trkpt><trkpt lat="48.3852367" lon="-4.2926333"><ele>63.14285714285714</ele><time>2026-04-28T09:17:54.687Z</time></trkpt><trkpt lat="48.3852283" lon="-4.2925083"><ele>63.0</ele><time>2026-04-28T09:17:55.684Z</time></trkpt><trkpt lat="48.3852233" lon="-4.2923783"><ele>63.166666666666664</ele><time>2026-04-28T09:17:56.681Z</time></trkpt><trkpt lat="48.3852267" lon="-4.29225"><ele>63.33333333333333</ele><time>2026-04-28T09:17:57.68Z</time></trkpt><trkpt lat="48.38522" lon="-4.2920883"><ele>63.5</ele><time>2026-04-28T09:17:58.681Z</time></trkpt><trkpt lat="48.38522" lon="-4.291975"><ele>63.666666666666664</ele><time>2026-04-28T09:17:59.69Z</time></trkpt><trkpt lat="48.3852183" lon="-4.2918717"><ele>63.83333333333333</ele><time>2026-04-28T09:18:00.686Z</time></trkpt><trkpt lat="48.3852167" lon="-4.291775"><ele>64.0</ele><time>2026-04-28T09:18:01.679Z</time></trkpt><trkpt lat="48.3852" lon="-4.29159"><ele>64.5</ele><time>2026-04-28T09:18:03.678Z</time></trkpt><trkpt lat="48.3851733" lon="-4.2914167"><ele>65.0</ele><time>2026-04-28T09:18:05.679Z</time></trkpt><trkpt lat="48.3851233" lon="-4.291255"><ele>65.5</ele><time>2026-04-28T09:18:07.674Z</time></trkpt><trkpt lat="48.3850717" lon="-4.2910983"><ele>66.0</ele><time>2026-04-28T09:18:09.678Z</time></trkpt><trkpt lat="48.3850217" lon="-4.2909583"><ele>66.0</ele><time>2026-04-28T09:18:11.682Z</time></trkpt><trkpt lat="48.384985" lon="-4.2908283"><ele>66.0</ele><time>2026-04-28T09:18:13.676Z</time></trkpt><trkpt lat="48.38495" lon="-4.29066"><ele>66.0</ele><time>2026-04-28T09:18:15.68Z</time></trkpt><trkpt lat="48.38493" lon="-4.2904817"><ele>66.0</ele><time>2026-04-28T09:18:17.679Z</time></trkpt><trkpt lat="48.3849183" lon="-4.2903867"><ele>66.0</ele><time>2026-04-28T09:18:18.679Z</time></trkpt><trkpt lat="48.3848983" lon="-4.2902267"><ele>66.16666666666667</ele><time>2026-04-28T09:18:20.681Z</time></trkpt><trkpt lat="48.384905" lon="-4.2900417"><ele>66.33333333333333</ele><time>2026-04-28T09:18:22.681Z</time></trkpt><trkpt lat="48.384915" lon="-4.2899383"><ele>66.5</ele><time>2026-04-28T09:18:23.679Z</time></trkpt><trkpt lat="48.3849217" lon="-4.2898317"><ele>66.66666666666666</ele><time>2026-04-28T09:18:24.686Z</time></trkpt><trkpt lat="48.3849367" lon="-4.2897267"><ele>66.83333333333333</ele><time>2026-04-28T09:18:25.68Z</time></trkpt><trkpt lat="48.3849583" lon="-4.2896233"><ele>67.0</ele><time>2026-04-28T09:18:26.686Z</time></trkpt><trkpt lat="48.3849817" lon="-4.2895217"><ele>67.14285714285714</ele><time>2026-04-28T09:18:27.682Z</time></trkpt><trkpt lat="48.3850067" lon="-4.2894267"><ele>67.28571428571428</ele><time>2026-04-28T09:18:28.684Z</time></trkpt><trkpt lat="48.3850233" lon="-4.2893317"><ele>67.42857142857142</ele><time>2026-04-28T09:18:29.681Z</time></trkpt><trkpt lat="48.3850417" lon="-4.2892233"><ele>67.57142857142857</ele><time>2026-04-28T09:18:30.683Z</time></trkpt><trkpt lat="48.3850617" lon="-4.2891083"><ele>67.71428571428571</ele><time>2026-04-28T09:18:31.678Z</time></trkpt><trkpt lat="48.3850833" lon="-4.2890033"><ele>67.85714285714285</ele><time>2026-04-28T09:18:32.678Z</time></trkpt><trkpt lat="48.38511" lon="-4.2889017"><ele>68.0</ele><time>2026-04-28T09:18:33.677Z</time></trkpt><trkpt lat="48.38513" lon="-4.2887983"><ele>68.16666666666667</ele><time>2026-04-28T09:18:34.68Z</time></trkpt><trkpt lat="48.385135" lon="-4.2886967"><ele>68.33333333333334</ele><time>2026-04-28T09:18:35.69Z</time></trkpt><trkpt lat="48.3851533" lon="-4.288595"><ele>68.5</ele><time>2026-04-28T09:18:36.682Z</time></trkpt><trkpt lat="48.38517" lon="-4.2885"><ele>68.66666666666667</ele><time>2026-04-28T09:18:37.682Z</time></trkpt><trkpt lat="48.3852" lon="-4.2883617"><ele>68.83333333333333</ele><time>2026-04-28T09:18:39.684Z</time></trkpt><trkpt lat="48.3851983" lon="-4.2882367"><ele>69.0</ele><time>2026-04-28T09:18:42.678Z</time></trkpt><trkpt lat="48.3852167" lon="-4.2880517"><ele>68.60000000000001</ele><time>2026-04-28T09:18:44.68Z</time></trkpt><trkpt lat="48.3852233" lon="-4.28794"><ele>68.2</ele><time>2026-04-28T09:18:45.678Z</time></trkpt><trkpt lat="48.3852333" lon="-4.287815"><ele>67.80000000000001</ele><time>2026-04-28T09:18:46.683Z</time></trkpt><trkpt lat="48.385235" lon="-4.287675"><ele>67.4</ele><time>2026-04-28T09:18:47.678Z</time></trkpt><trkpt lat="48.38524" lon="-4.28752"><ele>67.0</ele><time>2026-04-28T09:18:48.68Z</time></trkpt><trkpt lat="48.3852417" lon="-4.2873583"><ele>67.0</ele><time>2026-04-28T09:18:49.679Z</time></trkpt><trkpt lat="48.3852433" lon="-4.287215"><ele>67.0</ele><time>2026-04-28T09:18:50.681Z</time></trkpt><trkpt lat="48.3852483" lon="-4.28706"><ele>67.0</ele><time>2026-04-28T09:18:51.68Z</time></trkpt><trkpt lat="48.3852533" lon="-4.2869"><ele>67.0</ele><time>2026-04-28T09:18:52.68Z</time></trkpt><trkpt lat="48.3852583" lon="-4.286745"><ele>67.0</ele><time>2026-04-28T09:18:53.679Z</time></trkpt><trkpt lat="48.3852633" lon="-4.286595"><ele>67.0</ele><time>2026-04-28T09:18:54.68Z</time></trkpt><trkpt lat="48.3852683" lon="-4.2864433"><ele>67.0</ele><time>2026-04-28T09:18:55.68Z</time></trkpt><trkpt lat="48.385275" lon="-4.28629"><ele>67.0</ele><time>2026-04-28T09:18:56.683Z</time></trkpt><trkpt lat="48.38528" lon="-4.2861367"><ele>67.0</ele><time>2026-04-28T09:18:57.684Z</time></trkpt><trkpt lat="48.385285" lon="-4.2859833"><ele>67.0</ele><time>2026-04-28T09:18:58.679Z</time></trkpt><trkpt lat="48.3852883" lon="-4.2858333"><ele>66.8</ele><time>2026-04-28T09:18:59.68Z</time></trkpt><trkpt lat="48.3852917" lon="-4.285685"><ele>66.6</ele><time>2026-04-28T09:19:00.678Z</time></trkpt><trkpt lat="48.3852983" lon="-4.2855333"><ele>66.39999999999999</ele><time>2026-04-28T09:19:01.683Z</time></trkpt><trkpt lat="48.3852983" lon="-4.285385"><ele>66.2</ele><time>2026-04-28T09:19:02.678Z</time></trkpt><trkpt lat="48.3852967" lon="-4.2852467"><ele>66.0</ele><time>2026-04-28T09:19:03.683Z</time></trkpt><trkpt lat="48.3853" lon="-4.2851283"><ele>66.33333333333333</ele><time>2026-04-28T09:19:04.679Z</time></trkpt><trkpt lat="48.3853033" lon="-4.2850083"><ele>66.66666666666667</ele><time>2026-04-28T09:19:05.679Z</time></trkpt><trkpt lat="48.3853083" lon="-4.2848867"><ele>67.0</ele><time>2026-04-28T09:19:06.678Z</time></trkpt><trkpt lat="48.3853167" lon="-4.284755"><ele>67.33333333333334</ele><time>2026-04-28T09:19:07.681Z</time></trkpt><trkpt lat="48.385325" lon="-4.284615"><ele>67.66666666666667</ele><time>2026-04-28T09:19:08.682Z</time></trkpt><trkpt lat="48.3853317" lon="-4.28448"><ele>68.0</ele><time>2026-04-28T09:19:09.681Z</time></trkpt><trkpt lat="48.3853417" lon="-4.2843333"><ele>68.4</ele><time>2026-04-28T09:19:10.678Z</time></trkpt><trkpt lat="48.3853617" lon="-4.28418"><ele>68.8</ele><time>2026-04-28T09:19:11.681Z</time></trkpt><trkpt lat="48.3853817" lon="-4.284015"><ele>69.2</ele><time>2026-04-28T09:19:12.681Z</time></trkpt><trkpt lat="48.3854017" lon="-4.2838483"><ele>69.6</ele><time>2026-04-28T09:19:13.678Z</time></trkpt><trkpt lat="48.3854267" lon="-4.2836883"><ele>70.0</ele><time>2026-04-28T09:19:14.681Z</time></trkpt><trkpt lat="48.38545" lon="-4.2835383"><ele>70.2</ele><time>2026-04-28T09:19:15.684Z</time></trkpt><trkpt lat="48.385475" lon="-4.28339"><ele>70.4</ele><time>2026-04-28T09:19:16.679Z</time></trkpt><trkpt lat="48.3855067" lon="-4.2832467"><ele>70.6</ele><time>2026-04-28T09:19:17.682Z</time></trkpt><trkpt lat="48.3855383" lon="-4.2831017"><ele>70.8</ele><time>2026-04-28T09:19:18.679Z</time></trkpt><trkpt lat="48.3855717" lon="-4.2829583"><ele>71.0</ele><time>2026-04-28T09:19:19.678Z</time></trkpt><trkpt lat="48.3856033" lon="-4.282825"><ele>71.0</ele><time>2026-04-28T09:19:20.679Z</time></trkpt><trkpt lat="48.3856333" lon="-4.2826983"><ele>71.0</ele><time>2026-04-28T09:19:21.68Z</time></trkpt><trkpt lat="48.3856583" lon="-4.28259"><ele>71.0</ele><time>2026-04-28T09:19:22.68Z</time></trkpt><trkpt lat="48.3856817" lon="-4.282495"><ele>71.0</ele><time>2026-04-28T09:19:23.672Z</time></trkpt><trkpt lat="48.3857217" lon="-4.2823383"><ele>71.0</ele><time>2026-04-28T09:19:25.685Z</time></trkpt><trkpt lat="48.3857583" lon="-4.282195"><ele>71.0</ele><time>2026-04-28T09:19:27.677Z</time></trkpt><trkpt lat="48.3857917" lon="-4.2820983"><ele>71.0</ele><time>2026-04-28T09:19:29.68Z</time></trkpt><trkpt lat="48.385835" lon="-4.2820017"><ele>71.0</ele><time>2026-04-28T09:19:31.686Z</time></trkpt><trkpt lat="48.3858967" lon="-4.2818933"><ele>71.0</ele><time>2026-04-28T09:19:34.677Z</time></trkpt><trkpt lat="48.3859517" lon="-4.2818117"><ele>71.0</ele><time>2026-04-28T09:19:36.679Z</time></trkpt><trkpt lat="48.3860283" lon="-4.2816733"><ele>71.0</ele><time>2026-04-28T09:19:38.679Z</time></trkpt><trkpt lat="48.38607" lon="-4.2815883"><ele>71.0</ele><time>2026-04-28T09:19:39.679Z</time></trkpt><trkpt lat="48.3861183" lon="-4.2814933"><ele>70.85714285714286</ele><time>2026-04-28T09:19:40.68Z</time></trkpt><trkpt lat="48.3861667" lon="-4.2814017"><ele>70.71428571428571</ele><time>2026-04-28T09:19:41.679Z</time></trkpt><trkpt lat="48.3862117" lon="-4.2813117"><ele>70.57142857142857</ele><time>2026-04-28T09:19:42.681Z</time></trkpt><trkpt lat="48.386255" lon="-4.2812233"><ele>70.42857142857143</ele><time>2026-04-28T09:19:43.682Z</time></trkpt><trkpt lat="48.386295" lon="-4.2811383"><ele>70.28571428571428</ele><time>2026-04-28T09:19:44.678Z</time></trkpt><trkpt lat="48.3863333" lon="-4.2810567"><ele>70.14285714285714</ele><time>2026-04-28T09:19:45.68Z</time></trkpt><trkpt lat="48.38637" lon="-4.2809783"><ele>70.0</ele><time>2026-04-28T09:19:46.68Z</time></trkpt><trkpt lat="48.3864517" lon="-4.2808267"><ele>70.5</ele><time>2026-04-28T09:19:48.682Z</time></trkpt><trkpt lat="48.3864933" lon="-4.2807517"><ele>71.0</ele><time>2026-04-28T09:19:49.681Z</time></trkpt><trkpt lat="48.3865583" lon="-4.28061"><ele>71.5</ele><time>2026-04-28T09:19:51.678Z</time></trkpt><trkpt lat="48.3866183" lon="-4.2805"><ele>72.0</ele><time>2026-04-28T09:19:53.682Z</time></trkpt><trkpt lat="48.3866717" lon="-4.28041"><ele>72.5</ele><time>2026-04-28T09:19:55.683Z</time></trkpt><trkpt lat="48.38673" lon="-4.280335"><ele>73.0</ele><time>2026-04-28T09:19:57.68Z</time></trkpt><trkpt lat="48.3867933" lon="-4.2802667"><ele>73.0</ele><time>2026-04-28T09:19:59.68Z</time></trkpt><trkpt lat="48.386835" lon="-4.2801817"><ele>73.0</ele><time>2026-04-28T09:20:01.682Z</time></trkpt><trkpt lat="48.38683" lon="-4.2800683"><ele>73.0</ele><time>2026-04-28T09:20:03.681Z</time></trkpt><trkpt lat="48.3867717" lon="-4.2799733"><ele>73.0</ele><time>2026-04-28T09:20:05.679Z</time></trkpt><trkpt lat="48.3867167" lon="-4.2798717"><ele>73.0</ele><time>2026-04-28T09:20:07.682Z</time></trkpt><trkpt lat="48.386705" lon="-4.2797667"><ele>73.0</ele><time>2026-04-28T09:20:09.683Z</time></trkpt><trkpt lat="48.3867333" lon="-4.2796567"><ele>72.4</ele><time>2026-04-28T09:20:11.679Z</time></trkpt><trkpt lat="48.3867817" lon="-4.2795383"><ele>71.8</ele><time>2026-04-28T09:20:13.679Z</time></trkpt><trkpt lat="48.3868533" lon="-4.27938"><ele>71.2</ele><time>2026-04-28T09:20:15.679Z</time></trkpt><trkpt lat="48.38689" lon="-4.279275"><ele>70.6</ele><time>2026-04-28T09:20:16.678Z</time></trkpt><trkpt lat="48.3869283" lon="-4.2791633"><ele>70.0</ele><time>2026-04-28T09:20:17.675Z</time></trkpt><trkpt lat="48.3869667" lon="-4.2790483"><ele>70.0</ele><time>2026-04-28T09:20:18.677Z</time></trkpt><trkpt lat="48.387005" lon="-4.27893"><ele>70.0</ele><time>2026-04-28T09:20:19.682Z</time></trkpt><trkpt lat="48.3870467" lon="-4.2788067"><ele>70.0</ele><time>2026-04-28T09:20:20.682Z</time></trkpt><trkpt lat="48.387095" lon="-4.2786883"><ele>70.0</ele><time>2026-04-28T09:20:21.676Z</time></trkpt><trkpt lat="48.3871383" lon="-4.2785717"><ele>70.0</ele><time>2026-04-28T09:20:22.678Z</time></trkpt><trkpt lat="48.3871817" lon="-4.278465"><ele>70.0</ele><time>2026-04-28T09:20:23.685Z</time></trkpt><trkpt lat="48.387225" lon="-4.2783583"><ele>70.0</ele><time>2026-04-28T09:20:24.685Z</time></trkpt><trkpt lat="48.3872767" lon="-4.2782483"><ele>70.0</ele><time>2026-04-28T09:20:25.684Z</time></trkpt><trkpt lat="48.3873283" lon="-4.2781317"><ele>70.0</ele><time>2026-04-28T09:20:26.682Z</time></trkpt><trkpt lat="48.3873833" lon="-4.2780083"><ele>70.0</ele><time>2026-04-28T09:20:27.679Z</time></trkpt><trkpt lat="48.3874433" lon="-4.2778867"><ele>70.0</ele><time>2026-04-28T09:20:28.679Z</time></trkpt><trkpt lat="48.38751" lon="-4.2777667"><ele>70.6</ele><time>2026-04-28T09:20:29.681Z</time></trkpt><trkpt lat="48.3875767" lon="-4.2776433"><ele>71.2</ele><time>2026-04-28T09:20:30.681Z</time></trkpt><trkpt lat="48.387645" lon="-4.2775167"><ele>71.8</ele><time>2026-04-28T09:20:31.675Z</time></trkpt><trkpt lat="48.3877183" lon="-4.2773967"><ele>72.4</ele><time>2026-04-28T09:20:32.681Z</time></trkpt><trkpt lat="48.3877933" lon="-4.2772767"><ele>73.0</ele><time>2026-04-28T09:20:33.683Z</time></trkpt><trkpt lat="48.3878767" lon="-4.277155"><ele>73.5</ele><time>2026-04-28T09:20:34.68Z</time></trkpt><trkpt lat="48.3879667" lon="-4.2770417"><ele>74.0</ele><time>2026-04-28T09:20:35.678Z</time></trkpt><trkpt lat="48.3880483" lon="-4.276925"><ele>74.5</ele><time>2026-04-28T09:20:36.678Z</time></trkpt><trkpt lat="48.38813" lon="-4.276805"><ele>75.0</ele><time>2026-04-28T09:20:37.68Z</time></trkpt><trkpt lat="48.3882067" lon="-4.2766833"><ele>75.0</ele><time>2026-04-28T09:20:38.679Z</time></trkpt><trkpt lat="48.388285" lon="-4.2765633"><ele>75.0</ele><time>2026-04-28T09:20:39.677Z</time></trkpt><trkpt lat="48.3883667" lon="-4.2764433"><ele>75.0</ele><time>2026-04-28T09:20:40.675Z</time></trkpt><trkpt lat="48.388445" lon="-4.2763333"><ele>75.0</ele><time>2026-04-28T09:20:41.677Z</time></trkpt><trkpt lat="48.3885233" lon="-4.2762133"><ele>75.0</ele><time>2026-04-28T09:20:42.676Z</time></trkpt><trkpt lat="48.3886033" lon="-4.2760983"><ele>75.8</ele><time>2026-04-28T09:20:43.678Z</time></trkpt><trkpt lat="48.3886833" lon="-4.2759817"><ele>76.6</ele><time>2026-04-28T09:20:44.68Z</time></trkpt><trkpt lat="48.3887483" lon="-4.2758633"><ele>77.4</ele><time>2026-04-28T09:20:45.68Z</time></trkpt><trkpt lat="48.388825" lon="-4.2757617"><ele>78.2</ele><time>2026-04-28T09:20:46.678Z</time></trkpt><trkpt lat="48.388905" lon="-4.2756583"><ele>79.0</ele><time>2026-04-28T09:20:47.681Z</time></trkpt><trkpt lat="48.3889817" lon="-4.275545"><ele>80.0</ele><time>2026-04-28T09:20:48.678Z</time></trkpt><trkpt lat="48.3890583" lon="-4.27543"><ele>81.0</ele><time>2026-04-28T09:20:49.678Z</time></trkpt><trkpt lat="48.389125" lon="-4.275325"><ele>82.0</ele><time>2026-04-28T09:20:50.678Z</time></trkpt><trkpt lat="48.3891833" lon="-4.2752417"><ele>83.0</ele><time>2026-04-28T09:20:51.678Z</time></trkpt><trkpt lat="48.3892317" lon="-4.275175"><ele>84.0</ele><time>2026-04-28T09:20:52.674Z</time></trkpt><trkpt lat="48.389315" lon="-4.2750683"><ele>84.0</ele><time>2026-04-28T09:20:54.677Z</time></trkpt><trkpt lat="48.38936" lon="-4.2749717"><ele>84.0</ele><time>2026-04-28T09:20:56.678Z</time></trkpt><trkpt lat="48.38936" lon="-4.2748767"><ele>84.0</ele><time>2026-04-28T09:20:58.676Z</time></trkpt><trkpt lat="48.3893083" lon="-4.2747517"><ele>84.0</ele><time>2026-04-28T09:21:00.683Z</time></trkpt><trkpt lat="48.3892633" lon="-4.274675"><ele>84.0</ele><time>2026-04-28T09:21:01.685Z</time></trkpt><trkpt lat="48.3891983" lon="-4.27458"><ele>84.0</ele><time>2026-04-28T09:21:02.681Z</time></trkpt><trkpt lat="48.389125" lon="-4.2744717"><ele>84.5</ele><time>2026-04-28T09:21:03.681Z</time></trkpt><trkpt lat="48.3890383" lon="-4.2743417"><ele>85.0</ele><time>2026-04-28T09:21:04.682Z</time></trkpt><trkpt lat="48.3889433" lon="-4.2742017"><ele>85.5</ele><time>2026-04-28T09:21:05.684Z</time></trkpt><trkpt lat="48.3888417" lon="-4.2740633"><ele>86.0</ele><time>2026-04-28T09:21:06.68Z</time></trkpt><trkpt lat="48.3887367" lon="-4.2739133"><ele>85.0</ele><time>2026-04-28T09:21:07.677Z</time></trkpt><trkpt lat="48.3886283" lon="-4.2737633"><ele>84.0</ele><time>2026-04-28T09:21:08.681Z</time></trkpt><trkpt lat="48.388525" lon="-4.273615"><ele>83.0</ele><time>2026-04-28T09:21:09.685Z</time></trkpt><trkpt lat="48.3884233" lon="-4.2734667"><ele>82.0</ele><time>2026-04-28T09:21:10.679Z</time></trkpt><trkpt lat="48.3883183" lon="-4.27332"><ele>82.0</ele><time>2026-04-28T09:21:11.677Z</time></trkpt><trkpt lat="48.388215" lon="-4.2731683"><ele>82.0</ele><time>2026-04-28T09:21:12.673Z</time></trkpt><trkpt lat="48.3881117" lon="-4.2730233"><ele>82.0</ele><time>2026-04-28T09:21:13.679Z</time></trkpt><trkpt lat="48.3880083" lon="-4.2728767"><ele>82.0</ele><time>2026-04-28T09:21:14.673Z</time></trkpt><trkpt lat="48.3879" lon="-4.2727317"><ele>81.75</ele><time>2026-04-28T09:21:15.683Z</time></trkpt><trkpt lat="48.3877967" lon="-4.272595"><ele>81.5</ele><time>2026-04-28T09:21:16.681Z</time></trkpt><trkpt lat="48.38769" lon="-4.2724617"><ele>81.25</ele><time>2026-04-28T09:21:17.681Z</time></trkpt><trkpt lat="48.3875817" lon="-4.272345"><ele>81.0</ele><time>2026-04-28T09:21:18.677Z</time></trkpt><trkpt lat="48.3874767" lon="-4.272225"><ele>81.0</ele><time>2026-04-28T09:21:19.679Z</time></trkpt><trkpt lat="48.3873767" lon="-4.2720883"><ele>81.0</ele><time>2026-04-28T09:21:20.68Z</time></trkpt><trkpt lat="48.3872817" lon="-4.2719317"><ele>81.0</ele><time>2026-04-28T09:21:21.68Z</time></trkpt><trkpt lat="48.3872" lon="-4.2717717"><ele>81.0</ele><time>2026-04-28T09:21:22.681Z</time></trkpt><trkpt lat="48.3871267" lon="-4.2716133"><ele>80.2</ele><time>2026-04-28T09:21:23.673Z</time></trkpt><trkpt lat="48.38706" lon="-4.2714617"><ele>79.39999999999999</ele><time>2026-04-28T09:21:24.676Z</time></trkpt><trkpt lat="48.3870033" lon="-4.2713233"><ele>78.6</ele><time>2026-04-28T09:21:25.673Z</time></trkpt><trkpt lat="48.38696" lon="-4.27123"><ele>77.8</ele><time>2026-04-28T09:21:26.676Z</time></trkpt><trkpt lat="48.3869183" lon="-4.2711533"><ele>77.0</ele><time>2026-04-28T09:21:27.676Z</time></trkpt><trkpt lat="48.3868567" lon="-4.2710367"><ele>77.0</ele><time>2026-04-28T09:21:29.681Z</time></trkpt><trkpt lat="48.38683" lon="-4.2709067"><ele>77.0</ele><time>2026-04-28T09:21:31.677Z</time></trkpt><trkpt lat="48.3868333" lon="-4.2708033"><ele>77.0</ele><time>2026-04-28T09:21:32.681Z</time></trkpt><trkpt lat="48.3868433" lon="-4.2707"><ele>77.0</ele><time>2026-04-28T09:21:33.679Z</time></trkpt><trkpt lat="48.3868533" lon="-4.2705733"><ele>77.0</ele><time>2026-04-28T09:21:34.678Z</time></trkpt><trkpt lat="48.3868667" lon="-4.2704383"><ele>77.0</ele><time>2026-04-28T09:21:35.681Z</time></trkpt><trkpt lat="48.3868967" lon="-4.2703067"><ele>77.4</ele><time>2026-04-28T09:21:36.682Z</time></trkpt><trkpt lat="48.3869467" lon="-4.2701783"><ele>77.80000000000001</ele><time>2026-04-28T09:21:37.68Z</time></trkpt><trkpt lat="48.3870083" lon="-4.270075"><ele>78.2</ele><time>2026-04-28T09:21:38.685Z</time></trkpt><trkpt lat="48.3870733" lon="-4.2699717"><ele>78.60000000000001</ele><time>2026-04-28T09:21:39.678Z</time></trkpt><trkpt lat="48.3871417" lon="-4.269875"><ele>79.0</ele><time>2026-04-28T09:21:40.677Z</time></trkpt><trkpt lat="48.3872167" lon="-4.269795"><ele>79.83333333333333</ele><time>2026-04-28T09:21:41.68Z</time></trkpt><trkpt lat="48.3873" lon="-4.2697283"><ele>80.66666666666666</ele><time>2026-04-28T09:21:42.681Z</time></trkpt><trkpt lat="48.3873883" lon="-4.2696783"><ele>81.5</ele><time>2026-04-28T09:21:43.682Z</time></trkpt><trkpt lat="48.3874767" lon="-4.2696467"><ele>82.33333333333333</ele><time>2026-04-28T09:21:44.68Z</time></trkpt><trkpt lat="48.38756" lon="-4.269635"><ele>83.16666666666667</ele><time>2026-04-28T09:21:45.684Z</time></trkpt><trkpt lat="48.3876317" lon="-4.26964"><ele>84.0</ele><time>2026-04-28T09:21:46.677Z</time></trkpt><trkpt lat="48.3876967" lon="-4.269655"><ele>84.0</ele><time>2026-04-28T09:21:47.68Z</time></trkpt><trkpt lat="48.387765" lon="-4.2696567"><ele>84.0</ele><time>2026-04-28T09:21:48.681Z</time></trkpt><trkpt lat="48.38783" lon="-4.2696267"><ele>84.0</ele><time>2026-04-28T09:21:49.676Z</time></trkpt><trkpt lat="48.38789" lon="-4.2695583"><ele>84.0</ele><time>2026-04-28T09:21:50.677Z</time></trkpt><trkpt lat="48.3879433" lon="-4.26946"><ele>84.0</ele><time>2026-04-28T09:21:51.675Z</time></trkpt><trkpt lat="48.3879867" lon="-4.26933"><ele>84.0</ele><time>2026-04-28T09:21:52.678Z</time></trkpt><trkpt lat="48.38803" lon="-4.2691967"><ele>84.80000000000001</ele><time>2026-04-28T09:21:53.68Z</time></trkpt><trkpt lat="48.3880783" lon="-4.2690667"><ele>85.60000000000001</ele><time>2026-04-28T09:21:54.677Z</time></trkpt><trkpt lat="48.38812" lon="-4.268925"><ele>86.4</ele><time>2026-04-28T09:21:55.68Z</time></trkpt><trkpt lat="48.3881467" lon="-4.2687767"><ele>87.2</ele><time>2026-04-28T09:21:56.684Z</time></trkpt><trkpt lat="48.3881517" lon="-4.2686167"><ele>88.0</ele><time>2026-04-28T09:21:57.678Z</time></trkpt><trkpt lat="48.388145" lon="-4.2684483"><ele>88.0</ele><time>2026-04-28T09:21:58.677Z</time></trkpt><trkpt lat="48.38813" lon="-4.2682783"><ele>88.0</ele><time>2026-04-28T09:21:59.679Z</time></trkpt><trkpt lat="48.3881133" lon="-4.2681117"><ele>88.0</ele><time>2026-04-28T09:22:00.683Z</time></trkpt><trkpt lat="48.388095" lon="-4.2679533"><ele>88.0</ele><time>2026-04-28T09:22:01.68Z</time></trkpt><trkpt lat="48.388075" lon="-4.2678033"><ele>88.0</ele><time>2026-04-28T09:22:02.679Z</time></trkpt><trkpt lat="48.3880483" lon="-4.2676617"><ele>88.0</ele><time>2026-04-28T09:22:03.68Z</time></trkpt><trkpt lat="48.3880117" lon="-4.2675233"><ele>88.0</ele><time>2026-04-28T09:22:04.68Z</time></trkpt><trkpt lat="48.387965" lon="-4.26739"><ele>88.0</ele><time>2026-04-28T09:22:05.679Z</time></trkpt><trkpt lat="48.387915" lon="-4.267265"><ele>88.0</ele><time>2026-04-28T09:22:06.679Z</time></trkpt><trkpt lat="48.3878717" lon="-4.26714"><ele>88.0</ele><time>2026-04-28T09:22:07.678Z</time></trkpt><trkpt lat="48.38783" lon="-4.2670233"><ele>86.4</ele><time>2026-04-28T09:22:08.679Z</time></trkpt><trkpt lat="48.3877867" lon="-4.266915"><ele>84.80000000000001</ele><time>2026-04-28T09:22:09.675Z</time></trkpt><trkpt lat="48.387745" lon="-4.2668283"><ele>83.2</ele><time>2026-04-28T09:22:10.676Z</time></trkpt><trkpt lat="48.3876717" lon="-4.2667083"><ele>81.6</ele><time>2026-04-28T09:22:12.678Z</time></trkpt><trkpt lat="48.38758" lon="-4.2666217"><ele>80.0</ele><time>2026-04-28T09:22:14.682Z</time></trkpt><trkpt lat="48.3875033" lon="-4.2665833"><ele>80.0</ele><time>2026-04-28T09:22:15.685Z</time></trkpt><trkpt lat="48.3874067" lon="-4.2665583"><ele>80.0</ele><time>2026-04-28T09:22:16.683Z</time></trkpt><trkpt lat="48.387295" lon="-4.2665317"><ele>80.0</ele><time>2026-04-28T09:22:17.679Z</time></trkpt><trkpt lat="48.3871667" lon="-4.2665033"><ele>80.0</ele><time>2026-04-28T09:22:18.679Z</time></trkpt><trkpt lat="48.38703" lon="-4.2664733"><ele>79.0</ele><time>2026-04-28T09:22:19.678Z</time></trkpt><trkpt lat="48.3868867" lon="-4.2664467"><ele>78.0</ele><time>2026-04-28T09:22:20.679Z</time></trkpt><trkpt lat="48.3867367" lon="-4.26642"><ele>77.0</ele><time>2026-04-28T09:22:21.681Z</time></trkpt><trkpt lat="48.386585" lon="-4.266395"><ele>76.0</ele><time>2026-04-28T09:22:22.679Z</time></trkpt><trkpt lat="48.3864317" lon="-4.2663683"><ele>76.0</ele><time>2026-04-28T09:22:23.677Z</time></trkpt><trkpt lat="48.38628" lon="-4.26634"><ele>76.0</ele><time>2026-04-28T09:22:24.673Z</time></trkpt><trkpt lat="48.38613" lon="-4.2663117"><ele>76.0</ele><time>2026-04-28T09:22:25.679Z</time></trkpt><trkpt lat="48.3859833" lon="-4.2662867"><ele>76.0</ele><time>2026-04-28T09:22:26.677Z</time></trkpt><trkpt lat="48.3858433" lon="-4.266265"><ele>76.0</ele><time>2026-04-28T09:22:27.678Z</time></trkpt><trkpt lat="48.3857117" lon="-4.2662467"><ele>76.0</ele><time>2026-04-28T09:22:28.685Z</time></trkpt><trkpt lat="48.3855867" lon="-4.2662367"><ele>76.0</ele><time>2026-04-28T09:22:29.677Z</time></trkpt><trkpt lat="48.3854683" lon="-4.2662383"><ele>76.0</ele><time>2026-04-28T09:22:30.678Z</time></trkpt><trkpt lat="48.3853617" lon="-4.2662267"><ele>76.0</ele><time>2026-04-28T09:22:31.679Z</time></trkpt><trkpt lat="48.38526" lon="-4.266185"><ele>76.0</ele><time>2026-04-28T09:22:32.678Z</time></trkpt><trkpt lat="48.3851583" lon="-4.26611"><ele>76.0</ele><time>2026-04-28T09:22:33.682Z</time></trkpt><trkpt lat="48.3850533" lon="-4.26601"><ele>76.0</ele><time>2026-04-28T09:22:34.673Z</time></trkpt><trkpt lat="48.3849517" lon="-4.2659067"><ele>76.0</ele><time>2026-04-28T09:22:35.678Z</time></trkpt><trkpt lat="48.3848617" lon="-4.265805"><ele>76.0</ele><time>2026-04-28T09:22:36.68Z</time></trkpt><trkpt lat="48.3847783" lon="-4.265715"><ele>76.0</ele><time>2026-04-28T09:22:37.683Z</time></trkpt><trkpt lat="48.3846983" lon="-4.2656383"><ele>76.0</ele><time>2026-04-28T09:22:38.677Z</time></trkpt><trkpt lat="48.3846217" lon="-4.2655783"><ele>76.39999999999999</ele><time>2026-04-28T09:22:39.677Z</time></trkpt><trkpt lat="48.3845617" lon="-4.2655267"><ele>76.8</ele><time>2026-04-28T09:22:40.675Z</time></trkpt><trkpt lat="48.38447" lon="-4.2654417"><ele>77.19999999999999</ele><time>2026-04-28T09:22:42.674Z</time></trkpt><trkpt lat="48.3844183" lon="-4.26533"><ele>77.6</ele><time>2026-04-28T09:22:44.674Z</time></trkpt><trkpt lat="48.384465" lon="-4.2651783"><ele>78.0</ele><time>2026-04-28T09:22:46.677Z</time></trkpt><trkpt lat="48.3845133" lon="-4.2650883"><ele>78.0</ele><time>2026-04-28T09:22:47.675Z</time></trkpt><trkpt lat="48.3845633" lon="-4.2649983"><ele>78.0</ele><time>2026-04-28T09:22:48.678Z</time></trkpt><trkpt lat="48.3846167" lon="-4.2649133"><ele>78.0</ele><time>2026-04-28T09:22:49.68Z</time></trkpt><trkpt lat="48.384665" lon="-4.2648283"><ele>78.0</ele><time>2026-04-28T09:22:50.684Z</time></trkpt><trkpt lat="48.3847167" lon="-4.2647417"><ele>78.0</ele><time>2026-04-28T09:22:51.679Z</time></trkpt><trkpt lat="48.38477" lon="-4.2646467"><ele>78.0</ele><time>2026-04-28T09:22:52.676Z</time></trkpt><trkpt lat="48.3848233" lon="-4.2645517"><ele>76.83333333333333</ele><time>2026-04-28T09:22:53.685Z</time></trkpt><trkpt lat="48.3848783" lon="-4.2644567"><ele>75.66666666666667</ele><time>2026-04-28T09:22:54.679Z</time></trkpt><trkpt lat="48.384935" lon="-4.2643617"><ele>74.5</ele><time>2026-04-28T09:22:55.682Z</time></trkpt><trkpt lat="48.3849917" lon="-4.2642717"><ele>73.33333333333334</ele><time>2026-04-28T09:22:56.683Z</time></trkpt><trkpt lat="48.3850483" lon="-4.264175"><ele>72.16666666666667</ele><time>2026-04-28T09:22:57.682Z</time></trkpt><trkpt lat="48.385105" lon="-4.264075"><ele>71.0</ele><time>2026-04-28T09:22:58.679Z</time></trkpt><trkpt lat="48.38516" lon="-4.2639733"><ele>70.8</ele><time>2026-04-28T09:22:59.68Z</time></trkpt><trkpt lat="48.3852117" lon="-4.263865"><ele>70.6</ele><time>2026-04-28T09:23:00.684Z</time></trkpt><trkpt lat="48.3852633" lon="-4.2637533"><ele>70.4</ele><time>2026-04-28T09:23:01.679Z</time></trkpt><trkpt lat="48.38531" lon="-4.2636367"><ele>70.2</ele><time>2026-04-28T09:23:02.679Z</time></trkpt><trkpt lat="48.3853517" lon="-4.2635117"><ele>70.0</ele><time>2026-04-28T09:23:03.679Z</time></trkpt><trkpt lat="48.3853867" lon="-4.2633767"><ele>70.0</ele><time>2026-04-28T09:23:04.678Z</time></trkpt><trkpt lat="48.3854167" lon="-4.2632417"><ele>70.0</ele><time>2026-04-28T09:23:05.68Z</time></trkpt><trkpt lat="48.385445" lon="-4.2631067"><ele>70.0</ele><time>2026-04-28T09:23:06.688Z</time></trkpt><trkpt lat="48.385475" lon="-4.2629717"><ele>70.0</ele><time>2026-04-28T09:23:07.676Z</time></trkpt><trkpt lat="48.3855067" lon="-4.26283"><ele>70.0</ele><time>2026-04-28T09:23:08.68Z</time></trkpt><trkpt lat="48.3855367" lon="-4.26269"><ele>68.6</ele><time>2026-04-28T09:23:09.681Z</time></trkpt><trkpt lat="48.38557" lon="-4.2625517"><ele>67.2</ele><time>2026-04-28T09:23:10.682Z</time></trkpt><trkpt lat="48.3856" lon="-4.2624167"><ele>65.8</ele><time>2026-04-28T09:23:11.677Z</time></trkpt><trkpt lat="48.385625" lon="-4.2622833"><ele>64.4</ele><time>2026-04-28T09:23:12.68Z</time></trkpt><trkpt lat="48.3856467" lon="-4.2621517"><ele>63.0</ele><time>2026-04-28T09:23:13.681Z</time></trkpt><trkpt lat="48.385665" lon="-4.2620217"><ele>62.5</ele><time>2026-04-28T09:23:14.677Z</time></trkpt><trkpt lat="48.3856767" lon="-4.2619"><ele>62.0</ele><time>2026-04-28T09:23:15.68Z</time></trkpt><trkpt lat="48.3856833" lon="-4.2617783"><ele>61.5</ele><time>2026-04-28T09:23:16.68Z</time></trkpt><trkpt lat="48.3856867" lon="-4.2616467"><ele>61.0</ele><time>2026-04-28T09:23:17.678Z</time></trkpt><trkpt lat="48.38569" lon="-4.2615067"><ele>60.5</ele><time>2026-04-28T09:23:18.681Z</time></trkpt><trkpt lat="48.385695" lon="-4.2613717"><ele>60.0</ele><time>2026-04-28T09:23:19.677Z</time></trkpt><trkpt lat="48.385705" lon="-4.261245"><ele>59.166666666666664</ele><time>2026-04-28T09:23:20.679Z</time></trkpt><trkpt lat="48.3857167" lon="-4.2611233"><ele>58.33333333333333</ele><time>2026-04-28T09:23:21.675Z</time></trkpt><trkpt lat="48.3857317" lon="-4.2610083"><ele>57.5</ele><time>2026-04-28T09:23:22.68Z</time></trkpt><trkpt lat="48.385755" lon="-4.2608917"><ele>56.666666666666664</ele><time>2026-04-28T09:23:23.676Z</time></trkpt><trkpt lat="48.385785" lon="-4.2607767"><ele>55.83333333333333</ele><time>2026-04-28T09:23:24.675Z</time></trkpt><trkpt lat="48.3858233" lon="-4.26066"><ele>55.0</ele><time>2026-04-28T09:23:25.679Z</time></trkpt><trkpt lat="48.3858717" lon="-4.260555"><ele>54.0</ele><time>2026-04-28T09:23:26.682Z</time></trkpt><trkpt lat="48.3859267" lon="-4.26046"><ele>53.0</ele><time>2026-04-28T09:23:27.677Z</time></trkpt><trkpt lat="48.38599" lon="-4.260365"><ele>52.0</ele><time>2026-04-28T09:23:28.673Z</time></trkpt><trkpt lat="48.3860533" lon="-4.26028"><ele>51.0</ele><time>2026-04-28T09:23:29.68Z</time></trkpt><trkpt lat="48.3861283" lon="-4.2602"><ele>50.0</ele><time>2026-04-28T09:23:30.68Z</time></trkpt><trkpt lat="48.3862133" lon="-4.2601183"><ele>50.00000000000001</ele><time>2026-04-28T09:23:31.678Z</time></trkpt><trkpt lat="48.3862983" lon="-4.260035"><ele>50.0</ele><time>2026-04-28T09:23:32.675Z</time></trkpt><trkpt lat="48.386385" lon="-4.2599483"><ele>50.0</ele><time>2026-04-28T09:23:33.678Z</time></trkpt><trkpt lat="48.3864567" lon="-4.2598733"><ele>50.0</ele><time>2026-04-28T09:23:34.673Z</time></trkpt><trkpt lat="48.3865167" lon="-4.2598133"><ele>50.00000000000001</ele><time>2026-04-28T09:23:35.679Z</time></trkpt><trkpt lat="48.3865733" lon="-4.2597533"><ele>50.0</ele><time>2026-04-28T09:23:37.677Z</time></trkpt><trkpt lat="48.3866233" lon="-4.2596933"><ele>52.2</ele><time>2026-04-28T09:23:39.677Z</time></trkpt><trkpt lat="48.3866867" lon="-4.2595867"><ele>54.4</ele><time>2026-04-28T09:23:41.677Z</time></trkpt><trkpt lat="48.38672" lon="-4.25949"><ele>56.599999999999994</ele><time>2026-04-28T09:23:43.681Z</time></trkpt><trkpt lat="48.3867783" lon="-4.2596333"><ele>58.8</ele><time>2026-04-28T09:23:54.678Z</time></trkpt><trkpt lat="48.3868833" lon="-4.2597383"><ele>61.0</ele><time>2026-04-28T09:23:56.679Z</time></trkpt><trkpt lat="48.3869483" lon="-4.2597783"><ele>60.4</ele><time>2026-04-28T09:23:57.687Z</time></trkpt><trkpt lat="48.387015" lon="-4.2598183"><ele>59.8</ele><time>2026-04-28T09:23:58.675Z</time></trkpt><trkpt lat="48.3871317" lon="-4.2598717"><ele>59.199999999999996</ele><time>2026-04-28T09:24:00.674Z</time></trkpt><trkpt lat="48.3872433" lon="-4.25994"><ele>58.599999999999994</ele><time>2026-04-28T09:24:02.678Z</time></trkpt><trkpt lat="48.387335" lon="-4.2600433"><ele>58.0</ele><time>2026-04-28T09:24:04.676Z</time></trkpt><trkpt lat="48.3873983" lon="-4.260195"><ele>58.33333333333333</ele><time>2026-04-28T09:24:06.683Z</time></trkpt><trkpt lat="48.38742" lon="-4.2603183"><ele>58.666666666666664</ele><time>2026-04-28T09:24:08.68Z</time></trkpt><trkpt lat="48.387405" lon="-4.2604267"><ele>59.0</ele><time>2026-04-28T09:24:10.681Z</time></trkpt><trkpt lat="48.38733" lon="-4.26052"><ele>59.33333333333333</ele><time>2026-04-28T09:24:13.674Z</time></trkpt><trkpt lat="48.38725" lon="-4.2606017"><ele>59.666666666666664</ele><time>2026-04-28T09:24:15.675Z</time></trkpt><trkpt lat="48.3871833" lon="-4.2606783"><ele>60.0</ele><time>2026-04-28T09:24:17.675Z</time></trkpt><trkpt lat="48.3871117" lon="-4.2607967"><ele>60.0</ele><time>2026-04-28T09:24:19.687Z</time></trkpt><trkpt lat="48.3870567" lon="-4.26096"><ele>60.0</ele><time>2026-04-28T09:24:21.676Z</time></trkpt><trkpt lat="48.38701" lon="-4.26112"><ele>60.0</ele><time>2026-04-28T09:24:23.678Z</time></trkpt><trkpt lat="48.387015" lon="-4.2612517"><ele>60.0</ele><time>2026-04-28T09:24:25.678Z</time></trkpt><trkpt lat="48.387015" lon="-4.2613483"><ele>60.0</ele><time>2026-04-28T09:24:29.677Z</time></trkpt><trkpt lat="48.3869817" lon="-4.2612667"><ele>60.0</ele><time>2026-04-28T09:25:21.679Z</time></trkpt><trkpt lat="48.3869533" lon="-4.26118"><ele>60.0</ele><time>2026-04-28T09:25:23.671Z</time></trkpt><trkpt lat="48.386975" lon="-4.2610517"><ele>60.0</ele><time>2026-04-28T09:25:26.688Z</time></trkpt><trkpt lat="48.387005" lon="-4.2609167"><ele>60.0</ele><time>2026-04-28T09:25:29.679Z</time></trkpt><trkpt lat="48.3870383" lon="-4.2608167"><ele>60.0</ele><time>2026-04-28T09:25:31.677Z</time></trkpt><trkpt lat="48.3871246" lon="-4.2606906"><ele>60.0</ele><time>2026-04-28T09:25:36.659Z</time></trkpt><trkpt lat="48.3872197" lon="-4.2606101"><ele>60.666666666666664</ele><time>2026-04-28T09:25:39.675Z</time></trkpt><trkpt lat="48.3872778" lon="-4.2605623"><ele>61.33333333333333</ele><time>2026-04-28T09:25:41.724Z</time></trkpt><trkpt lat="48.3873704" lon="-4.2604804"><ele>62.0</ele><time>2026-04-28T09:25:44.61Z</time></trkpt><trkpt lat="48.387409" lon="-4.2603605"><ele>62.666666666666664</ele><time>2026-04-28T09:25:47.675Z</time></trkpt><trkpt lat="48.3873995" lon="-4.2602495"><ele>63.33333333333333</ele><time>2026-04-28T09:25:49.675Z</time></trkpt><trkpt lat="48.387374" lon="-4.2601534"><ele>64.0</ele><time>2026-04-28T09:25:51.682Z</time></trkpt><trkpt lat="48.3873135" lon="-4.2600596"><ele>63.99999999999999</ele><time>2026-04-28T09:25:53.643Z</time></trkpt><trkpt lat="48.3872367" lon="-4.2599667"><ele>64.0</ele><time>2026-04-28T09:25:55.676Z</time></trkpt><trkpt lat="48.3871383" lon="-4.2598867"><ele>64.0</ele><time>2026-04-28T09:25:57.678Z</time></trkpt><trkpt lat="48.3870717" lon="-4.2598417"><ele>64.0</ele><time>2026-04-28T09:25:58.677Z</time></trkpt><trkpt lat="48.3870033" lon="-4.259795"><ele>63.99999999999999</ele><time>2026-04-28T09:25:59.675Z</time></trkpt><trkpt lat="48.3869433" lon="-4.2597617"><ele>64.0</ele><time>2026-04-28T09:26:00.676Z</time></trkpt><trkpt lat="48.386825" lon="-4.2597033"><ele>63.400000000000006</ele><time>2026-04-28T09:26:02.68Z</time></trkpt><trkpt lat="48.386735" lon="-4.2596217"><ele>62.800000000000004</ele><time>2026-04-28T09:26:04.676Z</time></trkpt><trkpt lat="48.3866967" lon="-4.2594783"><ele>62.199999999999996</ele><time>2026-04-28T09:26:06.677Z</time></trkpt><trkpt lat="48.386735" lon="-4.2592667"><ele>61.599999999999994</ele><time>2026-04-28T09:26:08.68Z</time></trkpt><trkpt lat="48.38676" lon="-4.2591333"><ele>61.0</ele><time>2026-04-28T09:26:09.676Z</time></trkpt><trkpt lat="48.3867783" lon="-4.2590017"><ele>61.4</ele><time>2026-04-28T09:26:10.676Z</time></trkpt><trkpt lat="48.3868" lon="-4.25886"><ele>61.8</ele><time>2026-04-28T09:26:11.68Z</time></trkpt><trkpt lat="48.3868217" lon="-4.258715"><ele>62.199999999999996</ele><time>2026-04-28T09:26:12.681Z</time></trkpt><trkpt lat="48.38683" lon="-4.2585767"><ele>62.599999999999994</ele><time>2026-04-28T09:26:13.68Z</time></trkpt><trkpt lat="48.38684" lon="-4.2584317"><ele>63.0</ele><time>2026-04-28T09:26:14.678Z</time></trkpt><trkpt lat="48.3868517" lon="-4.258285"><ele>63.0</ele><time>2026-04-28T09:26:15.678Z</time></trkpt><trkpt lat="48.3868633" lon="-4.2581467"><ele>63.0</ele><time>2026-04-28T09:26:16.673Z</time></trkpt><trkpt lat="48.3868767" lon="-4.2580183"><ele>63.0</ele><time>2026-04-28T09:26:17.675Z</time></trkpt><trkpt lat="48.38689" lon="-4.257895"><ele>63.0</ele><time>2026-04-28T09:26:18.68Z</time></trkpt><trkpt lat="48.3869033" lon="-4.2577817"><ele>63.0</ele><time>2026-04-28T09:26:19.678Z</time></trkpt><trkpt lat="48.3869117" lon="-4.2576817"><ele>63.0</ele><time>2026-04-28T09:26:20.677Z</time></trkpt><trkpt lat="48.3869383" lon="-4.2575433"><ele>62.5</ele><time>2026-04-28T09:26:22.677Z</time></trkpt><trkpt lat="48.3869767" lon="-4.2574517"><ele>62.0</ele><time>2026-04-28T09:26:24.678Z</time></trkpt><trkpt lat="48.38704" lon="-4.25744"><ele>61.5</ele><time>2026-04-28T09:26:26.681Z</time></trkpt><trkpt lat="48.3871467" lon="-4.25751"><ele>61.0</ele><time>2026-04-28T09:26:28.68Z</time></trkpt><trkpt lat="48.3872167" lon="-4.25756"><ele>60.5</ele><time>2026-04-28T09:26:29.682Z</time></trkpt><trkpt lat="48.3872967" lon="-4.257615"><ele>60.0</ele><time>2026-04-28T09:26:30.677Z</time></trkpt><trkpt lat="48.3873767" lon="-4.2576683"><ele>61.4</ele><time>2026-04-28T09:26:31.679Z</time></trkpt><trkpt lat="48.3874467" lon="-4.2577367"><ele>62.8</ele><time>2026-04-28T09:26:32.685Z</time></trkpt><trkpt lat="48.3875183" lon="-4.2578117"><ele>64.2</ele><time>2026-04-28T09:26:33.676Z</time></trkpt><trkpt lat="48.38759" lon="-4.257895"><ele>65.6</ele><time>2026-04-28T09:26:34.678Z</time></trkpt><trkpt lat="48.3876667" lon="-4.2579867"><ele>67.0</ele><time>2026-04-28T09:26:35.676Z</time></trkpt><trkpt lat="48.3877467" lon="-4.2580867"><ele>67.25</ele><time>2026-04-28T09:26:36.682Z</time></trkpt><trkpt lat="48.3878333" lon="-4.2581917"><ele>67.5</ele><time>2026-04-28T09:26:37.676Z</time></trkpt><trkpt lat="48.3879233" lon="-4.258305"><ele>67.75</ele><time>2026-04-28T09:26:38.685Z</time></trkpt><trkpt lat="48.3880167" lon="-4.25842"><ele>68.0</ele><time>2026-04-28T09:26:39.678Z</time></trkpt><trkpt lat="48.3881067" lon="-4.2585317"><ele>68.8</ele><time>2026-04-28T09:26:40.681Z</time></trkpt><trkpt lat="48.3881933" lon="-4.2586367"><ele>69.6</ele><time>2026-04-28T09:26:41.678Z</time></trkpt><trkpt lat="48.38828" lon="-4.2587467"><ele>70.4</ele><time>2026-04-28T09:26:42.684Z</time></trkpt><trkpt lat="48.3883683" lon="-4.2588567"><ele>71.2</ele><time>2026-04-28T09:26:43.678Z</time></trkpt><trkpt lat="48.3884533" lon="-4.2589617"><ele>72.0</ele><time>2026-04-28T09:26:44.679Z</time></trkpt><trkpt lat="48.3885367" lon="-4.2590633"><ele>72.0</ele><time>2026-04-28T09:26:45.679Z</time></trkpt><trkpt lat="48.3886167" lon="-4.2591617"><ele>72.0</ele><time>2026-04-28T09:26:46.677Z</time></trkpt><trkpt lat="48.3886967" lon="-4.259255"><ele>72.0</ele><time>2026-04-28T09:26:47.678Z</time></trkpt><trkpt lat="48.3887717" lon="-4.2593433"><ele>72.0</ele><time>2026-04-28T09:26:48.681Z</time></trkpt><trkpt lat="48.38884" lon="-4.2594233"><ele>72.0</ele><time>2026-04-28T09:26:49.687Z</time></trkpt><trkpt lat="48.3889017" lon="-4.2594867"><ele>73.14285714285715</ele><time>2026-04-28T09:26:50.681Z</time></trkpt><trkpt lat="48.3889617" lon="-4.2595333"><ele>74.28571428571429</ele><time>2026-04-28T09:26:51.685Z</time></trkpt><trkpt lat="48.389025" lon="-4.2595633"><ele>75.42857142857143</ele><time>2026-04-28T09:26:52.681Z</time></trkpt><trkpt lat="48.3890867" lon="-4.2595917"><ele>76.57142857142858</ele><time>2026-04-28T09:26:53.682Z</time></trkpt><trkpt lat="48.3891583" lon="-4.2596133"><ele>77.71428571428572</ele><time>2026-04-28T09:26:54.683Z</time></trkpt><trkpt lat="48.3892417" lon="-4.25963"><ele>78.85714285714286</ele><time>2026-04-28T09:26:55.68Z</time></trkpt><trkpt lat="48.3893317" lon="-4.25965"><ele>80.0</ele><time>2026-04-28T09:26:56.683Z</time></trkpt><trkpt lat="48.389425" lon="-4.2596717"><ele>80.0</ele><time>2026-04-28T09:26:57.682Z</time></trkpt><trkpt lat="48.3895217" lon="-4.259695"><ele>80.0</ele><time>2026-04-28T09:26:58.678Z</time></trkpt><trkpt lat="48.3896267" lon="-4.2597183"><ele>80.0</ele><time>2026-04-28T09:26:59.683Z</time></trkpt><trkpt lat="48.3897333" lon="-4.2597467"><ele>80.0</ele><time>2026-04-28T09:27:00.676Z</time></trkpt><trkpt lat="48.3898417" lon="-4.25977"><ele>80.0</ele><time>2026-04-28T09:27:01.681Z</time></trkpt><trkpt lat="48.3899483" lon="-4.2597933"><ele>80.8</ele><time>2026-04-28T09:27:02.677Z</time></trkpt><trkpt lat="48.39005" lon="-4.25982"><ele>81.6</ele><time>2026-04-28T09:27:03.678Z</time></trkpt><trkpt lat="48.39015" lon="-4.2598517"><ele>82.4</ele><time>2026-04-28T09:27:04.674Z</time></trkpt><trkpt lat="48.390245" lon="-4.2598917"><ele>83.2</ele><time>2026-04-28T09:27:05.676Z</time></trkpt><trkpt lat="48.3903367" lon="-4.2599417"><ele>84.0</ele><time>2026-04-28T09:27:06.674Z</time></trkpt><trkpt lat="48.3904267" lon="-4.2599967"><ele>85.2</ele><time>2026-04-28T09:27:07.683Z</time></trkpt><trkpt lat="48.3905136" lon="-4.2600604"><ele>86.4</ele><time>2026-04-28T09:27:08.677Z</time></trkpt><trkpt lat="48.3906003" lon="-4.2601301"><ele>87.6</ele><time>2026-04-28T09:27:09.679Z</time></trkpt><trkpt lat="48.3906881" lon="-4.2602033"><ele>88.8</ele><time>2026-04-28T09:27:10.677Z</time></trkpt><trkpt lat="48.3907763" lon="-4.2602805"><ele>90.0</ele><time>2026-04-28T09:27:11.676Z</time></trkpt><trkpt lat="48.3908648" lon="-4.2603545"><ele>90.0</ele><time>2026-04-28T09:27:12.677Z</time></trkpt><trkpt lat="48.3909521" lon="-4.2604285"><ele>90.0</ele><time>2026-04-28T09:27:13.681Z</time></trkpt><trkpt lat="48.3910331" lon="-4.260505"><ele>90.0</ele><time>2026-04-28T09:27:14.676Z</time></trkpt><trkpt lat="48.3911055" lon="-4.2605895"><ele>90.0</ele><time>2026-04-28T09:27:15.676Z</time></trkpt><trkpt lat="48.3911691" lon="-4.2606841"><ele>90.0</ele><time>2026-04-28T09:27:16.677Z</time></trkpt><trkpt lat="48.3912224" lon="-4.260778"><ele>89.5</ele><time>2026-04-28T09:27:17.685Z</time></trkpt><trkpt lat="48.3912602" lon="-4.2608682"><ele>89.0</ele><time>2026-04-28T09:27:18.677Z</time></trkpt><trkpt lat="48.3912918" lon="-4.2609566"><ele>88.5</ele><time>2026-04-28T09:27:19.678Z</time></trkpt><trkpt lat="48.3913262" lon="-4.2610372"><ele>88.0</ele><time>2026-04-28T09:27:20.677Z</time></trkpt><trkpt lat="48.3914078" lon="-4.2611381"><ele>87.5</ele><time>2026-04-28T09:27:22.675Z</time></trkpt><trkpt lat="48.3914983" lon="-4.2610914"><ele>87.0</ele><time>2026-04-28T09:27:24.682Z</time></trkpt><trkpt lat="48.3915643" lon="-4.2609494"><ele>88.5</ele><time>2026-04-28T09:27:26.684Z</time></trkpt><trkpt lat="48.3915877" lon="-4.2608359"><ele>90.0</ele><time>2026-04-28T09:27:27.679Z</time></trkpt><trkpt lat="48.391613" lon="-4.2607063"><ele>91.5</ele><time>2026-04-28T09:27:28.681Z</time></trkpt><trkpt lat="48.3916416" lon="-4.2605749"><ele>93.0</ele><time>2026-04-28T09:27:29.68Z</time></trkpt><trkpt lat="48.3916722" lon="-4.2604462"><ele>94.5</ele><time>2026-04-28T09:27:30.686Z</time></trkpt><trkpt lat="48.3916989" lon="-4.2603194"><ele>96.0</ele><time>2026-04-28T09:27:31.68Z</time></trkpt><trkpt lat="48.3917257" lon="-4.2601942"><ele>96.83333333333333</ele><time>2026-04-28T09:27:32.678Z</time></trkpt><trkpt lat="48.3917525" lon="-4.2600745"><ele>97.66666666666666</ele><time>2026-04-28T09:27:33.68Z</time></trkpt><trkpt lat="48.3917789" lon="-4.2599528"><ele>98.5</ele><time>2026-04-28T09:27:34.676Z</time></trkpt><trkpt lat="48.3918017" lon="-4.2598277"><ele>99.33333333333333</ele><time>2026-04-28T09:27:35.68Z</time></trkpt><trkpt lat="48.3918281" lon="-4.2597063"><ele>100.16666666666666</ele><time>2026-04-28T09:27:36.68Z</time></trkpt><trkpt lat="48.3918636" lon="-4.2595861"><ele>101.0</ele><time>2026-04-28T09:27:37.681Z</time></trkpt><trkpt lat="48.3918929" lon="-4.2594548"><ele>101.6</ele><time>2026-04-28T09:27:38.681Z</time></trkpt><trkpt lat="48.3919233" lon="-4.2593158"><ele>102.19999999999999</ele><time>2026-04-28T09:27:39.68Z</time></trkpt><trkpt lat="48.3919547" lon="-4.2591778"><ele>102.80000000000001</ele><time>2026-04-28T09:27:40.676Z</time></trkpt><trkpt lat="48.3919916" lon="-4.2590382"><ele>103.4</ele><time>2026-04-28T09:27:41.679Z</time></trkpt><trkpt lat="48.3920312" lon="-4.2588955"><ele>104.0</ele><time>2026-04-28T09:27:42.691Z</time></trkpt><trkpt lat="48.3920725" lon="-4.2587522"><ele>104.0</ele><time>2026-04-28T09:27:43.681Z</time></trkpt><trkpt lat="48.3921146" lon="-4.2586122"><ele>104.0</ele><time>2026-04-28T09:27:44.681Z</time></trkpt><trkpt lat="48.3921564" lon="-4.2584738"><ele>104.0</ele><time>2026-04-28T09:27:45.682Z</time></trkpt><trkpt lat="48.3922006" lon="-4.2583368"><ele>104.0</ele><time>2026-04-28T09:27:46.68Z</time></trkpt><trkpt lat="48.3922445" lon="-4.258197"><ele>104.0</ele><time>2026-04-28T09:27:47.683Z</time></trkpt><trkpt lat="48.3922894" lon="-4.2580543"><ele>104.4</ele><time>2026-04-28T09:27:48.683Z</time></trkpt><trkpt lat="48.392332" lon="-4.2579111"><ele>104.80000000000001</ele><time>2026-04-28T09:27:49.677Z</time></trkpt><trkpt lat="48.392379" lon="-4.2577653"><ele>105.19999999999999</ele><time>2026-04-28T09:27:50.683Z</time></trkpt><trkpt lat="48.3924245" lon="-4.2576145"><ele>105.6</ele><time>2026-04-28T09:27:51.682Z</time></trkpt><trkpt lat="48.3924698" lon="-4.2574639"><ele>106.0</ele><time>2026-04-28T09:27:52.679Z</time></trkpt><trkpt lat="48.3925178" lon="-4.2573145"><ele>105.6</ele><time>2026-04-28T09:27:53.681Z</time></trkpt><trkpt lat="48.3925676" lon="-4.2571674"><ele>105.19999999999999</ele><time>2026-04-28T09:27:54.682Z</time></trkpt><trkpt lat="48.3926161" lon="-4.2570253"><ele>104.80000000000001</ele><time>2026-04-28T09:27:55.68Z</time></trkpt><trkpt lat="48.3926619" lon="-4.2568895"><ele>104.4</ele><time>2026-04-28T09:27:56.683Z</time></trkpt><trkpt lat="48.3927069" lon="-4.2567608"><ele>104.0</ele><time>2026-04-28T09:27:57.683Z</time></trkpt><trkpt lat="48.3927506" lon="-4.2566337"><ele>104.0</ele><time>2026-04-28T09:27:58.679Z</time></trkpt><trkpt lat="48.3927938" lon="-4.2565138"><ele>104.0</ele><time>2026-04-28T09:27:59.683Z</time></trkpt><trkpt lat="48.3928383" lon="-4.2563919"><ele>104.0</ele><time>2026-04-28T09:28:00.683Z</time></trkpt><trkpt lat="48.3928835" lon="-4.2562702"><ele>104.0</ele><time>2026-04-28T09:28:01.678Z</time></trkpt><trkpt lat="48.3929287" lon="-4.2561403"><ele>104.0</ele><time>2026-04-28T09:28:02.679Z</time></trkpt><trkpt lat="48.3929724" lon="-4.256004"><ele>104.0</ele><time>2026-04-28T09:28:03.679Z</time></trkpt><trkpt lat="48.3930179" lon="-4.2558643"><ele>104.0</ele><time>2026-04-28T09:28:04.675Z</time></trkpt><trkpt lat="48.3930678" lon="-4.2557234"><ele>104.0</ele><time>2026-04-28T09:28:05.68Z</time></trkpt><trkpt lat="48.3931196" lon="-4.2555765"><ele>104.0</ele><time>2026-04-28T09:28:06.677Z</time></trkpt><trkpt lat="48.3931731" lon="-4.2554248"><ele>104.0</ele><time>2026-04-28T09:28:07.679Z</time></trkpt><trkpt lat="48.393228" lon="-4.2552723"><ele>104.0</ele><time>2026-04-28T09:28:08.68Z</time></trkpt><trkpt lat="48.3932833" lon="-4.255119"><ele>104.0</ele><time>2026-04-28T09:28:09.679Z</time></trkpt><trkpt lat="48.3933384" lon="-4.2549684"><ele>104.0</ele><time>2026-04-28T09:28:10.677Z</time></trkpt><trkpt lat="48.393392" lon="-4.2548214"><ele>104.0</ele><time>2026-04-28T09:28:11.675Z</time></trkpt><trkpt lat="48.3934454" lon="-4.2546773"><ele>103.2</ele><time>2026-04-28T09:28:12.676Z</time></trkpt><trkpt lat="48.393499" lon="-4.2545368"><ele>102.4</ele><time>2026-04-28T09:28:13.683Z</time></trkpt><trkpt lat="48.3935517" lon="-4.2544017"><ele>101.6</ele><time>2026-04-28T09:28:14.673Z</time></trkpt><trkpt lat="48.393605" lon="-4.25427"><ele>100.8</ele><time>2026-04-28T09:28:15.676Z</time></trkpt><trkpt lat="48.3936683" lon="-4.2541417"><ele>100.0</ele><time>2026-04-28T09:28:16.679Z</time></trkpt><trkpt lat="48.3937267" lon="-4.2540117"><ele>100.50000000000001</ele><time>2026-04-28T09:28:17.676Z</time></trkpt><trkpt lat="48.3937817" lon="-4.2538833"><ele>101.0</ele><time>2026-04-28T09:28:18.675Z</time></trkpt><trkpt lat="48.3938317" lon="-4.2537667"><ele>101.5</ele><time>2026-04-28T09:28:19.675Z</time></trkpt><trkpt lat="48.393875" lon="-4.25367"><ele>102.0</ele><time>2026-04-28T09:28:20.68Z</time></trkpt><trkpt lat="48.393935" lon="-4.2535417"><ele>102.50000000000001</ele><time>2026-04-28T09:28:22.682Z</time></trkpt><trkpt lat="48.3939933" lon="-4.253485"><ele>103.0</ele><time>2026-04-28T09:28:25.677Z</time></trkpt><trkpt lat="48.3940467" lon="-4.253565"><ele>103.0</ele><time>2026-04-28T09:28:29.68Z</time></trkpt><trkpt lat="48.3940333" lon="-4.2537533"><ele>103.0</ele><time>2026-04-28T09:28:31.679Z</time></trkpt><trkpt lat="48.394025" lon="-4.2538717"><ele>103.0</ele><time>2026-04-28T09:28:32.675Z</time></trkpt><trkpt lat="48.3940183" lon="-4.2540067"><ele>103.0</ele><time>2026-04-28T09:28:33.683Z</time></trkpt><trkpt lat="48.394015" lon="-4.2541583"><ele>103.0</ele><time>2026-04-28T09:28:34.674Z</time></trkpt><trkpt lat="48.3940167" lon="-4.25431"><ele>103.5</ele><time>2026-04-28T09:28:35.677Z</time></trkpt><trkpt lat="48.3940267" lon="-4.2544717"><ele>104.0</ele><time>2026-04-28T09:28:36.677Z</time></trkpt><trkpt lat="48.394045" lon="-4.2546467"><ele>104.5</ele><time>2026-04-28T09:28:37.676Z</time></trkpt><trkpt lat="48.3940783" lon="-4.2548267"><ele>105.0</ele><time>2026-04-28T09:28:38.682Z</time></trkpt><trkpt lat="48.394115" lon="-4.25501"><ele>105.75</ele><time>2026-04-28T09:28:39.677Z</time></trkpt><trkpt lat="48.3941533" lon="-4.25519"><ele>106.5</ele><time>2026-04-28T09:28:40.681Z</time></trkpt><trkpt lat="48.394195" lon="-4.2553733"><ele>107.25</ele><time>2026-04-28T09:28:41.686Z</time></trkpt><trkpt lat="48.3942467" lon="-4.2555517"><ele>108.0</ele><time>2026-04-28T09:28:42.678Z</time></trkpt><trkpt lat="48.3943067" lon="-4.2557217"><ele>108.5</ele><time>2026-04-28T09:28:43.681Z</time></trkpt><trkpt lat="48.39437" lon="-4.2558883"><ele>109.0</ele><time>2026-04-28T09:28:44.682Z</time></trkpt><trkpt lat="48.3944433" lon="-4.2560483"><ele>109.5</ele><time>2026-04-28T09:28:45.676Z</time></trkpt><trkpt lat="48.3945217" lon="-4.256205"><ele>110.0</ele><time>2026-04-28T09:28:46.678Z</time></trkpt><trkpt lat="48.394595" lon="-4.2563483"><ele>110.2</ele><time>2026-04-28T09:28:47.678Z</time></trkpt><trkpt lat="48.3946667" lon="-4.2564817"><ele>110.4</ele><time>2026-04-28T09:28:48.676Z</time></trkpt><trkpt lat="48.3947333" lon="-4.2566033"><ele>110.6</ele><time>2026-04-28T09:28:49.676Z</time></trkpt><trkpt lat="48.394795" lon="-4.25672"><ele>110.8</ele><time>2026-04-28T09:28:50.685Z</time></trkpt><trkpt lat="48.3948517" lon="-4.2568283"><ele>111.0</ele><time>2026-04-28T09:28:51.685Z</time></trkpt><trkpt lat="48.394905" lon="-4.2569283"><ele>111.0</ele><time>2026-04-28T09:28:52.675Z</time></trkpt><trkpt lat="48.3949533" lon="-4.25702"><ele>111.0</ele><time>2026-04-28T09:28:53.678Z</time></trkpt><trkpt lat="48.3949967" lon="-4.2571033"><ele>111.0</ele><time>2026-04-28T09:28:54.682Z</time></trkpt><trkpt lat="48.395035" lon="-4.2571833"><ele>111.0</ele><time>2026-04-28T09:28:55.684Z</time></trkpt><trkpt lat="48.3950733" lon="-4.2572617"><ele>111.0</ele><time>2026-04-28T09:28:56.681Z</time></trkpt><trkpt lat="48.3951117" lon="-4.2573383"><ele>111.0</ele><time>2026-04-28T09:28:57.678Z</time></trkpt><trkpt lat="48.395155" lon="-4.2574233"><ele>111.0</ele><time>2026-04-28T09:28:58.675Z</time></trkpt><trkpt lat="48.395205" lon="-4.2575167"><ele>111.19999999999999</ele><time>2026-04-28T09:28:59.68Z</time></trkpt><trkpt lat="48.3952617" lon="-4.257625"><ele>111.39999999999999</ele><time>2026-04-28T09:29:00.678Z</time></trkpt><trkpt lat="48.395325" lon="-4.2577333"><ele>111.6</ele><time>2026-04-28T09:29:01.677Z</time></trkpt><trkpt lat="48.395395" lon="-4.2578383"><ele>111.8</ele><time>2026-04-28T09:29:02.682Z</time></trkpt><trkpt lat="48.39547" lon="-4.25793"><ele>112.0</ele><time>2026-04-28T09:29:03.682Z</time></trkpt><trkpt lat="48.3955417" lon="-4.2580117"><ele>112.33333333333334</ele><time>2026-04-28T09:29:04.675Z</time></trkpt><trkpt lat="48.395615" lon="-4.2580883"><ele>112.66666666666667</ele><time>2026-04-28T09:29:05.68Z</time></trkpt><trkpt lat="48.3956833" lon="-4.258165"><ele>113.0</ele><time>2026-04-28T09:29:06.681Z</time></trkpt><trkpt lat="48.3957467" lon="-4.2582383"><ele>113.33333333333334</ele><time>2026-04-28T09:29:07.681Z</time></trkpt><trkpt lat="48.3958" lon="-4.2583067"><ele>113.66666666666667</ele><time>2026-04-28T09:29:08.683Z</time></trkpt><trkpt lat="48.39588" lon="-4.2584183"><ele>114.0</ele><time>2026-04-28T09:29:10.682Z</time></trkpt><trkpt lat="48.39594" lon="-4.2584633"><ele>114.33333333333333</ele><time>2026-04-28T09:29:12.682Z</time></trkpt><trkpt lat="48.3960133" lon="-4.2584967"><ele>114.66666666666666</ele><time>2026-04-28T09:29:16.684Z</time></trkpt><trkpt lat="48.3959433" lon="-4.2584767"><ele>115.0</ele><time>2026-04-28T09:34:03.678Z</time></trkpt><trkpt lat="48.395865" lon="-4.2584167"><ele>115.33333333333333</ele><time>2026-04-28T09:34:05.678Z</time></trkpt><trkpt lat="48.3957717" lon="-4.2582883"><ele>115.66666666666666</ele><time>2026-04-28T09:34:07.675Z</time></trkpt><trkpt lat="48.395715" lon="-4.2582183"><ele>116.0</ele><time>2026-04-28T09:34:08.678Z</time></trkpt><trkpt lat="48.3956517" lon="-4.258145"><ele>115.6</ele><time>2026-04-28T09:34:09.682Z</time></trkpt><trkpt lat="48.39558" lon="-4.2580667"><ele>115.19999999999999</ele><time>2026-04-28T09:34:10.681Z</time></trkpt><trkpt lat="48.3955033" lon="-4.257985"><ele>114.80000000000001</ele><time>2026-04-28T09:34:11.679Z</time></trkpt><trkpt lat="48.3954283" lon="-4.2578933"><ele>114.4</ele><time>2026-04-28T09:34:12.682Z</time></trkpt><trkpt lat="48.3953583" lon="-4.2577933"><ele>114.0</ele><time>2026-04-28T09:34:13.676Z</time></trkpt><trkpt lat="48.3952917" lon="-4.2576883"><ele>113.6</ele><time>2026-04-28T09:34:14.679Z</time></trkpt><trkpt lat="48.3952267" lon="-4.2575733"><ele>113.2</ele><time>2026-04-28T09:34:15.682Z</time></trkpt><trkpt lat="48.3951583" lon="-4.2574483"><ele>112.79999999999998</ele><time>2026-04-28T09:34:16.673Z</time></trkpt><trkpt lat="48.39509" lon="-4.2573133"><ele>112.39999999999999</ele><time>2026-04-28T09:34:17.674Z</time></trkpt><trkpt lat="48.3950183" lon="-4.2571733"><ele>112.0</ele><time>2026-04-28T09:34:18.675Z</time></trkpt><trkpt lat="48.3949433" lon="-4.2570267"><ele>111.8</ele><time>2026-04-28T09:34:19.68Z</time></trkpt><trkpt lat="48.3948683" lon="-4.2568867"><ele>111.6</ele><time>2026-04-28T09:34:20.674Z</time></trkpt><trkpt lat="48.3947983" lon="-4.2567517"><ele>111.39999999999999</ele><time>2026-04-28T09:34:21.682Z</time></trkpt><trkpt lat="48.3947317" lon="-4.2566283"><ele>111.19999999999999</ele><time>2026-04-28T09:34:22.675Z</time></trkpt><trkpt lat="48.3946733" lon="-4.2565133"><ele>111.0</ele><time>2026-04-28T09:34:23.675Z</time></trkpt><trkpt lat="48.39462" lon="-4.256405"><ele>110.83333333333333</ele><time>2026-04-28T09:34:24.678Z</time></trkpt><trkpt lat="48.3945683" lon="-4.256305"><ele>110.66666666666666</ele><time>2026-04-28T09:34:25.676Z</time></trkpt><trkpt lat="48.3945183" lon="-4.25621"><ele>110.5</ele><time>2026-04-28T09:34:26.681Z</time></trkpt><trkpt lat="48.3944717" lon="-4.2561217"><ele>110.33333333333333</ele><time>2026-04-28T09:34:27.677Z</time></trkpt><trkpt lat="48.39443" lon="-4.2560367"><ele>110.16666666666666</ele><time>2026-04-28T09:34:28.675Z</time></trkpt><trkpt lat="48.394395" lon="-4.2559533"><ele>110.0</ele><time>2026-04-28T09:34:29.678Z</time></trkpt><trkpt lat="48.3943417" lon="-4.2558133"><ele>110.0</ele><time>2026-04-28T09:34:31.687Z</time></trkpt><trkpt lat="48.3942967" lon="-4.2557183"><ele>110.0</ele><time>2026-04-28T09:34:35.675Z</time></trkpt><trkpt lat="48.394255" lon="-4.2556233"><ele>110.0</ele><time>2026-04-28T09:34:37.679Z</time></trkpt><trkpt lat="48.3942017" lon="-4.25544"><ele>110.0</ele><time>2026-04-28T09:34:39.676Z</time></trkpt><trkpt lat="48.3941733" lon="-4.2553233"><ele>110.0</ele><time>2026-04-28T09:34:40.677Z</time></trkpt><trkpt lat="48.3941467" lon="-4.2552067"><ele>109.66666666666666</ele><time>2026-04-28T09:34:41.678Z</time></trkpt><trkpt lat="48.39412" lon="-4.25509"><ele>109.33333333333333</ele><time>2026-04-28T09:34:42.681Z</time></trkpt><trkpt lat="48.3940933" lon="-4.25497"><ele>109.0</ele><time>2026-04-28T09:34:43.675Z</time></trkpt><trkpt lat="48.3940683" lon="-4.2548467"><ele>108.66666666666666</ele><time>2026-04-28T09:34:44.678Z</time></trkpt><trkpt lat="48.3940517" lon="-4.2547183"><ele>108.33333333333333</ele><time>2026-04-28T09:34:45.677Z</time></trkpt><trkpt lat="48.3940333" lon="-4.2545967"><ele>108.0</ele><time>2026-04-28T09:34:46.673Z</time></trkpt><trkpt lat="48.3940217" lon="-4.25447"><ele>107.5</ele><time>2026-04-28T09:34:47.676Z</time></trkpt><trkpt lat="48.394015" lon="-4.254345"><ele>107.0</ele><time>2026-04-28T09:34:48.679Z</time></trkpt><trkpt lat="48.394015" lon="-4.254225"><ele>106.5</ele><time>2026-04-28T09:34:49.675Z</time></trkpt><trkpt lat="48.394015" lon="-4.2541033"><ele>106.0</ele><time>2026-04-28T09:34:50.678Z</time></trkpt><trkpt lat="48.3940167" lon="-4.2539833"><ele>105.5</ele><time>2026-04-28T09:34:51.674Z</time></trkpt><trkpt lat="48.39402" lon="-4.2538667"><ele>105.0</ele><time>2026-04-28T09:34:52.676Z</time></trkpt><trkpt lat="48.3940217" lon="-4.2537517"><ele>104.66666666666667</ele><time>2026-04-28T09:34:53.679Z</time></trkpt><trkpt lat="48.3940233" lon="-4.253645"><ele>104.33333333333334</ele><time>2026-04-28T09:34:54.677Z</time></trkpt><trkpt lat="48.3940267" lon="-4.253545"><ele>104.0</ele><time>2026-04-28T09:34:55.677Z</time></trkpt><trkpt lat="48.3940283" lon="-4.2534483"><ele>103.66666666666667</ele><time>2026-04-28T09:34:56.679Z</time></trkpt><trkpt lat="48.39405" lon="-4.2532867"><ele>103.33333333333334</ele><time>2026-04-28T09:34:58.677Z</time></trkpt><trkpt lat="48.3941133" lon="-4.2531717"><ele>103.0</ele><time>2026-04-28T09:35:00.676Z</time></trkpt><trkpt lat="48.394195" lon="-4.2531167"><ele>103.0</ele><time>2026-04-28T09:35:02.674Z</time></trkpt><trkpt lat="48.394305" lon="-4.2531117"><ele>103.0</ele><time>2026-04-28T09:35:04.673Z</time></trkpt><trkpt lat="48.39441" lon="-4.2531433"><ele>103.0</ele><time>2026-04-28T09:35:06.675Z</time></trkpt><trkpt lat="48.3945217" lon="-4.253205"><ele>103.0</ele><time>2026-04-28T09:35:08.675Z</time></trkpt><trkpt lat="48.3946133" lon="-4.2532817"><ele>103.0</ele><time>2026-04-28T09:35:10.677Z</time></trkpt><trkpt lat="48.39472" lon="-4.2533317"><ele>103.66666666666667</ele><time>2026-04-28T09:35:12.678Z</time></trkpt><trkpt lat="48.3948133" lon="-4.2533867"><ele>104.33333333333334</ele><time>2026-04-28T09:35:14.679Z</time></trkpt><trkpt lat="48.3948967" lon="-4.2534383"><ele>105.0</ele><time>2026-04-28T09:35:16.675Z</time></trkpt><trkpt lat="48.3949683" lon="-4.2535117"><ele>105.66666666666666</ele><time>2026-04-28T09:35:18.675Z</time></trkpt><trkpt lat="48.3950317" lon="-4.2535533"><ele>106.33333333333333</ele><time>2026-04-28T09:35:20.675Z</time></trkpt><trkpt lat="48.3951083" lon="-4.2535617"><ele>107.0</ele><time>2026-04-28T09:35:23.674Z</time></trkpt><trkpt lat="48.3951733" lon="-4.253515"><ele>106.99999999999999</ele><time>2026-04-28T09:35:26.676Z</time></trkpt><trkpt lat="48.3951167" lon="-4.253565"><ele>107.0</ele><time>2026-04-28T09:35:38.675Z</time></trkpt><trkpt lat="48.3950433" lon="-4.25362"><ele>107.0</ele><time>2026-04-28T09:35:40.677Z</time></trkpt><trkpt lat="48.3950367" lon="-4.2537467"><ele>107.0</ele><time>2026-04-28T09:35:43.673Z</time></trkpt><trkpt lat="48.3950833" lon="-4.25386"><ele>106.99999999999999</ele><time>2026-04-28T09:35:45.675Z</time></trkpt><trkpt lat="48.3951583" lon="-4.2539883"><ele>107.0</ele><time>2026-04-28T09:35:47.673Z</time></trkpt><trkpt lat="48.3952567" lon="-4.2540933"><ele>107.0</ele><time>2026-04-28T09:35:49.675Z</time></trkpt><trkpt lat="48.39536" lon="-4.2541733"><ele>106.99999999999999</ele><time>2026-04-28T09:35:51.674Z</time></trkpt><trkpt lat="48.395455" lon="-4.2542067"><ele>106.99999999999999</ele><time>2026-04-28T09:35:53.673Z</time></trkpt><trkpt lat="48.395545" lon="-4.25422"><ele>107.0</ele><time>2026-04-28T09:35:55.677Z</time></trkpt><trkpt lat="48.39563" lon="-4.254255"><ele>107.0</ele><time>2026-04-28T09:35:57.678Z</time></trkpt><trkpt lat="48.3957067" lon="-4.25434"><ele>106.83333333333333</ele><time>2026-04-28T09:35:59.676Z</time></trkpt><trkpt lat="48.39575" lon="-4.2544117"><ele>106.66666666666666</ele><time>2026-04-28T09:36:00.676Z</time></trkpt><trkpt lat="48.3958017" lon="-4.2545"><ele>106.5</ele><time>2026-04-28T09:36:01.684Z</time></trkpt><trkpt lat="48.3958567" lon="-4.2546067"><ele>106.33333333333334</ele><time>2026-04-28T09:36:02.675Z</time></trkpt><trkpt lat="48.3959133" lon="-4.25472"><ele>106.16666666666667</ele><time>2026-04-28T09:36:03.677Z</time></trkpt><trkpt lat="48.395975" lon="-4.2548433"><ele>106.0</ele><time>2026-04-28T09:36:04.674Z</time></trkpt><trkpt lat="48.39604" lon="-4.25497"><ele>106.6</ele><time>2026-04-28T09:36:05.674Z</time></trkpt><trkpt lat="48.3961067" lon="-4.2550917"><ele>107.19999999999999</ele><time>2026-04-28T09:36:06.674Z</time></trkpt><trkpt lat="48.3961717" lon="-4.2552083"><ele>107.80000000000001</ele><time>2026-04-28T09:36:07.674Z</time></trkpt><trkpt lat="48.39624" lon="-4.2553233"><ele>108.4</ele><time>2026-04-28T09:36:08.678Z</time></trkpt><trkpt lat="48.39631" lon="-4.2554333"><ele>109.0</ele><time>2026-04-28T09:36:09.678Z</time></trkpt><trkpt lat="48.3963833" lon="-4.255535"><ele>110.0</ele><time>2026-04-28T09:36:10.679Z</time></trkpt><trkpt lat="48.3964583" lon="-4.2556333"><ele>111.0</ele><time>2026-04-28T09:36:11.675Z</time></trkpt><trkpt lat="48.39654" lon="-4.2557317"><ele>112.0</ele><time>2026-04-28T09:36:12.676Z</time></trkpt><trkpt lat="48.3966267" lon="-4.2558267"><ele>113.0</ele><time>2026-04-28T09:36:13.675Z</time></trkpt><trkpt lat="48.39671" lon="-4.25592"><ele>114.0</ele><time>2026-04-28T09:36:14.674Z</time></trkpt><trkpt lat="48.396795" lon="-4.2560083"><ele>114.0</ele><time>2026-04-28T09:36:15.676Z</time></trkpt><trkpt lat="48.39688" lon="-4.2560983"><ele>114.0</ele><time>2026-04-28T09:36:16.674Z</time></trkpt><trkpt lat="48.396965" lon="-4.2561867"><ele>114.0</ele><time>2026-04-28T09:36:17.675Z</time></trkpt><trkpt lat="48.39705" lon="-4.256275"><ele>114.0</ele><time>2026-04-28T09:36:18.675Z</time></trkpt><trkpt lat="48.397135" lon="-4.2563633"><ele>114.0</ele><time>2026-04-28T09:36:19.674Z</time></trkpt><trkpt lat="48.3972217" lon="-4.2564517"><ele>114.4</ele><time>2026-04-28T09:36:20.676Z</time></trkpt><trkpt lat="48.3973067" lon="-4.2565433"><ele>114.80000000000001</ele><time>2026-04-28T09:36:21.673Z</time></trkpt><trkpt lat="48.3973917" lon="-4.2566333"><ele>115.19999999999999</ele><time>2026-04-28T09:36:22.673Z</time></trkpt><trkpt lat="48.39747" lon="-4.2567217"><ele>115.6</ele><time>2026-04-28T09:36:23.672Z</time></trkpt><trkpt lat="48.3975433" lon="-4.2568083"><ele>116.0</ele><time>2026-04-28T09:36:24.673Z</time></trkpt><trkpt lat="48.39761" lon="-4.25688"><ele>116.0</ele><time>2026-04-28T09:36:25.672Z</time></trkpt><trkpt lat="48.397665" lon="-4.2569283"><ele>116.0</ele><time>2026-04-28T09:36:26.677Z</time></trkpt><trkpt lat="48.3977483" lon="-4.2570017"><ele>116.0</ele><time>2026-04-28T09:36:28.677Z</time></trkpt><trkpt lat="48.3978317" lon="-4.2569717"><ele>116.0</ele><time>2026-04-28T09:36:30.676Z</time></trkpt><trkpt lat="48.3978883" lon="-4.2567967"><ele>116.0</ele><time>2026-04-28T09:36:32.677Z</time></trkpt><trkpt lat="48.3979117" lon="-4.2566833"><ele>115.99999999999999</ele><time>2026-04-28T09:36:33.68Z</time></trkpt><trkpt lat="48.3979433" lon="-4.2565617"><ele>116.0</ele><time>2026-04-28T09:36:34.675Z</time></trkpt><trkpt lat="48.397975" lon="-4.2564367"><ele>116.0</ele><time>2026-04-28T09:36:35.679Z</time></trkpt><trkpt lat="48.398005" lon="-4.2563133"><ele>116.0</ele><time>2026-04-28T09:36:36.676Z</time></trkpt><trkpt lat="48.398035" lon="-4.2561833"><ele>115.99999999999999</ele><time>2026-04-28T09:36:37.679Z</time></trkpt><trkpt lat="48.398065" lon="-4.2560517"><ele>116.0</ele><time>2026-04-28T09:36:38.677Z</time></trkpt><trkpt lat="48.3980967" lon="-4.2559167"><ele>115.19999999999999</ele><time>2026-04-28T09:36:39.677Z</time></trkpt><trkpt lat="48.39813" lon="-4.2557817"><ele>114.39999999999999</ele><time>2026-04-28T09:36:40.675Z</time></trkpt><trkpt lat="48.3981617" lon="-4.255645"><ele>113.6</ele><time>2026-04-28T09:36:41.679Z</time></trkpt><trkpt lat="48.3981917" lon="-4.255505"><ele>112.8</ele><time>2026-04-28T09:36:42.678Z</time></trkpt><trkpt lat="48.3982217" lon="-4.255355"><ele>112.0</ele><time>2026-04-28T09:36:43.681Z</time></trkpt><trkpt lat="48.3982517" lon="-4.2552017"><ele>111.39999999999999</ele><time>2026-04-28T09:36:44.689Z</time></trkpt><trkpt lat="48.3982817" lon="-4.255035"><ele>110.79999999999998</ele><time>2026-04-28T09:36:45.677Z</time></trkpt><trkpt lat="48.3983217" lon="-4.2548767"><ele>110.2</ele><time>2026-04-28T09:36:46.672Z</time></trkpt><trkpt lat="48.3983583" lon="-4.2547217"><ele>109.6</ele><time>2026-04-28T09:36:47.675Z</time></trkpt><trkpt lat="48.3983967" lon="-4.2545667"><ele>109.0</ele><time>2026-04-28T09:36:48.677Z</time></trkpt><trkpt lat="48.3984383" lon="-4.254415"><ele>108.4</ele><time>2026-04-28T09:36:49.676Z</time></trkpt><trkpt lat="48.3984783" lon="-4.254265"><ele>107.80000000000001</ele><time>2026-04-28T09:36:50.676Z</time></trkpt><trkpt lat="48.3985267" lon="-4.25412"><ele>107.19999999999999</ele><time>2026-04-28T09:36:51.675Z</time></trkpt><trkpt lat="48.3985783" lon="-4.2539767"><ele>106.6</ele><time>2026-04-28T09:36:52.677Z</time></trkpt><trkpt lat="48.3986367" lon="-4.2538333"><ele>106.0</ele><time>2026-04-28T09:36:53.674Z</time></trkpt><trkpt lat="48.3987" lon="-4.2536917"><ele>105.25</ele><time>2026-04-28T09:36:54.677Z</time></trkpt><trkpt lat="48.39876" lon="-4.2535483"><ele>104.5</ele><time>2026-04-28T09:36:55.674Z</time></trkpt><trkpt lat="48.39883" lon="-4.2534083"><ele>103.75</ele><time>2026-04-28T09:36:56.684Z</time></trkpt><trkpt lat="48.3988983" lon="-4.2532683"><ele>103.0</ele><time>2026-04-28T09:36:57.68Z</time></trkpt><trkpt lat="48.3989733" lon="-4.25313"><ele>101.60000000000001</ele><time>2026-04-28T09:36:58.674Z</time></trkpt><trkpt lat="48.3990467" lon="-4.2529983"><ele>100.2</ele><time>2026-04-28T09:36:59.676Z</time></trkpt><trkpt lat="48.3991167" lon="-4.2528717"><ele>98.8</ele><time>2026-04-28T09:37:00.677Z</time></trkpt><trkpt lat="48.399185" lon="-4.252745"><ele>97.4</ele><time>2026-04-28T09:37:01.677Z</time></trkpt><trkpt lat="48.3992467" lon="-4.2526083"><ele>96.0</ele><time>2026-04-28T09:37:02.677Z</time></trkpt><trkpt lat="48.399305" lon="-4.2524733"><ele>96.0</ele><time>2026-04-28T09:37:03.677Z</time></trkpt><trkpt lat="48.3993617" lon="-4.2523483"><ele>96.0</ele><time>2026-04-28T09:37:04.677Z</time></trkpt><trkpt lat="48.39942" lon="-4.2522283"><ele>96.0</ele><time>2026-04-28T09:37:05.683Z</time></trkpt><trkpt lat="48.3994867" lon="-4.2521017"><ele>96.0</ele><time>2026-04-28T09:37:06.679Z</time></trkpt><trkpt lat="48.3995583" lon="-4.2519717"><ele>96.0</ele><time>2026-04-28T09:37:07.676Z</time></trkpt><trkpt lat="48.399635" lon="-4.25184"><ele>97.0</ele><time>2026-04-28T09:37:08.675Z</time></trkpt><trkpt lat="48.3997133" lon="-4.2517033"><ele>98.0</ele><time>2026-04-28T09:37:09.68Z</time></trkpt><trkpt lat="48.3997883" lon="-4.251565"><ele>99.0</ele><time>2026-04-28T09:37:10.677Z</time></trkpt><trkpt lat="48.39986" lon="-4.2514267"><ele>100.0</ele><time>2026-04-28T09:37:11.679Z</time></trkpt><trkpt lat="48.3999283" lon="-4.2512833"><ele>100.25</ele><time>2026-04-28T09:37:12.683Z</time></trkpt><trkpt lat="48.3999983" lon="-4.2511367"><ele>100.5</ele><time>2026-04-28T09:37:13.677Z</time></trkpt><trkpt lat="48.4000733" lon="-4.2509867"><ele>100.75</ele><time>2026-04-28T09:37:14.678Z</time></trkpt><trkpt lat="48.4001467" lon="-4.2508283"><ele>101.0</ele><time>2026-04-28T09:37:15.677Z</time></trkpt><trkpt lat="48.40022" lon="-4.2506683"><ele>101.75</ele><time>2026-04-28T09:37:16.677Z</time></trkpt><trkpt lat="48.400295" lon="-4.2505083"><ele>102.5</ele><time>2026-04-28T09:37:17.675Z</time></trkpt><trkpt lat="48.4003733" lon="-4.2503467"><ele>103.25</ele><time>2026-04-28T09:37:18.682Z</time></trkpt><trkpt lat="48.4004517" lon="-4.2501867"><ele>104.0</ele><time>2026-04-28T09:37:19.678Z</time></trkpt><trkpt lat="48.400535" lon="-4.250025"><ele>104.75</ele><time>2026-04-28T09:37:20.675Z</time></trkpt><trkpt lat="48.4006183" lon="-4.24986"><ele>105.5</ele><time>2026-04-28T09:37:21.717Z</time></trkpt><trkpt lat="48.4007017" lon="-4.24969"><ele>106.25</ele><time>2026-04-28T09:37:22.676Z</time></trkpt><trkpt lat="48.4007867" lon="-4.24952"><ele>107.0</ele><time>2026-04-28T09:37:23.677Z</time></trkpt><trkpt lat="48.4008667" lon="-4.2493617"><ele>107.5</ele><time>2026-04-28T09:37:24.678Z</time></trkpt><trkpt lat="48.4009367" lon="-4.2492183"><ele>108.0</ele><time>2026-04-28T09:37:25.675Z</time></trkpt><trkpt lat="48.4010017" lon="-4.2490767"><ele>108.5</ele><time>2026-04-28T09:37:26.675Z</time></trkpt><trkpt lat="48.401065" lon="-4.24893"><ele>109.0</ele><time>2026-04-28T09:37:27.681Z</time></trkpt><trkpt lat="48.4011233" lon="-4.248785"><ele>109.16666666666667</ele><time>2026-04-28T09:37:28.677Z</time></trkpt><trkpt lat="48.40117" lon="-4.2486467"><ele>109.33333333333334</ele><time>2026-04-28T09:37:29.676Z</time></trkpt><trkpt lat="48.4012067" lon="-4.2485233"><ele>109.5</ele><time>2026-04-28T09:37:30.677Z</time></trkpt><trkpt lat="48.4012367" lon="-4.2484167"><ele>109.66666666666666</ele><time>2026-04-28T09:37:31.677Z</time></trkpt><trkpt lat="48.4012633" lon="-4.2483267"><ele>109.83333333333333</ele><time>2026-04-28T09:37:32.681Z</time></trkpt><trkpt lat="48.4013033" lon="-4.248185"><ele>110.0</ele><time>2026-04-28T09:37:34.675Z</time></trkpt><trkpt lat="48.4013317" lon="-4.2480883"><ele>110.66666666666666</ele><time>2026-04-28T09:37:36.678Z</time></trkpt><trkpt lat="48.4013517" lon="-4.247985"><ele>111.33333333333333</ele><time>2026-04-28T09:37:39.676Z</time></trkpt><trkpt lat="48.4013567" lon="-4.2478767"><ele>112.0</ele><time>2026-04-28T09:37:41.679Z</time></trkpt><trkpt lat="48.4013617" lon="-4.2477617"><ele>112.66666666666666</ele><time>2026-04-28T09:37:43.677Z</time></trkpt><trkpt lat="48.4013717" lon="-4.2476433"><ele>113.33333333333333</ele><time>2026-04-28T09:37:46.677Z</time></trkpt><trkpt lat="48.4013883" lon="-4.2475483"><ele>114.0</ele><time>2026-04-28T09:38:02.684Z</time></trkpt><trkpt lat="48.4014183" lon="-4.2473683"><ele>114.2</ele><time>2026-04-28T09:38:04.677Z</time></trkpt><trkpt lat="48.4014367" lon="-4.2472583"><ele>114.4</ele><time>2026-04-28T09:38:05.676Z</time></trkpt><trkpt lat="48.4014567" lon="-4.2471333"><ele>114.6</ele><time>2026-04-28T09:38:06.675Z</time></trkpt><trkpt lat="48.40148" lon="-4.2469933"><ele>114.8</ele><time>2026-04-28T09:38:07.677Z</time></trkpt><trkpt lat="48.4015033" lon="-4.24684"><ele>115.0</ele><time>2026-04-28T09:38:08.675Z</time></trkpt><trkpt lat="48.4015283" lon="-4.24668"><ele>115.0</ele><time>2026-04-28T09:38:09.675Z</time></trkpt><trkpt lat="48.4015533" lon="-4.2465233"><ele>115.0</ele><time>2026-04-28T09:38:10.674Z</time></trkpt><trkpt lat="48.4015767" lon="-4.2463633"><ele>115.0</ele><time>2026-04-28T09:38:11.674Z</time></trkpt><trkpt lat="48.401605" lon="-4.24621"><ele>115.0</ele><time>2026-04-28T09:38:12.675Z</time></trkpt><trkpt lat="48.4016283" lon="-4.2460517"><ele>115.0</ele><time>2026-04-28T09:38:13.678Z</time></trkpt><trkpt lat="48.4016533" lon="-4.2458883"><ele>115.0</ele><time>2026-04-28T09:38:14.675Z</time></trkpt><trkpt lat="48.4016783" lon="-4.2457217"><ele>115.0</ele><time>2026-04-28T09:38:15.675Z</time></trkpt><trkpt lat="48.4017067" lon="-4.2455533"><ele>115.0</ele><time>2026-04-28T09:38:16.683Z</time></trkpt><trkpt lat="48.4017333" lon="-4.24539"><ele>115.0</ele><time>2026-04-28T09:38:17.676Z</time></trkpt><trkpt lat="48.4017617" lon="-4.2452283"><ele>115.0</ele><time>2026-04-28T09:38:18.676Z</time></trkpt><trkpt lat="48.40179" lon="-4.2450733"><ele>115.0</ele><time>2026-04-28T09:38:19.679Z</time></trkpt><trkpt lat="48.4018183" lon="-4.2449283"><ele>115.0</ele><time>2026-04-28T09:38:20.675Z</time></trkpt><trkpt lat="48.4018433" lon="-4.2447883"><ele>115.0</ele><time>2026-04-28T09:38:21.676Z</time></trkpt><trkpt lat="48.401865" lon="-4.2446567"><ele>115.0</ele><time>2026-04-28T09:38:22.672Z</time></trkpt><trkpt lat="48.40189" lon="-4.244535"><ele>114.99999999999999</ele><time>2026-04-28T09:38:23.673Z</time></trkpt><trkpt lat="48.4019083" lon="-4.2444183"><ele>115.0</ele><time>2026-04-28T09:38:24.676Z</time></trkpt><trkpt lat="48.40192" lon="-4.2443083"><ele>114.99999999999999</ele><time>2026-04-28T09:38:25.676Z</time></trkpt><trkpt lat="48.4019267" lon="-4.2442067"><ele>114.99999999999999</ele><time>2026-04-28T09:38:26.672Z</time></trkpt><trkpt lat="48.4019267" lon="-4.2441083"><ele>115.0</ele><time>2026-04-28T09:38:27.676Z</time></trkpt><trkpt lat="48.4019217" lon="-4.2440083"><ele>114.99999999999999</ele><time>2026-04-28T09:38:28.675Z</time></trkpt><trkpt lat="48.40191" lon="-4.2439017"><ele>114.99999999999999</ele><time>2026-04-28T09:38:29.675Z</time></trkpt><trkpt lat="48.40189" lon="-4.24379"><ele>115.16666666666667</ele><time>2026-04-28T09:38:30.676Z</time></trkpt><trkpt lat="48.4018717" lon="-4.24368"><ele>115.33333333333334</ele><time>2026-04-28T09:38:31.681Z</time></trkpt><trkpt lat="48.4018583" lon="-4.2435783"><ele>115.5</ele><time>2026-04-28T09:38:32.678Z</time></trkpt><trkpt lat="48.4018467" lon="-4.2434833"><ele>115.66666666666666</ele><time>2026-04-28T09:38:33.681Z</time></trkpt><trkpt lat="48.4018333" lon="-4.2433083"><ele>115.83333333333333</ele><time>2026-04-28T09:38:35.677Z</time></trkpt><trkpt lat="48.4018117" lon="-4.24315"><ele>116.0</ele><time>2026-04-28T09:38:37.677Z</time></trkpt><trkpt lat="48.40176" lon="-4.2429883"><ele>115.25</ele><time>2026-04-28T09:38:39.675Z</time></trkpt><trkpt lat="48.4016817" lon="-4.242845"><ele>114.5</ele><time>2026-04-28T09:38:41.677Z</time></trkpt><trkpt lat="48.4015783" lon="-4.2427433"><ele>113.75</ele><time>2026-04-28T09:38:43.677Z</time></trkpt><trkpt lat="48.40149" lon="-4.2426517"><ele>113.0</ele><time>2026-04-28T09:38:45.68Z</time></trkpt><trkpt lat="48.40147" lon="-4.2425067"><ele>112.99999999999999</ele><time>2026-04-28T09:38:47.681Z</time></trkpt><trkpt lat="48.4014733" lon="-4.2423817"><ele>113.0</ele><time>2026-04-28T09:38:48.677Z</time></trkpt><trkpt lat="48.4014833" lon="-4.242265"><ele>113.0</ele><time>2026-04-28T09:38:49.676Z</time></trkpt><trkpt lat="48.4014967" lon="-4.242155"><ele>113.0</ele><time>2026-04-28T09:38:50.672Z</time></trkpt><trkpt lat="48.401515" lon="-4.2420317"><ele>112.99999999999999</ele><time>2026-04-28T09:38:51.677Z</time></trkpt><trkpt lat="48.4015283" lon="-4.2418983"><ele>113.0</ele><time>2026-04-28T09:38:52.674Z</time></trkpt><trkpt lat="48.4015417" lon="-4.2417617"><ele>112.33333333333333</ele><time>2026-04-28T09:38:53.677Z</time></trkpt><trkpt lat="48.4015517" lon="-4.2416333"><ele>111.66666666666666</ele><time>2026-04-28T09:38:54.677Z</time></trkpt><trkpt lat="48.4015517" lon="-4.241515"><ele>111.0</ele><time>2026-04-28T09:38:55.672Z</time></trkpt><trkpt lat="48.4015467" lon="-4.24139"><ele>110.33333333333334</ele><time>2026-04-28T09:38:56.677Z</time></trkpt><trkpt lat="48.4015333" lon="-4.2412617"><ele>109.66666666666667</ele><time>2026-04-28T09:38:57.676Z</time></trkpt><trkpt lat="48.4015133" lon="-4.2411367"><ele>109.0</ele><time>2026-04-28T09:38:58.677Z</time></trkpt><trkpt lat="48.40149" lon="-4.241005"><ele>108.2</ele><time>2026-04-28T09:38:59.672Z</time></trkpt><trkpt lat="48.4014583" lon="-4.240875"><ele>107.4</ele><time>2026-04-28T09:39:00.673Z</time></trkpt><trkpt lat="48.4014167" lon="-4.2407483"><ele>106.6</ele><time>2026-04-28T09:39:01.679Z</time></trkpt><trkpt lat="48.40137" lon="-4.240625"><ele>105.8</ele><time>2026-04-28T09:39:02.679Z</time></trkpt><trkpt lat="48.401325" lon="-4.2404967"><ele>105.0</ele><time>2026-04-28T09:39:03.679Z</time></trkpt><trkpt lat="48.4012717" lon="-4.240355"><ele>104.2</ele><time>2026-04-28T09:39:04.673Z</time></trkpt><trkpt lat="48.4012167" lon="-4.2402117"><ele>103.4</ele><time>2026-04-28T09:39:05.677Z</time></trkpt><trkpt lat="48.4011633" lon="-4.2400717"><ele>102.6</ele><time>2026-04-28T09:39:06.674Z</time></trkpt><trkpt lat="48.40112" lon="-4.2399417"><ele>101.8</ele><time>2026-04-28T09:39:07.677Z</time></trkpt><trkpt lat="48.4010817" lon="-4.2398133"><ele>101.0</ele><time>2026-04-28T09:39:08.677Z</time></trkpt><trkpt lat="48.4010433" lon="-4.2396833"><ele>100.33333333333333</ele><time>2026-04-28T09:39:09.675Z</time></trkpt><trkpt lat="48.4010133" lon="-4.239555"><ele>99.66666666666666</ele><time>2026-04-28T09:39:10.677Z</time></trkpt><trkpt lat="48.400985" lon="-4.23943"><ele>99.0</ele><time>2026-04-28T09:39:11.675Z</time></trkpt><trkpt lat="48.400955" lon="-4.23931"><ele>98.33333333333334</ele><time>2026-04-28T09:39:12.675Z</time></trkpt><trkpt lat="48.4009217" lon="-4.239195"><ele>97.66666666666667</ele><time>2026-04-28T09:39:13.677Z</time></trkpt><trkpt lat="48.4008883" lon="-4.2390883"><ele>97.0</ele><time>2026-04-28T09:39:14.68Z</time></trkpt><trkpt lat="48.4008533" lon="-4.2389833"><ele>97.00000000000001</ele><time>2026-04-28T09:39:15.678Z</time></trkpt><trkpt lat="48.4008233" lon="-4.2388833"><ele>97.0</ele><time>2026-04-28T09:39:16.675Z</time></trkpt><trkpt lat="48.4007933" lon="-4.23877"><ele>97.0</ele><time>2026-04-28T09:39:17.681Z</time></trkpt><trkpt lat="48.4007667" lon="-4.2386417"><ele>97.0</ele><time>2026-04-28T09:39:18.679Z</time></trkpt><trkpt lat="48.4007383" lon="-4.2385"><ele>97.00000000000001</ele><time>2026-04-28T09:39:19.681Z</time></trkpt><trkpt lat="48.4007183" lon="-4.2383633"><ele>97.0</ele><time>2026-04-28T09:39:20.675Z</time></trkpt><trkpt lat="48.400705" lon="-4.2382267"><ele>96.8</ele><time>2026-04-28T09:39:21.675Z</time></trkpt><trkpt lat="48.4006933" lon="-4.2380933"><ele>96.6</ele><time>2026-04-28T09:39:22.678Z</time></trkpt><trkpt lat="48.400675" lon="-4.2379583"><ele>96.39999999999999</ele><time>2026-04-28T09:39:23.681Z</time></trkpt><trkpt lat="48.4006483" lon="-4.2378217"><ele>96.19999999999999</ele><time>2026-04-28T09:39:24.68Z</time></trkpt><trkpt lat="48.4006167" lon="-4.23769"><ele>96.0</ele><time>2026-04-28T09:39:25.678Z</time></trkpt><trkpt lat="48.40058" lon="-4.237565"><ele>96.0</ele><time>2026-04-28T09:39:26.68Z</time></trkpt><trkpt lat="48.400545" lon="-4.23744"><ele>96.0</ele><time>2026-04-28T09:39:27.674Z</time></trkpt><trkpt lat="48.4005233" lon="-4.2373133"><ele>96.0</ele><time>2026-04-28T09:39:28.679Z</time></trkpt><trkpt lat="48.4005133" lon="-4.2371833"><ele>96.0</ele><time>2026-04-28T09:39:29.677Z</time></trkpt><trkpt lat="48.4005033" lon="-4.237045"><ele>96.0</ele><time>2026-04-28T09:39:30.676Z</time></trkpt><trkpt lat="48.40051" lon="-4.2369067"><ele>96.0</ele><time>2026-04-28T09:39:31.676Z</time></trkpt><trkpt lat="48.400525" lon="-4.2367783"><ele>95.5</ele><time>2026-04-28T09:39:32.677Z</time></trkpt><trkpt lat="48.4005383" lon="-4.23666"><ele>95.0</ele><time>2026-04-28T09:39:33.675Z</time></trkpt><trkpt lat="48.4005617" lon="-4.2365617"><ele>94.5</ele><time>2026-04-28T09:39:34.676Z</time></trkpt><trkpt lat="48.4005883" lon="-4.23647"><ele>94.0</ele><time>2026-04-28T09:39:35.675Z</time></trkpt><trkpt lat="48.4006" lon="-4.236365"><ele>93.5</ele><time>2026-04-28T09:39:36.674Z</time></trkpt><trkpt lat="48.400625" lon="-4.23619"><ele>93.0</ele><time>2026-04-28T09:39:38.679Z</time></trkpt><trkpt lat="48.4006667" lon="-4.236025"><ele>92.66666666666667</ele><time>2026-04-28T09:39:40.674Z</time></trkpt><trkpt lat="48.4006783" lon="-4.2359283"><ele>92.33333333333333</ele><time>2026-04-28T09:39:41.673Z</time></trkpt><trkpt lat="48.4006767" lon="-4.2358283"><ele>92.0</ele><time>2026-04-28T09:39:42.676Z</time></trkpt><trkpt lat="48.400675" lon="-4.2357167"><ele>91.66666666666666</ele><time>2026-04-28T09:39:43.674Z</time></trkpt><trkpt lat="48.4006867" lon="-4.23559"><ele>91.33333333333333</ele><time>2026-04-28T09:39:44.676Z</time></trkpt><trkpt lat="48.4006933" lon="-4.2354683"><ele>91.0</ele><time>2026-04-28T09:39:45.676Z</time></trkpt><trkpt lat="48.4006933" lon="-4.2353483"><ele>90.5</ele><time>2026-04-28T09:39:46.677Z</time></trkpt><trkpt lat="48.4006933" lon="-4.2352283"><ele>90.0</ele><time>2026-04-28T09:39:47.678Z</time></trkpt><trkpt lat="48.4006867" lon="-4.2351217"><ele>89.5</ele><time>2026-04-28T09:39:48.679Z</time></trkpt><trkpt lat="48.4006817" lon="-4.2350183"><ele>89.0</ele><time>2026-04-28T09:39:49.678Z</time></trkpt><trkpt lat="48.4006767" lon="-4.2349167"><ele>88.5</ele><time>2026-04-28T09:39:50.677Z</time></trkpt><trkpt lat="48.400685" lon="-4.234735"><ele>88.0</ele><time>2026-04-28T09:39:52.677Z</time></trkpt><trkpt lat="48.4006867" lon="-4.23455"><ele>87.0</ele><time>2026-04-28T09:39:54.677Z</time></trkpt><trkpt lat="48.4006917" lon="-4.2344533"><ele>86.0</ele><time>2026-04-28T09:39:55.673Z</time></trkpt><trkpt lat="48.4007017" lon="-4.23431"><ele>85.0</ele><time>2026-04-28T09:39:57.679Z</time></trkpt><trkpt lat="48.4007333" lon="-4.2342167"><ele>84.0</ele><time>2026-04-28T09:39:59.681Z</time></trkpt><trkpt lat="48.40081" lon="-4.23415"><ele>83.0</ele><time>2026-04-28T09:40:02.679Z</time></trkpt><trkpt lat="48.4009317" lon="-4.234215"><ele>82.0</ele><time>2026-04-28T09:40:04.678Z</time></trkpt><trkpt lat="48.4010117" lon="-4.2342583"><ele>82.0</ele><time>2026-04-28T09:40:05.685Z</time></trkpt><trkpt lat="48.4010967" lon="-4.23431"><ele>82.0</ele><time>2026-04-28T09:40:06.676Z</time></trkpt><trkpt lat="48.4011783" lon="-4.2343617"><ele>82.0</ele><time>2026-04-28T09:40:07.676Z</time></trkpt><trkpt lat="48.4012617" lon="-4.2344083"><ele>82.0</ele><time>2026-04-28T09:40:08.675Z</time></trkpt><trkpt lat="48.401345" lon="-4.234465"><ele>82.0</ele><time>2026-04-28T09:40:09.675Z</time></trkpt><trkpt lat="48.4014333" lon="-4.234525"><ele>82.8</ele><time>2026-04-28T09:40:10.679Z</time></trkpt><trkpt lat="48.40152" lon="-4.2345783"><ele>83.6</ele><time>2026-04-28T09:40:11.677Z</time></trkpt><trkpt lat="48.4016083" lon="-4.2346433"><ele>84.39999999999999</ele><time>2026-04-28T09:40:12.677Z</time></trkpt><trkpt lat="48.4016967" lon="-4.2347033"><ele>85.19999999999999</ele><time>2026-04-28T09:40:13.671Z</time></trkpt><trkpt lat="48.4017867" lon="-4.23476"><ele>86.0</ele><time>2026-04-28T09:40:14.676Z</time></trkpt><trkpt lat="48.401875" lon="-4.2348217"><ele>86.19999999999999</ele><time>2026-04-28T09:40:15.673Z</time></trkpt><trkpt lat="48.4019633" lon="-4.2348767"><ele>86.39999999999999</ele><time>2026-04-28T09:40:16.677Z</time></trkpt><trkpt lat="48.402045" lon="-4.234925"><ele>86.6</ele><time>2026-04-28T09:40:17.675Z</time></trkpt><trkpt lat="48.4021283" lon="-4.2349633"><ele>86.8</ele><time>2026-04-28T09:40:18.689Z</time></trkpt><trkpt lat="48.4022183" lon="-4.2349767"><ele>87.0</ele><time>2026-04-28T09:40:19.679Z</time></trkpt><trkpt lat="48.4023117" lon="-4.2349617"><ele>88.19999999999999</ele><time>2026-04-28T09:40:20.681Z</time></trkpt><trkpt lat="48.4024117" lon="-4.2349383"><ele>89.4</ele><time>2026-04-28T09:40:21.674Z</time></trkpt><trkpt lat="48.4025117" lon="-4.2349183"><ele>90.6</ele><time>2026-04-28T09:40:22.678Z</time></trkpt><trkpt lat="48.402605" lon="-4.2349067"><ele>91.80000000000001</ele><time>2026-04-28T09:40:23.677Z</time></trkpt><trkpt lat="48.402695" lon="-4.23492"><ele>93.0</ele><time>2026-04-28T09:40:24.677Z</time></trkpt><trkpt lat="48.4027767" lon="-4.2349467"><ele>93.0</ele><time>2026-04-28T09:40:25.677Z</time></trkpt><trkpt lat="48.4028433" lon="-4.2350117"><ele>93.0</ele><time>2026-04-28T09:40:26.678Z</time></trkpt><trkpt lat="48.402905" lon="-4.2351"><ele>93.0</ele><time>2026-04-28T09:40:27.681Z</time></trkpt><trkpt lat="48.4029483" lon="-4.2352"><ele>93.0</ele><time>2026-04-28T09:40:28.675Z</time></trkpt><trkpt lat="48.4029817" lon="-4.2353"><ele>93.0</ele><time>2026-04-28T09:40:29.679Z</time></trkpt><trkpt lat="48.40305" lon="-4.2354467"><ele>93.0</ele><time>2026-04-28T09:40:31.676Z</time></trkpt><trkpt lat="48.4031733" lon="-4.2355433"><ele>93.80000000000001</ele><time>2026-04-28T09:40:33.679Z</time></trkpt><trkpt lat="48.403255" lon="-4.2355833"><ele>94.6</ele><time>2026-04-28T09:40:34.679Z</time></trkpt><trkpt lat="48.4033383" lon="-4.2356183"><ele>95.4</ele><time>2026-04-28T09:40:35.681Z</time></trkpt><trkpt lat="48.40343" lon="-4.2356483"><ele>96.19999999999999</ele><time>2026-04-28T09:40:36.678Z</time></trkpt><trkpt lat="48.4035217" lon="-4.2356833"><ele>97.0</ele><time>2026-04-28T09:40:37.675Z</time></trkpt><trkpt lat="48.40361" lon="-4.2357167"><ele>98.0</ele><time>2026-04-28T09:40:38.683Z</time></trkpt><trkpt lat="48.4037017" lon="-4.2357583"><ele>99.0</ele><time>2026-04-28T09:40:39.677Z</time></trkpt><trkpt lat="48.4037983" lon="-4.2357983"><ele>100.0</ele><time>2026-04-28T09:40:40.677Z</time></trkpt><trkpt lat="48.4038917" lon="-4.2358367"><ele>101.0</ele><time>2026-04-28T09:40:41.671Z</time></trkpt><trkpt lat="48.40398" lon="-4.235865"><ele>102.0</ele><time>2026-04-28T09:40:42.676Z</time></trkpt><trkpt lat="48.4040683" lon="-4.2358933"><ele>102.0</ele><time>2026-04-28T09:40:43.677Z</time></trkpt><trkpt lat="48.4041567" lon="-4.23592"><ele>102.0</ele><time>2026-04-28T09:40:44.682Z</time></trkpt><trkpt lat="48.40424" lon="-4.235945"><ele>102.0</ele><time>2026-04-28T09:40:45.681Z</time></trkpt><trkpt lat="48.40432" lon="-4.2359717"><ele>102.0</ele><time>2026-04-28T09:40:46.675Z</time></trkpt><trkpt lat="48.4043933" lon="-4.2360033"><ele>102.0</ele><time>2026-04-28T09:40:47.677Z</time></trkpt><trkpt lat="48.4044617" lon="-4.23605"><ele>102.0</ele><time>2026-04-28T09:40:48.676Z</time></trkpt><trkpt lat="48.4045183" lon="-4.23612"><ele>102.0</ele><time>2026-04-28T09:40:49.681Z</time></trkpt><trkpt lat="48.4045667" lon="-4.2362167"><ele>102.0</ele><time>2026-04-28T09:40:50.678Z</time></trkpt><trkpt lat="48.404605" lon="-4.2363467"><ele>102.0</ele><time>2026-04-28T09:40:51.679Z</time></trkpt><trkpt lat="48.4046333" lon="-4.2364983"><ele>102.0</ele><time>2026-04-28T09:40:52.676Z</time></trkpt><trkpt lat="48.4046583" lon="-4.236665"><ele>102.0</ele><time>2026-04-28T09:40:53.676Z</time></trkpt><trkpt lat="48.4046867" lon="-4.2368417"><ele>103.0</ele><time>2026-04-28T09:40:54.674Z</time></trkpt><trkpt lat="48.4047167" lon="-4.2370167"><ele>104.0</ele><time>2026-04-28T09:40:55.674Z</time></trkpt><trkpt lat="48.404745" lon="-4.2371833"><ele>105.0</ele><time>2026-04-28T09:40:56.675Z</time></trkpt><trkpt lat="48.40477" lon="-4.2373483"><ele>106.0</ele><time>2026-04-28T09:40:57.675Z</time></trkpt><trkpt lat="48.4047917" lon="-4.237515"><ele>106.6</ele><time>2026-04-28T09:40:58.679Z</time></trkpt><trkpt lat="48.4048133" lon="-4.237675"><ele>107.19999999999999</ele><time>2026-04-28T09:40:59.679Z</time></trkpt><trkpt lat="48.40484" lon="-4.23783"><ele>107.80000000000001</ele><time>2026-04-28T09:41:00.679Z</time></trkpt><trkpt lat="48.40487" lon="-4.23798"><ele>108.4</ele><time>2026-04-28T09:41:01.676Z</time></trkpt><trkpt lat="48.4049017" lon="-4.2381267"><ele>109.0</ele><time>2026-04-28T09:41:02.677Z</time></trkpt><trkpt lat="48.4049317" lon="-4.2382617"><ele>109.4</ele><time>2026-04-28T09:41:03.684Z</time></trkpt><trkpt lat="48.4049717" lon="-4.2384"><ele>109.80000000000001</ele><time>2026-04-28T09:41:04.675Z</time></trkpt><trkpt lat="48.4050233" lon="-4.2385367"><ele>110.19999999999999</ele><time>2026-04-28T09:41:05.679Z</time></trkpt><trkpt lat="48.405085" lon="-4.2386683"><ele>110.6</ele><time>2026-04-28T09:41:06.677Z</time></trkpt><trkpt lat="48.4051517" lon="-4.2387967"><ele>111.0</ele><time>2026-04-28T09:41:07.676Z</time></trkpt><trkpt lat="48.4052283" lon="-4.23892"><ele>111.19999999999999</ele><time>2026-04-28T09:41:08.677Z</time></trkpt><trkpt lat="48.40531" lon="-4.2390367"><ele>111.39999999999999</ele><time>2026-04-28T09:41:09.674Z</time></trkpt><trkpt lat="48.4053867" lon="-4.23916"><ele>111.6</ele><time>2026-04-28T09:41:10.674Z</time></trkpt><trkpt lat="48.4054567" lon="-4.2392783"><ele>111.8</ele><time>2026-04-28T09:41:11.675Z</time></trkpt><trkpt lat="48.4055233" lon="-4.2393933"><ele>112.0</ele><time>2026-04-28T09:41:12.673Z</time></trkpt><trkpt lat="48.4055867" lon="-4.239505"><ele>112.19999999999999</ele><time>2026-04-28T09:41:13.675Z</time></trkpt><trkpt lat="48.4056483" lon="-4.2396133"><ele>112.39999999999999</ele><time>2026-04-28T09:41:14.678Z</time></trkpt><trkpt lat="48.4057117" lon="-4.2397183"><ele>112.60000000000001</ele><time>2026-04-28T09:41:15.681Z</time></trkpt><trkpt lat="48.4057817" lon="-4.2398267"><ele>112.80000000000001</ele><time>2026-04-28T09:41:16.674Z</time></trkpt><trkpt lat="48.4058517" lon="-4.23994"><ele>113.0</ele><time>2026-04-28T09:41:17.676Z</time></trkpt><trkpt lat="48.4059217" lon="-4.240055"><ele>113.80000000000001</ele><time>2026-04-28T09:41:18.677Z</time></trkpt><trkpt lat="48.40599" lon="-4.24017"><ele>114.60000000000001</ele><time>2026-04-28T09:41:19.68Z</time></trkpt><trkpt lat="48.4060583" lon="-4.2402817"><ele>115.39999999999999</ele><time>2026-04-28T09:41:20.678Z</time></trkpt><trkpt lat="48.406125" lon="-4.2403967"><ele>116.19999999999999</ele><time>2026-04-28T09:41:21.679Z</time></trkpt><trkpt lat="48.406185" lon="-4.240505"><ele>117.0</ele><time>2026-04-28T09:41:22.678Z</time></trkpt><trkpt lat="48.40624" lon="-4.2406017"><ele>117.6</ele><time>2026-04-28T09:41:23.678Z</time></trkpt><trkpt lat="48.4062883" lon="-4.240685"><ele>118.19999999999999</ele><time>2026-04-28T09:41:24.676Z</time></trkpt><trkpt lat="48.40636" lon="-4.240795"><ele>118.8</ele><time>2026-04-28T09:41:26.676Z</time></trkpt><trkpt lat="48.4064317" lon="-4.2408283"><ele>119.4</ele><time>2026-04-28T09:41:29.674Z</time></trkpt><trkpt lat="48.4065017" lon="-4.2407767"><ele>120.0</ele><time>2026-04-28T09:41:31.676Z</time></trkpt><trkpt lat="48.4066217" lon="-4.24066"><ele>120.0</ele><time>2026-04-28T09:41:33.679Z</time></trkpt><trkpt lat="48.4067017" lon="-4.2405933"><ele>120.0</ele><time>2026-04-28T09:41:34.675Z</time></trkpt><trkpt lat="48.4067817" lon="-4.2405317"><ele>120.0</ele><time>2026-04-28T09:41:35.675Z</time></trkpt><trkpt lat="48.4068617" lon="-4.240465"><ele>120.0</ele><time>2026-04-28T09:41:36.677Z</time></trkpt><trkpt lat="48.4069467" lon="-4.240385"><ele>120.0</ele><time>2026-04-28T09:41:37.678Z</time></trkpt><trkpt lat="48.4070317" lon="-4.2402983"><ele>120.0</ele><time>2026-04-28T09:41:38.674Z</time></trkpt><trkpt lat="48.40712" lon="-4.2402117"><ele>120.0</ele><time>2026-04-28T09:41:39.676Z</time></trkpt><trkpt lat="48.4072083" lon="-4.2401233"><ele>120.0</ele><time>2026-04-28T09:41:40.675Z</time></trkpt><trkpt lat="48.407295" lon="-4.2400367"><ele>120.0</ele><time>2026-04-28T09:41:41.675Z</time></trkpt><trkpt lat="48.4073783" lon="-4.23995"><ele>120.0</ele><time>2026-04-28T09:41:42.676Z</time></trkpt><trkpt lat="48.40746" lon="-4.239865"><ele>120.16666666666667</ele><time>2026-04-28T09:41:43.681Z</time></trkpt><trkpt lat="48.4075383" lon="-4.23978"><ele>120.33333333333334</ele><time>2026-04-28T09:41:44.678Z</time></trkpt><trkpt lat="48.4076133" lon="-4.2397033"><ele>120.5</ele><time>2026-04-28T09:41:45.675Z</time></trkpt><trkpt lat="48.4076817" lon="-4.239635"><ele>120.66666666666667</ele><time>2026-04-28T09:41:46.678Z</time></trkpt><trkpt lat="48.4077433" lon="-4.239575"><ele>120.83333333333334</ele><time>2026-04-28T09:41:47.676Z</time></trkpt><trkpt lat="48.4078" lon="-4.2395183"><ele>121.0</ele><time>2026-04-28T09:41:48.677Z</time></trkpt><trkpt lat="48.4079" lon="-4.2394233"><ele>121.0</ele><time>2026-04-28T09:41:50.676Z</time></trkpt><trkpt lat="48.4079767" lon="-4.2393483"><ele>121.0</ele><time>2026-04-28T09:41:52.678Z</time></trkpt><trkpt lat="48.4080183" lon="-4.2392417"><ele>121.0</ele><time>2026-04-28T09:41:55.678Z</time></trkpt><trkpt lat="48.408005" lon="-4.239085"><ele>121.0</ele><time>2026-04-28T09:41:57.68Z</time></trkpt><trkpt lat="48.40799" lon="-4.238955"><ele>121.0</ele><time>2026-04-28T09:41:58.68Z</time></trkpt><trkpt lat="48.4079783" lon="-4.2387917"><ele>120.25</ele><time>2026-04-28T09:41:59.68Z</time></trkpt><trkpt lat="48.4079483" lon="-4.238605"><ele>119.5</ele><time>2026-04-28T09:42:00.675Z</time></trkpt><trkpt lat="48.40792" lon="-4.2384067"><ele>118.75</ele><time>2026-04-28T09:42:01.675Z</time></trkpt><trkpt lat="48.40788" lon="-4.2382"><ele>118.0</ele><time>2026-04-28T09:42:02.675Z</time></trkpt><trkpt lat="48.4078433" lon="-4.237985"><ele>118.0</ele><time>2026-04-28T09:42:03.676Z</time></trkpt><trkpt lat="48.4078067" lon="-4.23776"><ele>118.0</ele><time>2026-04-28T09:42:04.675Z</time></trkpt><trkpt lat="48.40777" lon="-4.23754"><ele>118.0</ele><time>2026-04-28T09:42:05.68Z</time></trkpt><trkpt lat="48.40773" lon="-4.2373217"><ele>118.0</ele><time>2026-04-28T09:42:06.68Z</time></trkpt><trkpt lat="48.4076933" lon="-4.2371083"><ele>118.0</ele><time>2026-04-28T09:42:07.68Z</time></trkpt><trkpt lat="48.4076517" lon="-4.2369017"><ele>118.0</ele><time>2026-04-28T09:42:08.68Z</time></trkpt><trkpt lat="48.4076133" lon="-4.2367"><ele>118.0</ele><time>2026-04-28T09:42:09.68Z</time></trkpt><trkpt lat="48.407575" lon="-4.2365017"><ele>118.5</ele><time>2026-04-28T09:42:10.671Z</time></trkpt><trkpt lat="48.4075367" lon="-4.236305"><ele>119.0</ele><time>2026-04-28T09:42:11.676Z</time></trkpt><trkpt lat="48.4074967" lon="-4.2361133"><ele>119.5</ele><time>2026-04-28T09:42:12.674Z</time></trkpt><trkpt lat="48.407455" lon="-4.2359183"><ele>120.0</ele><time>2026-04-28T09:42:13.675Z</time></trkpt><trkpt lat="48.4074183" lon="-4.2357367"><ele>120.25</ele><time>2026-04-28T09:42:14.677Z</time></trkpt><trkpt lat="48.4073783" lon="-4.2355567"><ele>120.5</ele><time>2026-04-28T09:42:15.683Z</time></trkpt><trkpt lat="48.407345" lon="-4.2353833"><ele>120.75</ele><time>2026-04-28T09:42:16.679Z</time></trkpt><trkpt lat="48.4073117" lon="-4.2352067"><ele>121.0</ele><time>2026-04-28T09:42:17.677Z</time></trkpt><trkpt lat="48.4072767" lon="-4.2350317"><ele>121.0</ele><time>2026-04-28T09:42:18.675Z</time></trkpt><trkpt lat="48.4072467" lon="-4.23485"><ele>121.0</ele><time>2026-04-28T09:42:19.674Z</time></trkpt><trkpt lat="48.4072133" lon="-4.2346483"><ele>121.0</ele><time>2026-04-28T09:42:20.679Z</time></trkpt><trkpt lat="48.4071783" lon="-4.234455"><ele>121.0</ele><time>2026-04-28T09:42:21.678Z</time></trkpt><trkpt lat="48.4071467" lon="-4.2342783"><ele>119.19999999999999</ele><time>2026-04-28T09:42:22.681Z</time></trkpt><trkpt lat="48.4071083" lon="-4.23411"><ele>117.39999999999999</ele><time>2026-04-28T09:42:23.677Z</time></trkpt><trkpt lat="48.4070667" lon="-4.2339617"><ele>115.6</ele><time>2026-04-28T09:42:24.678Z</time></trkpt><trkpt lat="48.40702" lon="-4.2338217"><ele>113.8</ele><time>2026-04-28T09:42:25.68Z</time></trkpt><trkpt lat="48.4069733" lon="-4.2336867"><ele>112.0</ele><time>2026-04-28T09:42:26.678Z</time></trkpt><trkpt lat="48.4069267" lon="-4.2335533"><ele>112.0</ele><time>2026-04-28T09:42:27.681Z</time></trkpt><trkpt lat="48.4068817" lon="-4.23343"><ele>111.99999999999999</ele><time>2026-04-28T09:42:28.681Z</time></trkpt><trkpt lat="48.40683" lon="-4.2333067"><ele>111.99999999999999</ele><time>2026-04-28T09:42:29.677Z</time></trkpt><trkpt lat="48.4067783" lon="-4.2331867"><ele>112.0</ele><time>2026-04-28T09:42:30.68Z</time></trkpt><trkpt lat="48.4067283" lon="-4.2330717"><ele>112.0</ele><time>2026-04-28T09:42:31.674Z</time></trkpt><trkpt lat="48.40668" lon="-4.2329617"><ele>112.33333333333334</ele><time>2026-04-28T09:42:32.681Z</time></trkpt><trkpt lat="48.4066283" lon="-4.2328617"><ele>112.66666666666667</ele><time>2026-04-28T09:42:33.679Z</time></trkpt><trkpt lat="48.4065783" lon="-4.232765"><ele>113.0</ele><time>2026-04-28T09:42:34.674Z</time></trkpt><trkpt lat="48.4065283" lon="-4.2326667"><ele>113.33333333333334</ele><time>2026-04-28T09:42:35.676Z</time></trkpt><trkpt lat="48.406475" lon="-4.2325717"><ele>113.66666666666667</ele><time>2026-04-28T09:42:36.68Z</time></trkpt><trkpt lat="48.4064233" lon="-4.2324733"><ele>114.0</ele><time>2026-04-28T09:42:37.682Z</time></trkpt><trkpt lat="48.40637" lon="-4.23237"><ele>113.0</ele><time>2026-04-28T09:42:38.679Z</time></trkpt><trkpt lat="48.406315" lon="-4.2322617"><ele>112.0</ele><time>2026-04-28T09:42:39.682Z</time></trkpt><trkpt lat="48.4062617" lon="-4.2321567"><ele>111.0</ele><time>2026-04-28T09:42:40.674Z</time></trkpt><trkpt lat="48.4062067" lon="-4.2320483"><ele>110.0</ele><time>2026-04-28T09:42:41.679Z</time></trkpt><trkpt lat="48.4061517" lon="-4.2319433"><ele>109.0</ele><time>2026-04-28T09:42:42.681Z</time></trkpt><trkpt lat="48.406095" lon="-4.2318333"><ele>109.0</ele><time>2026-04-28T09:42:43.674Z</time></trkpt><trkpt lat="48.40604" lon="-4.2317"><ele>109.0</ele><time>2026-04-28T09:42:44.679Z</time></trkpt><trkpt lat="48.4059833" lon="-4.2315767"><ele>109.0</ele><time>2026-04-28T09:42:45.674Z</time></trkpt><trkpt lat="48.4059233" lon="-4.2314583"><ele>109.0</ele><time>2026-04-28T09:42:46.677Z</time></trkpt><trkpt lat="48.4058633" lon="-4.2313433"><ele>109.0</ele><time>2026-04-28T09:42:47.678Z</time></trkpt><trkpt lat="48.4058083" lon="-4.2312283"><ele>109.4</ele><time>2026-04-28T09:42:48.678Z</time></trkpt><trkpt lat="48.4057467" lon="-4.2311167"><ele>109.80000000000001</ele><time>2026-04-28T09:42:49.677Z</time></trkpt><trkpt lat="48.405685" lon="-4.2309983"><ele>110.19999999999999</ele><time>2026-04-28T09:42:50.677Z</time></trkpt><trkpt lat="48.40562" lon="-4.2308767"><ele>110.6</ele><time>2026-04-28T09:42:51.675Z</time></trkpt><trkpt lat="48.4055567" lon="-4.230755"><ele>111.0</ele><time>2026-04-28T09:42:52.677Z</time></trkpt><trkpt lat="48.4054967" lon="-4.230635"><ele>110.19999999999999</ele><time>2026-04-28T09:42:53.673Z</time></trkpt><trkpt lat="48.40544" lon="-4.23052"><ele>109.39999999999999</ele><time>2026-04-28T09:42:54.677Z</time></trkpt><trkpt lat="48.405385" lon="-4.2304083"><ele>108.6</ele><time>2026-04-28T09:42:55.675Z</time></trkpt><trkpt lat="48.405325" lon="-4.2303"><ele>107.8</ele><time>2026-04-28T09:42:56.676Z</time></trkpt><trkpt lat="48.4052667" lon="-4.23019"><ele>107.0</ele><time>2026-04-28T09:42:57.674Z</time></trkpt><trkpt lat="48.4052067" lon="-4.23008"><ele>107.0</ele><time>2026-04-28T09:42:58.676Z</time></trkpt><trkpt lat="48.405145" lon="-4.22997"><ele>106.99999999999999</ele><time>2026-04-28T09:42:59.674Z</time></trkpt><trkpt lat="48.4050783" lon="-4.2298583"><ele>106.99999999999999</ele><time>2026-04-28T09:43:00.676Z</time></trkpt><trkpt lat="48.4050083" lon="-4.229745"><ele>107.0</ele><time>2026-04-28T09:43:01.674Z</time></trkpt><trkpt lat="48.4049383" lon="-4.2296333"><ele>107.0</ele><time>2026-04-28T09:43:02.678Z</time></trkpt><trkpt lat="48.404865" lon="-4.229525"><ele>107.0</ele><time>2026-04-28T09:43:03.672Z</time></trkpt><trkpt lat="48.40479" lon="-4.2294183"><ele>106.99999999999999</ele><time>2026-04-28T09:43:04.68Z</time></trkpt><trkpt lat="48.4047117" lon="-4.2293133"><ele>106.99999999999999</ele><time>2026-04-28T09:43:05.677Z</time></trkpt><trkpt lat="48.404635" lon="-4.2292167"><ele>107.0</ele><time>2026-04-28T09:43:06.678Z</time></trkpt><trkpt lat="48.404555" lon="-4.2291217"><ele>107.0</ele><time>2026-04-28T09:43:07.676Z</time></trkpt><trkpt lat="48.4044733" lon="-4.22903"><ele>106.66666666666666</ele><time>2026-04-28T09:43:08.677Z</time></trkpt><trkpt lat="48.4043917" lon="-4.2289433"><ele>106.33333333333333</ele><time>2026-04-28T09:43:09.673Z</time></trkpt><trkpt lat="48.40432" lon="-4.228865"><ele>106.0</ele><time>2026-04-28T09:43:10.678Z</time></trkpt><trkpt lat="48.404255" lon="-4.228795"><ele>105.66666666666666</ele><time>2026-04-28T09:43:11.677Z</time></trkpt><trkpt lat="48.4041983" lon="-4.228735"><ele>105.33333333333333</ele><time>2026-04-28T09:43:12.683Z</time></trkpt><trkpt lat="48.4041417" lon="-4.228605"><ele>105.0</ele><time>2026-04-28T09:43:14.677Z</time></trkpt><trkpt lat="48.4041633" lon="-4.22848"><ele>105.0</ele><time>2026-04-28T09:43:16.676Z</time></trkpt><trkpt lat="48.404265" lon="-4.2284183"><ele>105.0</ele><time>2026-04-28T09:43:18.678Z</time></trkpt><trkpt lat="48.4043283" lon="-4.2284167"><ele>105.0</ele><time>2026-04-28T09:43:19.678Z</time></trkpt><trkpt lat="48.4044" lon="-4.2284233"><ele>105.0</ele><time>2026-04-28T09:43:20.677Z</time></trkpt><trkpt lat="48.4044833" lon="-4.2284333"><ele>105.0</ele><time>2026-04-28T09:43:21.68Z</time></trkpt><trkpt lat="48.4045783" lon="-4.2284467"><ele>105.0</ele><time>2026-04-28T09:43:22.677Z</time></trkpt><trkpt lat="48.4046767" lon="-4.2284567"><ele>105.75</ele><time>2026-04-28T09:43:23.682Z</time></trkpt><trkpt lat="48.4047817" lon="-4.228465"><ele>106.5</ele><time>2026-04-28T09:43:24.68Z</time></trkpt><trkpt lat="48.4048933" lon="-4.2284733"><ele>107.25</ele><time>2026-04-28T09:43:25.682Z</time></trkpt><trkpt lat="48.4050167" lon="-4.2284867"><ele>108.0</ele><time>2026-04-28T09:43:26.68Z</time></trkpt><trkpt lat="48.4051433" lon="-4.2284967"><ele>108.0</ele><time>2026-04-28T09:43:27.674Z</time></trkpt><trkpt lat="48.40527" lon="-4.2285083"><ele>108.0</ele><time>2026-04-28T09:43:28.678Z</time></trkpt><trkpt lat="48.405395" lon="-4.2285183"><ele>108.0</ele><time>2026-04-28T09:43:29.676Z</time></trkpt><trkpt lat="48.40552" lon="-4.2285267"><ele>108.0</ele><time>2026-04-28T09:43:30.681Z</time></trkpt><trkpt lat="48.4056383" lon="-4.228535"><ele>108.75</ele><time>2026-04-28T09:43:31.681Z</time></trkpt><trkpt lat="48.4057583" lon="-4.2285417"><ele>109.5</ele><time>2026-04-28T09:43:32.679Z</time></trkpt><trkpt lat="48.4058767" lon="-4.228555"><ele>110.25</ele><time>2026-04-28T09:43:33.676Z</time></trkpt><trkpt lat="48.4059983" lon="-4.228565"><ele>111.0</ele><time>2026-04-28T09:43:34.678Z</time></trkpt><trkpt lat="48.4061233" lon="-4.2285767"><ele>111.0</ele><time>2026-04-28T09:43:35.677Z</time></trkpt><trkpt lat="48.4062467" lon="-4.2285867"><ele>111.0</ele><time>2026-04-28T09:43:36.681Z</time></trkpt><trkpt lat="48.4063683" lon="-4.2286"><ele>111.0</ele><time>2026-04-28T09:43:37.68Z</time></trkpt><trkpt lat="48.40649" lon="-4.228615"><ele>111.0</ele><time>2026-04-28T09:43:38.682Z</time></trkpt><trkpt lat="48.4066117" lon="-4.2286233"><ele>111.5</ele><time>2026-04-28T09:43:39.68Z</time></trkpt><trkpt lat="48.4067317" lon="-4.2286333"><ele>112.0</ele><time>2026-04-28T09:43:40.678Z</time></trkpt><trkpt lat="48.40685" lon="-4.2286417"><ele>112.5</ele><time>2026-04-28T09:43:41.681Z</time></trkpt><trkpt lat="48.4069717" lon="-4.2286533"><ele>113.0</ele><time>2026-04-28T09:43:42.677Z</time></trkpt><trkpt lat="48.4070967" lon="-4.2286667"><ele>113.75</ele><time>2026-04-28T09:43:43.675Z</time></trkpt><trkpt lat="48.4072233" lon="-4.22868"><ele>114.5</ele><time>2026-04-28T09:43:44.678Z</time></trkpt><trkpt lat="48.4073533" lon="-4.22869"><ele>115.25</ele><time>2026-04-28T09:43:45.678Z</time></trkpt><trkpt lat="48.40748" lon="-4.2286983"><ele>116.0</ele><time>2026-04-28T09:43:46.682Z</time></trkpt><trkpt lat="48.4076067" lon="-4.228705"><ele>116.0</ele><time>2026-04-28T09:43:47.676Z</time></trkpt><trkpt lat="48.40773" lon="-4.2287117"><ele>116.0</ele><time>2026-04-28T09:43:48.677Z</time></trkpt><trkpt lat="48.4078517" lon="-4.22872"><ele>116.0</ele><time>2026-04-28T09:43:49.681Z</time></trkpt><trkpt lat="48.4079733" lon="-4.2287283"><ele>116.0</ele><time>2026-04-28T09:43:50.681Z</time></trkpt><trkpt lat="48.4080967" lon="-4.228735"><ele>117.5</ele><time>2026-04-28T09:43:51.675Z</time></trkpt><trkpt lat="48.40822" lon="-4.228745"><ele>119.0</ele><time>2026-04-28T09:43:52.676Z</time></trkpt><trkpt lat="48.4083467" lon="-4.2287567"><ele>120.5</ele><time>2026-04-28T09:43:53.68Z</time></trkpt><trkpt lat="48.40847" lon="-4.2287667"><ele>122.0</ele><time>2026-04-28T09:43:54.678Z</time></trkpt><trkpt lat="48.40859" lon="-4.2287767"><ele>122.0</ele><time>2026-04-28T09:43:55.681Z</time></trkpt><trkpt lat="48.40871" lon="-4.228785"><ele>122.0</ele><time>2026-04-28T09:43:56.677Z</time></trkpt><trkpt lat="48.4088283" lon="-4.2287967"><ele>122.0</ele><time>2026-04-28T09:43:57.678Z</time></trkpt><trkpt lat="48.4089467" lon="-4.22881"><ele>122.0</ele><time>2026-04-28T09:43:58.67Z</time></trkpt><trkpt lat="48.4090667" lon="-4.2288233"><ele>123.0</ele><time>2026-04-28T09:43:59.672Z</time></trkpt><trkpt lat="48.40919" lon="-4.22884"><ele>124.0</ele><time>2026-04-28T09:44:00.672Z</time></trkpt><trkpt lat="48.409315" lon="-4.2288517"><ele>125.0</ele><time>2026-04-28T09:44:01.672Z</time></trkpt><trkpt lat="48.4094433" lon="-4.2288633"><ele>126.0</ele><time>2026-04-28T09:44:02.681Z</time></trkpt><trkpt lat="48.409575" lon="-4.2288717"><ele>128.5</ele><time>2026-04-28T09:44:03.675Z</time></trkpt><trkpt lat="48.4097083" lon="-4.22888"><ele>131.0</ele><time>2026-04-28T09:44:04.672Z</time></trkpt><trkpt lat="48.4098417" lon="-4.2288867"><ele>133.5</ele><time>2026-04-28T09:44:05.682Z</time></trkpt><trkpt lat="48.409975" lon="-4.2288967"><ele>136.0</ele><time>2026-04-28T09:44:06.682Z</time></trkpt><trkpt lat="48.4101083" lon="-4.2289083"><ele>136.0</ele><time>2026-04-28T09:44:07.68Z</time></trkpt><trkpt lat="48.4102383" lon="-4.2289217"><ele>136.0</ele><time>2026-04-28T09:44:08.681Z</time></trkpt><trkpt lat="48.4103667" lon="-4.2289333"><ele>136.0</ele><time>2026-04-28T09:44:09.679Z</time></trkpt><trkpt lat="48.410495" lon="-4.2289433"><ele>136.0</ele><time>2026-04-28T09:44:10.682Z</time></trkpt><trkpt lat="48.4106233" lon="-4.2289517"><ele>137.5</ele><time>2026-04-28T09:44:11.682Z</time></trkpt><trkpt lat="48.4107517" lon="-4.2289617"><ele>139.0</ele><time>2026-04-28T09:44:12.683Z</time></trkpt><trkpt lat="48.41088" lon="-4.228975"><ele>140.5</ele><time>2026-04-28T09:44:13.677Z</time></trkpt><trkpt lat="48.4110083" lon="-4.228985"><ele>142.0</ele><time>2026-04-28T09:44:14.679Z</time></trkpt><trkpt lat="48.4111383" lon="-4.228995"><ele>142.0</ele><time>2026-04-28T09:44:15.677Z</time></trkpt><trkpt lat="48.4112683" lon="-4.229005"><ele>142.0</ele><time>2026-04-28T09:44:16.681Z</time></trkpt><trkpt lat="48.4113983" lon="-4.229015"><ele>142.0</ele><time>2026-04-28T09:44:17.677Z</time></trkpt><trkpt lat="48.4115317" lon="-4.2290267"><ele>142.0</ele><time>2026-04-28T09:44:18.678Z</time></trkpt><trkpt lat="48.411665" lon="-4.2290333"><ele>144.25</ele><time>2026-04-28T09:44:19.675Z</time></trkpt><trkpt lat="48.4118" lon="-4.2290417"><ele>146.5</ele><time>2026-04-28T09:44:20.681Z</time></trkpt><trkpt lat="48.411935" lon="-4.2290517"><ele>148.75</ele><time>2026-04-28T09:44:21.683Z</time></trkpt><trkpt lat="48.4120683" lon="-4.2290633"><ele>151.0</ele><time>2026-04-28T09:44:22.677Z</time></trkpt><trkpt lat="48.4122017" lon="-4.2290817"><ele>152.5</ele><time>2026-04-28T09:44:23.679Z</time></trkpt><trkpt lat="48.412335" lon="-4.2291"><ele>154.0</ele><time>2026-04-28T09:44:24.679Z</time></trkpt><trkpt lat="48.4124633" lon="-4.2291117"><ele>155.5</ele><time>2026-04-28T09:44:25.685Z</time></trkpt><trkpt lat="48.412595" lon="-4.22912"><ele>157.0</ele><time>2026-04-28T09:44:26.68Z</time></trkpt><trkpt lat="48.4127267" lon="-4.2291317"><ele>157.0</ele><time>2026-04-28T09:44:27.679Z</time></trkpt><trkpt lat="48.4128567" lon="-4.22914"><ele>157.0</ele><time>2026-04-28T09:44:28.679Z</time></trkpt><trkpt lat="48.4129867" lon="-4.2291467"><ele>157.0</ele><time>2026-04-28T09:44:29.679Z</time></trkpt><trkpt lat="48.4131167" lon="-4.229155"><ele>157.0</ele><time>2026-04-28T09:44:30.681Z</time></trkpt><trkpt lat="48.413245" lon="-4.229165"><ele>158.75</ele><time>2026-04-28T09:44:31.68Z</time></trkpt><trkpt lat="48.4133733" lon="-4.2291767"><ele>160.5</ele><time>2026-04-28T09:44:32.679Z</time></trkpt><trkpt lat="48.4135017" lon="-4.2291867"><ele>162.25</ele><time>2026-04-28T09:44:33.677Z</time></trkpt><trkpt lat="48.4136333" lon="-4.2291933"><ele>164.0</ele><time>2026-04-28T09:44:34.675Z</time></trkpt><trkpt lat="48.4137633" lon="-4.2291967"><ele>165.0</ele><time>2026-04-28T09:44:35.679Z</time></trkpt><trkpt lat="48.4138933" lon="-4.2291967"><ele>166.0</ele><time>2026-04-28T09:44:36.681Z</time></trkpt><trkpt lat="48.414025" lon="-4.229195"><ele>167.0</ele><time>2026-04-28T09:44:37.682Z</time></trkpt><trkpt lat="48.4141567" lon="-4.2291917"><ele>168.0</ele><time>2026-04-28T09:44:38.677Z</time></trkpt><trkpt lat="48.4142883" lon="-4.229185"><ele>168.0</ele><time>2026-04-28T09:44:39.673Z</time></trkpt><trkpt lat="48.41442" lon="-4.2291833"><ele>168.0</ele><time>2026-04-28T09:44:40.679Z</time></trkpt><trkpt lat="48.4145533" lon="-4.229185"><ele>168.0</ele><time>2026-04-28T09:44:41.678Z</time></trkpt><trkpt lat="48.4146867" lon="-4.2291883"><ele>168.0</ele><time>2026-04-28T09:44:42.682Z</time></trkpt><trkpt lat="48.414825" lon="-4.229195"><ele>168.25</ele><time>2026-04-28T09:44:43.677Z</time></trkpt><trkpt lat="48.414965" lon="-4.2292017"><ele>168.5</ele><time>2026-04-28T09:44:44.677Z</time></trkpt><trkpt lat="48.415105" lon="-4.229205"><ele>168.75</ele><time>2026-04-28T09:44:45.677Z</time></trkpt><trkpt lat="48.4152483" lon="-4.2292067"><ele>169.0</ele><time>2026-04-28T09:44:46.676Z</time></trkpt><trkpt lat="48.41539" lon="-4.22922"><ele>168.66666666666669</ele><time>2026-04-28T09:44:47.676Z</time></trkpt><trkpt lat="48.4155383" lon="-4.229235"><ele>168.33333333333334</ele><time>2026-04-28T09:44:48.682Z</time></trkpt><trkpt lat="48.4156867" lon="-4.2292733"><ele>168.0</ele><time>2026-04-28T09:44:49.681Z</time></trkpt><trkpt lat="48.4158367" lon="-4.2293367"><ele>168.0</ele><time>2026-04-28T09:44:50.68Z</time></trkpt><trkpt lat="48.4159867" lon="-4.229415"><ele>168.0</ele><time>2026-04-28T09:44:51.681Z</time></trkpt><trkpt lat="48.4161383" lon="-4.2295017"><ele>168.0</ele><time>2026-04-28T09:44:52.676Z</time></trkpt><trkpt lat="48.416295" lon="-4.2295933"><ele>168.0</ele><time>2026-04-28T09:44:53.675Z</time></trkpt><trkpt lat="48.4164533" lon="-4.22969"><ele>168.0</ele><time>2026-04-28T09:44:54.677Z</time></trkpt><trkpt lat="48.4166117" lon="-4.22979"><ele>168.0</ele><time>2026-04-28T09:44:55.675Z</time></trkpt><trkpt lat="48.4167717" lon="-4.2298883"><ele>168.0</ele><time>2026-04-28T09:44:56.678Z</time></trkpt><trkpt lat="48.41693" lon="-4.2299817"><ele>168.0</ele><time>2026-04-28T09:44:57.677Z</time></trkpt><trkpt lat="48.4170883" lon="-4.2300817"><ele>168.0</ele><time>2026-04-28T09:44:58.679Z</time></trkpt><trkpt lat="48.4172467" lon="-4.2301783"><ele>168.0</ele><time>2026-04-28T09:44:59.679Z</time></trkpt><trkpt lat="48.4174067" lon="-4.2302733"><ele>168.0</ele><time>2026-04-28T09:45:00.679Z</time></trkpt><trkpt lat="48.4175667" lon="-4.2303667"><ele>168.0</ele><time>2026-04-28T09:45:01.679Z</time></trkpt><trkpt lat="48.4177317" lon="-4.230455"><ele>168.0</ele><time>2026-04-28T09:45:02.674Z</time></trkpt><trkpt lat="48.417895" lon="-4.230545"><ele>168.0</ele><time>2026-04-28T09:45:03.677Z</time></trkpt><trkpt lat="48.41805" lon="-4.2306367"><ele>168.0</ele><time>2026-04-28T09:45:04.675Z</time></trkpt><trkpt lat="48.4182033" lon="-4.2307333"><ele>168.66666666666666</ele><time>2026-04-28T09:45:05.679Z</time></trkpt><trkpt lat="48.4183583" lon="-4.2308333"><ele>169.33333333333331</ele><time>2026-04-28T09:45:06.676Z</time></trkpt><trkpt lat="48.4185117" lon="-4.23093"><ele>170.0</ele><time>2026-04-28T09:45:07.673Z</time></trkpt><trkpt lat="48.4186683" lon="-4.2310217"><ele>171.0</ele><time>2026-04-28T09:45:08.677Z</time></trkpt><trkpt lat="48.4188233" lon="-4.2311117"><ele>172.0</ele><time>2026-04-28T09:45:09.68Z</time></trkpt><trkpt lat="48.4189767" lon="-4.2311983"><ele>173.0</ele><time>2026-04-28T09:45:10.683Z</time></trkpt><trkpt lat="48.41913" lon="-4.2312867"><ele>173.0</ele><time>2026-04-28T09:45:11.679Z</time></trkpt><trkpt lat="48.4192783" lon="-4.2313717"><ele>173.0</ele><time>2026-04-28T09:45:12.682Z</time></trkpt><trkpt lat="48.4194267" lon="-4.2314583"><ele>173.0</ele><time>2026-04-28T09:45:13.68Z</time></trkpt><trkpt lat="48.4195733" lon="-4.2315483"><ele>173.66666666666666</ele><time>2026-04-28T09:45:14.684Z</time></trkpt><trkpt lat="48.4197183" lon="-4.23164"><ele>174.33333333333334</ele><time>2026-04-28T09:45:15.68Z</time></trkpt><trkpt lat="48.4198633" lon="-4.23173"><ele>175.0</ele><time>2026-04-28T09:45:16.682Z</time></trkpt><trkpt lat="48.4200083" lon="-4.2318167"><ele>175.0</ele><time>2026-04-28T09:45:17.676Z</time></trkpt><trkpt lat="48.4201567" lon="-4.2319033"><ele>175.0</ele><time>2026-04-28T09:45:18.679Z</time></trkpt><trkpt lat="48.4203033" lon="-4.2319917"><ele>175.0</ele><time>2026-04-28T09:45:19.674Z</time></trkpt><trkpt lat="48.4204467" lon="-4.232085"><ele>175.66666666666669</ele><time>2026-04-28T09:45:20.675Z</time></trkpt><trkpt lat="48.4205883" lon="-4.2321767"><ele>176.33333333333334</ele><time>2026-04-28T09:45:21.682Z</time></trkpt><trkpt lat="48.4207317" lon="-4.2322683"><ele>177.0</ele><time>2026-04-28T09:45:22.675Z</time></trkpt><trkpt lat="48.4208767" lon="-4.23236"><ele>177.0</ele><time>2026-04-28T09:45:23.675Z</time></trkpt><trkpt lat="48.42102" lon="-4.23245"><ele>177.0</ele><time>2026-04-28T09:45:24.677Z</time></trkpt><trkpt lat="48.4211633" lon="-4.2325433"><ele>177.0</ele><time>2026-04-28T09:45:25.681Z</time></trkpt><trkpt lat="48.421305" lon="-4.2326433"><ele>177.33333333333334</ele><time>2026-04-28T09:45:26.68Z</time></trkpt><trkpt lat="48.4214483" lon="-4.2327467"><ele>177.66666666666669</ele><time>2026-04-28T09:45:27.684Z</time></trkpt><trkpt lat="48.42159" lon="-4.2328533"><ele>178.0</ele><time>2026-04-28T09:45:28.677Z</time></trkpt><trkpt lat="48.42173" lon="-4.2329617"><ele>178.0</ele><time>2026-04-28T09:45:29.677Z</time></trkpt><trkpt lat="48.4218667" lon="-4.2330683"><ele>178.0</ele><time>2026-04-28T09:45:30.676Z</time></trkpt><trkpt lat="48.4219983" lon="-4.233165"><ele>178.0</ele><time>2026-04-28T09:45:31.674Z</time></trkpt><trkpt lat="48.4221217" lon="-4.23326"><ele>178.0</ele><time>2026-04-28T09:45:32.675Z</time></trkpt><trkpt lat="48.4222417" lon="-4.233345"><ele>178.25</ele><time>2026-04-28T09:45:33.679Z</time></trkpt><trkpt lat="48.4223617" lon="-4.2334317"><ele>178.5</ele><time>2026-04-28T09:45:34.681Z</time></trkpt><trkpt lat="48.4224883" lon="-4.23352"><ele>178.75</ele><time>2026-04-28T09:45:35.678Z</time></trkpt><trkpt lat="48.42262" lon="-4.233615"><ele>179.0</ele><time>2026-04-28T09:45:36.683Z</time></trkpt><trkpt lat="48.4227567" lon="-4.233715"><ele>179.0</ele><time>2026-04-28T09:45:37.68Z</time></trkpt><trkpt lat="48.4228933" lon="-4.2338133"><ele>179.0</ele><time>2026-04-28T09:45:38.678Z</time></trkpt><trkpt lat="48.4230317" lon="-4.2339117"><ele>179.0</ele><time>2026-04-28T09:45:39.68Z</time></trkpt><trkpt lat="48.4231717" lon="-4.2340117"><ele>178.66666666666666</ele><time>2026-04-28T09:45:40.674Z</time></trkpt><trkpt lat="48.4233117" lon="-4.23412"><ele>178.33333333333334</ele><time>2026-04-28T09:45:41.673Z</time></trkpt><trkpt lat="48.4234533" lon="-4.2342433"><ele>178.0</ele><time>2026-04-28T09:45:42.683Z</time></trkpt><trkpt lat="48.4235867" lon="-4.2343867"><ele>178.0</ele><time>2026-04-28T09:45:43.677Z</time></trkpt><trkpt lat="48.4237133" lon="-4.2345417"><ele>178.0</ele><time>2026-04-28T09:45:44.686Z</time></trkpt><trkpt lat="48.423835" lon="-4.2346967"><ele>178.0</ele><time>2026-04-28T09:45:45.678Z</time></trkpt><trkpt lat="48.4239483" lon="-4.2348467"><ele>177.75</ele><time>2026-04-28T09:45:46.678Z</time></trkpt><trkpt lat="48.4240567" lon="-4.234995"><ele>177.5</ele><time>2026-04-28T09:45:47.679Z</time></trkpt><trkpt lat="48.4241617" lon="-4.2351383"><ele>177.25</ele><time>2026-04-28T09:45:48.676Z</time></trkpt><trkpt lat="48.4242633" lon="-4.2352783"><ele>177.0</ele><time>2026-04-28T09:45:49.676Z</time></trkpt><trkpt lat="48.4243633" lon="-4.2354167"><ele>177.0</ele><time>2026-04-28T09:45:50.675Z</time></trkpt><trkpt lat="48.4244633" lon="-4.23555"><ele>177.0</ele><time>2026-04-28T09:45:51.675Z</time></trkpt><trkpt lat="48.4245583" lon="-4.23568"><ele>177.0</ele><time>2026-04-28T09:45:52.68Z</time></trkpt><trkpt lat="48.4246533" lon="-4.2358067"><ele>177.0</ele><time>2026-04-28T09:45:53.678Z</time></trkpt><trkpt lat="48.4247417" lon="-4.23593"><ele>176.5</ele><time>2026-04-28T09:45:54.674Z</time></trkpt><trkpt lat="48.4248333" lon="-4.2360533"><ele>176.0</ele><time>2026-04-28T09:45:55.68Z</time></trkpt><trkpt lat="48.4249217" lon="-4.2361733"><ele>175.5</ele><time>2026-04-28T09:45:56.677Z</time></trkpt><trkpt lat="48.4250017" lon="-4.2362833"><ele>175.0</ele><time>2026-04-28T09:45:57.677Z</time></trkpt><trkpt lat="48.425075" lon="-4.236385"><ele>174.8</ele><time>2026-04-28T09:45:58.676Z</time></trkpt><trkpt lat="48.4251467" lon="-4.2364833"><ele>174.6</ele><time>2026-04-28T09:45:59.674Z</time></trkpt><trkpt lat="48.425215" lon="-4.2365767"><ele>174.39999999999998</ele><time>2026-04-28T09:46:00.682Z</time></trkpt><trkpt lat="48.425285" lon="-4.2366683"><ele>174.2</ele><time>2026-04-28T09:46:01.674Z</time></trkpt><trkpt lat="48.4253517" lon="-4.2367583"><ele>174.0</ele><time>2026-04-28T09:46:02.676Z</time></trkpt><trkpt lat="48.4254183" lon="-4.2368433"><ele>173.66666666666666</ele><time>2026-04-28T09:46:03.675Z</time></trkpt><trkpt lat="48.42548" lon="-4.2369283"><ele>173.33333333333334</ele><time>2026-04-28T09:46:04.676Z</time></trkpt><trkpt lat="48.4255367" lon="-4.237005"><ele>173.0</ele><time>2026-04-28T09:46:05.674Z</time></trkpt><trkpt lat="48.4255867" lon="-4.2370717"><ele>172.66666666666669</ele><time>2026-04-28T09:46:06.68Z</time></trkpt><trkpt lat="48.42567" lon="-4.2371867"><ele>172.33333333333334</ele><time>2026-04-28T09:46:08.679Z</time></trkpt><trkpt lat="48.42572" lon="-4.2372583"><ele>172.0</ele><time>2026-04-28T09:46:10.677Z</time></trkpt><trkpt lat="48.4257917" lon="-4.2372933"><ele>172.0</ele><time>2026-04-28T09:46:13.674Z</time></trkpt><trkpt lat="48.4258583" lon="-4.2372433"><ele>172.0</ele><time>2026-04-28T09:46:16.68Z</time></trkpt><trkpt lat="48.4259583" lon="-4.2371383"><ele>172.0</ele><time>2026-04-28T09:48:45.672Z</time></trkpt><trkpt lat="48.426015" lon="-4.2370733"><ele>172.0</ele><time>2026-04-28T09:48:47.672Z</time></trkpt><trkpt lat="48.42607" lon="-4.2369867"><ele>172.0</ele><time>2026-04-28T09:48:49.678Z</time></trkpt><trkpt lat="48.4261433" lon="-4.2368733"><ele>172.0</ele><time>2026-04-28T09:48:51.676Z</time></trkpt><trkpt lat="48.4262033" lon="-4.2367667"><ele>172.0</ele><time>2026-04-28T09:48:53.677Z</time></trkpt><trkpt lat="48.426285" lon="-4.2366583"><ele>172.0</ele><time>2026-04-28T09:48:55.675Z</time></trkpt><trkpt lat="48.42637" lon="-4.2365483"><ele>172.0</ele><time>2026-04-28T09:48:57.681Z</time></trkpt><trkpt lat="48.4264233" lon="-4.2364883"><ele>172.0</ele><time>2026-04-28T09:48:58.679Z</time></trkpt><trkpt lat="48.42648" lon="-4.2364267"><ele>171.71428571428572</ele><time>2026-04-28T09:48:59.68Z</time></trkpt><trkpt lat="48.4265317" lon="-4.236365"><ele>171.42857142857144</ele><time>2026-04-28T09:49:00.679Z</time></trkpt><trkpt lat="48.4265933" lon="-4.2363067"><ele>171.14285714285717</ele><time>2026-04-28T09:49:01.676Z</time></trkpt><trkpt lat="48.4266517" lon="-4.2362483"><ele>170.85714285714286</ele><time>2026-04-28T09:49:02.676Z</time></trkpt><trkpt lat="48.4267067" lon="-4.23619"><ele>170.57142857142856</ele><time>2026-04-28T09:49:03.675Z</time></trkpt><trkpt lat="48.426765" lon="-4.2361383"><ele>170.2857142857143</ele><time>2026-04-28T09:49:04.677Z</time></trkpt><trkpt lat="48.4268283" lon="-4.2360833"><ele>170.0</ele><time>2026-04-28T09:49:05.684Z</time></trkpt><trkpt lat="48.426885" lon="-4.2360267"><ele>170.0</ele><time>2026-04-28T09:49:06.678Z</time></trkpt><trkpt lat="48.4269367" lon="-4.2359683"><ele>170.0</ele><time>2026-04-28T09:49:07.677Z</time></trkpt><trkpt lat="48.4269933" lon="-4.2359117"><ele>170.0</ele><time>2026-04-28T09:49:08.68Z</time></trkpt><trkpt lat="48.4270467" lon="-4.2358517"><ele>170.0</ele><time>2026-04-28T09:49:09.674Z</time></trkpt><trkpt lat="48.4271417" lon="-4.2357283"><ele>170.0</ele><time>2026-04-28T09:49:11.674Z</time></trkpt><trkpt lat="48.4271917" lon="-4.2356633"><ele>170.0</ele><time>2026-04-28T09:49:12.677Z</time></trkpt><trkpt lat="48.42724" lon="-4.2356017"><ele>169.6</ele><time>2026-04-28T09:49:13.677Z</time></trkpt><trkpt lat="48.4273367" lon="-4.2354733"><ele>169.2</ele><time>2026-04-28T09:49:15.674Z</time></trkpt><trkpt lat="48.42739" lon="-4.2354033"><ele>168.8</ele><time>2026-04-28T09:49:16.674Z</time></trkpt><trkpt lat="48.42746" lon="-4.23527"><ele>168.4</ele><time>2026-04-28T09:49:18.68Z</time></trkpt><trkpt lat="48.427535" lon="-4.2351233"><ele>168.0</ele><time>2026-04-28T09:49:20.678Z</time></trkpt><trkpt lat="48.4275817" lon="-4.2350533"><ele>168.0</ele><time>2026-04-28T09:49:21.678Z</time></trkpt><trkpt lat="48.4276117" lon="-4.2349683"><ele>168.0</ele><time>2026-04-28T09:49:22.676Z</time></trkpt><trkpt lat="48.4276467" lon="-4.2348783"><ele>168.0</ele><time>2026-04-28T09:49:23.682Z</time></trkpt><trkpt lat="48.42768" lon="-4.2347833"><ele>168.0</ele><time>2026-04-28T09:49:24.68Z</time></trkpt><trkpt lat="48.4277233" lon="-4.2346883"><ele>168.0</ele><time>2026-04-28T09:49:25.678Z</time></trkpt><trkpt lat="48.4277617" lon="-4.2345933"><ele>168.0</ele><time>2026-04-28T09:49:26.679Z</time></trkpt><trkpt lat="48.427805" lon="-4.2345033"><ele>168.0</ele><time>2026-04-28T09:49:27.677Z</time></trkpt><trkpt lat="48.4278533" lon="-4.234415"><ele>167.83333333333334</ele><time>2026-04-28T09:49:28.676Z</time></trkpt><trkpt lat="48.4278917" lon="-4.2343233"><ele>167.66666666666666</ele><time>2026-04-28T09:49:29.677Z</time></trkpt><trkpt lat="48.42793" lon="-4.234235"><ele>167.5</ele><time>2026-04-28T09:49:30.675Z</time></trkpt><trkpt lat="48.4279733" lon="-4.2341583"><ele>167.33333333333331</ele><time>2026-04-28T09:49:31.676Z</time></trkpt><trkpt lat="48.4280583" lon="-4.2340167"><ele>167.16666666666666</ele><time>2026-04-28T09:49:33.677Z</time></trkpt><trkpt lat="48.4281067" lon="-4.23395"><ele>167.0</ele><time>2026-04-28T09:49:34.679Z</time></trkpt><trkpt lat="48.42816" lon="-4.23388"><ele>167.0</ele><time>2026-04-28T09:49:35.673Z</time></trkpt><trkpt lat="48.42826" lon="-4.23375"><ele>167.0</ele><time>2026-04-28T09:49:37.675Z</time></trkpt><trkpt lat="48.4283133" lon="-4.2336817"><ele>167.0</ele><time>2026-04-28T09:49:38.677Z</time></trkpt><trkpt lat="48.4283683" lon="-4.2336217"><ele>167.0</ele><time>2026-04-28T09:49:39.674Z</time></trkpt><trkpt lat="48.42842" lon="-4.2335633"><ele>167.0</ele><time>2026-04-28T09:49:40.674Z</time></trkpt><trkpt lat="48.4284733" lon="-4.23351"><ele>167.0</ele><time>2026-04-28T09:49:41.674Z</time></trkpt><trkpt lat="48.4285333" lon="-4.23345"><ele>167.0</ele><time>2026-04-28T09:49:42.677Z</time></trkpt><trkpt lat="48.4285967" lon="-4.2333933"><ele>167.0</ele><time>2026-04-28T09:49:43.674Z</time></trkpt><trkpt lat="48.4287083" lon="-4.2333117"><ele>167.0</ele><time>2026-04-28T09:49:45.68Z</time></trkpt><trkpt lat="48.4288317" lon="-4.23324"><ele>167.0</ele><time>2026-04-28T09:49:47.674Z</time></trkpt><trkpt lat="48.4288933" lon="-4.233215"><ele>167.0</ele><time>2026-04-28T09:49:48.678Z</time></trkpt><trkpt lat="48.428955" lon="-4.23319"><ele>166.8</ele><time>2026-04-28T09:49:49.677Z</time></trkpt><trkpt lat="48.4290183" lon="-4.2331767"><ele>166.6</ele><time>2026-04-28T09:49:50.678Z</time></trkpt><trkpt lat="48.4291367" lon="-4.2331633"><ele>166.4</ele><time>2026-04-28T09:49:52.674Z</time></trkpt><trkpt lat="48.429225" lon="-4.2331467"><ele>166.20000000000002</ele><time>2026-04-28T09:49:54.674Z</time></trkpt><trkpt lat="48.4292683" lon="-4.2330067"><ele>166.0</ele><time>2026-04-28T09:49:57.676Z</time></trkpt><trkpt lat="48.429285" lon="-4.2328483"><ele>165.8</ele><time>2026-04-28T09:49:59.675Z</time></trkpt><trkpt lat="48.42931" lon="-4.23269"><ele>165.60000000000002</ele><time>2026-04-28T09:50:01.679Z</time></trkpt><trkpt lat="48.429345" lon="-4.232545"><ele>165.4</ele><time>2026-04-28T09:50:03.674Z</time></trkpt><trkpt lat="48.4294033" lon="-4.232395"><ele>165.2</ele><time>2026-04-28T09:50:05.674Z</time></trkpt><trkpt lat="48.42948" lon="-4.2322533"><ele>165.0</ele><time>2026-04-28T09:50:07.675Z</time></trkpt><trkpt lat="48.42955" lon="-4.2321267"><ele>165.2</ele><time>2026-04-28T09:50:09.677Z</time></trkpt><trkpt lat="48.4296283" lon="-4.2320033"><ele>165.4</ele><time>2026-04-28T09:50:11.678Z</time></trkpt><trkpt lat="48.4297117" lon="-4.23191"><ele>165.60000000000002</ele><time>2026-04-28T09:50:13.676Z</time></trkpt><trkpt lat="48.4298133" lon="-4.2318017"><ele>165.8</ele><time>2026-04-28T09:50:15.683Z</time></trkpt><trkpt lat="48.4298667" lon="-4.2317467"><ele>166.0</ele><time>2026-04-28T09:50:16.679Z</time></trkpt><trkpt lat="48.4299267" lon="-4.2316967"><ele>166.0</ele><time>2026-04-28T09:50:17.676Z</time></trkpt><trkpt lat="48.4299883" lon="-4.2316483"><ele>166.0</ele><time>2026-04-28T09:50:18.677Z</time></trkpt><trkpt lat="48.4300483" lon="-4.2315883"><ele>166.0</ele><time>2026-04-28T09:50:19.675Z</time></trkpt><trkpt lat="48.4301067" lon="-4.2315267"><ele>166.0</ele><time>2026-04-28T09:50:20.678Z</time></trkpt><trkpt lat="48.4301667" lon="-4.2314733"><ele>166.0</ele><time>2026-04-28T09:50:21.676Z</time></trkpt><trkpt lat="48.430275" lon="-4.2314017"><ele>166.0</ele><time>2026-04-28T09:50:23.672Z</time></trkpt><trkpt lat="48.430335" lon="-4.2313683"><ele>166.5</ele><time>2026-04-28T09:50:24.687Z</time></trkpt><trkpt lat="48.4303933" lon="-4.2313283"><ele>167.0</ele><time>2026-04-28T09:50:25.676Z</time></trkpt><trkpt lat="48.4304583" lon="-4.231275"><ele>167.5</ele><time>2026-04-28T09:50:26.673Z</time></trkpt><trkpt lat="48.4305233" lon="-4.2312133"><ele>168.0</ele><time>2026-04-28T09:50:27.68Z</time></trkpt><trkpt lat="48.4305883" lon="-4.23115"><ele>168.5</ele><time>2026-04-28T09:50:28.676Z</time></trkpt><trkpt lat="48.4306567" lon="-4.2310867"><ele>169.0</ele><time>2026-04-28T09:50:29.677Z</time></trkpt><trkpt lat="48.430725" lon="-4.2310217"><ele>167.85714285714286</ele><time>2026-04-28T09:50:30.682Z</time></trkpt><trkpt lat="48.4307867" lon="-4.23095"><ele>166.71428571428572</ele><time>2026-04-28T09:50:31.674Z</time></trkpt><trkpt lat="48.4308533" lon="-4.23088"><ele>165.57142857142856</ele><time>2026-04-28T09:50:32.679Z</time></trkpt><trkpt lat="48.4309233" lon="-4.230825"><ele>164.42857142857144</ele><time>2026-04-28T09:50:33.674Z</time></trkpt><trkpt lat="48.4309867" lon="-4.230765"><ele>163.28571428571428</ele><time>2026-04-28T09:50:34.675Z</time></trkpt><trkpt lat="48.4310383" lon="-4.23071"><ele>162.14285714285714</ele><time>2026-04-28T09:50:35.678Z</time></trkpt><trkpt lat="48.4310917" lon="-4.23064"><ele>161.0</ele><time>2026-04-28T09:50:36.676Z</time></trkpt><trkpt lat="48.431145" lon="-4.2305633"><ele>161.0</ele><time>2026-04-28T09:50:37.676Z</time></trkpt><trkpt lat="48.4311933" lon="-4.2304783"><ele>161.0</ele><time>2026-04-28T09:50:38.675Z</time></trkpt><trkpt lat="48.4312383" lon="-4.230395"><ele>161.0</ele><time>2026-04-28T09:50:39.677Z</time></trkpt><trkpt lat="48.4312733" lon="-4.2303117"><ele>161.0</ele><time>2026-04-28T09:50:40.676Z</time></trkpt><trkpt lat="48.4313433" lon="-4.230165"><ele>161.0</ele><time>2026-04-28T09:50:42.675Z</time></trkpt><trkpt lat="48.431385" lon="-4.2300883"><ele>161.0</ele><time>2026-04-28T09:50:43.676Z</time></trkpt><trkpt lat="48.43147" lon="-4.229955"><ele>160.42857142857142</ele><time>2026-04-28T09:50:45.678Z</time></trkpt><trkpt lat="48.4315117" lon="-4.2298833"><ele>159.85714285714286</ele><time>2026-04-28T09:50:46.671Z</time></trkpt><trkpt lat="48.43155" lon="-4.2298033"><ele>159.28571428571428</ele><time>2026-04-28T09:50:47.678Z</time></trkpt><trkpt lat="48.4315867" lon="-4.2297167"><ele>158.71428571428572</ele><time>2026-04-28T09:50:48.672Z</time></trkpt><trkpt lat="48.4316267" lon="-4.2296283"><ele>158.14285714285714</ele><time>2026-04-28T09:50:49.675Z</time></trkpt><trkpt lat="48.4316717" lon="-4.2295467"><ele>157.57142857142856</ele><time>2026-04-28T09:50:50.68Z</time></trkpt><trkpt lat="48.4317167" lon="-4.229475"><ele>157.0</ele><time>2026-04-28T09:50:51.678Z</time></trkpt><trkpt lat="48.4317683" lon="-4.2294117"><ele>156.66666666666669</ele><time>2026-04-28T09:50:52.683Z</time></trkpt><trkpt lat="48.4318183" lon="-4.22935"><ele>156.33333333333334</ele><time>2026-04-28T09:50:53.679Z</time></trkpt><trkpt lat="48.43187" lon="-4.229295"><ele>156.0</ele><time>2026-04-28T09:50:54.678Z</time></trkpt><trkpt lat="48.43198" lon="-4.2292067"><ele>155.66666666666666</ele><time>2026-04-28T09:50:56.678Z</time></trkpt><trkpt lat="48.4320417" lon="-4.22918"><ele>155.33333333333331</ele><time>2026-04-28T09:50:57.675Z</time></trkpt><trkpt lat="48.432165" lon="-4.2291383"><ele>155.0</ele><time>2026-04-28T09:50:59.677Z</time></trkpt><trkpt lat="48.4322883" lon="-4.2291067"><ele>155.0</ele><time>2026-04-28T09:51:01.676Z</time></trkpt><trkpt lat="48.43241" lon="-4.2290917"><ele>155.0</ele><time>2026-04-28T09:51:03.682Z</time></trkpt><trkpt lat="48.4325167" lon="-4.2290383"><ele>155.0</ele><time>2026-04-28T09:51:05.675Z</time></trkpt><trkpt lat="48.4326233" lon="-4.228945"><ele>155.0</ele><time>2026-04-28T09:51:07.676Z</time></trkpt><trkpt lat="48.4327183" lon="-4.2288483"><ele>154.75</ele><time>2026-04-28T09:51:09.681Z</time></trkpt><trkpt lat="48.4328133" lon="-4.2287983"><ele>154.5</ele><time>2026-04-28T09:51:11.675Z</time></trkpt><trkpt lat="48.43291" lon="-4.2287717"><ele>154.25</ele><time>2026-04-28T09:51:13.675Z</time></trkpt><trkpt lat="48.4330217" lon="-4.2288033"><ele>154.0</ele><time>2026-04-28T09:51:15.68Z</time></trkpt><trkpt lat="48.433145" lon="-4.2288933"><ele>154.33333333333334</ele><time>2026-04-28T09:51:17.677Z</time></trkpt><trkpt lat="48.43322" lon="-4.2289467"><ele>154.66666666666669</ele><time>2026-04-28T09:51:18.683Z</time></trkpt><trkpt lat="48.43329" lon="-4.2290017"><ele>155.0</ele><time>2026-04-28T09:51:19.676Z</time></trkpt><trkpt lat="48.4333583" lon="-4.22906"><ele>155.33333333333334</ele><time>2026-04-28T09:51:20.677Z</time></trkpt><trkpt lat="48.4334217" lon="-4.2291133"><ele>155.66666666666666</ele><time>2026-04-28T09:51:21.68Z</time></trkpt><trkpt lat="48.4335317" lon="-4.2291767"><ele>156.0</ele><time>2026-04-28T09:51:23.674Z</time></trkpt><trkpt lat="48.4335967" lon="-4.2291933"><ele>156.83333333333334</ele><time>2026-04-28T09:51:24.675Z</time></trkpt><trkpt lat="48.433665" lon="-4.2292067"><ele>157.66666666666666</ele><time>2026-04-28T09:51:25.68Z</time></trkpt><trkpt lat="48.4337317" lon="-4.2292133"><ele>158.5</ele><time>2026-04-28T09:51:26.68Z</time></trkpt><trkpt lat="48.4338033" lon="-4.22922"><ele>159.33333333333331</ele><time>2026-04-28T09:51:27.675Z</time></trkpt><trkpt lat="48.43387" lon="-4.22922"><ele>160.16666666666666</ele><time>2026-04-28T09:51:28.672Z</time></trkpt><trkpt lat="48.433935" lon="-4.2292233"><ele>161.0</ele><time>2026-04-28T09:51:29.679Z</time></trkpt><trkpt lat="48.43406" lon="-4.2292267"><ele>161.14285714285714</ele><time>2026-04-28T09:51:31.676Z</time></trkpt><trkpt lat="48.43413" lon="-4.22923"><ele>161.28571428571428</ele><time>2026-04-28T09:51:32.674Z</time></trkpt><trkpt lat="48.4341983" lon="-4.22924"><ele>161.42857142857144</ele><time>2026-04-28T09:51:33.677Z</time></trkpt><trkpt lat="48.4342683" lon="-4.2292433"><ele>161.57142857142856</ele><time>2026-04-28T09:51:34.673Z</time></trkpt><trkpt lat="48.4343383" lon="-4.2292367"><ele>161.71428571428572</ele><time>2026-04-28T09:51:35.675Z</time></trkpt><trkpt lat="48.434415" lon="-4.2292183"><ele>161.85714285714286</ele><time>2026-04-28T09:51:36.679Z</time></trkpt><trkpt lat="48.4345067" lon="-4.2291983"><ele>162.0</ele><time>2026-04-28T09:51:37.677Z</time></trkpt><trkpt lat="48.4346" lon="-4.2291683"><ele>162.16666666666666</ele><time>2026-04-28T09:51:38.676Z</time></trkpt><trkpt lat="48.434685" lon="-4.2291417"><ele>162.33333333333334</ele><time>2026-04-28T09:51:39.679Z</time></trkpt><trkpt lat="48.4347633" lon="-4.229115"><ele>162.5</ele><time>2026-04-28T09:51:40.676Z</time></trkpt><trkpt lat="48.4348433" lon="-4.2290883"><ele>162.66666666666669</ele><time>2026-04-28T09:51:41.677Z</time></trkpt><trkpt lat="48.4349217" lon="-4.2290617"><ele>162.83333333333334</ele><time>2026-04-28T09:51:42.681Z</time></trkpt><trkpt lat="48.435" lon="-4.22904"><ele>163.0</ele><time>2026-04-28T09:51:43.675Z</time></trkpt><trkpt lat="48.43508" lon="-4.2290167"><ele>163.0</ele><time>2026-04-28T09:51:44.672Z</time></trkpt><trkpt lat="48.4351717" lon="-4.228995"><ele>163.0</ele><time>2026-04-28T09:51:45.675Z</time></trkpt><trkpt lat="48.4352717" lon="-4.2289683"><ele>163.0</ele><time>2026-04-28T09:51:46.674Z</time></trkpt><trkpt lat="48.4353767" lon="-4.22894"><ele>163.0</ele><time>2026-04-28T09:51:47.676Z</time></trkpt><trkpt lat="48.435485" lon="-4.2289133"><ele>163.0</ele><time>2026-04-28T09:51:48.673Z</time></trkpt><trkpt lat="48.4355917" lon="-4.22889"><ele>162.4</ele><time>2026-04-28T09:51:49.673Z</time></trkpt><trkpt lat="48.4356967" lon="-4.22887"><ele>161.8</ele><time>2026-04-28T09:51:50.676Z</time></trkpt><trkpt lat="48.4358017" lon="-4.228855"><ele>161.2</ele><time>2026-04-28T09:51:51.678Z</time></trkpt><trkpt lat="48.43591" lon="-4.2288383"><ele>160.6</ele><time>2026-04-28T09:51:52.677Z</time></trkpt><trkpt lat="48.4360133" lon="-4.22882"><ele>160.0</ele><time>2026-04-28T09:51:53.675Z</time></trkpt><trkpt lat="48.436115" lon="-4.2287983"><ele>160.0</ele><time>2026-04-28T09:51:54.674Z</time></trkpt><trkpt lat="48.4362133" lon="-4.2287733"><ele>160.0</ele><time>2026-04-28T09:51:55.678Z</time></trkpt><trkpt lat="48.43631" lon="-4.22875"><ele>160.0</ele><time>2026-04-28T09:51:56.675Z</time></trkpt><trkpt lat="48.4364033" lon="-4.2287267"><ele>160.0</ele><time>2026-04-28T09:51:57.674Z</time></trkpt><trkpt lat="48.4364933" lon="-4.2287067"><ele>160.0</ele><time>2026-04-28T09:51:58.676Z</time></trkpt><trkpt lat="48.4365783" lon="-4.228685"><ele>159.66666666666669</ele><time>2026-04-28T09:51:59.675Z</time></trkpt><trkpt lat="48.43666" lon="-4.2286683"><ele>159.33333333333334</ele><time>2026-04-28T09:52:00.675Z</time></trkpt><trkpt lat="48.4367367" lon="-4.22865"><ele>159.0</ele><time>2026-04-28T09:52:01.677Z</time></trkpt><trkpt lat="48.436805" lon="-4.2286333"><ele>158.66666666666666</ele><time>2026-04-28T09:52:02.679Z</time></trkpt><trkpt lat="48.4368983" lon="-4.2286083"><ele>158.33333333333331</ele><time>2026-04-28T09:52:04.679Z</time></trkpt><trkpt lat="48.4369717" lon="-4.2286333"><ele>158.0</ele><time>2026-04-28T09:52:06.675Z</time></trkpt><trkpt lat="48.4370317" lon="-4.2287817"><ele>158.0</ele><time>2026-04-28T09:52:08.68Z</time></trkpt><trkpt lat="48.4370633" lon="-4.2288933"><ele>158.0</ele><time>2026-04-28T09:52:09.679Z</time></trkpt><trkpt lat="48.4371017" lon="-4.2290117"><ele>158.0</ele><time>2026-04-28T09:52:10.676Z</time></trkpt><trkpt lat="48.4371467" lon="-4.2291367"><ele>158.0</ele><time>2026-04-28T09:52:11.674Z</time></trkpt><trkpt lat="48.4371933" lon="-4.2292583"><ele>158.0</ele><time>2026-04-28T09:52:12.682Z</time></trkpt><trkpt lat="48.4372417" lon="-4.22937"><ele>158.0</ele><time>2026-04-28T09:52:13.676Z</time></trkpt><trkpt lat="48.437285" lon="-4.2294683"><ele>158.33333333333331</ele><time>2026-04-28T09:52:14.677Z</time></trkpt><trkpt lat="48.437325" lon="-4.229545"><ele>158.66666666666666</ele><time>2026-04-28T09:52:15.676Z</time></trkpt><trkpt lat="48.43738" lon="-4.22964"><ele>159.0</ele><time>2026-04-28T09:52:17.681Z</time></trkpt><trkpt lat="48.4374283" lon="-4.229715"><ele>159.33333333333334</ele><time>2026-04-28T09:52:20.678Z</time></trkpt><trkpt lat="48.4374883" lon="-4.2298267"><ele>159.66666666666669</ele><time>2026-04-28T09:52:24.679Z</time></trkpt><trkpt lat="48.4375433" lon="-4.22992"><ele>160.0</ele><time>2026-04-28T09:52:26.678Z</time></trkpt><trkpt lat="48.4376083" lon="-4.230035"><ele>160.0</ele><time>2026-04-28T09:52:28.676Z</time></trkpt><trkpt lat="48.4376517" lon="-4.230105"><ele>160.0</ele><time>2026-04-28T09:52:29.676Z</time></trkpt><trkpt lat="48.4376967" lon="-4.23018"><ele>160.0</ele><time>2026-04-28T09:52:30.68Z</time></trkpt><trkpt lat="48.4377417" lon="-4.2302567"><ele>160.0</ele><time>2026-04-28T09:52:31.681Z</time></trkpt><trkpt lat="48.43779" lon="-4.2303383"><ele>160.0</ele><time>2026-04-28T09:52:32.676Z</time></trkpt><trkpt lat="48.43784" lon="-4.2304283"><ele>160.0</ele><time>2026-04-28T09:52:33.68Z</time></trkpt><trkpt lat="48.4378933" lon="-4.230525"><ele>160.0</ele><time>2026-04-28T09:52:34.675Z</time></trkpt><trkpt lat="48.4379483" lon="-4.2306233"><ele>159.83333333333334</ele><time>2026-04-28T09:52:35.678Z</time></trkpt><trkpt lat="48.4380017" lon="-4.2307167"><ele>159.66666666666669</ele><time>2026-04-28T09:52:36.681Z</time></trkpt><trkpt lat="48.438055" lon="-4.2308067"><ele>159.5</ele><time>2026-04-28T09:52:37.675Z</time></trkpt><trkpt lat="48.438105" lon="-4.2309"><ele>159.33333333333334</ele><time>2026-04-28T09:52:38.677Z</time></trkpt><trkpt lat="48.4381583" lon="-4.2309967"><ele>159.16666666666666</ele><time>2026-04-28T09:52:39.677Z</time></trkpt><trkpt lat="48.4382117" lon="-4.231095"><ele>159.0</ele><time>2026-04-28T09:52:40.671Z</time></trkpt><trkpt lat="48.43827" lon="-4.2311933"><ele>159.0</ele><time>2026-04-28T09:52:41.69Z</time></trkpt><trkpt lat="48.4383283" lon="-4.231285"><ele>159.0</ele><time>2026-04-28T09:52:42.678Z</time></trkpt><trkpt lat="48.4383867" lon="-4.23138"><ele>159.0</ele><time>2026-04-28T09:52:43.674Z</time></trkpt><trkpt lat="48.4384433" lon="-4.231475"><ele>159.0</ele><time>2026-04-28T09:52:44.679Z</time></trkpt><trkpt lat="48.4385017" lon="-4.2315667"><ele>159.0</ele><time>2026-04-28T09:52:45.672Z</time></trkpt><trkpt lat="48.4385617" lon="-4.2316633"><ele>159.0</ele><time>2026-04-28T09:52:46.673Z</time></trkpt><trkpt lat="48.4386217" lon="-4.2317433"><ele>159.0</ele><time>2026-04-28T09:52:47.678Z</time></trkpt><trkpt lat="48.438685" lon="-4.2318233"><ele>159.0</ele><time>2026-04-28T09:52:48.681Z</time></trkpt><trkpt lat="48.438745" lon="-4.2319067"><ele>159.0</ele><time>2026-04-28T09:52:49.679Z</time></trkpt><trkpt lat="48.4388067" lon="-4.2319883"><ele>159.0</ele><time>2026-04-28T09:52:50.681Z</time></trkpt><trkpt lat="48.438865" lon="-4.232065"><ele>159.0</ele><time>2026-04-28T09:52:51.678Z</time></trkpt><trkpt lat="48.4389217" lon="-4.2321383"><ele>159.0</ele><time>2026-04-28T09:52:52.679Z</time></trkpt><trkpt lat="48.438975" lon="-4.232205"><ele>158.4</ele><time>2026-04-28T09:52:53.676Z</time></trkpt><trkpt lat="48.4390533" lon="-4.2323183"><ele>157.8</ele><time>2026-04-28T09:52:55.675Z</time></trkpt><trkpt lat="48.4391183" lon="-4.2324117"><ele>157.2</ele><time>2026-04-28T09:53:00.675Z</time></trkpt><trkpt lat="48.4391967" lon="-4.2325667"><ele>156.6</ele><time>2026-04-28T09:53:02.675Z</time></trkpt><trkpt lat="48.43925" lon="-4.2326517"><ele>156.0</ele><time>2026-04-28T09:53:03.674Z</time></trkpt><trkpt lat="48.43932" lon="-4.2327283"><ele>156.0</ele><time>2026-04-28T09:53:04.675Z</time></trkpt><trkpt lat="48.4394" lon="-4.2327983"><ele>156.0</ele><time>2026-04-28T09:53:05.678Z</time></trkpt><trkpt lat="48.439485" lon="-4.2328683"><ele>156.0</ele><time>2026-04-28T09:53:06.68Z</time></trkpt><trkpt lat="48.4395733" lon="-4.2329367"><ele>156.0</ele><time>2026-04-28T09:53:07.676Z</time></trkpt><trkpt lat="48.43966" lon="-4.2330117"><ele>156.0</ele><time>2026-04-28T09:53:08.676Z</time></trkpt><trkpt lat="48.439745" lon="-4.23309"><ele>155.0</ele><time>2026-04-28T09:53:09.676Z</time></trkpt><trkpt lat="48.4398317" lon="-4.2331733"><ele>154.0</ele><time>2026-04-28T09:53:10.676Z</time></trkpt><trkpt lat="48.43992" lon="-4.23326"><ele>153.0</ele><time>2026-04-28T09:53:11.677Z</time></trkpt><trkpt lat="48.4400083" lon="-4.2333433"><ele>152.0</ele><time>2026-04-28T09:53:12.677Z</time></trkpt><trkpt lat="48.4400967" lon="-4.23343"><ele>151.0</ele><time>2026-04-28T09:53:13.676Z</time></trkpt><trkpt lat="48.4401817" lon="-4.233515"><ele>151.0</ele><time>2026-04-28T09:53:14.675Z</time></trkpt><trkpt lat="48.4402617" lon="-4.2336"><ele>151.0</ele><time>2026-04-28T09:53:15.676Z</time></trkpt><trkpt lat="48.44034" lon="-4.2336817"><ele>151.0</ele><time>2026-04-28T09:53:16.673Z</time></trkpt><trkpt lat="48.4404133" lon="-4.2337617"><ele>151.0</ele><time>2026-04-28T09:53:17.676Z</time></trkpt><trkpt lat="48.440485" lon="-4.23384"><ele>151.0</ele><time>2026-04-28T09:53:18.678Z</time></trkpt><trkpt lat="48.44056" lon="-4.233915"><ele>150.2</ele><time>2026-04-28T09:53:19.673Z</time></trkpt><trkpt lat="48.44064" lon="-4.2339883"><ele>149.39999999999998</ele><time>2026-04-28T09:53:20.679Z</time></trkpt><trkpt lat="48.4407183" lon="-4.2340533"><ele>148.6</ele><time>2026-04-28T09:53:21.682Z</time></trkpt><trkpt lat="48.4408017" lon="-4.2341133"><ele>147.79999999999998</ele><time>2026-04-28T09:53:22.678Z</time></trkpt><trkpt lat="48.44089" lon="-4.234175"><ele>147.0</ele><time>2026-04-28T09:53:23.682Z</time></trkpt><trkpt lat="48.4409833" lon="-4.2342333"><ele>147.0</ele><time>2026-04-28T09:53:24.676Z</time></trkpt><trkpt lat="48.4410767" lon="-4.23429"><ele>147.0</ele><time>2026-04-28T09:53:25.675Z</time></trkpt><trkpt lat="48.4411667" lon="-4.2343383"><ele>147.0</ele><time>2026-04-28T09:53:26.68Z</time></trkpt><trkpt lat="48.4412617" lon="-4.2343867"><ele>147.0</ele><time>2026-04-28T09:53:27.676Z</time></trkpt><trkpt lat="48.4413483" lon="-4.234435"><ele>147.0</ele><time>2026-04-28T09:53:28.676Z</time></trkpt><trkpt lat="48.441425" lon="-4.23448"><ele>146.0</ele><time>2026-04-28T09:53:29.68Z</time></trkpt><trkpt lat="48.441515" lon="-4.234525"><ele>145.0</ele><time>2026-04-28T09:53:30.679Z</time></trkpt><trkpt lat="48.44159" lon="-4.2345633"><ele>144.0</ele><time>2026-04-28T09:53:31.678Z</time></trkpt><trkpt lat="48.441665" lon="-4.2345917"><ele>143.0</ele><time>2026-04-28T09:53:32.675Z</time></trkpt><trkpt lat="48.4417317" lon="-4.234615"><ele>142.0</ele><time>2026-04-28T09:53:33.68Z</time></trkpt><trkpt lat="48.4418" lon="-4.23464"><ele>141.0</ele><time>2026-04-28T09:53:34.679Z</time></trkpt><trkpt lat="48.441875" lon="-4.2346633"><ele>141.0</ele><time>2026-04-28T09:53:35.674Z</time></trkpt><trkpt lat="48.441965" lon="-4.234695"><ele>141.0</ele><time>2026-04-28T09:53:36.682Z</time></trkpt><trkpt lat="48.4420567" lon="-4.2347367"><ele>141.0</ele><time>2026-04-28T09:53:37.678Z</time></trkpt><trkpt lat="48.4421433" lon="-4.2347733"><ele>141.0</ele><time>2026-04-28T09:53:38.674Z</time></trkpt><trkpt lat="48.4422333" lon="-4.2347983"><ele>141.0</ele><time>2026-04-28T09:53:39.677Z</time></trkpt><trkpt lat="48.4423167" lon="-4.2348217"><ele>139.83333333333334</ele><time>2026-04-28T09:53:40.675Z</time></trkpt><trkpt lat="48.4424" lon="-4.2348433"><ele>138.66666666666666</ele><time>2026-04-28T09:53:41.681Z</time></trkpt><trkpt lat="48.4424883" lon="-4.23487"><ele>137.5</ele><time>2026-04-28T09:53:42.689Z</time></trkpt><trkpt lat="48.442575" lon="-4.2348967"><ele>136.33333333333331</ele><time>2026-04-28T09:53:43.673Z</time></trkpt><trkpt lat="48.44266" lon="-4.234935"><ele>135.16666666666666</ele><time>2026-04-28T09:53:44.676Z</time></trkpt><trkpt lat="48.442745" lon="-4.2349733"><ele>134.0</ele><time>2026-04-28T09:53:45.686Z</time></trkpt><trkpt lat="48.4428233" lon="-4.2350117"><ele>134.0</ele><time>2026-04-28T09:53:46.675Z</time></trkpt><trkpt lat="48.4428917" lon="-4.2350433"><ele>134.0</ele><time>2026-04-28T09:53:47.678Z</time></trkpt><trkpt lat="48.4429533" lon="-4.2350733"><ele>134.0</ele><time>2026-04-28T09:53:48.675Z</time></trkpt><trkpt lat="48.4430217" lon="-4.235095"><ele>134.0</ele><time>2026-04-28T09:53:49.682Z</time></trkpt><trkpt lat="48.4430967" lon="-4.235125"><ele>134.0</ele><time>2026-04-28T09:53:50.677Z</time></trkpt><trkpt lat="48.4431583" lon="-4.23516"><ele>134.0</ele><time>2026-04-28T09:53:51.675Z</time></trkpt><trkpt lat="48.4432183" lon="-4.2352017"><ele>134.0</ele><time>2026-04-28T09:53:52.672Z</time></trkpt><trkpt lat="48.443335" lon="-4.2352867"><ele>132.42857142857144</ele><time>2026-04-28T09:53:54.676Z</time></trkpt><trkpt lat="48.4434033" lon="-4.2353367"><ele>130.85714285714286</ele><time>2026-04-28T09:53:55.677Z</time></trkpt><trkpt lat="48.4434667" lon="-4.2353883"><ele>129.28571428571428</ele><time>2026-04-28T09:53:56.674Z</time></trkpt><trkpt lat="48.4435333" lon="-4.2354467"><ele>127.71428571428572</ele><time>2026-04-28T09:53:57.675Z</time></trkpt><trkpt lat="48.4435967" lon="-4.2354967"><ele>126.14285714285714</ele><time>2026-04-28T09:53:58.678Z</time></trkpt><trkpt lat="48.44366" lon="-4.235545"><ele>124.57142857142858</ele><time>2026-04-28T09:53:59.683Z</time></trkpt><trkpt lat="48.443725" lon="-4.2356033"><ele>123.00000000000001</ele><time>2026-04-28T09:54:00.675Z</time></trkpt><trkpt lat="48.4438283" lon="-4.2356867"><ele>121.2</ele><time>2026-04-28T09:54:02.676Z</time></trkpt><trkpt lat="48.4439067" lon="-4.235725"><ele>119.4</ele><time>2026-04-28T09:54:04.673Z</time></trkpt><trkpt lat="48.443965" lon="-4.2356767"><ele>117.60000000000001</ele><time>2026-04-28T09:54:06.677Z</time></trkpt><trkpt lat="48.443985" lon="-4.2355483"><ele>115.80000000000001</ele><time>2026-04-28T09:54:08.676Z</time></trkpt><trkpt lat="48.4439667" lon="-4.2353883"><ele>114.0</ele><time>2026-04-28T09:54:10.677Z</time></trkpt><trkpt lat="48.4439583" lon="-4.2352"><ele>114.0</ele><time>2026-04-28T09:54:12.679Z</time></trkpt><trkpt lat="48.443955" lon="-4.2350917"><ele>114.0</ele><time>2026-04-28T09:54:13.676Z</time></trkpt><trkpt lat="48.4439517" lon="-4.234995"><ele>114.0</ele><time>2026-04-28T09:54:14.68Z</time></trkpt><trkpt lat="48.4439633" lon="-4.2348767"><ele>114.0</ele><time>2026-04-28T09:54:23.679Z</time></trkpt><trkpt lat="48.44394" lon="-4.234985"><ele>114.0</ele><time>2026-04-28T09:55:36.677Z</time></trkpt><trkpt lat="48.4439517" lon="-4.23509"><ele>114.0</ele><time>2026-04-28T09:55:38.673Z</time></trkpt><trkpt lat="48.44396" lon="-4.2352333"><ele>114.0</ele><time>2026-04-28T09:55:40.676Z</time></trkpt><trkpt lat="48.4439733" lon="-4.23538"><ele>114.0</ele><time>2026-04-28T09:55:42.675Z</time></trkpt><trkpt lat="48.4439983" lon="-4.2355067"><ele>114.0</ele><time>2026-04-28T09:55:44.677Z</time></trkpt><trkpt lat="48.4440133" lon="-4.2356233"><ele>114.0</ele><time>2026-04-28T09:55:46.677Z</time></trkpt><trkpt lat="48.44403" lon="-4.2357367"><ele>114.0</ele><time>2026-04-28T09:55:48.68Z</time></trkpt><trkpt lat="48.44407" lon="-4.2358233"><ele>114.0</ele><time>2026-04-28T09:55:51.675Z</time></trkpt><trkpt lat="48.4441267" lon="-4.235875"><ele>113.66666666666667</ele><time>2026-04-28T09:55:53.681Z</time></trkpt><trkpt lat="48.4441917" lon="-4.2359467"><ele>113.33333333333334</ele><time>2026-04-28T09:55:55.672Z</time></trkpt><trkpt lat="48.44425" lon="-4.236035"><ele>113.0</ele><time>2026-04-28T09:55:57.678Z</time></trkpt><trkpt lat="48.4443" lon="-4.2360983"><ele>112.66666666666667</ele><time>2026-04-28T09:55:59.676Z</time></trkpt><trkpt lat="48.44437" lon="-4.2361717"><ele>112.33333333333334</ele><time>2026-04-28T09:56:01.675Z</time></trkpt><trkpt lat="48.4444283" lon="-4.2362283"><ele>112.0</ele><time>2026-04-28T09:56:03.678Z</time></trkpt><trkpt lat="48.4444883" lon="-4.23628"><ele>112.0</ele><time>2026-04-28T09:56:05.676Z</time></trkpt><trkpt lat="48.4445517" lon="-4.236335"><ele>112.0</ele><time>2026-04-28T09:56:07.681Z</time></trkpt><trkpt lat="48.444605" lon="-4.2363883"><ele>112.0</ele><time>2026-04-28T09:56:09.677Z</time></trkpt><trkpt lat="48.44468" lon="-4.236445"><ele>112.0</ele><time>2026-04-28T09:56:11.677Z</time></trkpt><trkpt lat="48.444745" lon="-4.2365"><ele>112.0</ele><time>2026-04-28T09:56:13.678Z</time></trkpt><trkpt lat="48.4448083" lon="-4.2365483"><ele>112.0</ele><time>2026-04-28T09:56:15.679Z</time></trkpt><trkpt lat="48.4448717" lon="-4.2365933"><ele>112.0</ele><time>2026-04-28T09:56:17.677Z</time></trkpt><trkpt lat="48.44495" lon="-4.236635"><ele>110.83333333333334</ele><time>2026-04-28T09:56:19.679Z</time></trkpt><trkpt lat="48.445015" lon="-4.2366783"><ele>109.66666666666667</ele><time>2026-04-28T09:56:21.674Z</time></trkpt><trkpt lat="48.445085" lon="-4.2367433"><ele>108.5</ele><time>2026-04-28T09:56:23.679Z</time></trkpt><trkpt lat="48.4451533" lon="-4.2368133"><ele>107.33333333333334</ele><time>2026-04-28T09:56:25.678Z</time></trkpt><trkpt lat="48.4452133" lon="-4.2368917"><ele>106.16666666666667</ele><time>2026-04-28T09:56:27.678Z</time></trkpt><trkpt lat="48.44527" lon="-4.236975"><ele>105.0</ele><time>2026-04-28T09:56:29.68Z</time></trkpt><trkpt lat="48.445355" lon="-4.2370633"><ele>105.0</ele><time>2026-04-28T09:56:32.683Z</time></trkpt><trkpt lat="48.4454333" lon="-4.237145"><ele>105.0</ele><time>2026-04-28T09:56:34.677Z</time></trkpt><trkpt lat="48.4455183" lon="-4.2372367"><ele>105.0</ele><time>2026-04-28T09:56:36.678Z</time></trkpt><trkpt lat="48.4456017" lon="-4.2373067"><ele>105.0</ele><time>2026-04-28T09:56:38.678Z</time></trkpt><trkpt lat="48.4456867" lon="-4.2373867"><ele>105.0</ele><time>2026-04-28T09:56:40.679Z</time></trkpt><trkpt lat="48.4457883" lon="-4.2374717"><ele>102.2</ele><time>2026-04-28T09:56:42.676Z</time></trkpt><trkpt lat="48.445905" lon="-4.2375233"><ele>99.4</ele><time>2026-04-28T09:56:44.676Z</time></trkpt><trkpt lat="48.4459683" lon="-4.2375533"><ele>96.6</ele><time>2026-04-28T09:56:45.677Z</time></trkpt><trkpt lat="48.44609" lon="-4.2376033"><ele>93.8</ele><time>2026-04-28T09:56:47.673Z</time></trkpt><trkpt lat="48.446155" lon="-4.23763"><ele>91.0</ele><time>2026-04-28T09:56:48.677Z</time></trkpt><trkpt lat="48.4462233" lon="-4.23766"><ele>91.0</ele><time>2026-04-28T09:56:49.677Z</time></trkpt><trkpt lat="48.4462917" lon="-4.2376883"><ele>91.0</ele><time>2026-04-28T09:56:50.674Z</time></trkpt><trkpt lat="48.4463617" lon="-4.2377183"><ele>91.0</ele><time>2026-04-28T09:56:51.676Z</time></trkpt><trkpt lat="48.44643" lon="-4.23776"><ele>91.0</ele><time>2026-04-28T09:56:52.676Z</time></trkpt><trkpt lat="48.4464933" lon="-4.2378117"><ele>91.0</ele><time>2026-04-28T09:56:53.675Z</time></trkpt><trkpt lat="48.446605" lon="-4.2378833"><ele>91.0</ele><time>2026-04-28T09:56:55.671Z</time></trkpt><trkpt lat="48.4466683" lon="-4.237915"><ele>88.83333333333333</ele><time>2026-04-28T09:56:56.679Z</time></trkpt><trkpt lat="48.44673" lon="-4.2379383"><ele>86.66666666666666</ele><time>2026-04-28T09:56:57.675Z</time></trkpt><trkpt lat="48.44684" lon="-4.2379717"><ele>84.5</ele><time>2026-04-28T09:56:59.674Z</time></trkpt><trkpt lat="48.4469267" lon="-4.2379883"><ele>82.33333333333333</ele><time>2026-04-28T09:57:01.677Z</time></trkpt><trkpt lat="48.4470317" lon="-4.238025"><ele>80.16666666666667</ele><time>2026-04-28T09:57:03.676Z</time></trkpt><trkpt lat="48.447095" lon="-4.2380583"><ele>78.0</ele><time>2026-04-28T09:57:04.677Z</time></trkpt><trkpt lat="48.4471583" lon="-4.238095"><ele>75.5</ele><time>2026-04-28T09:57:05.677Z</time></trkpt><trkpt lat="48.4472267" lon="-4.2381383"><ele>73.0</ele><time>2026-04-28T09:57:06.674Z</time></trkpt><trkpt lat="48.44734" lon="-4.2382467"><ele>70.5</ele><time>2026-04-28T09:57:08.678Z</time></trkpt><trkpt lat="48.4473917" lon="-4.23833"><ele>68.0</ele><time>2026-04-28T09:57:09.681Z</time></trkpt><trkpt lat="48.4474233" lon="-4.23842"><ele>65.5</ele><time>2026-04-28T09:57:10.681Z</time></trkpt><trkpt lat="48.4474567" lon="-4.2385217"><ele>63.0</ele><time>2026-04-28T09:57:11.683Z</time></trkpt><trkpt lat="48.4474817" lon="-4.23862"><ele>63.0</ele><time>2026-04-28T09:57:12.68Z</time></trkpt><trkpt lat="48.4475067" lon="-4.23872"><ele>63.0</ele><time>2026-04-28T09:57:13.676Z</time></trkpt><trkpt lat="48.4475267" lon="-4.2388217"><ele>63.0</ele><time>2026-04-28T09:57:14.68Z</time></trkpt><trkpt lat="48.4475417" lon="-4.2389217"><ele>63.0</ele><time>2026-04-28T09:57:15.678Z</time></trkpt><trkpt lat="48.447555" lon="-4.2390217"><ele>63.0</ele><time>2026-04-28T09:57:16.68Z</time></trkpt><trkpt lat="48.4475683" lon="-4.239125"><ele>63.0</ele><time>2026-04-28T09:57:17.674Z</time></trkpt><trkpt lat="48.4475833" lon="-4.239235"><ele>63.0</ele><time>2026-04-28T09:57:18.675Z</time></trkpt><trkpt lat="48.4475983" lon="-4.239345"><ele>62.0</ele><time>2026-04-28T09:57:19.674Z</time></trkpt><trkpt lat="48.4476133" lon="-4.2394533"><ele>61.0</ele><time>2026-04-28T09:57:20.673Z</time></trkpt><trkpt lat="48.4476283" lon="-4.2395583"><ele>60.0</ele><time>2026-04-28T09:57:21.676Z</time></trkpt><trkpt lat="48.44765" lon="-4.239665"><ele>59.0</ele><time>2026-04-28T09:57:22.68Z</time></trkpt><trkpt lat="48.44767" lon="-4.2397717"><ele>58.0</ele><time>2026-04-28T09:57:23.678Z</time></trkpt><trkpt lat="48.4476883" lon="-4.2398833"><ele>57.0</ele><time>2026-04-28T09:57:24.68Z</time></trkpt><trkpt lat="48.4477033" lon="-4.239995"><ele>56.0</ele><time>2026-04-28T09:57:25.679Z</time></trkpt><trkpt lat="48.4477167" lon="-4.24011"><ele>55.16666666666667</ele><time>2026-04-28T09:57:26.678Z</time></trkpt><trkpt lat="48.4477267" lon="-4.240225"><ele>54.333333333333336</ele><time>2026-04-28T09:57:27.677Z</time></trkpt><trkpt lat="48.4477383" lon="-4.24034"><ele>53.5</ele><time>2026-04-28T09:57:28.678Z</time></trkpt><trkpt lat="48.4477483" lon="-4.2404533"><ele>52.66666666666667</ele><time>2026-04-28T09:57:29.676Z</time></trkpt><trkpt lat="48.4477583" lon="-4.2405683"><ele>51.833333333333336</ele><time>2026-04-28T09:57:30.683Z</time></trkpt><trkpt lat="48.4477717" lon="-4.2406783"><ele>51.0</ele><time>2026-04-28T09:57:31.678Z</time></trkpt><trkpt lat="48.4477817" lon="-4.2407917"><ele>50.85714285714286</ele><time>2026-04-28T09:57:32.681Z</time></trkpt><trkpt lat="48.4477917" lon="-4.2409"><ele>50.714285714285715</ele><time>2026-04-28T09:57:33.678Z</time></trkpt><trkpt lat="48.4478083" lon="-4.2410083"><ele>50.57142857142857</ele><time>2026-04-28T09:57:34.674Z</time></trkpt><trkpt lat="48.4478317" lon="-4.241115"><ele>50.42857142857143</ele><time>2026-04-28T09:57:35.677Z</time></trkpt><trkpt lat="48.4478583" lon="-4.241215"><ele>50.285714285714285</ele><time>2026-04-28T09:57:36.677Z</time></trkpt><trkpt lat="48.4478883" lon="-4.2413"><ele>50.142857142857146</ele><time>2026-04-28T09:57:37.675Z</time></trkpt><trkpt lat="48.4479517" lon="-4.2413617"><ele>50.0</ele><time>2026-04-28T09:57:39.679Z</time></trkpt><trkpt lat="48.4480283" lon="-4.2412267"><ele>48.8</ele><time>2026-04-28T09:57:41.679Z</time></trkpt><trkpt lat="48.448065" lon="-4.24113"><ele>47.6</ele><time>2026-04-28T09:57:42.676Z</time></trkpt><trkpt lat="48.4481017" lon="-4.2410067"><ele>46.400000000000006</ele><time>2026-04-28T09:57:43.681Z</time></trkpt><trkpt lat="48.4481417" lon="-4.2408717"><ele>45.2</ele><time>2026-04-28T09:57:44.679Z</time></trkpt><trkpt lat="48.448185" lon="-4.24072"><ele>44.0</ele><time>2026-04-28T09:57:45.673Z</time></trkpt><trkpt lat="48.448235" lon="-4.2405583"><ele>44.0</ele><time>2026-04-28T09:57:46.679Z</time></trkpt><trkpt lat="48.44828" lon="-4.2403933"><ele>44.0</ele><time>2026-04-28T09:57:47.677Z</time></trkpt><trkpt lat="48.4483233" lon="-4.2402233"><ele>44.0</ele><time>2026-04-28T09:57:48.68Z</time></trkpt><trkpt lat="48.4483583" lon="-4.240045"><ele>44.0</ele><time>2026-04-28T09:57:49.675Z</time></trkpt><trkpt lat="48.448385" lon="-4.2398633"><ele>44.5</ele><time>2026-04-28T09:57:50.678Z</time></trkpt><trkpt lat="48.4483967" lon="-4.2396783"><ele>45.0</ele><time>2026-04-28T09:57:51.678Z</time></trkpt><trkpt lat="48.44839" lon="-4.2394933"><ele>45.5</ele><time>2026-04-28T09:57:52.677Z</time></trkpt><trkpt lat="48.4483633" lon="-4.2393133"><ele>46.0</ele><time>2026-04-28T09:57:53.678Z</time></trkpt><trkpt lat="48.448325" lon="-4.239145"><ele>46.0</ele><time>2026-04-28T09:57:54.679Z</time></trkpt><trkpt lat="48.4482767" lon="-4.2389867"><ele>46.0</ele><time>2026-04-28T09:57:55.678Z</time></trkpt><trkpt lat="48.44822" lon="-4.238835"><ele>46.0</ele><time>2026-04-28T09:57:56.676Z</time></trkpt><trkpt lat="48.44816" lon="-4.2386833"><ele>46.0</ele><time>2026-04-28T09:57:57.677Z</time></trkpt><trkpt lat="48.4480983" lon="-4.2385283"><ele>46.0</ele><time>2026-04-28T09:57:58.675Z</time></trkpt><trkpt lat="48.4480367" lon="-4.2383717"><ele>46.0</ele><time>2026-04-28T09:57:59.676Z</time></trkpt><trkpt lat="48.4479717" lon="-4.2382117"><ele>46.0</ele><time>2026-04-28T09:58:00.677Z</time></trkpt><trkpt lat="48.4479083" lon="-4.2380517"><ele>46.0</ele><time>2026-04-28T09:58:01.677Z</time></trkpt><trkpt lat="48.447865" lon="-4.23788"><ele>50.25</ele><time>2026-04-28T09:58:02.675Z</time></trkpt><trkpt lat="48.447845" lon="-4.2376967"><ele>54.5</ele><time>2026-04-28T09:58:03.674Z</time></trkpt><trkpt lat="48.4478483" lon="-4.23751"><ele>58.75</ele><time>2026-04-28T09:58:04.679Z</time></trkpt><trkpt lat="48.4478817" lon="-4.2373317"><ele>63.0</ele><time>2026-04-28T09:58:05.674Z</time></trkpt><trkpt lat="48.447945" lon="-4.2371617"><ele>61.25</ele><time>2026-04-28T09:58:06.676Z</time></trkpt><trkpt lat="48.4480283" lon="-4.237"><ele>59.5</ele><time>2026-04-28T09:58:07.679Z</time></trkpt><trkpt lat="48.4481133" lon="-4.236845"><ele>57.75</ele><time>2026-04-28T09:58:08.674Z</time></trkpt><trkpt lat="48.448205" lon="-4.23671"><ele>56.0</ele><time>2026-04-28T09:58:09.679Z</time></trkpt><trkpt lat="48.4482967" lon="-4.236575"><ele>58.75</ele><time>2026-04-28T09:58:10.676Z</time></trkpt><trkpt lat="48.4483967" lon="-4.2364333"><ele>61.5</ele><time>2026-04-28T09:58:11.682Z</time></trkpt><trkpt lat="48.4485033" lon="-4.2362883"><ele>64.25</ele><time>2026-04-28T09:58:12.675Z</time></trkpt><trkpt lat="48.44861" lon="-4.2361433"><ele>67.0</ele><time>2026-04-28T09:58:13.679Z</time></trkpt><trkpt lat="48.4487183" lon="-4.2360033"><ele>67.25</ele><time>2026-04-28T09:58:14.677Z</time></trkpt><trkpt lat="48.4488217" lon="-4.2358633"><ele>67.5</ele><time>2026-04-28T09:58:15.677Z</time></trkpt><trkpt lat="48.4489233" lon="-4.2357233"><ele>67.75</ele><time>2026-04-28T09:58:16.677Z</time></trkpt><trkpt lat="48.44902" lon="-4.235585"><ele>68.0</ele><time>2026-04-28T09:58:17.677Z</time></trkpt><trkpt lat="48.4491117" lon="-4.2354417"><ele>68.0</ele><time>2026-04-28T09:58:18.675Z</time></trkpt><trkpt lat="48.44919" lon="-4.23528"><ele>68.0</ele><time>2026-04-28T09:58:19.678Z</time></trkpt><trkpt lat="48.4492533" lon="-4.235105"><ele>68.0</ele><time>2026-04-28T09:58:20.675Z</time></trkpt><trkpt lat="48.4493083" lon="-4.234925"><ele>68.0</ele><time>2026-04-28T09:58:21.674Z</time></trkpt><trkpt lat="48.4493483" lon="-4.23474"><ele>68.5</ele><time>2026-04-28T09:58:22.674Z</time></trkpt><trkpt lat="48.4493633" lon="-4.2345517"><ele>69.0</ele><time>2026-04-28T09:58:23.675Z</time></trkpt><trkpt lat="48.4493433" lon="-4.2343617"><ele>69.5</ele><time>2026-04-28T09:58:24.673Z</time></trkpt><trkpt lat="48.4493067" lon="-4.2341867"><ele>70.0</ele><time>2026-04-28T09:58:25.674Z</time></trkpt><trkpt lat="48.4492517" lon="-4.2340317"><ele>69.83333333333333</ele><time>2026-04-28T09:58:26.681Z</time></trkpt><trkpt lat="48.449185" lon="-4.2339033"><ele>69.66666666666666</ele><time>2026-04-28T09:58:27.676Z</time></trkpt><trkpt lat="48.4491133" lon="-4.2338117"><ele>69.5</ele><time>2026-04-28T09:58:28.682Z</time></trkpt><trkpt lat="48.4490433" lon="-4.2337533"><ele>69.33333333333333</ele><time>2026-04-28T09:58:29.675Z</time></trkpt><trkpt lat="48.4489717" lon="-4.233725"><ele>69.16666666666667</ele><time>2026-04-28T09:58:30.676Z</time></trkpt><trkpt lat="48.4489017" lon="-4.2337167"><ele>69.0</ele><time>2026-04-28T09:58:31.675Z</time></trkpt><trkpt lat="48.4488317" lon="-4.2337067"><ele>70.60000000000001</ele><time>2026-04-28T09:58:32.676Z</time></trkpt><trkpt lat="48.4487533" lon="-4.233705"><ele>72.2</ele><time>2026-04-28T09:58:33.674Z</time></trkpt><trkpt lat="48.4486617" lon="-4.23372"><ele>73.80000000000001</ele><time>2026-04-28T09:58:34.678Z</time></trkpt><trkpt lat="48.4485633" lon="-4.2337433"><ele>75.4</ele><time>2026-04-28T09:58:35.677Z</time></trkpt><trkpt lat="48.4484683" lon="-4.2337717"><ele>77.0</ele><time>2026-04-28T09:58:36.68Z</time></trkpt><trkpt lat="48.448365" lon="-4.23381"><ele>77.0</ele><time>2026-04-28T09:58:37.677Z</time></trkpt><trkpt lat="48.4482567" lon="-4.2338617"><ele>77.0</ele><time>2026-04-28T09:58:38.674Z</time></trkpt><trkpt lat="48.44815" lon="-4.233925"><ele>77.0</ele><time>2026-04-28T09:58:39.679Z</time></trkpt><trkpt lat="48.4480467" lon="-4.2339983"><ele>77.0</ele><time>2026-04-28T09:58:40.676Z</time></trkpt><trkpt lat="48.4479467" lon="-4.2340667"><ele>77.6</ele><time>2026-04-28T09:58:41.679Z</time></trkpt><trkpt lat="48.4478517" lon="-4.234135"><ele>78.2</ele><time>2026-04-28T09:58:42.685Z</time></trkpt><trkpt lat="48.4477617" lon="-4.23421"><ele>78.8</ele><time>2026-04-28T09:58:43.679Z</time></trkpt><trkpt lat="48.4476817" lon="-4.2342933"><ele>79.4</ele><time>2026-04-28T09:58:44.675Z</time></trkpt><trkpt lat="48.4476" lon="-4.2343817"><ele>80.0</ele><time>2026-04-28T09:58:45.678Z</time></trkpt><trkpt lat="48.4474983" lon="-4.2344517"><ele>80.0</ele><time>2026-04-28T09:58:46.674Z</time></trkpt><trkpt lat="48.4473767" lon="-4.2345067"><ele>80.0</ele><time>2026-04-28T09:58:47.681Z</time></trkpt><trkpt lat="48.44725" lon="-4.2345783"><ele>80.0</ele><time>2026-04-28T09:58:48.678Z</time></trkpt><trkpt lat="48.4471167" lon="-4.2346767"><ele>80.0</ele><time>2026-04-28T09:58:49.678Z</time></trkpt><trkpt lat="48.4469833" lon="-4.234765"><ele>80.0</ele><time>2026-04-28T09:58:50.676Z</time></trkpt><trkpt lat="48.4468533" lon="-4.2348283"><ele>80.0</ele><time>2026-04-28T09:58:51.68Z</time></trkpt><trkpt lat="48.4467183" lon="-4.2348567"><ele>80.0</ele><time>2026-04-28T09:58:52.674Z</time></trkpt><trkpt lat="48.446585" lon="-4.2348417"><ele>80.0</ele><time>2026-04-28T09:58:53.675Z</time></trkpt><trkpt lat="48.446455" lon="-4.2347833"><ele>81.0</ele><time>2026-04-28T09:58:54.678Z</time></trkpt><trkpt lat="48.4463333" lon="-4.2346917"><ele>82.0</ele><time>2026-04-28T09:58:55.674Z</time></trkpt><trkpt lat="48.44622" lon="-4.2345683"><ele>83.0</ele><time>2026-04-28T09:58:56.675Z</time></trkpt><trkpt lat="48.4461233" lon="-4.23442"><ele>84.0</ele><time>2026-04-28T09:58:57.678Z</time></trkpt><trkpt lat="48.4460467" lon="-4.2342467"><ele>86.5</ele><time>2026-04-28T09:58:58.677Z</time></trkpt><trkpt lat="48.44599" lon="-4.23406"><ele>89.0</ele><time>2026-04-28T09:58:59.675Z</time></trkpt><trkpt lat="48.4459583" lon="-4.23387"><ele>91.5</ele><time>2026-04-28T09:59:00.673Z</time></trkpt><trkpt lat="48.4459617" lon="-4.2336767"><ele>94.0</ele><time>2026-04-28T09:59:01.68Z</time></trkpt><trkpt lat="48.4459867" lon="-4.2334783"><ele>94.75</ele><time>2026-04-28T09:59:02.677Z</time></trkpt><trkpt lat="48.4460217" lon="-4.23328"><ele>95.5</ele><time>2026-04-28T09:59:03.676Z</time></trkpt><trkpt lat="48.4460583" lon="-4.2330783"><ele>96.25</ele><time>2026-04-28T09:59:04.674Z</time></trkpt><trkpt lat="48.446095" lon="-4.2328767"><ele>97.0</ele><time>2026-04-28T09:59:05.677Z</time></trkpt><trkpt lat="48.4461317" lon="-4.2326783"><ele>98.5</ele><time>2026-04-28T09:59:06.681Z</time></trkpt><trkpt lat="48.4461583" lon="-4.2324917"><ele>100.0</ele><time>2026-04-28T09:59:07.677Z</time></trkpt><trkpt lat="48.4461833" lon="-4.2323183"><ele>101.5</ele><time>2026-04-28T09:59:08.679Z</time></trkpt><trkpt lat="48.44621" lon="-4.23216"><ele>103.0</ele><time>2026-04-28T09:59:09.676Z</time></trkpt><trkpt lat="48.4462233" lon="-4.2320117"><ele>103.0</ele><time>2026-04-28T09:59:10.676Z</time></trkpt><trkpt lat="48.4462333" lon="-4.231875"><ele>103.0</ele><time>2026-04-28T09:59:11.674Z</time></trkpt><trkpt lat="48.446235" lon="-4.2317533"><ele>103.0</ele><time>2026-04-28T09:59:12.677Z</time></trkpt><trkpt lat="48.4462283" lon="-4.2316417"><ele>103.0</ele><time>2026-04-28T09:59:13.674Z</time></trkpt><trkpt lat="48.44626" lon="-4.2314867"><ele>103.0</ele><time>2026-04-28T09:59:15.679Z</time></trkpt><trkpt lat="48.446355" lon="-4.2314383"><ele>103.0</ele><time>2026-04-28T09:59:17.672Z</time></trkpt><trkpt lat="48.4464333" lon="-4.2313567"><ele>103.0</ele><time>2026-04-28T09:59:19.678Z</time></trkpt><trkpt lat="48.44651" lon="-4.2313017"><ele>103.0</ele><time>2026-04-28T09:59:21.676Z</time></trkpt><trkpt lat="48.4465917" lon="-4.2313017"><ele>103.0</ele><time>2026-04-28T09:59:23.677Z</time></trkpt><trkpt lat="48.44671" lon="-4.2313533"><ele>103.0</ele><time>2026-04-28T09:59:25.674Z</time></trkpt><trkpt lat="48.4467767" lon="-4.2313783"><ele>103.0</ele><time>2026-04-28T09:59:26.676Z</time></trkpt><trkpt lat="48.4468983" lon="-4.2314067"><ele>103.0</ele><time>2026-04-28T09:59:28.674Z</time></trkpt><trkpt lat="48.447015" lon="-4.231455"><ele>103.0</ele><time>2026-04-28T09:59:30.676Z</time></trkpt><trkpt lat="48.447115" lon="-4.2314917"><ele>103.0</ele><time>2026-04-28T09:59:32.677Z</time></trkpt><trkpt lat="48.4472" lon="-4.2315333"><ele>103.0</ele><time>2026-04-28T09:59:34.676Z</time></trkpt><trkpt lat="48.44729" lon="-4.2315933"><ele>100.83333333333334</ele><time>2026-04-28T09:59:36.678Z</time></trkpt><trkpt lat="48.4473733" lon="-4.231655"><ele>98.66666666666667</ele><time>2026-04-28T09:59:38.676Z</time></trkpt><trkpt lat="48.4474367" lon="-4.231695"><ele>96.5</ele><time>2026-04-28T09:59:39.677Z</time></trkpt><trkpt lat="48.4475" lon="-4.231745"><ele>94.33333333333334</ele><time>2026-04-28T09:59:40.675Z</time></trkpt><trkpt lat="48.447575" lon="-4.23178"><ele>92.16666666666667</ele><time>2026-04-28T09:59:42.677Z</time></trkpt><trkpt lat="48.4476567" lon="-4.2318333"><ele>90.0</ele><time>2026-04-28T09:59:44.675Z</time></trkpt><trkpt lat="48.4477467" lon="-4.231855"><ele>90.0</ele><time>2026-04-28T09:59:46.679Z</time></trkpt><trkpt lat="48.4478517" lon="-4.2318417"><ele>90.0</ele><time>2026-04-28T09:59:48.68Z</time></trkpt><trkpt lat="48.4479617" lon="-4.231815"><ele>90.0</ele><time>2026-04-28T09:59:50.675Z</time></trkpt><trkpt lat="48.44803" lon="-4.2318067"><ele>90.0</ele><time>2026-04-28T09:59:51.678Z</time></trkpt><trkpt lat="48.4480933" lon="-4.231795"><ele>90.0</ele><time>2026-04-28T09:59:52.677Z</time></trkpt><trkpt lat="48.4481583" lon="-4.2317933"><ele>90.0</ele><time>2026-04-28T09:59:53.677Z</time></trkpt><trkpt lat="48.44828" lon="-4.231795"><ele>88.5</ele><time>2026-04-28T09:59:55.673Z</time></trkpt><trkpt lat="48.448415" lon="-4.2318"><ele>87.0</ele><time>2026-04-28T09:59:57.674Z</time></trkpt><trkpt lat="48.44854" lon="-4.2318233"><ele>85.5</ele><time>2026-04-28T09:59:59.678Z</time></trkpt><trkpt lat="48.4486033" lon="-4.2318417"><ele>84.0</ele><time>2026-04-28T10:00:00.68Z</time></trkpt><trkpt lat="48.4487317" lon="-4.23189"><ele>83.42857142857143</ele><time>2026-04-28T10:00:02.681Z</time></trkpt><trkpt lat="48.4488" lon="-4.231915"><ele>82.85714285714286</ele><time>2026-04-28T10:00:03.675Z</time></trkpt><trkpt lat="48.4488683" lon="-4.231945"><ele>82.28571428571428</ele><time>2026-04-28T10:00:04.673Z</time></trkpt><trkpt lat="48.4489367" lon="-4.2319717"><ele>81.71428571428572</ele><time>2026-04-28T10:00:05.673Z</time></trkpt><trkpt lat="48.4490033" lon="-4.2319967"><ele>81.14285714285714</ele><time>2026-04-28T10:00:06.675Z</time></trkpt><trkpt lat="48.44907" lon="-4.2320233"><ele>80.57142857142857</ele><time>2026-04-28T10:00:07.679Z</time></trkpt><trkpt lat="48.4491383" lon="-4.2320483"><ele>80.0</ele><time>2026-04-28T10:00:08.673Z</time></trkpt><trkpt lat="48.4492083" lon="-4.232065"><ele>80.0</ele><time>2026-04-28T10:00:09.676Z</time></trkpt><trkpt lat="48.4492767" lon="-4.23208"><ele>80.0</ele><time>2026-04-28T10:00:10.673Z</time></trkpt><trkpt lat="48.4493433" lon="-4.2320867"><ele>80.0</ele><time>2026-04-28T10:00:11.684Z</time></trkpt><trkpt lat="48.4494083" lon="-4.232085"><ele>80.0</ele><time>2026-04-28T10:00:12.678Z</time></trkpt><trkpt lat="48.449485" lon="-4.2320833"><ele>80.0</ele><time>2026-04-28T10:00:13.674Z</time></trkpt><trkpt lat="48.4495617" lon="-4.232085"><ele>80.0</ele><time>2026-04-28T10:00:14.676Z</time></trkpt><trkpt lat="48.4496317" lon="-4.2320833"><ele>80.0</ele><time>2026-04-28T10:00:15.679Z</time></trkpt><trkpt lat="48.449705" lon="-4.2320933"><ele>78.8</ele><time>2026-04-28T10:00:16.68Z</time></trkpt><trkpt lat="48.449775" lon="-4.2321017"><ele>77.6</ele><time>2026-04-28T10:00:17.674Z</time></trkpt><trkpt lat="48.449845" lon="-4.232115"><ele>76.4</ele><time>2026-04-28T10:00:18.674Z</time></trkpt><trkpt lat="48.4499617" lon="-4.2321217"><ele>75.2</ele><time>2026-04-28T10:00:20.676Z</time></trkpt><trkpt lat="48.4500783" lon="-4.2320833"><ele>74.0</ele><time>2026-04-28T10:00:22.679Z</time></trkpt><trkpt lat="48.45016" lon="-4.23205"><ele>74.0</ele><time>2026-04-28T10:00:24.672Z</time></trkpt><trkpt lat="48.4502233" lon="-4.2320133"><ele>74.0</ele><time>2026-04-28T10:00:26.675Z</time></trkpt><trkpt lat="48.450285" lon="-4.231965"><ele>74.0</ele><time>2026-04-28T10:00:28.677Z</time></trkpt><trkpt lat="48.450415" lon="-4.23183"><ele>74.0</ele><time>2026-04-28T10:00:59.675Z</time></trkpt><trkpt lat="48.4504017" lon="-4.2317283"><ele>74.0</ele><time>2026-04-28T10:01:01.675Z</time></trkpt><trkpt lat="48.4503717" lon="-4.23161"><ele>74.0</ele><time>2026-04-28T10:01:04.682Z</time></trkpt><trkpt lat="48.450345" lon="-4.23149"><ele>76.0</ele><time>2026-04-28T10:01:06.675Z</time></trkpt><trkpt lat="48.4503467" lon="-4.231385"><ele>78.0</ele><time>2026-04-28T10:01:08.678Z</time></trkpt><trkpt lat="48.4503917" lon="-4.231255"><ele>80.0</ele><time>2026-04-28T10:01:10.676Z</time></trkpt><trkpt lat="48.450475" lon="-4.2311283"><ele>82.0</ele><time>2026-04-28T10:01:12.676Z</time></trkpt><trkpt lat="48.450515" lon="-4.2310517"><ele>84.0</ele><time>2026-04-28T10:01:13.674Z</time></trkpt><trkpt lat="48.4505967" lon="-4.2309467"><ele>84.0</ele><time>2026-04-28T10:01:15.674Z</time></trkpt><trkpt lat="48.4506733" lon="-4.2308233"><ele>84.0</ele><time>2026-04-28T10:01:17.674Z</time></trkpt><trkpt lat="48.4507217" lon="-4.230725"><ele>84.0</ele><time>2026-04-28T10:01:18.676Z</time></trkpt><trkpt lat="48.4507683" lon="-4.2306333"><ele>84.0</ele><time>2026-04-28T10:01:19.676Z</time></trkpt><trkpt lat="48.4508183" lon="-4.2305483"><ele>84.0</ele><time>2026-04-28T10:01:20.681Z</time></trkpt><trkpt lat="48.4508567" lon="-4.23046"><ele>84.0</ele><time>2026-04-28T10:01:21.678Z</time></trkpt><trkpt lat="48.4508933" lon="-4.2303817"><ele>85.80000000000001</ele><time>2026-04-28T10:01:22.677Z</time></trkpt><trkpt lat="48.4509417" lon="-4.230265"><ele>87.60000000000001</ele><time>2026-04-28T10:01:24.676Z</time></trkpt><trkpt lat="48.4509433" lon="-4.2301483"><ele>89.4</ele><time>2026-04-28T10:01:27.675Z</time></trkpt><trkpt lat="48.4508683" lon="-4.2300883"><ele>91.2</ele><time>2026-04-28T10:01:30.674Z</time></trkpt><trkpt lat="48.4507567" lon="-4.230015"><ele>93.0</ele><time>2026-04-28T10:01:32.674Z</time></trkpt><trkpt lat="48.450655" lon="-4.22994"><ele>93.0</ele><time>2026-04-28T10:01:34.674Z</time></trkpt><trkpt lat="48.4505483" lon="-4.22986"><ele>93.0</ele><time>2026-04-28T10:01:36.676Z</time></trkpt><trkpt lat="48.4504883" lon="-4.2298217"><ele>93.0</ele><time>2026-04-28T10:01:37.68Z</time></trkpt><trkpt lat="48.4504283" lon="-4.2297833"><ele>93.0</ele><time>2026-04-28T10:01:38.673Z</time></trkpt><trkpt lat="48.4503233" lon="-4.2297083"><ele>93.0</ele><time>2026-04-28T10:01:40.675Z</time></trkpt><trkpt lat="48.4502417" lon="-4.229655"><ele>93.83333333333333</ele><time>2026-04-28T10:01:42.673Z</time></trkpt><trkpt lat="48.4502217" lon="-4.2295333"><ele>94.66666666666666</ele><time>2026-04-28T10:01:46.675Z</time></trkpt><trkpt lat="48.45026" lon="-4.2294"><ele>95.5</ele><time>2026-04-28T10:01:48.674Z</time></trkpt><trkpt lat="48.450285" lon="-4.2293067"><ele>96.33333333333333</ele><time>2026-04-28T10:01:50.674Z</time></trkpt><trkpt lat="48.4502967" lon="-4.2291933"><ele>97.16666666666666</ele><time>2026-04-28T10:01:52.673Z</time></trkpt><trkpt lat="48.4502583" lon="-4.2290633"><ele>98.0</ele><time>2026-04-28T10:01:54.676Z</time></trkpt><trkpt lat="48.4502217" lon="-4.2289667"><ele>103.0</ele><time>2026-04-28T10:01:56.678Z</time></trkpt><trkpt lat="48.450245" lon="-4.2288767"><ele>103.0</ele><time>2026-04-28T10:01:58.675Z</time></trkpt><trkpt lat="48.4503367" lon="-4.2288083"><ele>103.0</ele><time>2026-04-28T10:02:00.675Z</time></trkpt><trkpt lat="48.4504017" lon="-4.2287683"><ele>103.0</ele><time>2026-04-28T10:02:02.673Z</time></trkpt><trkpt lat="48.4504733" lon="-4.2287233"><ele>103.0</ele><time>2026-04-28T10:02:05.672Z</time></trkpt><trkpt lat="48.4505333" lon="-4.2286767"><ele>103.0</ele><time>2026-04-28T10:02:08.676Z</time></trkpt></trkseg></trk></gpx>